<?xml version="1.0" encoding="UTF-8" standalone="no" ?>
<gpx xmlns="http://www.topografix.com/GPX/1/1" xmlns:xsi="http://www.w3.org/2001/XMLSchema-instance" xsi:schemaLocation="http://www.topografix.com/GPX/1/1 http://www.topografix.com/GPX/1/1/gpx.xsd" version="1.1" creator="VisuGPX - https://www.visugpx.com">
  <metadata>
    <name>MB. Sortie du 01/12/2019</name>
    <desc><![CDATA[Sortie VTT du dimanche 01 décembre 2019]]></desc>
  </metadata>
  <trk>
    <name><![CDATA[Pornichet Cyclisme]]></name>
    <trkseg>
      <trkpt lat="47.26407" lon="-2.31564">
        <ele>4</ele>
        <time>2019-12-01T07:56:11.000Z</time>
      </trkpt>
      <trkpt lat="47.26408" lon="-2.31578">
        <ele>4</ele>
        <time>2019-12-01T07:56:14.000Z</time>
      </trkpt>
      <trkpt lat="47.26408" lon="-2.31583">
        <ele>4.4000000953674</ele>
        <time>2019-12-01T07:56:15.000Z</time>
      </trkpt>
      <trkpt lat="47.26408" lon="-2.31588">
        <ele>4.4000000953674</ele>
        <time>2019-12-01T07:56:16.000Z</time>
      </trkpt>
      <trkpt lat="47.26408" lon="-2.31622">
        <ele>4.4000000953674</ele>
        <time>2019-12-01T07:56:22.000Z</time>
      </trkpt>
      <trkpt lat="47.2641" lon="-2.31653">
        <ele>4.4000000953674</ele>
        <time>2019-12-01T07:56:28.000Z</time>
      </trkpt>
      <trkpt lat="47.26407" lon="-2.31665">
        <ele>4.4000000953674</ele>
        <time>2019-12-01T07:56:31.000Z</time>
      </trkpt>
      <trkpt lat="47.26404" lon="-2.31666">
        <ele>4.4000000953674</ele>
        <time>2019-12-01T07:56:32.000Z</time>
      </trkpt>
      <trkpt lat="47.26396" lon="-2.31669">
        <ele>4</ele>
        <time>2019-12-01T07:56:34.000Z</time>
      </trkpt>
      <trkpt lat="47.26392" lon="-2.31671">
        <ele>3.5999999046326</ele>
        <time>2019-12-01T07:56:35.000Z</time>
      </trkpt>
      <trkpt lat="47.26388" lon="-2.31673">
        <ele>2.7999999523163</ele>
        <time>2019-12-01T07:56:36.000Z</time>
      </trkpt>
      <trkpt lat="47.26383" lon="-2.31675">
        <ele>2.4000000953674</ele>
        <time>2019-12-01T07:56:37.000Z</time>
      </trkpt>
      <trkpt lat="47.26355" lon="-2.3169">
        <ele>2.4000000953674</ele>
        <time>2019-12-01T07:56:43.000Z</time>
      </trkpt>
      <trkpt lat="47.26351" lon="-2.31693">
        <ele>2.4000000953674</ele>
        <time>2019-12-01T07:56:44.000Z</time>
      </trkpt>
      <trkpt lat="47.26332" lon="-2.31703">
        <ele>2.4000000953674</ele>
        <time>2019-12-01T07:56:48.000Z</time>
      </trkpt>
      <trkpt lat="47.26328" lon="-2.31705">
        <ele>1.7999999523163</ele>
        <time>2019-12-01T07:56:49.000Z</time>
      </trkpt>
      <trkpt lat="47.26323" lon="-2.31708">
        <ele>1.3999999761581</ele>
        <time>2019-12-01T07:56:50.000Z</time>
      </trkpt>
      <trkpt lat="47.26319" lon="-2.3171">
        <ele>1</ele>
        <time>2019-12-01T07:56:51.000Z</time>
      </trkpt>
      <trkpt lat="47.26314" lon="-2.31713">
        <ele>0.60000002384186</ele>
        <time>2019-12-01T07:56:52.000Z</time>
      </trkpt>
      <trkpt lat="47.2631" lon="-2.31715">
        <ele>0.20000000298023</ele>
        <time>2019-12-01T07:56:53.000Z</time>
      </trkpt>
      <trkpt lat="47.26307" lon="-2.31717">
        <ele>0.20000000298023</ele>
        <time>2019-12-01T07:56:54.000Z</time>
      </trkpt>
      <trkpt lat="47.26303" lon="-2.31726">
        <ele>0.20000000298023</ele>
        <time>2019-12-01T07:56:55.000Z</time>
      </trkpt>
      <trkpt lat="47.26303" lon="-2.31726">
        <ele>0.20000000298023</ele>
        <time>2019-12-01T07:56:56.000Z</time>
      </trkpt>
      <trkpt lat="47.26303" lon="-2.31731">
        <ele>0.20000000298023</ele>
        <time>2019-12-01T07:56:57.000Z</time>
      </trkpt>
      <trkpt lat="47.26303" lon="-2.31736">
        <ele>-0.20000000298023</ele>
        <time>2019-12-01T07:56:58.000Z</time>
      </trkpt>
      <trkpt lat="47.26303" lon="-2.31742">
        <ele>-0.60000002384186</ele>
        <time>2019-12-01T07:56:59.000Z</time>
      </trkpt>
      <trkpt lat="47.26304" lon="-2.31748">
        <ele>-1.3999999761581</ele>
        <time>2019-12-01T07:57:00.000Z</time>
      </trkpt>
      <trkpt lat="47.26305" lon="-2.31754">
        <ele>-1.7999999523163</ele>
        <time>2019-12-01T07:57:01.000Z</time>
      </trkpt>
      <trkpt lat="47.26306" lon="-2.31766">
        <ele>-1.7999999523163</ele>
        <time>2019-12-01T07:57:03.000Z</time>
      </trkpt>
      <trkpt lat="47.26306" lon="-2.31778">
        <ele>-1.7999999523163</ele>
        <time>2019-12-01T07:57:05.000Z</time>
      </trkpt>
      <trkpt lat="47.26307" lon="-2.31788">
        <ele>-1.7999999523163</ele>
        <time>2019-12-01T07:57:07.000Z</time>
      </trkpt>
      <trkpt lat="47.26308" lon="-2.31811">
        <ele>-1.7999999523163</ele>
        <time>2019-12-01T07:57:11.000Z</time>
      </trkpt>
      <trkpt lat="47.26307" lon="-2.31835">
        <ele>-1.7999999523163</ele>
        <time>2019-12-01T07:57:15.000Z</time>
      </trkpt>
      <trkpt lat="47.26306" lon="-2.31842">
        <ele>-1.7999999523163</ele>
        <time>2019-12-01T07:57:16.000Z</time>
      </trkpt>
      <trkpt lat="47.26303" lon="-2.31867">
        <ele>-1.7999999523163</ele>
        <time>2019-12-01T07:57:21.000Z</time>
      </trkpt>
      <trkpt lat="47.263" lon="-2.31882">
        <ele>-1.7999999523163</ele>
        <time>2019-12-01T07:57:25.000Z</time>
      </trkpt>
      <trkpt lat="47.26296" lon="-2.31887">
        <ele>-1.7999999523163</ele>
        <time>2019-12-01T07:57:27.000Z</time>
      </trkpt>
      <trkpt lat="47.26292" lon="-2.31891">
        <ele>-1.7999999523163</ele>
        <time>2019-12-01T07:57:29.000Z</time>
      </trkpt>
      <trkpt lat="47.26276" lon="-2.31909">
        <ele>-1.7999999523163</ele>
        <time>2019-12-01T07:57:35.000Z</time>
      </trkpt>
      <trkpt lat="47.26273" lon="-2.31914">
        <ele>-1.7999999523163</ele>
        <time>2019-12-01T07:57:37.000Z</time>
      </trkpt>
      <trkpt lat="47.2627" lon="-2.31919">
        <ele>-1.7999999523163</ele>
        <time>2019-12-01T07:57:39.000Z</time>
      </trkpt>
      <trkpt lat="47.26261" lon="-2.31933">
        <ele>-1.7999999523163</ele>
        <time>2019-12-01T07:57:44.000Z</time>
      </trkpt>
      <trkpt lat="47.26257" lon="-2.31946">
        <ele>-1.7999999523163</ele>
        <time>2019-12-01T07:57:48.000Z</time>
      </trkpt>
      <trkpt lat="47.26248" lon="-2.31967">
        <ele>-1.7999999523163</ele>
        <time>2019-12-01T07:57:53.000Z</time>
      </trkpt>
      <trkpt lat="47.26245" lon="-2.31969">
        <ele>-1.7999999523163</ele>
        <time>2019-12-01T07:57:54.000Z</time>
      </trkpt>
      <trkpt lat="47.26238" lon="-2.31968">
        <ele>-1.7999999523163</ele>
        <time>2019-12-01T07:57:57.000Z</time>
      </trkpt>
      <trkpt lat="47.26233" lon="-2.31973">
        <ele>-1.7999999523163</ele>
        <time>2019-12-01T07:58:01.000Z</time>
      </trkpt>
      <trkpt lat="47.26226" lon="-2.31981">
        <ele>-1.7999999523163</ele>
        <time>2019-12-01T07:58:06.000Z</time>
      </trkpt>
      <trkpt lat="47.26223" lon="-2.31984">
        <ele>-1.7999999523163</ele>
        <time>2019-12-01T07:58:09.000Z</time>
      </trkpt>
      <trkpt lat="47.26216" lon="-2.31993">
        <ele>-1.7999999523163</ele>
        <time>2019-12-01T07:58:12.000Z</time>
      </trkpt>
      <trkpt lat="47.26211" lon="-2.32002">
        <ele>-1.7999999523163</ele>
        <time>2019-12-01T07:58:14.000Z</time>
      </trkpt>
      <trkpt lat="47.26208" lon="-2.32012">
        <ele>-1.7999999523163</ele>
        <time>2019-12-01T07:58:17.000Z</time>
      </trkpt>
      <trkpt lat="47.26197" lon="-2.3202">
        <ele>-1.7999999523163</ele>
        <time>2019-12-01T07:58:21.000Z</time>
      </trkpt>
      <trkpt lat="47.26186" lon="-2.3202">
        <ele>-1.7999999523163</ele>
        <time>2019-12-01T07:58:25.000Z</time>
      </trkpt>
      <trkpt lat="47.26183" lon="-2.32021">
        <ele>-1.7999999523163</ele>
        <time>2019-12-01T07:58:26.000Z</time>
      </trkpt>
      <trkpt lat="47.26166" lon="-2.32032">
        <ele>-1.7999999523163</ele>
        <time>2019-12-01T07:58:31.000Z</time>
      </trkpt>
      <trkpt lat="47.26155" lon="-2.32051">
        <ele>-1.7999999523163</ele>
        <time>2019-12-01T07:58:35.000Z</time>
      </trkpt>
      <trkpt lat="47.26154" lon="-2.32057">
        <ele>-1.7999999523163</ele>
        <time>2019-12-01T07:58:36.000Z</time>
      </trkpt>
      <trkpt lat="47.26143" lon="-2.32091">
        <ele>-1.7999999523163</ele>
        <time>2019-12-01T07:58:42.000Z</time>
      </trkpt>
      <trkpt lat="47.26132" lon="-2.32125">
        <ele>-1.7999999523163</ele>
        <time>2019-12-01T07:58:48.000Z</time>
      </trkpt>
      <trkpt lat="47.26131" lon="-2.32131">
        <ele>-1.7999999523163</ele>
        <time>2019-12-01T07:58:49.000Z</time>
      </trkpt>
      <trkpt lat="47.26122" lon="-2.32154">
        <ele>-1.7999999523163</ele>
        <time>2019-12-01T07:58:53.000Z</time>
      </trkpt>
      <trkpt lat="47.2612" lon="-2.3216">
        <ele>-1.7999999523163</ele>
        <time>2019-12-01T07:58:54.000Z</time>
      </trkpt>
      <trkpt lat="47.26118" lon="-2.32166">
        <ele>-1.7999999523163</ele>
        <time>2019-12-01T07:58:55.000Z</time>
      </trkpt>
      <trkpt lat="47.26111" lon="-2.32183">
        <ele>-1.7999999523163</ele>
        <time>2019-12-01T07:58:58.000Z</time>
      </trkpt>
      <trkpt lat="47.26096" lon="-2.32213">
        <ele>-1.7999999523163</ele>
        <time>2019-12-01T07:59:04.000Z</time>
      </trkpt>
      <trkpt lat="47.26087" lon="-2.32227">
        <ele>-1.7999999523163</ele>
        <time>2019-12-01T07:59:07.000Z</time>
      </trkpt>
      <trkpt lat="47.26077" lon="-2.3224">
        <ele>-1.7999999523163</ele>
        <time>2019-12-01T07:59:10.000Z</time>
      </trkpt>
      <trkpt lat="47.26074" lon="-2.32244">
        <ele>-1.7999999523163</ele>
        <time>2019-12-01T07:59:11.000Z</time>
      </trkpt>
      <trkpt lat="47.26067" lon="-2.32253">
        <ele>-1.7999999523163</ele>
        <time>2019-12-01T07:59:13.000Z</time>
      </trkpt>
      <trkpt lat="47.2606" lon="-2.3226">
        <ele>-1.7999999523163</ele>
        <time>2019-12-01T07:59:15.000Z</time>
      </trkpt>
      <trkpt lat="47.26038" lon="-2.32286">
        <ele>-1.7999999523163</ele>
        <time>2019-12-01T07:59:21.000Z</time>
      </trkpt>
      <trkpt lat="47.26009" lon="-2.32321">
        <ele>-1.7999999523163</ele>
        <time>2019-12-01T07:59:29.000Z</time>
      </trkpt>
      <trkpt lat="47.25984" lon="-2.32354">
        <ele>-1.7999999523163</ele>
        <time>2019-12-01T07:59:36.000Z</time>
      </trkpt>
      <trkpt lat="47.2595" lon="-2.32398">
        <ele>-1.7999999523163</ele>
        <time>2019-12-01T07:59:46.000Z</time>
      </trkpt>
      <trkpt lat="47.25916" lon="-2.3244">
        <ele>-1.7999999523163</ele>
        <time>2019-12-01T07:59:56.000Z</time>
      </trkpt>
      <trkpt lat="47.25893" lon="-2.32466">
        <ele>-1.7999999523163</ele>
        <time>2019-12-01T08:00:03.000Z</time>
      </trkpt>
      <trkpt lat="47.25868" lon="-2.32476">
        <ele>-1.7999999523163</ele>
        <time>2019-12-01T08:00:09.000Z</time>
      </trkpt>
      <trkpt lat="47.25845" lon="-2.32474">
        <ele>-1.7999999523163</ele>
        <time>2019-12-01T08:00:14.000Z</time>
      </trkpt>
      <trkpt lat="47.2584" lon="-2.32473">
        <ele>-1.7999999523163</ele>
        <time>2019-12-01T08:00:15.000Z</time>
      </trkpt>
      <trkpt lat="47.25831" lon="-2.32469">
        <ele>-1.7999999523163</ele>
        <time>2019-12-01T08:00:17.000Z</time>
      </trkpt>
      <trkpt lat="47.25818" lon="-2.32463">
        <ele>-1.7999999523163</ele>
        <time>2019-12-01T08:00:20.000Z</time>
      </trkpt>
      <trkpt lat="47.25814" lon="-2.32461">
        <ele>-1.7999999523163</ele>
        <time>2019-12-01T08:00:21.000Z</time>
      </trkpt>
      <trkpt lat="47.2581" lon="-2.32459">
        <ele>-1.7999999523163</ele>
        <time>2019-12-01T08:00:22.000Z</time>
      </trkpt>
      <trkpt lat="47.25799" lon="-2.32458">
        <ele>-1.7999999523163</ele>
        <time>2019-12-01T08:00:25.000Z</time>
      </trkpt>
      <trkpt lat="47.25784" lon="-2.32458">
        <ele>-1.7999999523163</ele>
        <time>2019-12-01T08:00:29.000Z</time>
      </trkpt>
      <trkpt lat="47.25781" lon="-2.32455">
        <ele>-1.7999999523163</ele>
        <time>2019-12-01T08:00:30.000Z</time>
      </trkpt>
      <trkpt lat="47.2577" lon="-2.32436">
        <ele>-1.7999999523163</ele>
        <time>2019-12-01T08:00:34.000Z</time>
      </trkpt>
      <trkpt lat="47.25767" lon="-2.32432">
        <ele>-1.7999999523163</ele>
        <time>2019-12-01T08:00:35.000Z</time>
      </trkpt>
      <trkpt lat="47.25754" lon="-2.32428">
        <ele>-1.7999999523163</ele>
        <time>2019-12-01T08:00:38.000Z</time>
      </trkpt>
      <trkpt lat="47.25744" lon="-2.32427">
        <ele>-1.7999999523163</ele>
        <time>2019-12-01T08:00:40.000Z</time>
      </trkpt>
      <trkpt lat="47.25724" lon="-2.32427">
        <ele>-1.7999999523163</ele>
        <time>2019-12-01T08:00:44.000Z</time>
      </trkpt>
      <trkpt lat="47.25714" lon="-2.32427">
        <ele>-1.7999999523163</ele>
        <time>2019-12-01T08:00:46.000Z</time>
      </trkpt>
      <trkpt lat="47.25694" lon="-2.32425">
        <ele>-1.7999999523163</ele>
        <time>2019-12-01T08:00:50.000Z</time>
      </trkpt>
      <trkpt lat="47.25672" lon="-2.32424">
        <ele>-1.7999999523163</ele>
        <time>2019-12-01T08:00:55.000Z</time>
      </trkpt>
      <trkpt lat="47.25665" lon="-2.32428">
        <ele>-1.7999999523163</ele>
        <time>2019-12-01T08:00:57.000Z</time>
      </trkpt>
      <trkpt lat="47.25662" lon="-2.32445">
        <ele>-1.7999999523163</ele>
        <time>2019-12-01T08:01:00.000Z</time>
      </trkpt>
      <trkpt lat="47.2567" lon="-2.32473">
        <ele>-1.7999999523163</ele>
        <time>2019-12-01T08:01:05.000Z</time>
      </trkpt>
      <trkpt lat="47.25672" lon="-2.32479">
        <ele>-1.7999999523163</ele>
        <time>2019-12-01T08:01:06.000Z</time>
      </trkpt>
      <trkpt lat="47.25683" lon="-2.32509">
        <ele>-1.7999999523163</ele>
        <time>2019-12-01T08:01:12.000Z</time>
      </trkpt>
      <trkpt lat="47.25687" lon="-2.32519">
        <ele>-1.3999999761581</ele>
        <time>2019-12-01T08:01:14.000Z</time>
      </trkpt>
      <trkpt lat="47.25689" lon="-2.32524">
        <ele>-1</ele>
        <time>2019-12-01T08:01:15.000Z</time>
      </trkpt>
      <trkpt lat="47.25691" lon="-2.32529">
        <ele>-0.60000002384186</ele>
        <time>2019-12-01T08:01:16.000Z</time>
      </trkpt>
      <trkpt lat="47.25693" lon="-2.32535">
        <ele>-0.20000000298023</ele>
        <time>2019-12-01T08:01:17.000Z</time>
      </trkpt>
      <trkpt lat="47.25694" lon="-2.32541">
        <ele>0.20000000298023</ele>
        <time>2019-12-01T08:01:18.000Z</time>
      </trkpt>
      <trkpt lat="47.25698" lon="-2.32551">
        <ele>0.20000000298023</ele>
        <time>2019-12-01T08:01:20.000Z</time>
      </trkpt>
      <trkpt lat="47.25703" lon="-2.32568">
        <ele>0.20000000298023</ele>
        <time>2019-12-01T08:01:23.000Z</time>
      </trkpt>
      <trkpt lat="47.25708" lon="-2.32584">
        <ele>0.20000000298023</ele>
        <time>2019-12-01T08:01:26.000Z</time>
      </trkpt>
      <trkpt lat="47.25715" lon="-2.32606">
        <ele>0.20000000298023</ele>
        <time>2019-12-01T08:01:31.000Z</time>
      </trkpt>
      <trkpt lat="47.25716" lon="-2.32617">
        <ele>0.60000002384186</ele>
        <time>2019-12-01T08:01:35.000Z</time>
      </trkpt>
      <trkpt lat="47.25715" lon="-2.3262">
        <ele>1</ele>
        <time>2019-12-01T08:01:36.000Z</time>
      </trkpt>
      <trkpt lat="47.25713" lon="-2.32621">
        <ele>1.3999999761581</ele>
        <time>2019-12-01T08:01:37.000Z</time>
      </trkpt>
      <trkpt lat="47.2571" lon="-2.32622">
        <ele>1.7999999523163</ele>
        <time>2019-12-01T08:01:38.000Z</time>
      </trkpt>
      <trkpt lat="47.25707" lon="-2.32623">
        <ele>2.2000000476837</ele>
        <time>2019-12-01T08:01:39.000Z</time>
      </trkpt>
      <trkpt lat="47.25695" lon="-2.32627">
        <ele>2.2000000476837</ele>
        <time>2019-12-01T08:01:42.000Z</time>
      </trkpt>
      <trkpt lat="47.25679" lon="-2.32635">
        <ele>2.2000000476837</ele>
        <time>2019-12-01T08:01:46.000Z</time>
      </trkpt>
      <trkpt lat="47.25646" lon="-2.32651">
        <ele>2.2000000476837</ele>
        <time>2019-12-01T08:01:54.000Z</time>
      </trkpt>
      <trkpt lat="47.25629" lon="-2.3266">
        <ele>2.5999999046326</ele>
        <time>2019-12-01T08:01:58.000Z</time>
      </trkpt>
      <trkpt lat="47.25625" lon="-2.32661">
        <ele>3</ele>
        <time>2019-12-01T08:01:59.000Z</time>
      </trkpt>
      <trkpt lat="47.25621" lon="-2.32662">
        <ele>3.4000000953674</ele>
        <time>2019-12-01T08:02:00.000Z</time>
      </trkpt>
      <trkpt lat="47.25617" lon="-2.32663">
        <ele>3.7999999523163</ele>
        <time>2019-12-01T08:02:01.000Z</time>
      </trkpt>
      <trkpt lat="47.25613" lon="-2.32665">
        <ele>4.1999998092651</ele>
        <time>2019-12-01T08:02:02.000Z</time>
      </trkpt>
      <trkpt lat="47.25584" lon="-2.32676">
        <ele>4.1999998092651</ele>
        <time>2019-12-01T08:02:09.000Z</time>
      </trkpt>
      <trkpt lat="47.25544" lon="-2.32694">
        <ele>4.1999998092651</ele>
        <time>2019-12-01T08:02:18.000Z</time>
      </trkpt>
      <trkpt lat="47.25536" lon="-2.32698">
        <ele>4.1999998092651</ele>
        <time>2019-12-01T08:02:20.000Z</time>
      </trkpt>
      <trkpt lat="47.25521" lon="-2.32702">
        <ele>4.1999998092651</ele>
        <time>2019-12-01T08:02:23.000Z</time>
      </trkpt>
      <trkpt lat="47.25512" lon="-2.32703">
        <ele>4.1999998092651</ele>
        <time>2019-12-01T08:02:25.000Z</time>
      </trkpt>
      <trkpt lat="47.25492" lon="-2.32705">
        <ele>4.1999998092651</ele>
        <time>2019-12-01T08:02:29.000Z</time>
      </trkpt>
      <trkpt lat="47.25487" lon="-2.32707">
        <ele>4.1999998092651</ele>
        <time>2019-12-01T08:02:30.000Z</time>
      </trkpt>
      <trkpt lat="47.25475" lon="-2.32717">
        <ele>4.1999998092651</ele>
        <time>2019-12-01T08:02:33.000Z</time>
      </trkpt>
      <trkpt lat="47.25467" lon="-2.32727">
        <ele>4.1999998092651</ele>
        <time>2019-12-01T08:02:35.000Z</time>
      </trkpt>
      <trkpt lat="47.2545" lon="-2.32752">
        <ele>4.1999998092651</ele>
        <time>2019-12-01T08:02:40.000Z</time>
      </trkpt>
      <trkpt lat="47.25438" lon="-2.32773">
        <ele>4.1999998092651</ele>
        <time>2019-12-01T08:02:44.000Z</time>
      </trkpt>
      <trkpt lat="47.25434" lon="-2.32785">
        <ele>4.1999998092651</ele>
        <time>2019-12-01T08:02:46.000Z</time>
      </trkpt>
      <trkpt lat="47.25423" lon="-2.32801">
        <ele>4.1999998092651</ele>
        <time>2019-12-01T08:02:49.000Z</time>
      </trkpt>
      <trkpt lat="47.25419" lon="-2.32806">
        <ele>4.1999998092651</ele>
        <time>2019-12-01T08:02:50.000Z</time>
      </trkpt>
      <trkpt lat="47.25388" lon="-2.32844">
        <ele>4.1999998092651</ele>
        <time>2019-12-01T08:02:57.000Z</time>
      </trkpt>
      <trkpt lat="47.25359" lon="-2.32878">
        <ele>4.1999998092651</ele>
        <time>2019-12-01T08:03:04.000Z</time>
      </trkpt>
      <trkpt lat="47.25354" lon="-2.32882">
        <ele>3.7999999523163</ele>
        <time>2019-12-01T08:03:05.000Z</time>
      </trkpt>
      <trkpt lat="47.2535" lon="-2.32886">
        <ele>3.4000000953674</ele>
        <time>2019-12-01T08:03:06.000Z</time>
      </trkpt>
      <trkpt lat="47.25345" lon="-2.3289">
        <ele>3</ele>
        <time>2019-12-01T08:03:07.000Z</time>
      </trkpt>
      <trkpt lat="47.25341" lon="-2.32894">
        <ele>2.5999999046326</ele>
        <time>2019-12-01T08:03:08.000Z</time>
      </trkpt>
      <trkpt lat="47.25337" lon="-2.32899">
        <ele>2.2000000476837</ele>
        <time>2019-12-01T08:03:09.000Z</time>
      </trkpt>
      <trkpt lat="47.2532" lon="-2.32916">
        <ele>2.2000000476837</ele>
        <time>2019-12-01T08:03:13.000Z</time>
      </trkpt>
      <trkpt lat="47.25313" lon="-2.32926">
        <ele>2.2000000476837</ele>
        <time>2019-12-01T08:03:15.000Z</time>
      </trkpt>
      <trkpt lat="47.2531" lon="-2.32939">
        <ele>2.2000000476837</ele>
        <time>2019-12-01T08:03:17.000Z</time>
      </trkpt>
      <trkpt lat="47.25315" lon="-2.32966">
        <ele>2.2000000476837</ele>
        <time>2019-12-01T08:03:21.000Z</time>
      </trkpt>
      <trkpt lat="47.25317" lon="-2.32972">
        <ele>2.2000000476837</ele>
        <time>2019-12-01T08:03:22.000Z</time>
      </trkpt>
      <trkpt lat="47.25321" lon="-2.32984">
        <ele>2.2000000476837</ele>
        <time>2019-12-01T08:03:24.000Z</time>
      </trkpt>
      <trkpt lat="47.25329" lon="-2.33003">
        <ele>2.2000000476837</ele>
        <time>2019-12-01T08:03:27.000Z</time>
      </trkpt>
      <trkpt lat="47.25348" lon="-2.3305">
        <ele>2.2000000476837</ele>
        <time>2019-12-01T08:03:35.000Z</time>
      </trkpt>
      <trkpt lat="47.25363" lon="-2.33087">
        <ele>2.2000000476837</ele>
        <time>2019-12-01T08:03:42.000Z</time>
      </trkpt>
      <trkpt lat="47.2537" lon="-2.33105">
        <ele>2.2000000476837</ele>
        <time>2019-12-01T08:03:47.000Z</time>
      </trkpt>
      <trkpt lat="47.2537" lon="-2.33107">
        <ele>2.2000000476837</ele>
        <time>2019-12-01T08:03:50.000Z</time>
      </trkpt>
      <trkpt lat="47.25375" lon="-2.33115">
        <ele>0.20000000298023</ele>
        <time>2019-12-01T08:07:50.000Z</time>
      </trkpt>
      <trkpt lat="47.25381" lon="-2.33131">
        <ele>0.20000000298023</ele>
        <time>2019-12-01T08:07:55.000Z</time>
      </trkpt>
      <trkpt lat="47.25392" lon="-2.3315">
        <ele>0.20000000298023</ele>
        <time>2019-12-01T08:08:00.000Z</time>
      </trkpt>
      <trkpt lat="47.25402" lon="-2.33171">
        <ele>0.20000000298023</ele>
        <time>2019-12-01T08:08:04.000Z</time>
      </trkpt>
      <trkpt lat="47.25406" lon="-2.33182">
        <ele>0.20000000298023</ele>
        <time>2019-12-01T08:08:06.000Z</time>
      </trkpt>
      <trkpt lat="47.25422" lon="-2.33222">
        <ele>0.20000000298023</ele>
        <time>2019-12-01T08:08:13.000Z</time>
      </trkpt>
      <trkpt lat="47.25435" lon="-2.33251">
        <ele>0.20000000298023</ele>
        <time>2019-12-01T08:08:19.000Z</time>
      </trkpt>
      <trkpt lat="47.25446" lon="-2.33281">
        <ele>0.20000000298023</ele>
        <time>2019-12-01T08:08:25.000Z</time>
      </trkpt>
      <trkpt lat="47.25451" lon="-2.33298">
        <ele>0.20000000298023</ele>
        <time>2019-12-01T08:08:28.000Z</time>
      </trkpt>
      <trkpt lat="47.2545" lon="-2.33311">
        <ele>0.20000000298023</ele>
        <time>2019-12-01T08:08:30.000Z</time>
      </trkpt>
      <trkpt lat="47.25443" lon="-2.33327">
        <ele>0.20000000298023</ele>
        <time>2019-12-01T08:08:33.000Z</time>
      </trkpt>
      <trkpt lat="47.25437" lon="-2.33338">
        <ele>0.20000000298023</ele>
        <time>2019-12-01T08:08:35.000Z</time>
      </trkpt>
      <trkpt lat="47.25434" lon="-2.33359">
        <ele>0.20000000298023</ele>
        <time>2019-12-01T08:08:38.000Z</time>
      </trkpt>
      <trkpt lat="47.25434" lon="-2.33366">
        <ele>0.20000000298023</ele>
        <time>2019-12-01T08:08:39.000Z</time>
      </trkpt>
      <trkpt lat="47.25433" lon="-2.33416">
        <ele>0.20000000298023</ele>
        <time>2019-12-01T08:08:46.000Z</time>
      </trkpt>
      <trkpt lat="47.25434" lon="-2.33457">
        <ele>0.20000000298023</ele>
        <time>2019-12-01T08:08:53.000Z</time>
      </trkpt>
      <trkpt lat="47.2544" lon="-2.33485">
        <ele>0.20000000298023</ele>
        <time>2019-12-01T08:08:59.000Z</time>
      </trkpt>
      <trkpt lat="47.25447" lon="-2.33518">
        <ele>0.20000000298023</ele>
        <time>2019-12-01T08:09:06.000Z</time>
      </trkpt>
      <trkpt lat="47.25454" lon="-2.33548">
        <ele>0.20000000298023</ele>
        <time>2019-12-01T08:09:13.000Z</time>
      </trkpt>
      <trkpt lat="47.25459" lon="-2.3357">
        <ele>-0.20000000298023</ele>
        <time>2019-12-01T08:09:18.000Z</time>
      </trkpt>
      <trkpt lat="47.25459" lon="-2.33574">
        <ele>-0.60000002384186</ele>
        <time>2019-12-01T08:09:19.000Z</time>
      </trkpt>
      <trkpt lat="47.25458" lon="-2.33577">
        <ele>-1</ele>
        <time>2019-12-01T08:09:20.000Z</time>
      </trkpt>
      <trkpt lat="47.25456" lon="-2.33577">
        <ele>-2</ele>
        <time>2019-12-01T08:09:21.000Z</time>
      </trkpt>
      <trkpt lat="47.25453" lon="-2.33577">
        <ele>-2</ele>
        <time>2019-12-01T08:09:22.000Z</time>
      </trkpt>
      <trkpt lat="47.25443" lon="-2.3359">
        <ele>-2</ele>
        <time>2019-12-01T08:09:26.000Z</time>
      </trkpt>
      <trkpt lat="47.25442" lon="-2.33612">
        <ele>-2</ele>
        <time>2019-12-01T08:09:30.000Z</time>
      </trkpt>
      <trkpt lat="47.25446" lon="-2.33645">
        <ele>-2</ele>
        <time>2019-12-01T08:09:36.000Z</time>
      </trkpt>
      <trkpt lat="47.25452" lon="-2.33683">
        <ele>-2</ele>
        <time>2019-12-01T08:09:43.000Z</time>
      </trkpt>
      <trkpt lat="47.25455" lon="-2.33714">
        <ele>-2</ele>
        <time>2019-12-01T08:09:49.000Z</time>
      </trkpt>
      <trkpt lat="47.2546" lon="-2.33739">
        <ele>-2</ele>
        <time>2019-12-01T08:09:54.000Z</time>
      </trkpt>
      <trkpt lat="47.25471" lon="-2.33749">
        <ele>-2</ele>
        <time>2019-12-01T08:09:58.000Z</time>
      </trkpt>
      <trkpt lat="47.25476" lon="-2.33751">
        <ele>-2</ele>
        <time>2019-12-01T08:09:59.000Z</time>
      </trkpt>
      <trkpt lat="47.2549" lon="-2.33756">
        <ele>-2</ele>
        <time>2019-12-01T08:10:02.000Z</time>
      </trkpt>
      <trkpt lat="47.25495" lon="-2.33757">
        <ele>-2</ele>
        <time>2019-12-01T08:10:03.000Z</time>
      </trkpt>
      <trkpt lat="47.25517" lon="-2.33758">
        <ele>-2</ele>
        <time>2019-12-01T08:10:08.000Z</time>
      </trkpt>
      <trkpt lat="47.25539" lon="-2.33758">
        <ele>-2</ele>
        <time>2019-12-01T08:10:14.000Z</time>
      </trkpt>
      <trkpt lat="47.25568" lon="-2.33758">
        <ele>-2</ele>
        <time>2019-12-01T08:10:22.000Z</time>
      </trkpt>
      <trkpt lat="47.25603" lon="-2.3376">
        <ele>-2</ele>
        <time>2019-12-01T08:10:30.000Z</time>
      </trkpt>
      <trkpt lat="47.25628" lon="-2.33769">
        <ele>-2</ele>
        <time>2019-12-01T08:10:36.000Z</time>
      </trkpt>
      <trkpt lat="47.25637" lon="-2.33785">
        <ele>-2</ele>
        <time>2019-12-01T08:10:40.000Z</time>
      </trkpt>
      <trkpt lat="47.25641" lon="-2.33813">
        <ele>-2</ele>
        <time>2019-12-01T08:10:45.000Z</time>
      </trkpt>
      <trkpt lat="47.25647" lon="-2.33857">
        <ele>-2</ele>
        <time>2019-12-01T08:10:52.000Z</time>
      </trkpt>
      <trkpt lat="47.25652" lon="-2.33881">
        <ele>-2</ele>
        <time>2019-12-01T08:10:56.000Z</time>
      </trkpt>
      <trkpt lat="47.25656" lon="-2.33901">
        <ele>-2</ele>
        <time>2019-12-01T08:10:59.000Z</time>
      </trkpt>
      <trkpt lat="47.25663" lon="-2.33947">
        <ele>-2</ele>
        <time>2019-12-01T08:11:06.000Z</time>
      </trkpt>
      <trkpt lat="47.25664" lon="-2.33953">
        <ele>-2</ele>
        <time>2019-12-01T08:11:07.000Z</time>
      </trkpt>
      <trkpt lat="47.25662" lon="-2.33978">
        <ele>-2</ele>
        <time>2019-12-01T08:11:11.000Z</time>
      </trkpt>
      <trkpt lat="47.25654" lon="-2.34017">
        <ele>-2</ele>
        <time>2019-12-01T08:11:17.000Z</time>
      </trkpt>
      <trkpt lat="47.25645" lon="-2.34071">
        <ele>-2</ele>
        <time>2019-12-01T08:11:25.000Z</time>
      </trkpt>
      <trkpt lat="47.25643" lon="-2.34096">
        <ele>-2</ele>
        <time>2019-12-01T08:11:29.000Z</time>
      </trkpt>
      <trkpt lat="47.25644" lon="-2.34111">
        <ele>-2</ele>
        <time>2019-12-01T08:11:31.000Z</time>
      </trkpt>
      <trkpt lat="47.25648" lon="-2.34133">
        <ele>-2</ele>
        <time>2019-12-01T08:11:34.000Z</time>
      </trkpt>
      <trkpt lat="47.25656" lon="-2.34153">
        <ele>-2</ele>
        <time>2019-12-01T08:11:37.000Z</time>
      </trkpt>
      <trkpt lat="47.25661" lon="-2.34164">
        <ele>-2</ele>
        <time>2019-12-01T08:11:39.000Z</time>
      </trkpt>
      <trkpt lat="47.25672" lon="-2.34184">
        <ele>-2</ele>
        <time>2019-12-01T08:11:43.000Z</time>
      </trkpt>
      <trkpt lat="47.25675" lon="-2.34188">
        <ele>-2</ele>
        <time>2019-12-01T08:11:44.000Z</time>
      </trkpt>
      <trkpt lat="47.25688" lon="-2.34192">
        <ele>-2</ele>
        <time>2019-12-01T08:11:47.000Z</time>
      </trkpt>
      <trkpt lat="47.25704" lon="-2.3419">
        <ele>-2</ele>
        <time>2019-12-01T08:11:50.000Z</time>
      </trkpt>
      <trkpt lat="47.25719" lon="-2.34187">
        <ele>-2</ele>
        <time>2019-12-01T08:11:53.000Z</time>
      </trkpt>
      <trkpt lat="47.25729" lon="-2.34184">
        <ele>-2.4000000953674</ele>
        <time>2019-12-01T08:11:55.000Z</time>
      </trkpt>
      <trkpt lat="47.25735" lon="-2.34184">
        <ele>-2.7999999523163</ele>
        <time>2019-12-01T08:11:56.000Z</time>
      </trkpt>
      <trkpt lat="47.2574" lon="-2.34183">
        <ele>-3.2000000476837</ele>
        <time>2019-12-01T08:11:57.000Z</time>
      </trkpt>
      <trkpt lat="47.25745" lon="-2.34183">
        <ele>-3.5999999046326</ele>
        <time>2019-12-01T08:11:58.000Z</time>
      </trkpt>
      <trkpt lat="47.2575" lon="-2.34182">
        <ele>-4</ele>
        <time>2019-12-01T08:11:59.000Z</time>
      </trkpt>
      <trkpt lat="47.2576" lon="-2.3418">
        <ele>-4</ele>
        <time>2019-12-01T08:12:01.000Z</time>
      </trkpt>
      <trkpt lat="47.25785" lon="-2.34176">
        <ele>-4</ele>
        <time>2019-12-01T08:12:06.000Z</time>
      </trkpt>
      <trkpt lat="47.2579" lon="-2.34176">
        <ele>-4</ele>
        <time>2019-12-01T08:12:07.000Z</time>
      </trkpt>
      <trkpt lat="47.25804" lon="-2.34177">
        <ele>-4</ele>
        <time>2019-12-01T08:12:10.000Z</time>
      </trkpt>
      <trkpt lat="47.25813" lon="-2.34178">
        <ele>-4</ele>
        <time>2019-12-01T08:12:12.000Z</time>
      </trkpt>
      <trkpt lat="47.25834" lon="-2.34179">
        <ele>-4</ele>
        <time>2019-12-01T08:12:17.000Z</time>
      </trkpt>
      <trkpt lat="47.25838" lon="-2.34164">
        <ele>-4</ele>
        <time>2019-12-01T08:12:20.000Z</time>
      </trkpt>
      <trkpt lat="47.25842" lon="-2.34159">
        <ele>-4</ele>
        <time>2019-12-01T08:12:22.000Z</time>
      </trkpt>
      <trkpt lat="47.25845" lon="-2.3416">
        <ele>-4</ele>
        <time>2019-12-01T08:12:23.000Z</time>
      </trkpt>
      <trkpt lat="47.25859" lon="-2.34164">
        <ele>-4</ele>
        <time>2019-12-01T08:12:27.000Z</time>
      </trkpt>
      <trkpt lat="47.25868" lon="-2.34167">
        <ele>-4</ele>
        <time>2019-12-01T08:12:31.000Z</time>
      </trkpt>
      <trkpt lat="47.25874" lon="-2.34167">
        <ele>-4</ele>
        <time>2019-12-01T08:12:34.000Z</time>
      </trkpt>
      <trkpt lat="47.2588" lon="-2.34166">
        <ele>-4</ele>
        <time>2019-12-01T08:12:36.000Z</time>
      </trkpt>
      <trkpt lat="47.25897" lon="-2.34153">
        <ele>-4</ele>
        <time>2019-12-01T08:12:40.000Z</time>
      </trkpt>
      <trkpt lat="47.25902" lon="-2.3415">
        <ele>-4</ele>
        <time>2019-12-01T08:12:41.000Z</time>
      </trkpt>
      <trkpt lat="47.2593" lon="-2.3413">
        <ele>-4</ele>
        <time>2019-12-01T08:12:47.000Z</time>
      </trkpt>
      <trkpt lat="47.25956" lon="-2.34112">
        <ele>-4</ele>
        <time>2019-12-01T08:12:53.000Z</time>
      </trkpt>
      <trkpt lat="47.25965" lon="-2.34112">
        <ele>-4</ele>
        <time>2019-12-01T08:12:55.000Z</time>
      </trkpt>
      <trkpt lat="47.25975" lon="-2.34114">
        <ele>-4</ele>
        <time>2019-12-01T08:12:57.000Z</time>
      </trkpt>
      <trkpt lat="47.25994" lon="-2.34119">
        <ele>-4</ele>
        <time>2019-12-01T08:13:01.000Z</time>
      </trkpt>
      <trkpt lat="47.26032" lon="-2.34134">
        <ele>-4</ele>
        <time>2019-12-01T08:13:09.000Z</time>
      </trkpt>
      <trkpt lat="47.26063" lon="-2.34147">
        <ele>-4</ele>
        <time>2019-12-01T08:13:16.000Z</time>
      </trkpt>
      <trkpt lat="47.26091" lon="-2.34162">
        <ele>-4</ele>
        <time>2019-12-01T08:13:23.000Z</time>
      </trkpt>
      <trkpt lat="47.2611" lon="-2.34171">
        <ele>-4</ele>
        <time>2019-12-01T08:13:29.000Z</time>
      </trkpt>
      <trkpt lat="47.26115" lon="-2.34169">
        <ele>-4</ele>
        <time>2019-12-01T08:13:36.000Z</time>
      </trkpt>
      <trkpt lat="47.26115" lon="-2.34167">
        <ele>-4</ele>
        <time>2019-12-01T08:13:37.000Z</time>
      </trkpt>
      <trkpt lat="47.26118" lon="-2.34157">
        <ele>-4</ele>
        <time>2019-12-01T08:13:40.000Z</time>
      </trkpt>
      <trkpt lat="47.26122" lon="-2.34152">
        <ele>-4</ele>
        <time>2019-12-01T08:13:42.000Z</time>
      </trkpt>
      <trkpt lat="47.26129" lon="-2.34152">
        <ele>-4</ele>
        <time>2019-12-01T08:13:44.000Z</time>
      </trkpt>
      <trkpt lat="47.26146" lon="-2.34163">
        <ele>-4</ele>
        <time>2019-12-01T08:13:48.000Z</time>
      </trkpt>
      <trkpt lat="47.26155" lon="-2.34173">
        <ele>-4</ele>
        <time>2019-12-01T08:13:50.000Z</time>
      </trkpt>
      <trkpt lat="47.26173" lon="-2.34192">
        <ele>-4</ele>
        <time>2019-12-01T08:13:54.000Z</time>
      </trkpt>
      <trkpt lat="47.26223" lon="-2.34242">
        <ele>-4</ele>
        <time>2019-12-01T08:14:04.000Z</time>
      </trkpt>
      <trkpt lat="47.26267" lon="-2.34289">
        <ele>-4</ele>
        <time>2019-12-01T08:14:13.000Z</time>
      </trkpt>
      <trkpt lat="47.26296" lon="-2.3432">
        <ele>-3.5999999046326</ele>
        <time>2019-12-01T08:14:19.000Z</time>
      </trkpt>
      <trkpt lat="47.263" lon="-2.34324">
        <ele>-3</ele>
        <time>2019-12-01T08:14:20.000Z</time>
      </trkpt>
      <trkpt lat="47.26305" lon="-2.34329">
        <ele>-2.5999999046326</ele>
        <time>2019-12-01T08:14:21.000Z</time>
      </trkpt>
      <trkpt lat="47.26309" lon="-2.34334">
        <ele>-2.2000000476837</ele>
        <time>2019-12-01T08:14:22.000Z</time>
      </trkpt>
      <trkpt lat="47.26315" lon="-2.34339">
        <ele>-1.7999999523163</ele>
        <time>2019-12-01T08:14:23.000Z</time>
      </trkpt>
      <trkpt lat="47.2633" lon="-2.34353">
        <ele>-1.7999999523163</ele>
        <time>2019-12-01T08:14:26.000Z</time>
      </trkpt>
      <trkpt lat="47.26335" lon="-2.34356">
        <ele>-1.7999999523163</ele>
        <time>2019-12-01T08:14:27.000Z</time>
      </trkpt>
      <trkpt lat="47.26341" lon="-2.34361">
        <ele>-1.7999999523163</ele>
        <time>2019-12-01T08:14:28.000Z</time>
      </trkpt>
      <trkpt lat="47.26356" lon="-2.34378">
        <ele>-1.7999999523163</ele>
        <time>2019-12-01T08:14:31.000Z</time>
      </trkpt>
      <trkpt lat="47.26403" lon="-2.3442">
        <ele>-1.7999999523163</ele>
        <time>2019-12-01T08:14:40.000Z</time>
      </trkpt>
      <trkpt lat="47.26426" lon="-2.34435">
        <ele>-1.7999999523163</ele>
        <time>2019-12-01T08:14:46.000Z</time>
      </trkpt>
      <trkpt lat="47.26432" lon="-2.34424">
        <ele>-1.7999999523163</ele>
        <time>2019-12-01T08:14:49.000Z</time>
      </trkpt>
      <trkpt lat="47.26438" lon="-2.34416">
        <ele>-1.7999999523163</ele>
        <time>2019-12-01T08:14:51.000Z</time>
      </trkpt>
      <trkpt lat="47.26449" lon="-2.34402">
        <ele>-1.7999999523163</ele>
        <time>2019-12-01T08:14:54.000Z</time>
      </trkpt>
      <trkpt lat="47.26469" lon="-2.34385">
        <ele>-1.7999999523163</ele>
        <time>2019-12-01T08:15:00.000Z</time>
      </trkpt>
      <trkpt lat="47.26472" lon="-2.34381">
        <ele>-1.7999999523163</ele>
        <time>2019-12-01T08:15:02.000Z</time>
      </trkpt>
      <trkpt lat="47.26473" lon="-2.34377">
        <ele>-1.7999999523163</ele>
        <time>2019-12-01T08:15:04.000Z</time>
      </trkpt>
      <trkpt lat="47.26486" lon="-2.34366">
        <ele>-1.7999999523163</ele>
        <time>2019-12-01T08:15:09.000Z</time>
      </trkpt>
      <trkpt lat="47.26497" lon="-2.34364">
        <ele>-1.7999999523163</ele>
        <time>2019-12-01T08:15:12.000Z</time>
      </trkpt>
      <trkpt lat="47.26503" lon="-2.34363">
        <ele>-1.7999999523163</ele>
        <time>2019-12-01T08:15:13.000Z</time>
      </trkpt>
      <trkpt lat="47.26509" lon="-2.34362">
        <ele>-1.7999999523163</ele>
        <time>2019-12-01T08:15:14.000Z</time>
      </trkpt>
      <trkpt lat="47.2652" lon="-2.34348">
        <ele>-1.7999999523163</ele>
        <time>2019-12-01T08:15:17.000Z</time>
      </trkpt>
      <trkpt lat="47.26523" lon="-2.34343">
        <ele>-1.7999999523163</ele>
        <time>2019-12-01T08:15:18.000Z</time>
      </trkpt>
      <trkpt lat="47.26527" lon="-2.34333">
        <ele>-1.7999999523163</ele>
        <time>2019-12-01T08:15:20.000Z</time>
      </trkpt>
      <trkpt lat="47.26529" lon="-2.34322">
        <ele>-1.7999999523163</ele>
        <time>2019-12-01T08:15:22.000Z</time>
      </trkpt>
      <trkpt lat="47.26542" lon="-2.34314">
        <ele>-1.7999999523163</ele>
        <time>2019-12-01T08:15:25.000Z</time>
      </trkpt>
      <trkpt lat="47.26547" lon="-2.34312">
        <ele>-1.7999999523163</ele>
        <time>2019-12-01T08:15:26.000Z</time>
      </trkpt>
      <trkpt lat="47.26551" lon="-2.34309">
        <ele>-1.7999999523163</ele>
        <time>2019-12-01T08:15:27.000Z</time>
      </trkpt>
      <trkpt lat="47.2656" lon="-2.343">
        <ele>-1.7999999523163</ele>
        <time>2019-12-01T08:15:29.000Z</time>
      </trkpt>
      <trkpt lat="47.26574" lon="-2.3428">
        <ele>-1.7999999523163</ele>
        <time>2019-12-01T08:15:33.000Z</time>
      </trkpt>
      <trkpt lat="47.26579" lon="-2.34275">
        <ele>-1.7999999523163</ele>
        <time>2019-12-01T08:15:34.000Z</time>
      </trkpt>
      <trkpt lat="47.26614" lon="-2.34236">
        <ele>-1.7999999523163</ele>
        <time>2019-12-01T08:15:42.000Z</time>
      </trkpt>
      <trkpt lat="47.26631" lon="-2.34218">
        <ele>-1.3999999761581</ele>
        <time>2019-12-01T08:15:46.000Z</time>
      </trkpt>
      <trkpt lat="47.26635" lon="-2.34213">
        <ele>-1</ele>
        <time>2019-12-01T08:15:47.000Z</time>
      </trkpt>
      <trkpt lat="47.2664" lon="-2.34208">
        <ele>-0.60000002384186</ele>
        <time>2019-12-01T08:15:48.000Z</time>
      </trkpt>
      <trkpt lat="47.26644" lon="-2.34204">
        <ele>-0.20000000298023</ele>
        <time>2019-12-01T08:15:49.000Z</time>
      </trkpt>
      <trkpt lat="47.26648" lon="-2.34199">
        <ele>0.20000000298023</ele>
        <time>2019-12-01T08:15:50.000Z</time>
      </trkpt>
      <trkpt lat="47.26661" lon="-2.34185">
        <ele>0.20000000298023</ele>
        <time>2019-12-01T08:15:53.000Z</time>
      </trkpt>
      <trkpt lat="47.2667" lon="-2.34177">
        <ele>0.20000000298023</ele>
        <time>2019-12-01T08:15:55.000Z</time>
      </trkpt>
      <trkpt lat="47.26689" lon="-2.34159">
        <ele>0.20000000298023</ele>
        <time>2019-12-01T08:16:00.000Z</time>
      </trkpt>
      <trkpt lat="47.26693" lon="-2.34155">
        <ele>0.20000000298023</ele>
        <time>2019-12-01T08:16:01.000Z</time>
      </trkpt>
      <trkpt lat="47.26707" lon="-2.34151">
        <ele>0.20000000298023</ele>
        <time>2019-12-01T08:16:05.000Z</time>
      </trkpt>
      <trkpt lat="47.26727" lon="-2.34162">
        <ele>0.20000000298023</ele>
        <time>2019-12-01T08:16:09.000Z</time>
      </trkpt>
      <trkpt lat="47.26753" lon="-2.34181">
        <ele>0.20000000298023</ele>
        <time>2019-12-01T08:16:14.000Z</time>
      </trkpt>
      <trkpt lat="47.26799" lon="-2.34218">
        <ele>0.20000000298023</ele>
        <time>2019-12-01T08:16:22.000Z</time>
      </trkpt>
      <trkpt lat="47.26836" lon="-2.34246">
        <ele>0.20000000298023</ele>
        <time>2019-12-01T08:16:29.000Z</time>
      </trkpt>
      <trkpt lat="47.26876" lon="-2.34275">
        <ele>0.20000000298023</ele>
        <time>2019-12-01T08:16:37.000Z</time>
      </trkpt>
      <trkpt lat="47.26901" lon="-2.3429">
        <ele>0.20000000298023</ele>
        <time>2019-12-01T08:16:42.000Z</time>
      </trkpt>
      <trkpt lat="47.26905" lon="-2.34294">
        <ele>0.20000000298023</ele>
        <time>2019-12-01T08:16:43.000Z</time>
      </trkpt>
      <trkpt lat="47.26916" lon="-2.34311">
        <ele>0.20000000298023</ele>
        <time>2019-12-01T08:16:46.000Z</time>
      </trkpt>
      <trkpt lat="47.2693" lon="-2.34316">
        <ele>0.20000000298023</ele>
        <time>2019-12-01T08:16:49.000Z</time>
      </trkpt>
      <trkpt lat="47.26941" lon="-2.34315">
        <ele>0.20000000298023</ele>
        <time>2019-12-01T08:16:51.000Z</time>
      </trkpt>
      <trkpt lat="47.26958" lon="-2.34317">
        <ele>0.20000000298023</ele>
        <time>2019-12-01T08:16:54.000Z</time>
      </trkpt>
      <trkpt lat="47.2699" lon="-2.34322">
        <ele>0.20000000298023</ele>
        <time>2019-12-01T08:17:00.000Z</time>
      </trkpt>
      <trkpt lat="47.2703" lon="-2.34327">
        <ele>0.20000000298023</ele>
        <time>2019-12-01T08:17:08.000Z</time>
      </trkpt>
      <trkpt lat="47.27041" lon="-2.34341">
        <ele>0.20000000298023</ele>
        <time>2019-12-01T08:17:11.000Z</time>
      </trkpt>
      <trkpt lat="47.27046" lon="-2.34364">
        <ele>0.20000000298023</ele>
        <time>2019-12-01T08:17:14.000Z</time>
      </trkpt>
      <trkpt lat="47.27048" lon="-2.34372">
        <ele>0.20000000298023</ele>
        <time>2019-12-01T08:17:15.000Z</time>
      </trkpt>
      <trkpt lat="47.2706" lon="-2.34423">
        <ele>0.20000000298023</ele>
        <time>2019-12-01T08:17:21.000Z</time>
      </trkpt>
      <trkpt lat="47.27073" lon="-2.34479">
        <ele>0.20000000298023</ele>
        <time>2019-12-01T08:17:28.000Z</time>
      </trkpt>
      <trkpt lat="47.27078" lon="-2.34498">
        <ele>0.20000000298023</ele>
        <time>2019-12-01T08:17:31.000Z</time>
      </trkpt>
      <trkpt lat="47.27082" lon="-2.345">
        <ele>0.20000000298023</ele>
        <time>2019-12-01T08:17:32.000Z</time>
      </trkpt>
      <trkpt lat="47.27096" lon="-2.34495">
        <ele>0.20000000298023</ele>
        <time>2019-12-01T08:17:35.000Z</time>
      </trkpt>
      <trkpt lat="47.27101" lon="-2.34493">
        <ele>0.20000000298023</ele>
        <time>2019-12-01T08:17:36.000Z</time>
      </trkpt>
      <trkpt lat="47.27129" lon="-2.34479">
        <ele>0.80000001192093</ele>
        <time>2019-12-01T08:17:41.000Z</time>
      </trkpt>
      <trkpt lat="47.27134" lon="-2.34476">
        <ele>1.2000000476837</ele>
        <time>2019-12-01T08:17:42.000Z</time>
      </trkpt>
      <trkpt lat="47.2714" lon="-2.34474">
        <ele>1.6000000238419</ele>
        <time>2019-12-01T08:17:43.000Z</time>
      </trkpt>
      <trkpt lat="47.27144" lon="-2.34471">
        <ele>2</ele>
        <time>2019-12-01T08:17:44.000Z</time>
      </trkpt>
      <trkpt lat="47.27149" lon="-2.34469">
        <ele>2.4000000953674</ele>
        <time>2019-12-01T08:17:45.000Z</time>
      </trkpt>
      <trkpt lat="47.27153" lon="-2.34467">
        <ele>2.4000000953674</ele>
        <time>2019-12-01T08:17:46.000Z</time>
      </trkpt>
      <trkpt lat="47.27174" lon="-2.3446">
        <ele>2.4000000953674</ele>
        <time>2019-12-01T08:17:51.000Z</time>
      </trkpt>
      <trkpt lat="47.27178" lon="-2.3446">
        <ele>2.7999999523163</ele>
        <time>2019-12-01T08:17:52.000Z</time>
      </trkpt>
      <trkpt lat="47.27183" lon="-2.3446">
        <ele>3.2000000476837</ele>
        <time>2019-12-01T08:17:53.000Z</time>
      </trkpt>
      <trkpt lat="47.27187" lon="-2.3446">
        <ele>3.7999999523163</ele>
        <time>2019-12-01T08:17:54.000Z</time>
      </trkpt>
      <trkpt lat="47.27191" lon="-2.3446">
        <ele>4.1999998092651</ele>
        <time>2019-12-01T08:17:55.000Z</time>
      </trkpt>
      <trkpt lat="47.27195" lon="-2.34459">
        <ele>4.5999999046326</ele>
        <time>2019-12-01T08:17:56.000Z</time>
      </trkpt>
      <trkpt lat="47.27199" lon="-2.34459">
        <ele>5</ele>
        <time>2019-12-01T08:17:57.000Z</time>
      </trkpt>
      <trkpt lat="47.27203" lon="-2.34459">
        <ele>5.5999999046326</ele>
        <time>2019-12-01T08:17:58.000Z</time>
      </trkpt>
      <trkpt lat="47.27207" lon="-2.34459">
        <ele>6</ele>
        <time>2019-12-01T08:17:59.000Z</time>
      </trkpt>
      <trkpt lat="47.27211" lon="-2.34459">
        <ele>7</ele>
        <time>2019-12-01T08:18:00.000Z</time>
      </trkpt>
      <trkpt lat="47.27215" lon="-2.34459">
        <ele>7.4000000953674</ele>
        <time>2019-12-01T08:18:01.000Z</time>
      </trkpt>
      <trkpt lat="47.27219" lon="-2.34459">
        <ele>7.8000001907349</ele>
        <time>2019-12-01T08:18:02.000Z</time>
      </trkpt>
      <trkpt lat="47.27223" lon="-2.34459">
        <ele>8.1999998092651</ele>
        <time>2019-12-01T08:18:03.000Z</time>
      </trkpt>
      <trkpt lat="47.27228" lon="-2.34459">
        <ele>8.6000003814697</ele>
        <time>2019-12-01T08:18:04.000Z</time>
      </trkpt>
      <trkpt lat="47.27232" lon="-2.34458">
        <ele>9.1999998092651</ele>
        <time>2019-12-01T08:18:05.000Z</time>
      </trkpt>
      <trkpt lat="47.27236" lon="-2.34457">
        <ele>9.1999998092651</ele>
        <time>2019-12-01T08:18:06.000Z</time>
      </trkpt>
      <trkpt lat="47.27244" lon="-2.34458">
        <ele>9.6000003814697</ele>
        <time>2019-12-01T08:18:08.000Z</time>
      </trkpt>
      <trkpt lat="47.27248" lon="-2.34458">
        <ele>10</ele>
        <time>2019-12-01T08:18:09.000Z</time>
      </trkpt>
      <trkpt lat="47.27252" lon="-2.34458">
        <ele>10.39999961853</ele>
        <time>2019-12-01T08:18:10.000Z</time>
      </trkpt>
      <trkpt lat="47.27256" lon="-2.34458">
        <ele>10.800000190735</ele>
        <time>2019-12-01T08:18:11.000Z</time>
      </trkpt>
      <trkpt lat="47.27259" lon="-2.34459">
        <ele>11.199999809265</ele>
        <time>2019-12-01T08:18:12.000Z</time>
      </trkpt>
      <trkpt lat="47.27279" lon="-2.3446">
        <ele>11.60000038147</ele>
        <time>2019-12-01T08:18:17.000Z</time>
      </trkpt>
      <trkpt lat="47.27283" lon="-2.34459">
        <ele>12.199999809265</ele>
        <time>2019-12-01T08:18:18.000Z</time>
      </trkpt>
      <trkpt lat="47.27287" lon="-2.34459">
        <ele>12.60000038147</ele>
        <time>2019-12-01T08:18:19.000Z</time>
      </trkpt>
      <trkpt lat="47.27291" lon="-2.3446">
        <ele>13</ele>
        <time>2019-12-01T08:18:20.000Z</time>
      </trkpt>
      <trkpt lat="47.27295" lon="-2.3446">
        <ele>13.60000038147</ele>
        <time>2019-12-01T08:18:21.000Z</time>
      </trkpt>
      <trkpt lat="47.27312" lon="-2.3446">
        <ele>13.60000038147</ele>
        <time>2019-12-01T08:18:25.000Z</time>
      </trkpt>
      <trkpt lat="47.27321" lon="-2.3446">
        <ele>14</ele>
        <time>2019-12-01T08:18:27.000Z</time>
      </trkpt>
      <trkpt lat="47.27325" lon="-2.34461">
        <ele>14.39999961853</ele>
        <time>2019-12-01T08:18:28.000Z</time>
      </trkpt>
      <trkpt lat="47.27329" lon="-2.34461">
        <ele>14.800000190735</ele>
        <time>2019-12-01T08:18:29.000Z</time>
      </trkpt>
      <trkpt lat="47.27333" lon="-2.34461">
        <ele>15.199999809265</ele>
        <time>2019-12-01T08:18:30.000Z</time>
      </trkpt>
      <trkpt lat="47.27337" lon="-2.34461">
        <ele>15.60000038147</ele>
        <time>2019-12-01T08:18:31.000Z</time>
      </trkpt>
      <trkpt lat="47.27354" lon="-2.3446">
        <ele>15.60000038147</ele>
        <time>2019-12-01T08:18:35.000Z</time>
      </trkpt>
      <trkpt lat="47.27367" lon="-2.34462">
        <ele>15.60000038147</ele>
        <time>2019-12-01T08:18:38.000Z</time>
      </trkpt>
      <trkpt lat="47.27395" lon="-2.34462">
        <ele>15.60000038147</ele>
        <time>2019-12-01T08:18:45.000Z</time>
      </trkpt>
      <trkpt lat="47.27422" lon="-2.34467">
        <ele>15.60000038147</ele>
        <time>2019-12-01T08:18:52.000Z</time>
      </trkpt>
      <trkpt lat="47.27427" lon="-2.34484">
        <ele>15.60000038147</ele>
        <time>2019-12-01T08:18:55.000Z</time>
      </trkpt>
      <trkpt lat="47.27429" lon="-2.34496">
        <ele>15.60000038147</ele>
        <time>2019-12-01T08:18:57.000Z</time>
      </trkpt>
      <trkpt lat="47.27432" lon="-2.34509">
        <ele>16</ele>
        <time>2019-12-01T08:18:59.000Z</time>
      </trkpt>
      <trkpt lat="47.27434" lon="-2.34515">
        <ele>16.39999961853</ele>
        <time>2019-12-01T08:19:00.000Z</time>
      </trkpt>
      <trkpt lat="47.27435" lon="-2.34522">
        <ele>16.799999237061</ele>
        <time>2019-12-01T08:19:01.000Z</time>
      </trkpt>
      <trkpt lat="47.27436" lon="-2.34528">
        <ele>17.200000762939</ele>
        <time>2019-12-01T08:19:02.000Z</time>
      </trkpt>
      <trkpt lat="47.27438" lon="-2.34534">
        <ele>17.60000038147</ele>
        <time>2019-12-01T08:19:03.000Z</time>
      </trkpt>
      <trkpt lat="47.2744" lon="-2.34539">
        <ele>17.60000038147</ele>
        <time>2019-12-01T08:19:04.000Z</time>
      </trkpt>
      <trkpt lat="47.27443" lon="-2.3455">
        <ele>17.60000038147</ele>
        <time>2019-12-01T08:19:06.000Z</time>
      </trkpt>
      <trkpt lat="47.27445" lon="-2.34556">
        <ele>17.60000038147</ele>
        <time>2019-12-01T08:19:07.000Z</time>
      </trkpt>
      <trkpt lat="47.27448" lon="-2.34569">
        <ele>17.60000038147</ele>
        <time>2019-12-01T08:19:09.000Z</time>
      </trkpt>
      <trkpt lat="47.27453" lon="-2.34604">
        <ele>17.60000038147</ele>
        <time>2019-12-01T08:19:14.000Z</time>
      </trkpt>
      <trkpt lat="47.27459" lon="-2.34668">
        <ele>17.60000038147</ele>
        <time>2019-12-01T08:19:23.000Z</time>
      </trkpt>
      <trkpt lat="47.27461" lon="-2.34688">
        <ele>17.60000038147</ele>
        <time>2019-12-01T08:19:26.000Z</time>
      </trkpt>
      <trkpt lat="47.27467" lon="-2.34692">
        <ele>17.60000038147</ele>
        <time>2019-12-01T08:19:28.000Z</time>
      </trkpt>
      <trkpt lat="47.27479" lon="-2.34687">
        <ele>17.60000038147</ele>
        <time>2019-12-01T08:19:31.000Z</time>
      </trkpt>
      <trkpt lat="47.27484" lon="-2.34685">
        <ele>17.60000038147</ele>
        <time>2019-12-01T08:19:32.000Z</time>
      </trkpt>
      <trkpt lat="47.27511" lon="-2.34678">
        <ele>17.60000038147</ele>
        <time>2019-12-01T08:19:37.000Z</time>
      </trkpt>
      <trkpt lat="47.2755" lon="-2.3467">
        <ele>17.60000038147</ele>
        <time>2019-12-01T08:19:44.000Z</time>
      </trkpt>
      <trkpt lat="47.27583" lon="-2.34649">
        <ele>17.60000038147</ele>
        <time>2019-12-01T08:19:50.000Z</time>
      </trkpt>
      <trkpt lat="47.27616" lon="-2.34616">
        <ele>17.60000038147</ele>
        <time>2019-12-01T08:19:57.000Z</time>
      </trkpt>
      <trkpt lat="47.27643" lon="-2.34588">
        <ele>17.60000038147</ele>
        <time>2019-12-01T08:20:03.000Z</time>
      </trkpt>
      <trkpt lat="47.27667" lon="-2.34565">
        <ele>17.60000038147</ele>
        <time>2019-12-01T08:20:09.000Z</time>
      </trkpt>
      <trkpt lat="47.27675" lon="-2.34559">
        <ele>17.60000038147</ele>
        <time>2019-12-01T08:20:13.000Z</time>
      </trkpt>
      <trkpt lat="47.27678" lon="-2.3456">
        <ele>17.60000038147</ele>
        <time>2019-12-01T08:20:16.000Z</time>
      </trkpt>
      <trkpt lat="47.27678" lon="-2.3456">
        <ele>17.200000762939</ele>
        <time>2019-12-01T08:20:17.000Z</time>
      </trkpt>
      <trkpt lat="47.27678" lon="-2.34569">
        <ele>15.60000038147</ele>
        <time>2019-12-01T08:20:25.000Z</time>
      </trkpt>
      <trkpt lat="47.27684" lon="-2.34585">
        <ele>15.60000038147</ele>
        <time>2019-12-01T08:20:29.000Z</time>
      </trkpt>
      <trkpt lat="47.27687" lon="-2.34597">
        <ele>15.60000038147</ele>
        <time>2019-12-01T08:20:31.000Z</time>
      </trkpt>
      <trkpt lat="47.2769" lon="-2.34614">
        <ele>15.60000038147</ele>
        <time>2019-12-01T08:20:33.000Z</time>
      </trkpt>
      <trkpt lat="47.27689" lon="-2.34646">
        <ele>15.60000038147</ele>
        <time>2019-12-01T08:20:37.000Z</time>
      </trkpt>
      <trkpt lat="47.2769" lon="-2.34654">
        <ele>15.60000038147</ele>
        <time>2019-12-01T08:20:38.000Z</time>
      </trkpt>
      <trkpt lat="47.2769" lon="-2.34661">
        <ele>15.60000038147</ele>
        <time>2019-12-01T08:20:39.000Z</time>
      </trkpt>
      <trkpt lat="47.27696" lon="-2.34672">
        <ele>15.60000038147</ele>
        <time>2019-12-01T08:20:41.000Z</time>
      </trkpt>
      <trkpt lat="47.27696" lon="-2.34685">
        <ele>15.60000038147</ele>
        <time>2019-12-01T08:20:44.000Z</time>
      </trkpt>
      <trkpt lat="47.27705" lon="-2.34708">
        <ele>15.60000038147</ele>
        <time>2019-12-01T08:20:48.000Z</time>
      </trkpt>
      <trkpt lat="47.27707" lon="-2.34716">
        <ele>15.60000038147</ele>
        <time>2019-12-01T08:20:49.000Z</time>
      </trkpt>
      <trkpt lat="47.27713" lon="-2.34731">
        <ele>15.60000038147</ele>
        <time>2019-12-01T08:20:51.000Z</time>
      </trkpt>
      <trkpt lat="47.27717" lon="-2.34738">
        <ele>15.60000038147</ele>
        <time>2019-12-01T08:20:52.000Z</time>
      </trkpt>
      <trkpt lat="47.2774" lon="-2.34787">
        <ele>15.60000038147</ele>
        <time>2019-12-01T08:20:58.000Z</time>
      </trkpt>
      <trkpt lat="47.27767" lon="-2.34838">
        <ele>15.60000038147</ele>
        <time>2019-12-01T08:21:05.000Z</time>
      </trkpt>
      <trkpt lat="47.27785" lon="-2.3487">
        <ele>15</ele>
        <time>2019-12-01T08:21:10.000Z</time>
      </trkpt>
      <trkpt lat="47.27788" lon="-2.34874">
        <ele>14.60000038147</ele>
        <time>2019-12-01T08:21:11.000Z</time>
      </trkpt>
      <trkpt lat="47.2779" lon="-2.34877">
        <ele>14.199999809265</ele>
        <time>2019-12-01T08:21:12.000Z</time>
      </trkpt>
      <trkpt lat="47.27792" lon="-2.3488">
        <ele>13.800000190735</ele>
        <time>2019-12-01T08:21:13.000Z</time>
      </trkpt>
      <trkpt lat="47.27795" lon="-2.34882">
        <ele>13.39999961853</ele>
        <time>2019-12-01T08:21:14.000Z</time>
      </trkpt>
      <trkpt lat="47.27797" lon="-2.34883">
        <ele>13.39999961853</ele>
        <time>2019-12-01T08:21:15.000Z</time>
      </trkpt>
      <trkpt lat="47.27809" lon="-2.34893">
        <ele>13.39999961853</ele>
        <time>2019-12-01T08:21:19.000Z</time>
      </trkpt>
      <trkpt lat="47.27818" lon="-2.349">
        <ele>13.39999961853</ele>
        <time>2019-12-01T08:21:21.000Z</time>
      </trkpt>
      <trkpt lat="47.2783" lon="-2.34912">
        <ele>13.39999961853</ele>
        <time>2019-12-01T08:21:24.000Z</time>
      </trkpt>
      <trkpt lat="47.27864" lon="-2.34948">
        <ele>13.39999961853</ele>
        <time>2019-12-01T08:21:32.000Z</time>
      </trkpt>
      <trkpt lat="47.27871" lon="-2.34958">
        <ele>13.39999961853</ele>
        <time>2019-12-01T08:21:34.000Z</time>
      </trkpt>
      <trkpt lat="47.27877" lon="-2.34972">
        <ele>13.39999961853</ele>
        <time>2019-12-01T08:21:36.000Z</time>
      </trkpt>
      <trkpt lat="47.27892" lon="-2.35019">
        <ele>13.39999961853</ele>
        <time>2019-12-01T08:21:42.000Z</time>
      </trkpt>
      <trkpt lat="47.27896" lon="-2.35024">
        <ele>13.39999961853</ele>
        <time>2019-12-01T08:21:43.000Z</time>
      </trkpt>
      <trkpt lat="47.27905" lon="-2.35029">
        <ele>13.39999961853</ele>
        <time>2019-12-01T08:21:45.000Z</time>
      </trkpt>
      <trkpt lat="47.27912" lon="-2.35034">
        <ele>13.39999961853</ele>
        <time>2019-12-01T08:21:47.000Z</time>
      </trkpt>
      <trkpt lat="47.2792" lon="-2.35036">
        <ele>13.39999961853</ele>
        <time>2019-12-01T08:21:49.000Z</time>
      </trkpt>
      <trkpt lat="47.27939" lon="-2.35047">
        <ele>13.39999961853</ele>
        <time>2019-12-01T08:21:54.000Z</time>
      </trkpt>
      <trkpt lat="47.27954" lon="-2.35068">
        <ele>13.39999961853</ele>
        <time>2019-12-01T08:21:58.000Z</time>
      </trkpt>
      <trkpt lat="47.27958" lon="-2.35073">
        <ele>13.39999961853</ele>
        <time>2019-12-01T08:21:59.000Z</time>
      </trkpt>
      <trkpt lat="47.27963" lon="-2.35084">
        <ele>13.39999961853</ele>
        <time>2019-12-01T08:22:01.000Z</time>
      </trkpt>
      <trkpt lat="47.27965" lon="-2.35095">
        <ele>13.39999961853</ele>
        <time>2019-12-01T08:22:03.000Z</time>
      </trkpt>
      <trkpt lat="47.2797" lon="-2.351">
        <ele>13</ele>
        <time>2019-12-01T08:22:05.000Z</time>
      </trkpt>
      <trkpt lat="47.27972" lon="-2.35101">
        <ele>12.39999961853</ele>
        <time>2019-12-01T08:22:06.000Z</time>
      </trkpt>
      <trkpt lat="47.27973" lon="-2.35099">
        <ele>12</ele>
        <time>2019-12-01T08:22:07.000Z</time>
      </trkpt>
      <trkpt lat="47.27975" lon="-2.35097">
        <ele>11.60000038147</ele>
        <time>2019-12-01T08:22:08.000Z</time>
      </trkpt>
      <trkpt lat="47.27977" lon="-2.35094">
        <ele>11.199999809265</ele>
        <time>2019-12-01T08:22:09.000Z</time>
      </trkpt>
      <trkpt lat="47.2798" lon="-2.3509">
        <ele>11.199999809265</ele>
        <time>2019-12-01T08:22:10.000Z</time>
      </trkpt>
      <trkpt lat="47.27992" lon="-2.35066">
        <ele>11.199999809265</ele>
        <time>2019-12-01T08:22:15.000Z</time>
      </trkpt>
      <trkpt lat="47.28006" lon="-2.35042">
        <ele>11.199999809265</ele>
        <time>2019-12-01T08:22:19.000Z</time>
      </trkpt>
      <trkpt lat="47.2801" lon="-2.35037">
        <ele>11.199999809265</ele>
        <time>2019-12-01T08:22:20.000Z</time>
      </trkpt>
      <trkpt lat="47.28033" lon="-2.35008">
        <ele>11.199999809265</ele>
        <time>2019-12-01T08:22:25.000Z</time>
      </trkpt>
      <trkpt lat="47.28054" lon="-2.34984">
        <ele>11.199999809265</ele>
        <time>2019-12-01T08:22:30.000Z</time>
      </trkpt>
      <trkpt lat="47.28068" lon="-2.34982">
        <ele>11.199999809265</ele>
        <time>2019-12-01T08:22:34.000Z</time>
      </trkpt>
      <trkpt lat="47.28082" lon="-2.35002">
        <ele>11.199999809265</ele>
        <time>2019-12-01T08:22:38.000Z</time>
      </trkpt>
      <trkpt lat="47.28085" lon="-2.35008">
        <ele>11.199999809265</ele>
        <time>2019-12-01T08:22:39.000Z</time>
      </trkpt>
      <trkpt lat="47.28095" lon="-2.35026">
        <ele>11.60000038147</ele>
        <time>2019-12-01T08:22:42.000Z</time>
      </trkpt>
      <trkpt lat="47.28099" lon="-2.35032">
        <ele>12</ele>
        <time>2019-12-01T08:22:43.000Z</time>
      </trkpt>
      <trkpt lat="47.28102" lon="-2.35038">
        <ele>12.39999961853</ele>
        <time>2019-12-01T08:22:44.000Z</time>
      </trkpt>
      <trkpt lat="47.28106" lon="-2.35045">
        <ele>12.800000190735</ele>
        <time>2019-12-01T08:22:45.000Z</time>
      </trkpt>
      <trkpt lat="47.28108" lon="-2.3505">
        <ele>13.199999809265</ele>
        <time>2019-12-01T08:22:46.000Z</time>
      </trkpt>
      <trkpt lat="47.28135" lon="-2.35093">
        <ele>13.199999809265</ele>
        <time>2019-12-01T08:22:53.000Z</time>
      </trkpt>
      <trkpt lat="47.28143" lon="-2.35102">
        <ele>14.199999809265</ele>
        <time>2019-12-01T08:22:55.000Z</time>
      </trkpt>
      <trkpt lat="47.28148" lon="-2.35107">
        <ele>14.800000190735</ele>
        <time>2019-12-01T08:22:56.000Z</time>
      </trkpt>
      <trkpt lat="47.28152" lon="-2.35111">
        <ele>15.199999809265</ele>
        <time>2019-12-01T08:22:57.000Z</time>
      </trkpt>
      <trkpt lat="47.28156" lon="-2.35114">
        <ele>15.60000038147</ele>
        <time>2019-12-01T08:22:58.000Z</time>
      </trkpt>
      <trkpt lat="47.28168" lon="-2.35128">
        <ele>15.60000038147</ele>
        <time>2019-12-01T08:23:01.000Z</time>
      </trkpt>
      <trkpt lat="47.28185" lon="-2.35159">
        <ele>15.60000038147</ele>
        <time>2019-12-01T08:23:06.000Z</time>
      </trkpt>
      <trkpt lat="47.28212" lon="-2.35205">
        <ele>15.60000038147</ele>
        <time>2019-12-01T08:23:14.000Z</time>
      </trkpt>
      <trkpt lat="47.28231" lon="-2.35242">
        <ele>15.60000038147</ele>
        <time>2019-12-01T08:23:20.000Z</time>
      </trkpt>
      <trkpt lat="47.28248" lon="-2.35282">
        <ele>15.60000038147</ele>
        <time>2019-12-01T08:23:26.000Z</time>
      </trkpt>
      <trkpt lat="47.28254" lon="-2.35307">
        <ele>15.60000038147</ele>
        <time>2019-12-01T08:23:29.000Z</time>
      </trkpt>
      <trkpt lat="47.28258" lon="-2.35334">
        <ele>15.60000038147</ele>
        <time>2019-12-01T08:23:32.000Z</time>
      </trkpt>
      <trkpt lat="47.28259" lon="-2.35363">
        <ele>15.60000038147</ele>
        <time>2019-12-01T08:23:35.000Z</time>
      </trkpt>
      <trkpt lat="47.28257" lon="-2.35379">
        <ele>15.60000038147</ele>
        <time>2019-12-01T08:23:37.000Z</time>
      </trkpt>
      <trkpt lat="47.28249" lon="-2.35394">
        <ele>15.60000038147</ele>
        <time>2019-12-01T08:23:40.000Z</time>
      </trkpt>
      <trkpt lat="47.28248" lon="-2.35398">
        <ele>15.199999809265</ele>
        <time>2019-12-01T08:23:41.000Z</time>
      </trkpt>
      <trkpt lat="47.28248" lon="-2.35402">
        <ele>14.800000190735</ele>
        <time>2019-12-01T08:23:42.000Z</time>
      </trkpt>
      <trkpt lat="47.2825" lon="-2.35405">
        <ele>14</ele>
        <time>2019-12-01T08:23:43.000Z</time>
      </trkpt>
      <trkpt lat="47.28252" lon="-2.35408">
        <ele>13.60000038147</ele>
        <time>2019-12-01T08:23:44.000Z</time>
      </trkpt>
      <trkpt lat="47.28266" lon="-2.35412">
        <ele>13.60000038147</ele>
        <time>2019-12-01T08:23:50.000Z</time>
      </trkpt>
      <trkpt lat="47.2828" lon="-2.35394">
        <ele>13.60000038147</ele>
        <time>2019-12-01T08:23:56.000Z</time>
      </trkpt>
      <trkpt lat="47.28288" lon="-2.35377">
        <ele>13.60000038147</ele>
        <time>2019-12-01T08:24:00.000Z</time>
      </trkpt>
      <trkpt lat="47.28302" lon="-2.35367">
        <ele>13.60000038147</ele>
        <time>2019-12-01T08:24:04.000Z</time>
      </trkpt>
      <trkpt lat="47.28325" lon="-2.35354">
        <ele>13.60000038147</ele>
        <time>2019-12-01T08:24:11.000Z</time>
      </trkpt>
      <trkpt lat="47.28342" lon="-2.35345">
        <ele>13.60000038147</ele>
        <time>2019-12-01T08:24:16.000Z</time>
      </trkpt>
      <trkpt lat="47.28351" lon="-2.35338">
        <ele>13.60000038147</ele>
        <time>2019-12-01T08:24:21.000Z</time>
      </trkpt>
      <trkpt lat="47.28353" lon="-2.35338">
        <ele>13.60000038147</ele>
        <time>2019-12-01T08:24:22.000Z</time>
      </trkpt>
      <trkpt lat="47.28358" lon="-2.35344">
        <ele>13.60000038147</ele>
        <time>2019-12-01T08:24:26.000Z</time>
      </trkpt>
      <trkpt lat="47.28361" lon="-2.35354">
        <ele>13.60000038147</ele>
        <time>2019-12-01T08:24:30.000Z</time>
      </trkpt>
      <trkpt lat="47.28362" lon="-2.35355">
        <ele>13.60000038147</ele>
        <time>2019-12-01T08:24:31.000Z</time>
      </trkpt>
      <trkpt lat="47.28362" lon="-2.35359">
        <ele>14.39999961853</ele>
        <time>2019-12-01T08:24:33.000Z</time>
      </trkpt>
      <trkpt lat="47.28362" lon="-2.35361">
        <ele>14.800000190735</ele>
        <time>2019-12-01T08:24:34.000Z</time>
      </trkpt>
      <trkpt lat="47.28363" lon="-2.35363">
        <ele>15.199999809265</ele>
        <time>2019-12-01T08:24:35.000Z</time>
      </trkpt>
      <trkpt lat="47.28364" lon="-2.35364">
        <ele>15.800000190735</ele>
        <time>2019-12-01T08:24:36.000Z</time>
      </trkpt>
      <trkpt lat="47.28365" lon="-2.35366">
        <ele>15.800000190735</ele>
        <time>2019-12-01T08:24:37.000Z</time>
      </trkpt>
      <trkpt lat="47.28368" lon="-2.35373">
        <ele>16.200000762939</ele>
        <time>2019-12-01T08:24:41.000Z</time>
      </trkpt>
      <trkpt lat="47.28368" lon="-2.35375">
        <ele>16.60000038147</ele>
        <time>2019-12-01T08:24:42.000Z</time>
      </trkpt>
      <trkpt lat="47.28369" lon="-2.35377">
        <ele>17</ele>
        <time>2019-12-01T08:24:43.000Z</time>
      </trkpt>
      <trkpt lat="47.2837" lon="-2.35379">
        <ele>17.39999961853</ele>
        <time>2019-12-01T08:24:44.000Z</time>
      </trkpt>
      <trkpt lat="47.28371" lon="-2.35381">
        <ele>18</ele>
        <time>2019-12-01T08:24:45.000Z</time>
      </trkpt>
      <trkpt lat="47.28371" lon="-2.35382">
        <ele>18.39999961853</ele>
        <time>2019-12-01T08:24:46.000Z</time>
      </trkpt>
      <trkpt lat="47.28372" lon="-2.35384">
        <ele>18.799999237061</ele>
        <time>2019-12-01T08:24:47.000Z</time>
      </trkpt>
      <trkpt lat="47.28373" lon="-2.35385">
        <ele>19.200000762939</ele>
        <time>2019-12-01T08:24:48.000Z</time>
      </trkpt>
      <trkpt lat="47.28374" lon="-2.35387">
        <ele>19.60000038147</ele>
        <time>2019-12-01T08:24:49.000Z</time>
      </trkpt>
      <trkpt lat="47.28375" lon="-2.35389">
        <ele>20</ele>
        <time>2019-12-01T08:24:50.000Z</time>
      </trkpt>
      <trkpt lat="47.28376" lon="-2.35392">
        <ele>20</ele>
        <time>2019-12-01T08:24:51.000Z</time>
      </trkpt>
      <trkpt lat="47.28377" lon="-2.35394">
        <ele>20.39999961853</ele>
        <time>2019-12-01T08:24:52.000Z</time>
      </trkpt>
      <trkpt lat="47.28378" lon="-2.35395">
        <ele>20.799999237061</ele>
        <time>2019-12-01T08:24:53.000Z</time>
      </trkpt>
      <trkpt lat="47.28379" lon="-2.35397">
        <ele>21.39999961853</ele>
        <time>2019-12-01T08:24:54.000Z</time>
      </trkpt>
      <trkpt lat="47.28381" lon="-2.35398">
        <ele>21.799999237061</ele>
        <time>2019-12-01T08:24:55.000Z</time>
      </trkpt>
      <trkpt lat="47.28381" lon="-2.354">
        <ele>22.200000762939</ele>
        <time>2019-12-01T08:24:56.000Z</time>
      </trkpt>
      <trkpt lat="47.28382" lon="-2.35402">
        <ele>22.200000762939</ele>
        <time>2019-12-01T08:24:57.000Z</time>
      </trkpt>
      <trkpt lat="47.28385" lon="-2.35408">
        <ele>22.60000038147</ele>
        <time>2019-12-01T08:24:59.000Z</time>
      </trkpt>
      <trkpt lat="47.28386" lon="-2.3541">
        <ele>23</ele>
        <time>2019-12-01T08:25:00.000Z</time>
      </trkpt>
      <trkpt lat="47.28387" lon="-2.35412">
        <ele>23.60000038147</ele>
        <time>2019-12-01T08:25:01.000Z</time>
      </trkpt>
      <trkpt lat="47.28388" lon="-2.35414">
        <ele>24</ele>
        <time>2019-12-01T08:25:02.000Z</time>
      </trkpt>
      <trkpt lat="47.28389" lon="-2.35416">
        <ele>24.39999961853</ele>
        <time>2019-12-01T08:25:03.000Z</time>
      </trkpt>
      <trkpt lat="47.2839" lon="-2.35418">
        <ele>24.39999961853</ele>
        <time>2019-12-01T08:25:04.000Z</time>
      </trkpt>
      <trkpt lat="47.28399" lon="-2.35427">
        <ele>24.39999961853</ele>
        <time>2019-12-01T08:25:10.000Z</time>
      </trkpt>
      <trkpt lat="47.28408" lon="-2.35432">
        <ele>24.39999961853</ele>
        <time>2019-12-01T08:25:16.000Z</time>
      </trkpt>
      <trkpt lat="47.28411" lon="-2.35432">
        <ele>24.39999961853</ele>
        <time>2019-12-01T08:25:19.000Z</time>
      </trkpt>
      <trkpt lat="47.28415" lon="-2.35425">
        <ele>24.39999961853</ele>
        <time>2019-12-01T08:25:22.000Z</time>
      </trkpt>
      <trkpt lat="47.28422" lon="-2.35417">
        <ele>24.39999961853</ele>
        <time>2019-12-01T08:25:27.000Z</time>
      </trkpt>
      <trkpt lat="47.28424" lon="-2.35416">
        <ele>24.39999961853</ele>
        <time>2019-12-01T08:25:28.000Z</time>
      </trkpt>
      <trkpt lat="47.2843" lon="-2.35412">
        <ele>24.799999237061</ele>
        <time>2019-12-01T08:25:33.000Z</time>
      </trkpt>
      <trkpt lat="47.28431" lon="-2.35412">
        <ele>25.200000762939</ele>
        <time>2019-12-01T08:25:34.000Z</time>
      </trkpt>
      <trkpt lat="47.28433" lon="-2.35412">
        <ele>25.60000038147</ele>
        <time>2019-12-01T08:25:35.000Z</time>
      </trkpt>
      <trkpt lat="47.28435" lon="-2.35412">
        <ele>26</ele>
        <time>2019-12-01T08:25:36.000Z</time>
      </trkpt>
      <trkpt lat="47.28437" lon="-2.35412">
        <ele>26.39999961853</ele>
        <time>2019-12-01T08:25:37.000Z</time>
      </trkpt>
      <trkpt lat="47.28442" lon="-2.3541">
        <ele>26.39999961853</ele>
        <time>2019-12-01T08:25:39.000Z</time>
      </trkpt>
      <trkpt lat="47.28443" lon="-2.35407">
        <ele>26.39999961853</ele>
        <time>2019-12-01T08:25:40.000Z</time>
      </trkpt>
      <trkpt lat="47.28444" lon="-2.35405">
        <ele>26</ele>
        <time>2019-12-01T08:25:41.000Z</time>
      </trkpt>
      <trkpt lat="47.28445" lon="-2.35402">
        <ele>25.60000038147</ele>
        <time>2019-12-01T08:25:42.000Z</time>
      </trkpt>
      <trkpt lat="47.28445" lon="-2.35398">
        <ele>25.200000762939</ele>
        <time>2019-12-01T08:25:43.000Z</time>
      </trkpt>
      <trkpt lat="47.28445" lon="-2.35394">
        <ele>24.60000038147</ele>
        <time>2019-12-01T08:25:44.000Z</time>
      </trkpt>
      <trkpt lat="47.28446" lon="-2.35389">
        <ele>24.200000762939</ele>
        <time>2019-12-01T08:25:45.000Z</time>
      </trkpt>
      <trkpt lat="47.28447" lon="-2.3538">
        <ele>23.799999237061</ele>
        <time>2019-12-01T08:25:47.000Z</time>
      </trkpt>
      <trkpt lat="47.28449" lon="-2.35376">
        <ele>23.39999961853</ele>
        <time>2019-12-01T08:25:48.000Z</time>
      </trkpt>
      <trkpt lat="47.2845" lon="-2.35371">
        <ele>22.799999237061</ele>
        <time>2019-12-01T08:25:49.000Z</time>
      </trkpt>
      <trkpt lat="47.28451" lon="-2.35367">
        <ele>22.39999961853</ele>
        <time>2019-12-01T08:25:50.000Z</time>
      </trkpt>
      <trkpt lat="47.28451" lon="-2.35362">
        <ele>21.799999237061</ele>
        <time>2019-12-01T08:25:51.000Z</time>
      </trkpt>
      <trkpt lat="47.28452" lon="-2.35359">
        <ele>21.39999961853</ele>
        <time>2019-12-01T08:25:52.000Z</time>
      </trkpt>
      <trkpt lat="47.28452" lon="-2.35356">
        <ele>20.799999237061</ele>
        <time>2019-12-01T08:25:53.000Z</time>
      </trkpt>
      <trkpt lat="47.28453" lon="-2.35353">
        <ele>20.200000762939</ele>
        <time>2019-12-01T08:25:54.000Z</time>
      </trkpt>
      <trkpt lat="47.28454" lon="-2.35351">
        <ele>19.799999237061</ele>
        <time>2019-12-01T08:25:55.000Z</time>
      </trkpt>
      <trkpt lat="47.28455" lon="-2.3535">
        <ele>19.200000762939</ele>
        <time>2019-12-01T08:25:56.000Z</time>
      </trkpt>
      <trkpt lat="47.28456" lon="-2.3535">
        <ele>18.799999237061</ele>
        <time>2019-12-01T08:25:57.000Z</time>
      </trkpt>
      <trkpt lat="47.28458" lon="-2.35352">
        <ele>18.39999961853</ele>
        <time>2019-12-01T08:25:58.000Z</time>
      </trkpt>
      <trkpt lat="47.28461" lon="-2.35355">
        <ele>17.799999237061</ele>
        <time>2019-12-01T08:25:59.000Z</time>
      </trkpt>
      <trkpt lat="47.28464" lon="-2.35358">
        <ele>17.39999961853</ele>
        <time>2019-12-01T08:26:00.000Z</time>
      </trkpt>
      <trkpt lat="47.28475" lon="-2.35376">
        <ele>17.39999961853</ele>
        <time>2019-12-01T08:26:04.000Z</time>
      </trkpt>
      <trkpt lat="47.28477" lon="-2.35382">
        <ele>17.39999961853</ele>
        <time>2019-12-01T08:26:05.000Z</time>
      </trkpt>
      <trkpt lat="47.28486" lon="-2.35409">
        <ele>17.39999961853</ele>
        <time>2019-12-01T08:26:10.000Z</time>
      </trkpt>
      <trkpt lat="47.28491" lon="-2.35424">
        <ele>17.39999961853</ele>
        <time>2019-12-01T08:26:15.000Z</time>
      </trkpt>
      <trkpt lat="47.28497" lon="-2.35438">
        <ele>17.799999237061</ele>
        <time>2019-12-01T08:26:20.000Z</time>
      </trkpt>
      <trkpt lat="47.28498" lon="-2.3544">
        <ele>18.200000762939</ele>
        <time>2019-12-01T08:26:21.000Z</time>
      </trkpt>
      <trkpt lat="47.28499" lon="-2.35443">
        <ele>18.60000038147</ele>
        <time>2019-12-01T08:26:22.000Z</time>
      </trkpt>
      <trkpt lat="47.28501" lon="-2.35445">
        <ele>19</ele>
        <time>2019-12-01T08:26:23.000Z</time>
      </trkpt>
      <trkpt lat="47.28502" lon="-2.35448">
        <ele>19.39999961853</ele>
        <time>2019-12-01T08:26:24.000Z</time>
      </trkpt>
      <trkpt lat="47.2851" lon="-2.35461">
        <ele>19.39999961853</ele>
        <time>2019-12-01T08:26:28.000Z</time>
      </trkpt>
      <trkpt lat="47.28518" lon="-2.35472">
        <ele>19.39999961853</ele>
        <time>2019-12-01T08:26:33.000Z</time>
      </trkpt>
      <trkpt lat="47.28519" lon="-2.35473">
        <ele>19.39999961853</ele>
        <time>2019-12-01T08:26:34.000Z</time>
      </trkpt>
      <trkpt lat="47.28521" lon="-2.3548">
        <ele>19.39999961853</ele>
        <time>2019-12-01T08:26:43.000Z</time>
      </trkpt>
      <trkpt lat="47.28522" lon="-2.35486">
        <ele>19.39999961853</ele>
        <time>2019-12-01T08:26:45.000Z</time>
      </trkpt>
      <trkpt lat="47.28523" lon="-2.35505">
        <ele>19.39999961853</ele>
        <time>2019-12-01T08:26:51.000Z</time>
      </trkpt>
      <trkpt lat="47.28525" lon="-2.35513">
        <ele>19.39999961853</ele>
        <time>2019-12-01T08:26:53.000Z</time>
      </trkpt>
      <trkpt lat="47.28527" lon="-2.35521">
        <ele>20.39999961853</ele>
        <time>2019-12-01T08:26:55.000Z</time>
      </trkpt>
      <trkpt lat="47.28527" lon="-2.35524">
        <ele>20.799999237061</ele>
        <time>2019-12-01T08:26:56.000Z</time>
      </trkpt>
      <trkpt lat="47.28528" lon="-2.35527">
        <ele>21.200000762939</ele>
        <time>2019-12-01T08:26:57.000Z</time>
      </trkpt>
      <trkpt lat="47.28529" lon="-2.3553">
        <ele>21.60000038147</ele>
        <time>2019-12-01T08:26:58.000Z</time>
      </trkpt>
      <trkpt lat="47.28534" lon="-2.35546">
        <ele>21.60000038147</ele>
        <time>2019-12-01T08:27:03.000Z</time>
      </trkpt>
      <trkpt lat="47.28536" lon="-2.35561">
        <ele>22.200000762939</ele>
        <time>2019-12-01T08:27:08.000Z</time>
      </trkpt>
      <trkpt lat="47.28535" lon="-2.35564">
        <ele>22.60000038147</ele>
        <time>2019-12-01T08:27:09.000Z</time>
      </trkpt>
      <trkpt lat="47.28535" lon="-2.35567">
        <ele>23</ele>
        <time>2019-12-01T08:27:10.000Z</time>
      </trkpt>
      <trkpt lat="47.28534" lon="-2.3557">
        <ele>23.39999961853</ele>
        <time>2019-12-01T08:27:11.000Z</time>
      </trkpt>
      <trkpt lat="47.28533" lon="-2.35575">
        <ele>23.799999237061</ele>
        <time>2019-12-01T08:27:12.000Z</time>
      </trkpt>
      <trkpt lat="47.28531" lon="-2.35586">
        <ele>23.799999237061</ele>
        <time>2019-12-01T08:27:15.000Z</time>
      </trkpt>
      <trkpt lat="47.28531" lon="-2.35589">
        <ele>24.200000762939</ele>
        <time>2019-12-01T08:27:16.000Z</time>
      </trkpt>
      <trkpt lat="47.2853" lon="-2.35593">
        <ele>24.799999237061</ele>
        <time>2019-12-01T08:27:17.000Z</time>
      </trkpt>
      <trkpt lat="47.28528" lon="-2.35596">
        <ele>25.200000762939</ele>
        <time>2019-12-01T08:27:18.000Z</time>
      </trkpt>
      <trkpt lat="47.28526" lon="-2.35599">
        <ele>25.60000038147</ele>
        <time>2019-12-01T08:27:19.000Z</time>
      </trkpt>
      <trkpt lat="47.28524" lon="-2.35601">
        <ele>26</ele>
        <time>2019-12-01T08:27:20.000Z</time>
      </trkpt>
      <trkpt lat="47.28514" lon="-2.35606">
        <ele>26.39999961853</ele>
        <time>2019-12-01T08:27:24.000Z</time>
      </trkpt>
      <trkpt lat="47.28511" lon="-2.35606">
        <ele>26.799999237061</ele>
        <time>2019-12-01T08:27:25.000Z</time>
      </trkpt>
      <trkpt lat="47.28509" lon="-2.35605">
        <ele>27.39999961853</ele>
        <time>2019-12-01T08:27:26.000Z</time>
      </trkpt>
      <trkpt lat="47.28507" lon="-2.35603">
        <ele>27.799999237061</ele>
        <time>2019-12-01T08:27:27.000Z</time>
      </trkpt>
      <trkpt lat="47.28506" lon="-2.35602">
        <ele>28.200000762939</ele>
        <time>2019-12-01T08:27:28.000Z</time>
      </trkpt>
      <trkpt lat="47.28505" lon="-2.35601">
        <ele>28.200000762939</ele>
        <time>2019-12-01T08:27:29.000Z</time>
      </trkpt>
      <trkpt lat="47.28504" lon="-2.35595">
        <ele>28.200000762939</ele>
        <time>2019-12-01T08:27:31.000Z</time>
      </trkpt>
      <trkpt lat="47.28502" lon="-2.35587">
        <ele>28.200000762939</ele>
        <time>2019-12-01T08:27:34.000Z</time>
      </trkpt>
      <trkpt lat="47.28501" lon="-2.35585">
        <ele>28.60000038147</ele>
        <time>2019-12-01T08:27:35.000Z</time>
      </trkpt>
      <trkpt lat="47.285" lon="-2.35583">
        <ele>29</ele>
        <time>2019-12-01T08:27:36.000Z</time>
      </trkpt>
      <trkpt lat="47.28499" lon="-2.3558">
        <ele>29.39999961853</ele>
        <time>2019-12-01T08:27:37.000Z</time>
      </trkpt>
      <trkpt lat="47.28499" lon="-2.35577">
        <ele>30</ele>
        <time>2019-12-01T08:27:38.000Z</time>
      </trkpt>
      <trkpt lat="47.28498" lon="-2.35575">
        <ele>30.39999961853</ele>
        <time>2019-12-01T08:27:39.000Z</time>
      </trkpt>
      <trkpt lat="47.28496" lon="-2.35571">
        <ele>30.39999961853</ele>
        <time>2019-12-01T08:27:41.000Z</time>
      </trkpt>
      <trkpt lat="47.28495" lon="-2.35569">
        <ele>30.39999961853</ele>
        <time>2019-12-01T08:27:42.000Z</time>
      </trkpt>
      <trkpt lat="47.28487" lon="-2.35556">
        <ele>30.39999961853</ele>
        <time>2019-12-01T08:27:47.000Z</time>
      </trkpt>
      <trkpt lat="47.28485" lon="-2.35548">
        <ele>30.799999237061</ele>
        <time>2019-12-01T08:27:49.000Z</time>
      </trkpt>
      <trkpt lat="47.28485" lon="-2.35544">
        <ele>31.200000762939</ele>
        <time>2019-12-01T08:27:50.000Z</time>
      </trkpt>
      <trkpt lat="47.28484" lon="-2.35541">
        <ele>31.60000038147</ele>
        <time>2019-12-01T08:27:51.000Z</time>
      </trkpt>
      <trkpt lat="47.28484" lon="-2.35539">
        <ele>32</ele>
        <time>2019-12-01T08:27:52.000Z</time>
      </trkpt>
      <trkpt lat="47.28484" lon="-2.35537">
        <ele>32.400001525879</ele>
        <time>2019-12-01T08:27:53.000Z</time>
      </trkpt>
      <trkpt lat="47.2848" lon="-2.35526">
        <ele>32.400001525879</ele>
        <time>2019-12-01T08:27:59.000Z</time>
      </trkpt>
      <trkpt lat="47.28479" lon="-2.35523">
        <ele>32.400001525879</ele>
        <time>2019-12-01T08:28:01.000Z</time>
      </trkpt>
      <trkpt lat="47.28478" lon="-2.35518">
        <ele>32.400001525879</ele>
        <time>2019-12-01T08:28:34.000Z</time>
      </trkpt>
      <trkpt lat="47.28477" lon="-2.35513">
        <ele>32.400001525879</ele>
        <time>2019-12-01T08:28:36.000Z</time>
      </trkpt>
      <trkpt lat="47.28474" lon="-2.35507">
        <ele>32.400001525879</ele>
        <time>2019-12-01T08:28:38.000Z</time>
      </trkpt>
      <trkpt lat="47.28468" lon="-2.35499">
        <ele>32.400001525879</ele>
        <time>2019-12-01T08:28:40.000Z</time>
      </trkpt>
      <trkpt lat="47.28459" lon="-2.35483">
        <ele>32</ele>
        <time>2019-12-01T08:28:43.000Z</time>
      </trkpt>
      <trkpt lat="47.28458" lon="-2.35478">
        <ele>31.60000038147</ele>
        <time>2019-12-01T08:28:44.000Z</time>
      </trkpt>
      <trkpt lat="47.28456" lon="-2.35474">
        <ele>31</ele>
        <time>2019-12-01T08:28:45.000Z</time>
      </trkpt>
      <trkpt lat="47.28455" lon="-2.35468">
        <ele>30.60000038147</ele>
        <time>2019-12-01T08:28:46.000Z</time>
      </trkpt>
      <trkpt lat="47.28454" lon="-2.35463">
        <ele>30.200000762939</ele>
        <time>2019-12-01T08:28:47.000Z</time>
      </trkpt>
      <trkpt lat="47.28451" lon="-2.35457">
        <ele>29.799999237061</ele>
        <time>2019-12-01T08:28:48.000Z</time>
      </trkpt>
      <trkpt lat="47.28448" lon="-2.35451">
        <ele>29.39999961853</ele>
        <time>2019-12-01T08:28:49.000Z</time>
      </trkpt>
      <trkpt lat="47.28444" lon="-2.35447">
        <ele>29</ele>
        <time>2019-12-01T08:28:50.000Z</time>
      </trkpt>
      <trkpt lat="47.2844" lon="-2.35444">
        <ele>28.39999961853</ele>
        <time>2019-12-01T08:28:51.000Z</time>
      </trkpt>
      <trkpt lat="47.28435" lon="-2.35443">
        <ele>27.60000038147</ele>
        <time>2019-12-01T08:28:52.000Z</time>
      </trkpt>
      <trkpt lat="47.2843" lon="-2.35443">
        <ele>27</ele>
        <time>2019-12-01T08:28:53.000Z</time>
      </trkpt>
      <trkpt lat="47.28424" lon="-2.35441">
        <ele>26.39999961853</ele>
        <time>2019-12-01T08:28:54.000Z</time>
      </trkpt>
      <trkpt lat="47.28419" lon="-2.35439">
        <ele>25.60000038147</ele>
        <time>2019-12-01T08:28:55.000Z</time>
      </trkpt>
      <trkpt lat="47.28415" lon="-2.35437">
        <ele>25.200000762939</ele>
        <time>2019-12-01T08:28:56.000Z</time>
      </trkpt>
      <trkpt lat="47.28411" lon="-2.35436">
        <ele>24.799999237061</ele>
        <time>2019-12-01T08:28:57.000Z</time>
      </trkpt>
      <trkpt lat="47.28408" lon="-2.35435">
        <ele>24.39999961853</ele>
        <time>2019-12-01T08:28:58.000Z</time>
      </trkpt>
      <trkpt lat="47.28405" lon="-2.35436">
        <ele>23.60000038147</ele>
        <time>2019-12-01T08:28:59.000Z</time>
      </trkpt>
      <trkpt lat="47.28404" lon="-2.35438">
        <ele>23.60000038147</ele>
        <time>2019-12-01T08:29:00.000Z</time>
      </trkpt>
      <trkpt lat="47.28404" lon="-2.35453">
        <ele>23.60000038147</ele>
        <time>2019-12-01T08:29:04.000Z</time>
      </trkpt>
      <trkpt lat="47.28406" lon="-2.35469">
        <ele>23.200000762939</ele>
        <time>2019-12-01T08:29:07.000Z</time>
      </trkpt>
      <trkpt lat="47.28406" lon="-2.35476">
        <ele>22.799999237061</ele>
        <time>2019-12-01T08:29:08.000Z</time>
      </trkpt>
      <trkpt lat="47.28406" lon="-2.35484">
        <ele>22.200000762939</ele>
        <time>2019-12-01T08:29:09.000Z</time>
      </trkpt>
      <trkpt lat="47.28406" lon="-2.35495">
        <ele>21.799999237061</ele>
        <time>2019-12-01T08:29:10.000Z</time>
      </trkpt>
      <trkpt lat="47.28405" lon="-2.35503">
        <ele>21.39999961853</ele>
        <time>2019-12-01T08:29:11.000Z</time>
      </trkpt>
      <trkpt lat="47.28405" lon="-2.35512">
        <ele>21.39999961853</ele>
        <time>2019-12-01T08:29:12.000Z</time>
      </trkpt>
      <trkpt lat="47.28406" lon="-2.35519">
        <ele>21.39999961853</ele>
        <time>2019-12-01T08:29:13.000Z</time>
      </trkpt>
      <trkpt lat="47.28411" lon="-2.35531">
        <ele>21</ele>
        <time>2019-12-01T08:29:15.000Z</time>
      </trkpt>
      <trkpt lat="47.28414" lon="-2.35536">
        <ele>20.60000038147</ele>
        <time>2019-12-01T08:29:16.000Z</time>
      </trkpt>
      <trkpt lat="47.28417" lon="-2.35542">
        <ele>20</ele>
        <time>2019-12-01T08:29:17.000Z</time>
      </trkpt>
      <trkpt lat="47.28419" lon="-2.35548">
        <ele>19.60000038147</ele>
        <time>2019-12-01T08:29:18.000Z</time>
      </trkpt>
      <trkpt lat="47.2842" lon="-2.35554">
        <ele>19.200000762939</ele>
        <time>2019-12-01T08:29:19.000Z</time>
      </trkpt>
      <trkpt lat="47.28429" lon="-2.35574">
        <ele>19.200000762939</ele>
        <time>2019-12-01T08:29:23.000Z</time>
      </trkpt>
      <trkpt lat="47.28439" lon="-2.35594">
        <ele>19.200000762939</ele>
        <time>2019-12-01T08:29:27.000Z</time>
      </trkpt>
      <trkpt lat="47.28441" lon="-2.35615">
        <ele>19.200000762939</ele>
        <time>2019-12-01T08:29:31.000Z</time>
      </trkpt>
      <trkpt lat="47.2843" lon="-2.35645">
        <ele>19.200000762939</ele>
        <time>2019-12-01T08:29:36.000Z</time>
      </trkpt>
      <trkpt lat="47.28414" lon="-2.35686">
        <ele>19.200000762939</ele>
        <time>2019-12-01T08:29:43.000Z</time>
      </trkpt>
      <trkpt lat="47.28414" lon="-2.35707">
        <ele>19.200000762939</ele>
        <time>2019-12-01T08:29:47.000Z</time>
      </trkpt>
      <trkpt lat="47.28419" lon="-2.35732">
        <ele>19.200000762939</ele>
        <time>2019-12-01T08:29:52.000Z</time>
      </trkpt>
      <trkpt lat="47.28418" lon="-2.35736">
        <ele>19.200000762939</ele>
        <time>2019-12-01T08:29:53.000Z</time>
      </trkpt>
      <trkpt lat="47.28415" lon="-2.35745">
        <ele>19.200000762939</ele>
        <time>2019-12-01T08:29:56.000Z</time>
      </trkpt>
      <trkpt lat="47.28414" lon="-2.35748">
        <ele>19.200000762939</ele>
        <time>2019-12-01T08:29:57.000Z</time>
      </trkpt>
      <trkpt lat="47.28415" lon="-2.35752">
        <ele>19.200000762939</ele>
        <time>2019-12-01T08:29:59.000Z</time>
      </trkpt>
      <trkpt lat="47.28416" lon="-2.35755">
        <ele>19.200000762939</ele>
        <time>2019-12-01T08:30:00.000Z</time>
      </trkpt>
      <trkpt lat="47.2842" lon="-2.35767">
        <ele>19.200000762939</ele>
        <time>2019-12-01T08:30:03.000Z</time>
      </trkpt>
      <trkpt lat="47.2842" lon="-2.35772">
        <ele>19.200000762939</ele>
        <time>2019-12-01T08:30:04.000Z</time>
      </trkpt>
      <trkpt lat="47.28422" lon="-2.3578">
        <ele>19.200000762939</ele>
        <time>2019-12-01T08:30:06.000Z</time>
      </trkpt>
      <trkpt lat="47.28428" lon="-2.35785">
        <ele>19.200000762939</ele>
        <time>2019-12-01T08:30:08.000Z</time>
      </trkpt>
      <trkpt lat="47.28436" lon="-2.35787">
        <ele>19.200000762939</ele>
        <time>2019-12-01T08:30:10.000Z</time>
      </trkpt>
      <trkpt lat="47.28446" lon="-2.35791">
        <ele>19.200000762939</ele>
        <time>2019-12-01T08:30:13.000Z</time>
      </trkpt>
      <trkpt lat="47.28454" lon="-2.35805">
        <ele>19.200000762939</ele>
        <time>2019-12-01T08:30:17.000Z</time>
      </trkpt>
      <trkpt lat="47.28455" lon="-2.35808">
        <ele>19.200000762939</ele>
        <time>2019-12-01T08:30:18.000Z</time>
      </trkpt>
      <trkpt lat="47.28456" lon="-2.35818">
        <ele>19.200000762939</ele>
        <time>2019-12-01T08:30:22.000Z</time>
      </trkpt>
      <trkpt lat="47.28456" lon="-2.35818">
        <ele>19.200000762939</ele>
        <time>2019-12-01T08:30:23.000Z</time>
      </trkpt>
      <trkpt lat="47.28455" lon="-2.35825">
        <ele>19.200000762939</ele>
        <time>2019-12-01T08:30:33.000Z</time>
      </trkpt>
      <trkpt lat="47.28453" lon="-2.35828">
        <ele>19.200000762939</ele>
        <time>2019-12-01T08:30:34.000Z</time>
      </trkpt>
      <trkpt lat="47.28442" lon="-2.35831">
        <ele>19.200000762939</ele>
        <time>2019-12-01T08:30:38.000Z</time>
      </trkpt>
      <trkpt lat="47.28427" lon="-2.35838">
        <ele>19.200000762939</ele>
        <time>2019-12-01T08:30:43.000Z</time>
      </trkpt>
      <trkpt lat="47.28425" lon="-2.35837">
        <ele>19.200000762939</ele>
        <time>2019-12-01T08:30:44.000Z</time>
      </trkpt>
      <trkpt lat="47.28421" lon="-2.35833">
        <ele>19.200000762939</ele>
        <time>2019-12-01T08:30:46.000Z</time>
      </trkpt>
      <trkpt lat="47.28417" lon="-2.35829">
        <ele>19.200000762939</ele>
        <time>2019-12-01T08:30:48.000Z</time>
      </trkpt>
      <trkpt lat="47.28412" lon="-2.35822">
        <ele>19.200000762939</ele>
        <time>2019-12-01T08:30:50.000Z</time>
      </trkpt>
      <trkpt lat="47.28395" lon="-2.35805">
        <ele>19.200000762939</ele>
        <time>2019-12-01T08:30:55.000Z</time>
      </trkpt>
      <trkpt lat="47.2838" lon="-2.35793">
        <ele>19.200000762939</ele>
        <time>2019-12-01T08:30:59.000Z</time>
      </trkpt>
      <trkpt lat="47.28374" lon="-2.35794">
        <ele>19.200000762939</ele>
        <time>2019-12-01T08:31:00.000Z</time>
      </trkpt>
      <trkpt lat="47.28359" lon="-2.35801">
        <ele>19.200000762939</ele>
        <time>2019-12-01T08:31:04.000Z</time>
      </trkpt>
      <trkpt lat="47.28343" lon="-2.35817">
        <ele>19.200000762939</ele>
        <time>2019-12-01T08:31:10.000Z</time>
      </trkpt>
      <trkpt lat="47.2833" lon="-2.35833">
        <ele>19.200000762939</ele>
        <time>2019-12-01T08:31:15.000Z</time>
      </trkpt>
      <trkpt lat="47.28311" lon="-2.35845">
        <ele>19.200000762939</ele>
        <time>2019-12-01T08:31:20.000Z</time>
      </trkpt>
      <trkpt lat="47.28301" lon="-2.35852">
        <ele>19.200000762939</ele>
        <time>2019-12-01T08:31:22.000Z</time>
      </trkpt>
      <trkpt lat="47.28297" lon="-2.35856">
        <ele>19.200000762939</ele>
        <time>2019-12-01T08:31:23.000Z</time>
      </trkpt>
      <trkpt lat="47.28289" lon="-2.3586">
        <ele>18.799999237061</ele>
        <time>2019-12-01T08:31:25.000Z</time>
      </trkpt>
      <trkpt lat="47.28286" lon="-2.3586">
        <ele>18</ele>
        <time>2019-12-01T08:31:26.000Z</time>
      </trkpt>
      <trkpt lat="47.28283" lon="-2.35858">
        <ele>17.60000038147</ele>
        <time>2019-12-01T08:31:27.000Z</time>
      </trkpt>
      <trkpt lat="47.28281" lon="-2.35858">
        <ele>17.200000762939</ele>
        <time>2019-12-01T08:31:28.000Z</time>
      </trkpt>
      <trkpt lat="47.28277" lon="-2.35855">
        <ele>17.200000762939</ele>
        <time>2019-12-01T08:31:30.000Z</time>
      </trkpt>
      <trkpt lat="47.28275" lon="-2.35853">
        <ele>17.200000762939</ele>
        <time>2019-12-01T08:31:31.000Z</time>
      </trkpt>
      <trkpt lat="47.2827" lon="-2.35842">
        <ele>17.200000762939</ele>
        <time>2019-12-01T08:31:34.000Z</time>
      </trkpt>
      <trkpt lat="47.28267" lon="-2.35823">
        <ele>17.200000762939</ele>
        <time>2019-12-01T08:31:38.000Z</time>
      </trkpt>
      <trkpt lat="47.28264" lon="-2.35805">
        <ele>17.200000762939</ele>
        <time>2019-12-01T08:31:42.000Z</time>
      </trkpt>
      <trkpt lat="47.28262" lon="-2.35801">
        <ele>17.200000762939</ele>
        <time>2019-12-01T08:31:43.000Z</time>
      </trkpt>
      <trkpt lat="47.28255" lon="-2.35791">
        <ele>17.200000762939</ele>
        <time>2019-12-01T08:31:47.000Z</time>
      </trkpt>
      <trkpt lat="47.28246" lon="-2.35782">
        <ele>17.200000762939</ele>
        <time>2019-12-01T08:31:52.000Z</time>
      </trkpt>
      <trkpt lat="47.2824" lon="-2.35774">
        <ele>17.200000762939</ele>
        <time>2019-12-01T08:31:56.000Z</time>
      </trkpt>
      <trkpt lat="47.28238" lon="-2.35769">
        <ele>17.200000762939</ele>
        <time>2019-12-01T08:31:58.000Z</time>
      </trkpt>
      <trkpt lat="47.28236" lon="-2.35757">
        <ele>17.200000762939</ele>
        <time>2019-12-01T08:32:01.000Z</time>
      </trkpt>
      <trkpt lat="47.28234" lon="-2.3575">
        <ele>17.200000762939</ele>
        <time>2019-12-01T08:32:03.000Z</time>
      </trkpt>
      <trkpt lat="47.28232" lon="-2.35747">
        <ele>17.200000762939</ele>
        <time>2019-12-01T08:32:04.000Z</time>
      </trkpt>
      <trkpt lat="47.28228" lon="-2.35743">
        <ele>17.200000762939</ele>
        <time>2019-12-01T08:32:06.000Z</time>
      </trkpt>
      <trkpt lat="47.28219" lon="-2.35744">
        <ele>17.200000762939</ele>
        <time>2019-12-01T08:32:10.000Z</time>
      </trkpt>
      <trkpt lat="47.28218" lon="-2.35743">
        <ele>17.200000762939</ele>
        <time>2019-12-01T08:32:11.000Z</time>
      </trkpt>
      <trkpt lat="47.28217" lon="-2.35741">
        <ele>16.799999237061</ele>
        <time>2019-12-01T08:32:13.000Z</time>
      </trkpt>
      <trkpt lat="47.28216" lon="-2.3574">
        <ele>16.39999961853</ele>
        <time>2019-12-01T08:32:14.000Z</time>
      </trkpt>
      <trkpt lat="47.28215" lon="-2.35739">
        <ele>16</ele>
        <time>2019-12-01T08:32:15.000Z</time>
      </trkpt>
      <trkpt lat="47.28214" lon="-2.35738">
        <ele>15.199999809265</ele>
        <time>2019-12-01T08:32:16.000Z</time>
      </trkpt>
      <trkpt lat="47.28211" lon="-2.35731">
        <ele>15.199999809265</ele>
        <time>2019-12-01T08:32:18.000Z</time>
      </trkpt>
      <trkpt lat="47.28201" lon="-2.35718">
        <ele>15.199999809265</ele>
        <time>2019-12-01T08:32:23.000Z</time>
      </trkpt>
      <trkpt lat="47.28199" lon="-2.35717">
        <ele>15.199999809265</ele>
        <time>2019-12-01T08:32:24.000Z</time>
      </trkpt>
      <trkpt lat="47.28191" lon="-2.35708">
        <ele>15.199999809265</ele>
        <time>2019-12-01T08:32:31.000Z</time>
      </trkpt>
      <trkpt lat="47.2819" lon="-2.35706">
        <ele>15.60000038147</ele>
        <time>2019-12-01T08:32:32.000Z</time>
      </trkpt>
      <trkpt lat="47.28189" lon="-2.35704">
        <ele>16</ele>
        <time>2019-12-01T08:32:33.000Z</time>
      </trkpt>
      <trkpt lat="47.28187" lon="-2.35702">
        <ele>16.60000038147</ele>
        <time>2019-12-01T08:32:34.000Z</time>
      </trkpt>
      <trkpt lat="47.28186" lon="-2.357">
        <ele>17</ele>
        <time>2019-12-01T08:32:35.000Z</time>
      </trkpt>
      <trkpt lat="47.28185" lon="-2.35699">
        <ele>17.39999961853</ele>
        <time>2019-12-01T08:32:36.000Z</time>
      </trkpt>
      <trkpt lat="47.28184" lon="-2.35697">
        <ele>17.39999961853</ele>
        <time>2019-12-01T08:32:37.000Z</time>
      </trkpt>
      <trkpt lat="47.28181" lon="-2.35691">
        <ele>18.39999961853</ele>
        <time>2019-12-01T08:32:40.000Z</time>
      </trkpt>
      <trkpt lat="47.2818" lon="-2.35689">
        <ele>18.799999237061</ele>
        <time>2019-12-01T08:32:41.000Z</time>
      </trkpt>
      <trkpt lat="47.28179" lon="-2.35688">
        <ele>19.200000762939</ele>
        <time>2019-12-01T08:32:42.000Z</time>
      </trkpt>
      <trkpt lat="47.28178" lon="-2.35687">
        <ele>19.60000038147</ele>
        <time>2019-12-01T08:32:43.000Z</time>
      </trkpt>
      <trkpt lat="47.28177" lon="-2.35686">
        <ele>20</ele>
        <time>2019-12-01T08:32:44.000Z</time>
      </trkpt>
      <trkpt lat="47.28177" lon="-2.35684">
        <ele>20.39999961853</ele>
        <time>2019-12-01T08:32:45.000Z</time>
      </trkpt>
      <trkpt lat="47.28176" lon="-2.35684">
        <ele>20.799999237061</ele>
        <time>2019-12-01T08:32:46.000Z</time>
      </trkpt>
      <trkpt lat="47.28174" lon="-2.35685">
        <ele>21.200000762939</ele>
        <time>2019-12-01T08:32:47.000Z</time>
      </trkpt>
      <trkpt lat="47.28173" lon="-2.35684">
        <ele>21.60000038147</ele>
        <time>2019-12-01T08:32:48.000Z</time>
      </trkpt>
      <trkpt lat="47.28171" lon="-2.35683">
        <ele>21.60000038147</ele>
        <time>2019-12-01T08:32:49.000Z</time>
      </trkpt>
      <trkpt lat="47.28163" lon="-2.35675">
        <ele>22.200000762939</ele>
        <time>2019-12-01T08:32:55.000Z</time>
      </trkpt>
      <trkpt lat="47.28162" lon="-2.35673">
        <ele>22.60000038147</ele>
        <time>2019-12-01T08:32:56.000Z</time>
      </trkpt>
      <trkpt lat="47.2816" lon="-2.3567">
        <ele>23</ele>
        <time>2019-12-01T08:32:57.000Z</time>
      </trkpt>
      <trkpt lat="47.28158" lon="-2.35667">
        <ele>23.39999961853</ele>
        <time>2019-12-01T08:32:58.000Z</time>
      </trkpt>
      <trkpt lat="47.28156" lon="-2.35666">
        <ele>24</ele>
        <time>2019-12-01T08:32:59.000Z</time>
      </trkpt>
      <trkpt lat="47.28154" lon="-2.35667">
        <ele>24</ele>
        <time>2019-12-01T08:33:00.000Z</time>
      </trkpt>
      <trkpt lat="47.28144" lon="-2.35673">
        <ele>24</ele>
        <time>2019-12-01T08:33:06.000Z</time>
      </trkpt>
      <trkpt lat="47.28132" lon="-2.35679">
        <ele>24</ele>
        <time>2019-12-01T08:33:11.000Z</time>
      </trkpt>
      <trkpt lat="47.28122" lon="-2.35682">
        <ele>23.60000038147</ele>
        <time>2019-12-01T08:33:16.000Z</time>
      </trkpt>
      <trkpt lat="47.28119" lon="-2.35683">
        <ele>23</ele>
        <time>2019-12-01T08:33:17.000Z</time>
      </trkpt>
      <trkpt lat="47.28115" lon="-2.35685">
        <ele>22.60000038147</ele>
        <time>2019-12-01T08:33:18.000Z</time>
      </trkpt>
      <trkpt lat="47.28112" lon="-2.35687">
        <ele>22.200000762939</ele>
        <time>2019-12-01T08:33:19.000Z</time>
      </trkpt>
      <trkpt lat="47.28109" lon="-2.35689">
        <ele>21.60000038147</ele>
        <time>2019-12-01T08:33:20.000Z</time>
      </trkpt>
      <trkpt lat="47.28107" lon="-2.35691">
        <ele>21</ele>
        <time>2019-12-01T08:33:21.000Z</time>
      </trkpt>
      <trkpt lat="47.28105" lon="-2.35693">
        <ele>20.39999961853</ele>
        <time>2019-12-01T08:33:22.000Z</time>
      </trkpt>
      <trkpt lat="47.28104" lon="-2.35694">
        <ele>19.799999237061</ele>
        <time>2019-12-01T08:33:23.000Z</time>
      </trkpt>
      <trkpt lat="47.28102" lon="-2.35696">
        <ele>19.200000762939</ele>
        <time>2019-12-01T08:33:24.000Z</time>
      </trkpt>
      <trkpt lat="47.28102" lon="-2.35699">
        <ele>19.200000762939</ele>
        <time>2019-12-01T08:33:25.000Z</time>
      </trkpt>
      <trkpt lat="47.28101" lon="-2.35709">
        <ele>19.200000762939</ele>
        <time>2019-12-01T08:33:28.000Z</time>
      </trkpt>
      <trkpt lat="47.28094" lon="-2.35723">
        <ele>19.200000762939</ele>
        <time>2019-12-01T08:33:34.000Z</time>
      </trkpt>
      <trkpt lat="47.28091" lon="-2.35733">
        <ele>18.799999237061</ele>
        <time>2019-12-01T08:33:37.000Z</time>
      </trkpt>
      <trkpt lat="47.28089" lon="-2.35737">
        <ele>18.39999961853</ele>
        <time>2019-12-01T08:33:38.000Z</time>
      </trkpt>
      <trkpt lat="47.28088" lon="-2.35743">
        <ele>18</ele>
        <time>2019-12-01T08:33:39.000Z</time>
      </trkpt>
      <trkpt lat="47.28087" lon="-2.3575">
        <ele>17.60000038147</ele>
        <time>2019-12-01T08:33:40.000Z</time>
      </trkpt>
      <trkpt lat="47.28087" lon="-2.35756">
        <ele>17.200000762939</ele>
        <time>2019-12-01T08:33:41.000Z</time>
      </trkpt>
      <trkpt lat="47.28087" lon="-2.35761">
        <ele>17.200000762939</ele>
        <time>2019-12-01T08:33:42.000Z</time>
      </trkpt>
      <trkpt lat="47.28081" lon="-2.35777">
        <ele>17.200000762939</ele>
        <time>2019-12-01T08:33:46.000Z</time>
      </trkpt>
      <trkpt lat="47.2808" lon="-2.3578">
        <ele>16.799999237061</ele>
        <time>2019-12-01T08:33:47.000Z</time>
      </trkpt>
      <trkpt lat="47.28078" lon="-2.35784">
        <ele>16.39999961853</ele>
        <time>2019-12-01T08:33:48.000Z</time>
      </trkpt>
      <trkpt lat="47.28077" lon="-2.35788">
        <ele>15.800000190735</ele>
        <time>2019-12-01T08:33:49.000Z</time>
      </trkpt>
      <trkpt lat="47.28077" lon="-2.35792">
        <ele>15.39999961853</ele>
        <time>2019-12-01T08:33:50.000Z</time>
      </trkpt>
      <trkpt lat="47.28078" lon="-2.35796">
        <ele>15</ele>
        <time>2019-12-01T08:33:51.000Z</time>
      </trkpt>
      <trkpt lat="47.28081" lon="-2.35803">
        <ele>15</ele>
        <time>2019-12-01T08:33:53.000Z</time>
      </trkpt>
      <trkpt lat="47.28083" lon="-2.35806">
        <ele>14.199999809265</ele>
        <time>2019-12-01T08:33:54.000Z</time>
      </trkpt>
      <trkpt lat="47.28084" lon="-2.35809">
        <ele>13.800000190735</ele>
        <time>2019-12-01T08:33:55.000Z</time>
      </trkpt>
      <trkpt lat="47.28087" lon="-2.35812">
        <ele>13.199999809265</ele>
        <time>2019-12-01T08:33:56.000Z</time>
      </trkpt>
      <trkpt lat="47.28089" lon="-2.35816">
        <ele>12.800000190735</ele>
        <time>2019-12-01T08:33:57.000Z</time>
      </trkpt>
      <trkpt lat="47.28093" lon="-2.35825">
        <ele>12.800000190735</ele>
        <time>2019-12-01T08:34:00.000Z</time>
      </trkpt>
      <trkpt lat="47.28102" lon="-2.35835">
        <ele>12.800000190735</ele>
        <time>2019-12-01T08:34:05.000Z</time>
      </trkpt>
      <trkpt lat="47.28111" lon="-2.35836">
        <ele>12.800000190735</ele>
        <time>2019-12-01T08:34:11.000Z</time>
      </trkpt>
      <trkpt lat="47.28113" lon="-2.35837">
        <ele>13.199999809265</ele>
        <time>2019-12-01T08:34:12.000Z</time>
      </trkpt>
      <trkpt lat="47.28115" lon="-2.35837">
        <ele>13.60000038147</ele>
        <time>2019-12-01T08:34:13.000Z</time>
      </trkpt>
      <trkpt lat="47.28117" lon="-2.35839">
        <ele>14.199999809265</ele>
        <time>2019-12-01T08:34:14.000Z</time>
      </trkpt>
      <trkpt lat="47.28118" lon="-2.3584">
        <ele>14.60000038147</ele>
        <time>2019-12-01T08:34:15.000Z</time>
      </trkpt>
      <trkpt lat="47.28119" lon="-2.35842">
        <ele>15</ele>
        <time>2019-12-01T08:34:16.000Z</time>
      </trkpt>
      <trkpt lat="47.2812" lon="-2.35844">
        <ele>15</ele>
        <time>2019-12-01T08:34:17.000Z</time>
      </trkpt>
      <trkpt lat="47.28122" lon="-2.35857">
        <ele>14.60000038147</ele>
        <time>2019-12-01T08:34:20.000Z</time>
      </trkpt>
      <trkpt lat="47.28123" lon="-2.35861">
        <ele>14.199999809265</ele>
        <time>2019-12-01T08:34:21.000Z</time>
      </trkpt>
      <trkpt lat="47.28125" lon="-2.35863">
        <ele>13.800000190735</ele>
        <time>2019-12-01T08:34:22.000Z</time>
      </trkpt>
      <trkpt lat="47.28127" lon="-2.35865">
        <ele>13.39999961853</ele>
        <time>2019-12-01T08:34:23.000Z</time>
      </trkpt>
      <trkpt lat="47.2813" lon="-2.35867">
        <ele>13</ele>
        <time>2019-12-01T08:34:24.000Z</time>
      </trkpt>
      <trkpt lat="47.28133" lon="-2.35868">
        <ele>13</ele>
        <time>2019-12-01T08:34:25.000Z</time>
      </trkpt>
      <trkpt lat="47.28148" lon="-2.35882">
        <ele>13</ele>
        <time>2019-12-01T08:34:30.000Z</time>
      </trkpt>
      <trkpt lat="47.28158" lon="-2.35891">
        <ele>13</ele>
        <time>2019-12-01T08:34:34.000Z</time>
      </trkpt>
      <trkpt lat="47.28168" lon="-2.35902">
        <ele>13</ele>
        <time>2019-12-01T08:34:39.000Z</time>
      </trkpt>
      <trkpt lat="47.28175" lon="-2.35923">
        <ele>13</ele>
        <time>2019-12-01T08:34:44.000Z</time>
      </trkpt>
      <trkpt lat="47.28178" lon="-2.35931">
        <ele>13</ele>
        <time>2019-12-01T08:34:46.000Z</time>
      </trkpt>
      <trkpt lat="47.28183" lon="-2.35933">
        <ele>13</ele>
        <time>2019-12-01T08:34:48.000Z</time>
      </trkpt>
      <trkpt lat="47.28192" lon="-2.35921">
        <ele>13</ele>
        <time>2019-12-01T08:34:53.000Z</time>
      </trkpt>
      <trkpt lat="47.28198" lon="-2.35902">
        <ele>13</ele>
        <time>2019-12-01T08:34:58.000Z</time>
      </trkpt>
      <trkpt lat="47.28199" lon="-2.35899">
        <ele>13</ele>
        <time>2019-12-01T08:34:59.000Z</time>
      </trkpt>
      <trkpt lat="47.28204" lon="-2.35897">
        <ele>13</ele>
        <time>2019-12-01T08:35:02.000Z</time>
      </trkpt>
      <trkpt lat="47.28215" lon="-2.35901">
        <ele>13</ele>
        <time>2019-12-01T08:35:06.000Z</time>
      </trkpt>
      <trkpt lat="47.28232" lon="-2.35903">
        <ele>13</ele>
        <time>2019-12-01T08:35:11.000Z</time>
      </trkpt>
      <trkpt lat="47.28235" lon="-2.35902">
        <ele>13.39999961853</ele>
        <time>2019-12-01T08:35:12.000Z</time>
      </trkpt>
      <trkpt lat="47.28238" lon="-2.35901">
        <ele>13.800000190735</ele>
        <time>2019-12-01T08:35:13.000Z</time>
      </trkpt>
      <trkpt lat="47.28239" lon="-2.35901">
        <ele>14.199999809265</ele>
        <time>2019-12-01T08:35:14.000Z</time>
      </trkpt>
      <trkpt lat="47.28242" lon="-2.35901">
        <ele>14.60000038147</ele>
        <time>2019-12-01T08:35:15.000Z</time>
      </trkpt>
      <trkpt lat="47.28243" lon="-2.35902">
        <ele>15</ele>
        <time>2019-12-01T08:35:16.000Z</time>
      </trkpt>
      <trkpt lat="47.28245" lon="-2.35904">
        <ele>15</ele>
        <time>2019-12-01T08:35:17.000Z</time>
      </trkpt>
      <trkpt lat="47.28248" lon="-2.35913">
        <ele>15</ele>
        <time>2019-12-01T08:35:20.000Z</time>
      </trkpt>
      <trkpt lat="47.28252" lon="-2.35918">
        <ele>15</ele>
        <time>2019-12-01T08:35:22.000Z</time>
      </trkpt>
      <trkpt lat="47.2826" lon="-2.35942">
        <ele>15</ele>
        <time>2019-12-01T08:35:27.000Z</time>
      </trkpt>
      <trkpt lat="47.28276" lon="-2.35971">
        <ele>15</ele>
        <time>2019-12-01T08:35:32.000Z</time>
      </trkpt>
      <trkpt lat="47.28278" lon="-2.35986">
        <ele>15</ele>
        <time>2019-12-01T08:35:35.000Z</time>
      </trkpt>
      <trkpt lat="47.28276" lon="-2.35992">
        <ele>15</ele>
        <time>2019-12-01T08:35:36.000Z</time>
      </trkpt>
      <trkpt lat="47.28275" lon="-2.36007">
        <ele>15</ele>
        <time>2019-12-01T08:35:40.000Z</time>
      </trkpt>
      <trkpt lat="47.28275" lon="-2.3601">
        <ele>15</ele>
        <time>2019-12-01T08:35:41.000Z</time>
      </trkpt>
      <trkpt lat="47.28276" lon="-2.36016">
        <ele>15</ele>
        <time>2019-12-01T08:35:43.000Z</time>
      </trkpt>
      <trkpt lat="47.28279" lon="-2.36024">
        <ele>15</ele>
        <time>2019-12-01T08:35:47.000Z</time>
      </trkpt>
      <trkpt lat="47.2828" lon="-2.36027">
        <ele>15.39999961853</ele>
        <time>2019-12-01T08:35:48.000Z</time>
      </trkpt>
      <trkpt lat="47.28281" lon="-2.3603">
        <ele>15.800000190735</ele>
        <time>2019-12-01T08:35:49.000Z</time>
      </trkpt>
      <trkpt lat="47.28282" lon="-2.36033">
        <ele>16.200000762939</ele>
        <time>2019-12-01T08:35:50.000Z</time>
      </trkpt>
      <trkpt lat="47.28283" lon="-2.36035">
        <ele>16.60000038147</ele>
        <time>2019-12-01T08:35:51.000Z</time>
      </trkpt>
      <trkpt lat="47.28285" lon="-2.36036">
        <ele>17</ele>
        <time>2019-12-01T08:35:52.000Z</time>
      </trkpt>
      <trkpt lat="47.28288" lon="-2.36039">
        <ele>17.39999961853</ele>
        <time>2019-12-01T08:35:54.000Z</time>
      </trkpt>
      <trkpt lat="47.2829" lon="-2.3604">
        <ele>17.799999237061</ele>
        <time>2019-12-01T08:35:55.000Z</time>
      </trkpt>
      <trkpt lat="47.28291" lon="-2.36042">
        <ele>18.799999237061</ele>
        <time>2019-12-01T08:35:56.000Z</time>
      </trkpt>
      <trkpt lat="47.28293" lon="-2.36043">
        <ele>19.200000762939</ele>
        <time>2019-12-01T08:35:57.000Z</time>
      </trkpt>
      <trkpt lat="47.28299" lon="-2.36044">
        <ele>19.60000038147</ele>
        <time>2019-12-01T08:36:00.000Z</time>
      </trkpt>
      <trkpt lat="47.28301" lon="-2.36045">
        <ele>20</ele>
        <time>2019-12-01T08:36:01.000Z</time>
      </trkpt>
      <trkpt lat="47.28303" lon="-2.36046">
        <ele>20.39999961853</ele>
        <time>2019-12-01T08:36:02.000Z</time>
      </trkpt>
      <trkpt lat="47.28305" lon="-2.36046">
        <ele>20.799999237061</ele>
        <time>2019-12-01T08:36:03.000Z</time>
      </trkpt>
      <trkpt lat="47.28307" lon="-2.36047">
        <ele>21.200000762939</ele>
        <time>2019-12-01T08:36:04.000Z</time>
      </trkpt>
      <trkpt lat="47.28313" lon="-2.36049">
        <ele>21.200000762939</ele>
        <time>2019-12-01T08:36:07.000Z</time>
      </trkpt>
      <trkpt lat="47.28317" lon="-2.3605">
        <ele>21.200000762939</ele>
        <time>2019-12-01T08:36:09.000Z</time>
      </trkpt>
      <trkpt lat="47.28324" lon="-2.36047">
        <ele>21.200000762939</ele>
        <time>2019-12-01T08:36:12.000Z</time>
      </trkpt>
      <trkpt lat="47.28329" lon="-2.36042">
        <ele>21.200000762939</ele>
        <time>2019-12-01T08:36:15.000Z</time>
      </trkpt>
      <trkpt lat="47.28333" lon="-2.36037">
        <ele>21.200000762939</ele>
        <time>2019-12-01T08:36:17.000Z</time>
      </trkpt>
      <trkpt lat="47.2834" lon="-2.3603">
        <ele>21.60000038147</ele>
        <time>2019-12-01T08:36:20.000Z</time>
      </trkpt>
      <trkpt lat="47.28343" lon="-2.36028">
        <ele>22.39999961853</ele>
        <time>2019-12-01T08:36:21.000Z</time>
      </trkpt>
      <trkpt lat="47.28345" lon="-2.36027">
        <ele>23</ele>
        <time>2019-12-01T08:36:22.000Z</time>
      </trkpt>
      <trkpt lat="47.28347" lon="-2.36027">
        <ele>23.39999961853</ele>
        <time>2019-12-01T08:36:23.000Z</time>
      </trkpt>
      <trkpt lat="47.28358" lon="-2.36024">
        <ele>23.799999237061</ele>
        <time>2019-12-01T08:36:30.000Z</time>
      </trkpt>
      <trkpt lat="47.2836" lon="-2.36023">
        <ele>24.200000762939</ele>
        <time>2019-12-01T08:36:31.000Z</time>
      </trkpt>
      <trkpt lat="47.28362" lon="-2.36023">
        <ele>24.60000038147</ele>
        <time>2019-12-01T08:36:32.000Z</time>
      </trkpt>
      <trkpt lat="47.28363" lon="-2.36023">
        <ele>25</ele>
        <time>2019-12-01T08:36:33.000Z</time>
      </trkpt>
      <trkpt lat="47.28365" lon="-2.36023">
        <ele>25.39999961853</ele>
        <time>2019-12-01T08:36:34.000Z</time>
      </trkpt>
      <trkpt lat="47.28367" lon="-2.36021">
        <ele>25.39999961853</ele>
        <time>2019-12-01T08:36:36.000Z</time>
      </trkpt>
      <trkpt lat="47.2837" lon="-2.36013">
        <ele>28.200000762939</ele>
        <time>2019-12-01T08:36:57.000Z</time>
      </trkpt>
      <trkpt lat="47.28369" lon="-2.36012">
        <ele>27.799999237061</ele>
        <time>2019-12-01T08:36:58.000Z</time>
      </trkpt>
      <trkpt lat="47.28367" lon="-2.36011">
        <ele>27.39999961853</ele>
        <time>2019-12-01T08:36:59.000Z</time>
      </trkpt>
      <trkpt lat="47.28365" lon="-2.3601">
        <ele>27</ele>
        <time>2019-12-01T08:37:00.000Z</time>
      </trkpt>
      <trkpt lat="47.28365" lon="-2.36008">
        <ele>26.39999961853</ele>
        <time>2019-12-01T08:37:01.000Z</time>
      </trkpt>
      <trkpt lat="47.28366" lon="-2.36004">
        <ele>26</ele>
        <time>2019-12-01T08:37:02.000Z</time>
      </trkpt>
      <trkpt lat="47.28367" lon="-2.35999">
        <ele>26</ele>
        <time>2019-12-01T08:37:03.000Z</time>
      </trkpt>
      <trkpt lat="47.28369" lon="-2.35995">
        <ele>26</ele>
        <time>2019-12-01T08:37:04.000Z</time>
      </trkpt>
      <trkpt lat="47.28369" lon="-2.3599">
        <ele>25.60000038147</ele>
        <time>2019-12-01T08:37:05.000Z</time>
      </trkpt>
      <trkpt lat="47.2837" lon="-2.35984">
        <ele>25</ele>
        <time>2019-12-01T08:37:06.000Z</time>
      </trkpt>
      <trkpt lat="47.2837" lon="-2.35977">
        <ele>24.60000038147</ele>
        <time>2019-12-01T08:37:07.000Z</time>
      </trkpt>
      <trkpt lat="47.28372" lon="-2.35969">
        <ele>24</ele>
        <time>2019-12-01T08:37:08.000Z</time>
      </trkpt>
      <trkpt lat="47.28373" lon="-2.35961">
        <ele>23.39999961853</ele>
        <time>2019-12-01T08:37:09.000Z</time>
      </trkpt>
      <trkpt lat="47.28373" lon="-2.35956">
        <ele>22</ele>
        <time>2019-12-01T08:37:10.000Z</time>
      </trkpt>
      <trkpt lat="47.28373" lon="-2.35951">
        <ele>21.60000038147</ele>
        <time>2019-12-01T08:37:11.000Z</time>
      </trkpt>
      <trkpt lat="47.28371" lon="-2.35947">
        <ele>21</ele>
        <time>2019-12-01T08:37:12.000Z</time>
      </trkpt>
      <trkpt lat="47.28368" lon="-2.35941">
        <ele>20.60000038147</ele>
        <time>2019-12-01T08:37:13.000Z</time>
      </trkpt>
      <trkpt lat="47.28367" lon="-2.35936">
        <ele>20</ele>
        <time>2019-12-01T08:37:14.000Z</time>
      </trkpt>
      <trkpt lat="47.28366" lon="-2.35932">
        <ele>19.39999961853</ele>
        <time>2019-12-01T08:37:15.000Z</time>
      </trkpt>
      <trkpt lat="47.28367" lon="-2.35928">
        <ele>19.39999961853</ele>
        <time>2019-12-01T08:37:16.000Z</time>
      </trkpt>
      <trkpt lat="47.28372" lon="-2.35906">
        <ele>19.39999961853</ele>
        <time>2019-12-01T08:37:21.000Z</time>
      </trkpt>
      <trkpt lat="47.28384" lon="-2.35887">
        <ele>19.39999961853</ele>
        <time>2019-12-01T08:37:26.000Z</time>
      </trkpt>
      <trkpt lat="47.28402" lon="-2.35873">
        <ele>19.39999961853</ele>
        <time>2019-12-01T08:37:32.000Z</time>
      </trkpt>
      <trkpt lat="47.28416" lon="-2.35864">
        <ele>19.39999961853</ele>
        <time>2019-12-01T08:37:37.000Z</time>
      </trkpt>
      <trkpt lat="47.28421" lon="-2.35864">
        <ele>19.39999961853</ele>
        <time>2019-12-01T08:37:39.000Z</time>
      </trkpt>
      <trkpt lat="47.28426" lon="-2.35867">
        <ele>19.39999961853</ele>
        <time>2019-12-01T08:37:41.000Z</time>
      </trkpt>
      <trkpt lat="47.28431" lon="-2.35875">
        <ele>19.39999961853</ele>
        <time>2019-12-01T08:37:43.000Z</time>
      </trkpt>
      <trkpt lat="47.28437" lon="-2.35883">
        <ele>19.39999961853</ele>
        <time>2019-12-01T08:37:46.000Z</time>
      </trkpt>
      <trkpt lat="47.2845" lon="-2.35889">
        <ele>19.39999961853</ele>
        <time>2019-12-01T08:37:51.000Z</time>
      </trkpt>
      <trkpt lat="47.28458" lon="-2.35892">
        <ele>19.39999961853</ele>
        <time>2019-12-01T08:37:55.000Z</time>
      </trkpt>
      <trkpt lat="47.28459" lon="-2.35889">
        <ele>19.39999961853</ele>
        <time>2019-12-01T08:37:57.000Z</time>
      </trkpt>
      <trkpt lat="47.2846" lon="-2.35883">
        <ele>19.39999961853</ele>
        <time>2019-12-01T08:37:59.000Z</time>
      </trkpt>
      <trkpt lat="47.28465" lon="-2.35863">
        <ele>19.39999961853</ele>
        <time>2019-12-01T08:38:04.000Z</time>
      </trkpt>
      <trkpt lat="47.28471" lon="-2.35843">
        <ele>19.39999961853</ele>
        <time>2019-12-01T08:38:10.000Z</time>
      </trkpt>
      <trkpt lat="47.28473" lon="-2.35845">
        <ele>19.39999961853</ele>
        <time>2019-12-01T08:38:13.000Z</time>
      </trkpt>
      <trkpt lat="47.28474" lon="-2.35846">
        <ele>19.39999961853</ele>
        <time>2019-12-01T08:38:14.000Z</time>
      </trkpt>
      <trkpt lat="47.2848" lon="-2.35857">
        <ele>19.39999961853</ele>
        <time>2019-12-01T08:38:18.000Z</time>
      </trkpt>
      <trkpt lat="47.28491" lon="-2.35868">
        <ele>19.39999961853</ele>
        <time>2019-12-01T08:38:22.000Z</time>
      </trkpt>
      <trkpt lat="47.285" lon="-2.35875">
        <ele>19.799999237061</ele>
        <time>2019-12-01T08:38:25.000Z</time>
      </trkpt>
      <trkpt lat="47.28503" lon="-2.35876">
        <ele>20.200000762939</ele>
        <time>2019-12-01T08:38:26.000Z</time>
      </trkpt>
      <trkpt lat="47.28506" lon="-2.35877">
        <ele>20.60000038147</ele>
        <time>2019-12-01T08:38:27.000Z</time>
      </trkpt>
      <trkpt lat="47.28509" lon="-2.35878">
        <ele>21</ele>
        <time>2019-12-01T08:38:28.000Z</time>
      </trkpt>
      <trkpt lat="47.28511" lon="-2.35879">
        <ele>21.39999961853</ele>
        <time>2019-12-01T08:38:29.000Z</time>
      </trkpt>
      <trkpt lat="47.28513" lon="-2.35881">
        <ele>21.39999961853</ele>
        <time>2019-12-01T08:38:30.000Z</time>
      </trkpt>
      <trkpt lat="47.2852" lon="-2.35885">
        <ele>22</ele>
        <time>2019-12-01T08:38:34.000Z</time>
      </trkpt>
      <trkpt lat="47.28522" lon="-2.35887">
        <ele>22.39999961853</ele>
        <time>2019-12-01T08:38:35.000Z</time>
      </trkpt>
      <trkpt lat="47.28523" lon="-2.35888">
        <ele>22.799999237061</ele>
        <time>2019-12-01T08:38:36.000Z</time>
      </trkpt>
      <trkpt lat="47.28525" lon="-2.3589">
        <ele>23.200000762939</ele>
        <time>2019-12-01T08:38:37.000Z</time>
      </trkpt>
      <trkpt lat="47.28527" lon="-2.35891">
        <ele>23.60000038147</ele>
        <time>2019-12-01T08:38:38.000Z</time>
      </trkpt>
      <trkpt lat="47.2853" lon="-2.35893">
        <ele>24.200000762939</ele>
        <time>2019-12-01T08:38:40.000Z</time>
      </trkpt>
      <trkpt lat="47.28532" lon="-2.35893">
        <ele>24.60000038147</ele>
        <time>2019-12-01T08:38:41.000Z</time>
      </trkpt>
      <trkpt lat="47.28533" lon="-2.35892">
        <ele>25.200000762939</ele>
        <time>2019-12-01T08:38:42.000Z</time>
      </trkpt>
      <trkpt lat="47.28535" lon="-2.35892">
        <ele>25.60000038147</ele>
        <time>2019-12-01T08:38:43.000Z</time>
      </trkpt>
      <trkpt lat="47.28536" lon="-2.35892">
        <ele>26.200000762939</ele>
        <time>2019-12-01T08:38:44.000Z</time>
      </trkpt>
      <trkpt lat="47.28537" lon="-2.35892">
        <ele>26.200000762939</ele>
        <time>2019-12-01T08:38:45.000Z</time>
      </trkpt>
      <trkpt lat="47.28539" lon="-2.35893">
        <ele>26.60000038147</ele>
        <time>2019-12-01T08:38:46.000Z</time>
      </trkpt>
      <trkpt lat="47.2854" lon="-2.35894">
        <ele>27</ele>
        <time>2019-12-01T08:38:47.000Z</time>
      </trkpt>
      <trkpt lat="47.28541" lon="-2.35895">
        <ele>27.39999961853</ele>
        <time>2019-12-01T08:38:48.000Z</time>
      </trkpt>
      <trkpt lat="47.28542" lon="-2.35896">
        <ele>28.200000762939</ele>
        <time>2019-12-01T08:38:49.000Z</time>
      </trkpt>
      <trkpt lat="47.28542" lon="-2.35898">
        <ele>28.200000762939</ele>
        <time>2019-12-01T08:38:50.000Z</time>
      </trkpt>
      <trkpt lat="47.28542" lon="-2.35898">
        <ele>28.200000762939</ele>
        <time>2019-12-01T08:38:51.000Z</time>
      </trkpt>
      <trkpt lat="47.28548" lon="-2.35904">
        <ele>28.200000762939</ele>
        <time>2019-12-01T08:39:06.000Z</time>
      </trkpt>
      <trkpt lat="47.28552" lon="-2.35907">
        <ele>28.200000762939</ele>
        <time>2019-12-01T08:39:08.000Z</time>
      </trkpt>
      <trkpt lat="47.28552" lon="-2.35912">
        <ele>28.200000762939</ele>
        <time>2019-12-01T08:39:11.000Z</time>
      </trkpt>
      <trkpt lat="47.28551" lon="-2.35914">
        <ele>28.200000762939</ele>
        <time>2019-12-01T08:39:13.000Z</time>
      </trkpt>
      <trkpt lat="47.28549" lon="-2.35915">
        <ele>28.200000762939</ele>
        <time>2019-12-01T08:39:14.000Z</time>
      </trkpt>
      <trkpt lat="47.28545" lon="-2.35919">
        <ele>28.200000762939</ele>
        <time>2019-12-01T08:39:18.000Z</time>
      </trkpt>
      <trkpt lat="47.28543" lon="-2.35921">
        <ele>28.200000762939</ele>
        <time>2019-12-01T08:39:20.000Z</time>
      </trkpt>
      <trkpt lat="47.28542" lon="-2.35923">
        <ele>28.799999237061</ele>
        <time>2019-12-01T08:39:21.000Z</time>
      </trkpt>
      <trkpt lat="47.28542" lon="-2.35925">
        <ele>29.200000762939</ele>
        <time>2019-12-01T08:39:22.000Z</time>
      </trkpt>
      <trkpt lat="47.28541" lon="-2.35928">
        <ele>29.60000038147</ele>
        <time>2019-12-01T08:39:23.000Z</time>
      </trkpt>
      <trkpt lat="47.2854" lon="-2.3593">
        <ele>30</ele>
        <time>2019-12-01T08:39:24.000Z</time>
      </trkpt>
      <trkpt lat="47.28539" lon="-2.35932">
        <ele>30.39999961853</ele>
        <time>2019-12-01T08:39:25.000Z</time>
      </trkpt>
      <trkpt lat="47.28529" lon="-2.35938">
        <ele>30.799999237061</ele>
        <time>2019-12-01T08:39:30.000Z</time>
      </trkpt>
      <trkpt lat="47.28525" lon="-2.35939">
        <ele>31.200000762939</ele>
        <time>2019-12-01T08:39:31.000Z</time>
      </trkpt>
      <trkpt lat="47.28522" lon="-2.35939">
        <ele>31.60000038147</ele>
        <time>2019-12-01T08:39:32.000Z</time>
      </trkpt>
      <trkpt lat="47.28518" lon="-2.35939">
        <ele>32</ele>
        <time>2019-12-01T08:39:33.000Z</time>
      </trkpt>
      <trkpt lat="47.28515" lon="-2.3594">
        <ele>32.400001525879</ele>
        <time>2019-12-01T08:39:34.000Z</time>
      </trkpt>
      <trkpt lat="47.28509" lon="-2.35941">
        <ele>32.400001525879</ele>
        <time>2019-12-01T08:39:36.000Z</time>
      </trkpt>
      <trkpt lat="47.28488" lon="-2.35949">
        <ele>32.400001525879</ele>
        <time>2019-12-01T08:39:41.000Z</time>
      </trkpt>
      <trkpt lat="47.28469" lon="-2.35972">
        <ele>32.400001525879</ele>
        <time>2019-12-01T08:39:47.000Z</time>
      </trkpt>
      <trkpt lat="47.28456" lon="-2.35986">
        <ele>32.400001525879</ele>
        <time>2019-12-01T08:39:52.000Z</time>
      </trkpt>
      <trkpt lat="47.28456" lon="-2.35989">
        <ele>32.400001525879</ele>
        <time>2019-12-01T08:39:53.000Z</time>
      </trkpt>
      <trkpt lat="47.28457" lon="-2.35994">
        <ele>32.400001525879</ele>
        <time>2019-12-01T08:39:55.000Z</time>
      </trkpt>
      <trkpt lat="47.28457" lon="-2.35999">
        <ele>32.400001525879</ele>
        <time>2019-12-01T08:39:57.000Z</time>
      </trkpt>
      <trkpt lat="47.28458" lon="-2.36">
        <ele>32.400001525879</ele>
        <time>2019-12-01T08:39:58.000Z</time>
      </trkpt>
      <trkpt lat="47.28459" lon="-2.36001">
        <ele>32.400001525879</ele>
        <time>2019-12-01T08:39:59.000Z</time>
      </trkpt>
      <trkpt lat="47.28463" lon="-2.36008">
        <ele>32.400001525879</ele>
        <time>2019-12-01T08:40:02.000Z</time>
      </trkpt>
      <trkpt lat="47.28466" lon="-2.36015">
        <ele>32.400001525879</ele>
        <time>2019-12-01T08:40:04.000Z</time>
      </trkpt>
      <trkpt lat="47.28477" lon="-2.36025">
        <ele>32.400001525879</ele>
        <time>2019-12-01T08:40:10.000Z</time>
      </trkpt>
      <trkpt lat="47.28489" lon="-2.36032">
        <ele>32.400001525879</ele>
        <time>2019-12-01T08:40:14.000Z</time>
      </trkpt>
      <trkpt lat="47.28495" lon="-2.36038">
        <ele>32.400001525879</ele>
        <time>2019-12-01T08:40:16.000Z</time>
      </trkpt>
      <trkpt lat="47.28503" lon="-2.36047">
        <ele>32.400001525879</ele>
        <time>2019-12-01T08:40:19.000Z</time>
      </trkpt>
      <trkpt lat="47.28507" lon="-2.36049">
        <ele>32.400001525879</ele>
        <time>2019-12-01T08:40:20.000Z</time>
      </trkpt>
      <trkpt lat="47.28519" lon="-2.36066">
        <ele>32.400001525879</ele>
        <time>2019-12-01T08:40:25.000Z</time>
      </trkpt>
      <trkpt lat="47.28528" lon="-2.36088">
        <ele>32.400001525879</ele>
        <time>2019-12-01T08:40:30.000Z</time>
      </trkpt>
      <trkpt lat="47.28533" lon="-2.36119">
        <ele>32.400001525879</ele>
        <time>2019-12-01T08:40:35.000Z</time>
      </trkpt>
      <trkpt lat="47.28538" lon="-2.36133">
        <ele>32.400001525879</ele>
        <time>2019-12-01T08:40:37.000Z</time>
      </trkpt>
      <trkpt lat="47.28545" lon="-2.36148">
        <ele>32.400001525879</ele>
        <time>2019-12-01T08:40:40.000Z</time>
      </trkpt>
      <trkpt lat="47.28552" lon="-2.36154">
        <ele>32.400001525879</ele>
        <time>2019-12-01T08:40:43.000Z</time>
      </trkpt>
      <trkpt lat="47.28554" lon="-2.36155">
        <ele>32.400001525879</ele>
        <time>2019-12-01T08:40:44.000Z</time>
      </trkpt>
      <trkpt lat="47.28564" lon="-2.36149">
        <ele>32.400001525879</ele>
        <time>2019-12-01T08:40:49.000Z</time>
      </trkpt>
      <trkpt lat="47.28566" lon="-2.36148">
        <ele>32.400001525879</ele>
        <time>2019-12-01T08:40:50.000Z</time>
      </trkpt>
      <trkpt lat="47.28569" lon="-2.36147">
        <ele>33</ele>
        <time>2019-12-01T08:40:51.000Z</time>
      </trkpt>
      <trkpt lat="47.28571" lon="-2.36147">
        <ele>33.400001525879</ele>
        <time>2019-12-01T08:40:52.000Z</time>
      </trkpt>
      <trkpt lat="47.28573" lon="-2.36147">
        <ele>34.200000762939</ele>
        <time>2019-12-01T08:40:53.000Z</time>
      </trkpt>
      <trkpt lat="47.28575" lon="-2.36148">
        <ele>34.799999237061</ele>
        <time>2019-12-01T08:40:54.000Z</time>
      </trkpt>
      <trkpt lat="47.2858" lon="-2.3615">
        <ele>34.799999237061</ele>
        <time>2019-12-01T08:40:57.000Z</time>
      </trkpt>
      <trkpt lat="47.28586" lon="-2.36152">
        <ele>34.799999237061</ele>
        <time>2019-12-01T08:41:00.000Z</time>
      </trkpt>
      <trkpt lat="47.28594" lon="-2.36153">
        <ele>34.799999237061</ele>
        <time>2019-12-01T08:41:04.000Z</time>
      </trkpt>
      <trkpt lat="47.286" lon="-2.3615">
        <ele>34.799999237061</ele>
        <time>2019-12-01T08:41:06.000Z</time>
      </trkpt>
      <trkpt lat="47.28608" lon="-2.36146">
        <ele>34.799999237061</ele>
        <time>2019-12-01T08:41:09.000Z</time>
      </trkpt>
      <trkpt lat="47.28611" lon="-2.36145">
        <ele>34.799999237061</ele>
        <time>2019-12-01T08:41:10.000Z</time>
      </trkpt>
      <trkpt lat="47.28613" lon="-2.36143">
        <ele>35.200000762939</ele>
        <time>2019-12-01T08:41:11.000Z</time>
      </trkpt>
      <trkpt lat="47.28616" lon="-2.36141">
        <ele>35.599998474121</ele>
        <time>2019-12-01T08:41:12.000Z</time>
      </trkpt>
      <trkpt lat="47.28618" lon="-2.36141">
        <ele>36</ele>
        <time>2019-12-01T08:41:13.000Z</time>
      </trkpt>
      <trkpt lat="47.28621" lon="-2.36142">
        <ele>36.400001525879</ele>
        <time>2019-12-01T08:41:14.000Z</time>
      </trkpt>
      <trkpt lat="47.28625" lon="-2.36146">
        <ele>36.799999237061</ele>
        <time>2019-12-01T08:41:15.000Z</time>
      </trkpt>
      <trkpt lat="47.28636" lon="-2.36163">
        <ele>36.400001525879</ele>
        <time>2019-12-01T08:41:19.000Z</time>
      </trkpt>
      <trkpt lat="47.28639" lon="-2.36166">
        <ele>36</ele>
        <time>2019-12-01T08:41:20.000Z</time>
      </trkpt>
      <trkpt lat="47.28641" lon="-2.36169">
        <ele>35.599998474121</ele>
        <time>2019-12-01T08:41:21.000Z</time>
      </trkpt>
      <trkpt lat="47.28645" lon="-2.36172">
        <ele>35</ele>
        <time>2019-12-01T08:41:22.000Z</time>
      </trkpt>
      <trkpt lat="47.28648" lon="-2.36176">
        <ele>34.599998474121</ele>
        <time>2019-12-01T08:41:23.000Z</time>
      </trkpt>
      <trkpt lat="47.28657" lon="-2.36187">
        <ele>34.599998474121</ele>
        <time>2019-12-01T08:41:25.000Z</time>
      </trkpt>
      <trkpt lat="47.28667" lon="-2.36213">
        <ele>34.200000762939</ele>
        <time>2019-12-01T08:41:29.000Z</time>
      </trkpt>
      <trkpt lat="47.28668" lon="-2.3622">
        <ele>33.799999237061</ele>
        <time>2019-12-01T08:41:30.000Z</time>
      </trkpt>
      <trkpt lat="47.28669" lon="-2.36227">
        <ele>33.400001525879</ele>
        <time>2019-12-01T08:41:31.000Z</time>
      </trkpt>
      <trkpt lat="47.28669" lon="-2.36234">
        <ele>33</ele>
        <time>2019-12-01T08:41:32.000Z</time>
      </trkpt>
      <trkpt lat="47.28668" lon="-2.3624">
        <ele>32.599998474121</ele>
        <time>2019-12-01T08:41:33.000Z</time>
      </trkpt>
      <trkpt lat="47.28667" lon="-2.36256">
        <ele>32.599998474121</ele>
        <time>2019-12-01T08:41:36.000Z</time>
      </trkpt>
      <trkpt lat="47.28669" lon="-2.36264">
        <ele>32.599998474121</ele>
        <time>2019-12-01T08:41:38.000Z</time>
      </trkpt>
      <trkpt lat="47.28671" lon="-2.36267">
        <ele>32.200000762939</ele>
        <time>2019-12-01T08:41:39.000Z</time>
      </trkpt>
      <trkpt lat="47.28673" lon="-2.3627">
        <ele>31.799999237061</ele>
        <time>2019-12-01T08:41:40.000Z</time>
      </trkpt>
      <trkpt lat="47.28675" lon="-2.36271">
        <ele>31.39999961853</ele>
        <time>2019-12-01T08:41:41.000Z</time>
      </trkpt>
      <trkpt lat="47.28678" lon="-2.36272">
        <ele>30.799999237061</ele>
        <time>2019-12-01T08:41:42.000Z</time>
      </trkpt>
      <trkpt lat="47.2868" lon="-2.36273">
        <ele>30.39999961853</ele>
        <time>2019-12-01T08:41:43.000Z</time>
      </trkpt>
      <trkpt lat="47.28684" lon="-2.36274">
        <ele>30.39999961853</ele>
        <time>2019-12-01T08:41:44.000Z</time>
      </trkpt>
      <trkpt lat="47.28699" lon="-2.36277">
        <ele>30.39999961853</ele>
        <time>2019-12-01T08:41:49.000Z</time>
      </trkpt>
      <trkpt lat="47.28702" lon="-2.36279">
        <ele>30.39999961853</ele>
        <time>2019-12-01T08:41:50.000Z</time>
      </trkpt>
      <trkpt lat="47.28708" lon="-2.36294">
        <ele>30.39999961853</ele>
        <time>2019-12-01T08:41:54.000Z</time>
      </trkpt>
      <trkpt lat="47.28706" lon="-2.36312">
        <ele>30.39999961853</ele>
        <time>2019-12-01T08:41:58.000Z</time>
      </trkpt>
      <trkpt lat="47.28706" lon="-2.36316">
        <ele>30.39999961853</ele>
        <time>2019-12-01T08:41:59.000Z</time>
      </trkpt>
      <trkpt lat="47.28704" lon="-2.36336">
        <ele>30.39999961853</ele>
        <time>2019-12-01T08:42:04.000Z</time>
      </trkpt>
      <trkpt lat="47.28704" lon="-2.36343">
        <ele>31</ele>
        <time>2019-12-01T08:42:06.000Z</time>
      </trkpt>
      <trkpt lat="47.28704" lon="-2.36347">
        <ele>31.799999237061</ele>
        <time>2019-12-01T08:42:07.000Z</time>
      </trkpt>
      <trkpt lat="47.28704" lon="-2.3635">
        <ele>32.200000762939</ele>
        <time>2019-12-01T08:42:08.000Z</time>
      </trkpt>
      <trkpt lat="47.28703" lon="-2.36355">
        <ele>32.599998474121</ele>
        <time>2019-12-01T08:42:09.000Z</time>
      </trkpt>
      <trkpt lat="47.287" lon="-2.36364">
        <ele>32.599998474121</ele>
        <time>2019-12-01T08:42:11.000Z</time>
      </trkpt>
      <trkpt lat="47.28696" lon="-2.36388">
        <ele>32.599998474121</ele>
        <time>2019-12-01T08:42:16.000Z</time>
      </trkpt>
      <trkpt lat="47.28695" lon="-2.36393">
        <ele>33</ele>
        <time>2019-12-01T08:42:17.000Z</time>
      </trkpt>
      <trkpt lat="47.28694" lon="-2.36399">
        <ele>33.400001525879</ele>
        <time>2019-12-01T08:42:18.000Z</time>
      </trkpt>
      <trkpt lat="47.28694" lon="-2.36404">
        <ele>34</ele>
        <time>2019-12-01T08:42:19.000Z</time>
      </trkpt>
      <trkpt lat="47.28694" lon="-2.36409">
        <ele>34.400001525879</ele>
        <time>2019-12-01T08:42:20.000Z</time>
      </trkpt>
      <trkpt lat="47.28694" lon="-2.36414">
        <ele>34.799999237061</ele>
        <time>2019-12-01T08:42:21.000Z</time>
      </trkpt>
      <trkpt lat="47.28694" lon="-2.36441">
        <ele>34.799999237061</ele>
        <time>2019-12-01T08:42:27.000Z</time>
      </trkpt>
      <trkpt lat="47.28694" lon="-2.36466">
        <ele>34.799999237061</ele>
        <time>2019-12-01T08:42:32.000Z</time>
      </trkpt>
      <trkpt lat="47.28692" lon="-2.36492">
        <ele>34.799999237061</ele>
        <time>2019-12-01T08:42:37.000Z</time>
      </trkpt>
      <trkpt lat="47.28694" lon="-2.36525">
        <ele>34.799999237061</ele>
        <time>2019-12-01T08:42:42.000Z</time>
      </trkpt>
      <trkpt lat="47.28696" lon="-2.36552">
        <ele>34.400001525879</ele>
        <time>2019-12-01T08:42:46.000Z</time>
      </trkpt>
      <trkpt lat="47.28697" lon="-2.36557">
        <ele>34</ele>
        <time>2019-12-01T08:42:47.000Z</time>
      </trkpt>
      <trkpt lat="47.28696" lon="-2.36562">
        <ele>33.599998474121</ele>
        <time>2019-12-01T08:42:48.000Z</time>
      </trkpt>
      <trkpt lat="47.28696" lon="-2.36566">
        <ele>33.200000762939</ele>
        <time>2019-12-01T08:42:49.000Z</time>
      </trkpt>
      <trkpt lat="47.28694" lon="-2.3657">
        <ele>32.599998474121</ele>
        <time>2019-12-01T08:42:50.000Z</time>
      </trkpt>
      <trkpt lat="47.28693" lon="-2.36575">
        <ele>32</ele>
        <time>2019-12-01T08:42:51.000Z</time>
      </trkpt>
      <trkpt lat="47.28691" lon="-2.36582">
        <ele>31.60000038147</ele>
        <time>2019-12-01T08:42:52.000Z</time>
      </trkpt>
      <trkpt lat="47.28689" lon="-2.36587">
        <ele>30.799999237061</ele>
        <time>2019-12-01T08:42:53.000Z</time>
      </trkpt>
      <trkpt lat="47.28686" lon="-2.36592">
        <ele>30.200000762939</ele>
        <time>2019-12-01T08:42:54.000Z</time>
      </trkpt>
      <trkpt lat="47.28682" lon="-2.36596">
        <ele>29.60000038147</ele>
        <time>2019-12-01T08:42:55.000Z</time>
      </trkpt>
      <trkpt lat="47.28677" lon="-2.36599">
        <ele>28.200000762939</ele>
        <time>2019-12-01T08:42:56.000Z</time>
      </trkpt>
      <trkpt lat="47.2867" lon="-2.36603">
        <ele>27.799999237061</ele>
        <time>2019-12-01T08:42:57.000Z</time>
      </trkpt>
      <trkpt lat="47.28664" lon="-2.36604">
        <ele>27.39999961853</ele>
        <time>2019-12-01T08:42:58.000Z</time>
      </trkpt>
      <trkpt lat="47.28658" lon="-2.36606">
        <ele>27</ele>
        <time>2019-12-01T08:42:59.000Z</time>
      </trkpt>
      <trkpt lat="47.28652" lon="-2.36608">
        <ele>26.60000038147</ele>
        <time>2019-12-01T08:43:00.000Z</time>
      </trkpt>
      <trkpt lat="47.28647" lon="-2.36611">
        <ele>26.200000762939</ele>
        <time>2019-12-01T08:43:01.000Z</time>
      </trkpt>
      <trkpt lat="47.28625" lon="-2.36624">
        <ele>26.200000762939</ele>
        <time>2019-12-01T08:43:06.000Z</time>
      </trkpt>
      <trkpt lat="47.28613" lon="-2.36632">
        <ele>25.60000038147</ele>
        <time>2019-12-01T08:43:09.000Z</time>
      </trkpt>
      <trkpt lat="47.28609" lon="-2.36635">
        <ele>25</ele>
        <time>2019-12-01T08:43:10.000Z</time>
      </trkpt>
      <trkpt lat="47.28605" lon="-2.36639">
        <ele>24.60000038147</ele>
        <time>2019-12-01T08:43:11.000Z</time>
      </trkpt>
      <trkpt lat="47.28602" lon="-2.36642">
        <ele>24</ele>
        <time>2019-12-01T08:43:12.000Z</time>
      </trkpt>
      <trkpt lat="47.286" lon="-2.36643">
        <ele>23.39999961853</ele>
        <time>2019-12-01T08:43:13.000Z</time>
      </trkpt>
      <trkpt lat="47.28598" lon="-2.36644">
        <ele>22.799999237061</ele>
        <time>2019-12-01T08:43:14.000Z</time>
      </trkpt>
      <trkpt lat="47.28597" lon="-2.36645">
        <ele>22.200000762939</ele>
        <time>2019-12-01T08:43:15.000Z</time>
      </trkpt>
      <trkpt lat="47.28595" lon="-2.36646">
        <ele>21.60000038147</ele>
        <time>2019-12-01T08:43:16.000Z</time>
      </trkpt>
      <trkpt lat="47.28595" lon="-2.36645">
        <ele>21</ele>
        <time>2019-12-01T08:43:17.000Z</time>
      </trkpt>
      <trkpt lat="47.28593" lon="-2.36645">
        <ele>20.60000038147</ele>
        <time>2019-12-01T08:43:18.000Z</time>
      </trkpt>
      <trkpt lat="47.28591" lon="-2.36647">
        <ele>20</ele>
        <time>2019-12-01T08:43:19.000Z</time>
      </trkpt>
      <trkpt lat="47.28589" lon="-2.3665">
        <ele>19</ele>
        <time>2019-12-01T08:43:20.000Z</time>
      </trkpt>
      <trkpt lat="47.28582" lon="-2.36657">
        <ele>19</ele>
        <time>2019-12-01T08:43:22.000Z</time>
      </trkpt>
      <trkpt lat="47.28576" lon="-2.36659">
        <ele>18.60000038147</ele>
        <time>2019-12-01T08:43:23.000Z</time>
      </trkpt>
      <trkpt lat="47.28569" lon="-2.3666">
        <ele>18.200000762939</ele>
        <time>2019-12-01T08:43:24.000Z</time>
      </trkpt>
      <trkpt lat="47.28563" lon="-2.3666">
        <ele>17.799999237061</ele>
        <time>2019-12-01T08:43:25.000Z</time>
      </trkpt>
      <trkpt lat="47.28557" lon="-2.36662">
        <ele>17.39999961853</ele>
        <time>2019-12-01T08:43:26.000Z</time>
      </trkpt>
      <trkpt lat="47.28551" lon="-2.36662">
        <ele>17</ele>
        <time>2019-12-01T08:43:27.000Z</time>
      </trkpt>
      <trkpt lat="47.2853" lon="-2.36669">
        <ele>17</ele>
        <time>2019-12-01T08:43:32.000Z</time>
      </trkpt>
      <trkpt lat="47.28517" lon="-2.3668">
        <ele>17</ele>
        <time>2019-12-01T08:43:36.000Z</time>
      </trkpt>
      <trkpt lat="47.28503" lon="-2.36687">
        <ele>17</ele>
        <time>2019-12-01T08:43:41.000Z</time>
      </trkpt>
      <trkpt lat="47.28501" lon="-2.36686">
        <ele>17</ele>
        <time>2019-12-01T08:43:42.000Z</time>
      </trkpt>
      <trkpt lat="47.285" lon="-2.3668">
        <ele>16.60000038147</ele>
        <time>2019-12-01T08:43:44.000Z</time>
      </trkpt>
      <trkpt lat="47.28502" lon="-2.36678">
        <ele>16.200000762939</ele>
        <time>2019-12-01T08:43:45.000Z</time>
      </trkpt>
      <trkpt lat="47.28503" lon="-2.36678">
        <ele>15.800000190735</ele>
        <time>2019-12-01T08:43:46.000Z</time>
      </trkpt>
      <trkpt lat="47.28505" lon="-2.36677">
        <ele>15</ele>
        <time>2019-12-01T08:43:47.000Z</time>
      </trkpt>
      <trkpt lat="47.28511" lon="-2.36674">
        <ele>15</ele>
        <time>2019-12-01T08:43:50.000Z</time>
      </trkpt>
      <trkpt lat="47.28512" lon="-2.36671">
        <ele>15</ele>
        <time>2019-12-01T08:43:53.000Z</time>
      </trkpt>
      <trkpt lat="47.28513" lon="-2.36671">
        <ele>15</ele>
        <time>2019-12-01T08:43:55.000Z</time>
      </trkpt>
      <trkpt lat="47.28512" lon="-2.36678">
        <ele>15</ele>
        <time>2019-12-01T08:44:41.000Z</time>
      </trkpt>
      <trkpt lat="47.28512" lon="-2.36679">
        <ele>15</ele>
        <time>2019-12-01T08:44:42.000Z</time>
      </trkpt>
      <trkpt lat="47.28509" lon="-2.36687">
        <ele>15</ele>
        <time>2019-12-01T08:44:47.000Z</time>
      </trkpt>
      <trkpt lat="47.28512" lon="-2.36695">
        <ele>15</ele>
        <time>2019-12-01T08:44:50.000Z</time>
      </trkpt>
      <trkpt lat="47.28515" lon="-2.36702">
        <ele>15</ele>
        <time>2019-12-01T08:44:52.000Z</time>
      </trkpt>
      <trkpt lat="47.28525" lon="-2.36722">
        <ele>15</ele>
        <time>2019-12-01T08:44:58.000Z</time>
      </trkpt>
      <trkpt lat="47.28536" lon="-2.36738">
        <ele>14.39999961853</ele>
        <time>2019-12-01T08:45:02.000Z</time>
      </trkpt>
      <trkpt lat="47.28539" lon="-2.36743">
        <ele>14</ele>
        <time>2019-12-01T08:45:03.000Z</time>
      </trkpt>
      <trkpt lat="47.28542" lon="-2.36749">
        <ele>13.60000038147</ele>
        <time>2019-12-01T08:45:04.000Z</time>
      </trkpt>
      <trkpt lat="47.28545" lon="-2.36755">
        <ele>13.199999809265</ele>
        <time>2019-12-01T08:45:05.000Z</time>
      </trkpt>
      <trkpt lat="47.28549" lon="-2.36761">
        <ele>12.800000190735</ele>
        <time>2019-12-01T08:45:06.000Z</time>
      </trkpt>
      <trkpt lat="47.28562" lon="-2.36786">
        <ele>12.800000190735</ele>
        <time>2019-12-01T08:45:10.000Z</time>
      </trkpt>
      <trkpt lat="47.28566" lon="-2.36791">
        <ele>12.800000190735</ele>
        <time>2019-12-01T08:45:11.000Z</time>
      </trkpt>
      <trkpt lat="47.28572" lon="-2.36803">
        <ele>12.39999961853</ele>
        <time>2019-12-01T08:45:13.000Z</time>
      </trkpt>
      <trkpt lat="47.28576" lon="-2.36809">
        <ele>12</ele>
        <time>2019-12-01T08:45:14.000Z</time>
      </trkpt>
      <trkpt lat="47.28579" lon="-2.36815">
        <ele>11.60000038147</ele>
        <time>2019-12-01T08:45:15.000Z</time>
      </trkpt>
      <trkpt lat="47.28583" lon="-2.36822">
        <ele>11.199999809265</ele>
        <time>2019-12-01T08:45:16.000Z</time>
      </trkpt>
      <trkpt lat="47.28586" lon="-2.36827">
        <ele>10.800000190735</ele>
        <time>2019-12-01T08:45:17.000Z</time>
      </trkpt>
      <trkpt lat="47.28593" lon="-2.36838">
        <ele>10.800000190735</ele>
        <time>2019-12-01T08:45:19.000Z</time>
      </trkpt>
      <trkpt lat="47.28601" lon="-2.36844">
        <ele>10.800000190735</ele>
        <time>2019-12-01T08:45:21.000Z</time>
      </trkpt>
      <trkpt lat="47.28613" lon="-2.36842">
        <ele>10.39999961853</ele>
        <time>2019-12-01T08:45:24.000Z</time>
      </trkpt>
      <trkpt lat="47.28618" lon="-2.36838">
        <ele>9.8000001907349</ele>
        <time>2019-12-01T08:45:25.000Z</time>
      </trkpt>
      <trkpt lat="47.28621" lon="-2.36834">
        <ele>9</ele>
        <time>2019-12-01T08:45:26.000Z</time>
      </trkpt>
      <trkpt lat="47.28625" lon="-2.3683">
        <ele>8.6000003814697</ele>
        <time>2019-12-01T08:45:27.000Z</time>
      </trkpt>
      <trkpt lat="47.28631" lon="-2.36822">
        <ele>8.6000003814697</ele>
        <time>2019-12-01T08:45:29.000Z</time>
      </trkpt>
      <trkpt lat="47.28634" lon="-2.36818">
        <ele>8.6000003814697</ele>
        <time>2019-12-01T08:45:30.000Z</time>
      </trkpt>
      <trkpt lat="47.28644" lon="-2.36808">
        <ele>9.1999998092651</ele>
        <time>2019-12-01T08:45:33.000Z</time>
      </trkpt>
      <trkpt lat="47.28648" lon="-2.36806">
        <ele>9.6000003814697</ele>
        <time>2019-12-01T08:45:34.000Z</time>
      </trkpt>
      <trkpt lat="47.28651" lon="-2.36802">
        <ele>10</ele>
        <time>2019-12-01T08:45:35.000Z</time>
      </trkpt>
      <trkpt lat="47.28654" lon="-2.36799">
        <ele>10.39999961853</ele>
        <time>2019-12-01T08:45:36.000Z</time>
      </trkpt>
      <trkpt lat="47.28657" lon="-2.36796">
        <ele>10.800000190735</ele>
        <time>2019-12-01T08:45:37.000Z</time>
      </trkpt>
      <trkpt lat="47.28669" lon="-2.36785">
        <ele>10.800000190735</ele>
        <time>2019-12-01T08:45:42.000Z</time>
      </trkpt>
      <trkpt lat="47.28669" lon="-2.36783">
        <ele>11.199999809265</ele>
        <time>2019-12-01T08:45:43.000Z</time>
      </trkpt>
      <trkpt lat="47.2867" lon="-2.3678">
        <ele>11.800000190735</ele>
        <time>2019-12-01T08:45:44.000Z</time>
      </trkpt>
      <trkpt lat="47.28671" lon="-2.36778">
        <ele>12.199999809265</ele>
        <time>2019-12-01T08:45:45.000Z</time>
      </trkpt>
      <trkpt lat="47.28673" lon="-2.36776">
        <ele>12.60000038147</ele>
        <time>2019-12-01T08:45:46.000Z</time>
      </trkpt>
      <trkpt lat="47.28674" lon="-2.36774">
        <ele>13</ele>
        <time>2019-12-01T08:45:47.000Z</time>
      </trkpt>
      <trkpt lat="47.28682" lon="-2.36765">
        <ele>13.39999961853</ele>
        <time>2019-12-01T08:45:51.000Z</time>
      </trkpt>
      <trkpt lat="47.28683" lon="-2.36763">
        <ele>13.800000190735</ele>
        <time>2019-12-01T08:45:52.000Z</time>
      </trkpt>
      <trkpt lat="47.28685" lon="-2.36761">
        <ele>14.39999961853</ele>
        <time>2019-12-01T08:45:53.000Z</time>
      </trkpt>
      <trkpt lat="47.28687" lon="-2.3676">
        <ele>14.800000190735</ele>
        <time>2019-12-01T08:45:54.000Z</time>
      </trkpt>
      <trkpt lat="47.28689" lon="-2.36757">
        <ele>15.199999809265</ele>
        <time>2019-12-01T08:45:55.000Z</time>
      </trkpt>
      <trkpt lat="47.28697" lon="-2.36744">
        <ele>15.199999809265</ele>
        <time>2019-12-01T08:46:00.000Z</time>
      </trkpt>
      <trkpt lat="47.2871" lon="-2.36719">
        <ele>15.199999809265</ele>
        <time>2019-12-01T08:46:07.000Z</time>
      </trkpt>
      <trkpt lat="47.28711" lon="-2.36716">
        <ele>15.60000038147</ele>
        <time>2019-12-01T08:46:08.000Z</time>
      </trkpt>
      <trkpt lat="47.28712" lon="-2.36713">
        <ele>16</ele>
        <time>2019-12-01T08:46:09.000Z</time>
      </trkpt>
      <trkpt lat="47.28714" lon="-2.3671">
        <ele>16.39999961853</ele>
        <time>2019-12-01T08:46:10.000Z</time>
      </trkpt>
      <trkpt lat="47.28715" lon="-2.36707">
        <ele>16.799999237061</ele>
        <time>2019-12-01T08:46:11.000Z</time>
      </trkpt>
      <trkpt lat="47.28717" lon="-2.36704">
        <ele>17.39999961853</ele>
        <time>2019-12-01T08:46:12.000Z</time>
      </trkpt>
      <trkpt lat="47.28718" lon="-2.36701">
        <ele>17.39999961853</ele>
        <time>2019-12-01T08:46:13.000Z</time>
      </trkpt>
      <trkpt lat="47.28729" lon="-2.36684">
        <ele>17.799999237061</ele>
        <time>2019-12-01T08:46:19.000Z</time>
      </trkpt>
      <trkpt lat="47.28732" lon="-2.36681">
        <ele>18.200000762939</ele>
        <time>2019-12-01T08:46:20.000Z</time>
      </trkpt>
      <trkpt lat="47.28736" lon="-2.36677">
        <ele>18.60000038147</ele>
        <time>2019-12-01T08:46:21.000Z</time>
      </trkpt>
      <trkpt lat="47.28738" lon="-2.36673">
        <ele>19</ele>
        <time>2019-12-01T08:46:22.000Z</time>
      </trkpt>
      <trkpt lat="47.28739" lon="-2.36671">
        <ele>19.39999961853</ele>
        <time>2019-12-01T08:46:23.000Z</time>
      </trkpt>
      <trkpt lat="47.28743" lon="-2.36667">
        <ele>19.39999961853</ele>
        <time>2019-12-01T08:46:25.000Z</time>
      </trkpt>
      <trkpt lat="47.28745" lon="-2.36665">
        <ele>19.39999961853</ele>
        <time>2019-12-01T08:46:26.000Z</time>
      </trkpt>
      <trkpt lat="47.28753" lon="-2.36646">
        <ele>20</ele>
        <time>2019-12-01T08:46:32.000Z</time>
      </trkpt>
      <trkpt lat="47.28754" lon="-2.36643">
        <ele>20.39999961853</ele>
        <time>2019-12-01T08:46:33.000Z</time>
      </trkpt>
      <trkpt lat="47.28756" lon="-2.3664">
        <ele>20.799999237061</ele>
        <time>2019-12-01T08:46:34.000Z</time>
      </trkpt>
      <trkpt lat="47.28758" lon="-2.36635">
        <ele>21.200000762939</ele>
        <time>2019-12-01T08:46:35.000Z</time>
      </trkpt>
      <trkpt lat="47.2876" lon="-2.36631">
        <ele>21.60000038147</ele>
        <time>2019-12-01T08:46:36.000Z</time>
      </trkpt>
      <trkpt lat="47.28762" lon="-2.36627">
        <ele>21.60000038147</ele>
        <time>2019-12-01T08:46:37.000Z</time>
      </trkpt>
      <trkpt lat="47.28775" lon="-2.36607">
        <ele>21.60000038147</ele>
        <time>2019-12-01T08:46:43.000Z</time>
      </trkpt>
      <trkpt lat="47.28786" lon="-2.36585">
        <ele>21.60000038147</ele>
        <time>2019-12-01T08:46:50.000Z</time>
      </trkpt>
      <trkpt lat="47.28792" lon="-2.36577">
        <ele>21.60000038147</ele>
        <time>2019-12-01T08:46:55.000Z</time>
      </trkpt>
      <trkpt lat="47.28794" lon="-2.36579">
        <ele>21.60000038147</ele>
        <time>2019-12-01T08:46:56.000Z</time>
      </trkpt>
      <trkpt lat="47.28797" lon="-2.36584">
        <ele>21.60000038147</ele>
        <time>2019-12-01T08:46:58.000Z</time>
      </trkpt>
      <trkpt lat="47.288" lon="-2.36591">
        <ele>21.60000038147</ele>
        <time>2019-12-01T08:47:00.000Z</time>
      </trkpt>
      <trkpt lat="47.28805" lon="-2.366">
        <ele>21.60000038147</ele>
        <time>2019-12-01T08:47:03.000Z</time>
      </trkpt>
      <trkpt lat="47.28808" lon="-2.36608">
        <ele>21.60000038147</ele>
        <time>2019-12-01T08:47:05.000Z</time>
      </trkpt>
      <trkpt lat="47.28815" lon="-2.36635">
        <ele>21.200000762939</ele>
        <time>2019-12-01T08:47:09.000Z</time>
      </trkpt>
      <trkpt lat="47.28814" lon="-2.36643">
        <ele>20.799999237061</ele>
        <time>2019-12-01T08:47:10.000Z</time>
      </trkpt>
      <trkpt lat="47.28814" lon="-2.36649">
        <ele>20.200000762939</ele>
        <time>2019-12-01T08:47:11.000Z</time>
      </trkpt>
      <trkpt lat="47.28814" lon="-2.36656">
        <ele>19.799999237061</ele>
        <time>2019-12-01T08:47:12.000Z</time>
      </trkpt>
      <trkpt lat="47.28813" lon="-2.36664">
        <ele>19.200000762939</ele>
        <time>2019-12-01T08:47:13.000Z</time>
      </trkpt>
      <trkpt lat="47.28811" lon="-2.36674">
        <ele>18.60000038147</ele>
        <time>2019-12-01T08:47:14.000Z</time>
      </trkpt>
      <trkpt lat="47.28809" lon="-2.36684">
        <ele>18</ele>
        <time>2019-12-01T08:47:15.000Z</time>
      </trkpt>
      <trkpt lat="47.28806" lon="-2.36694">
        <ele>17.200000762939</ele>
        <time>2019-12-01T08:47:16.000Z</time>
      </trkpt>
      <trkpt lat="47.28802" lon="-2.36705">
        <ele>16.60000038147</ele>
        <time>2019-12-01T08:47:17.000Z</time>
      </trkpt>
      <trkpt lat="47.28799" lon="-2.36716">
        <ele>15.800000190735</ele>
        <time>2019-12-01T08:47:18.000Z</time>
      </trkpt>
      <trkpt lat="47.28796" lon="-2.36727">
        <ele>15</ele>
        <time>2019-12-01T08:47:19.000Z</time>
      </trkpt>
      <trkpt lat="47.28793" lon="-2.36739">
        <ele>14.39999961853</ele>
        <time>2019-12-01T08:47:20.000Z</time>
      </trkpt>
      <trkpt lat="47.2879" lon="-2.3675">
        <ele>13.60000038147</ele>
        <time>2019-12-01T08:47:21.000Z</time>
      </trkpt>
      <trkpt lat="47.28788" lon="-2.36762">
        <ele>12.800000190735</ele>
        <time>2019-12-01T08:47:22.000Z</time>
      </trkpt>
      <trkpt lat="47.28787" lon="-2.36774">
        <ele>12.199999809265</ele>
        <time>2019-12-01T08:47:23.000Z</time>
      </trkpt>
      <trkpt lat="47.28785" lon="-2.36785">
        <ele>11.60000038147</ele>
        <time>2019-12-01T08:47:24.000Z</time>
      </trkpt>
      <trkpt lat="47.28783" lon="-2.36796">
        <ele>11.199999809265</ele>
        <time>2019-12-01T08:47:25.000Z</time>
      </trkpt>
      <trkpt lat="47.2878" lon="-2.36805">
        <ele>10.800000190735</ele>
        <time>2019-12-01T08:47:26.000Z</time>
      </trkpt>
      <trkpt lat="47.28779" lon="-2.36816">
        <ele>10.39999961853</ele>
        <time>2019-12-01T08:47:27.000Z</time>
      </trkpt>
      <trkpt lat="47.28777" lon="-2.36828">
        <ele>9.8000001907349</ele>
        <time>2019-12-01T08:47:28.000Z</time>
      </trkpt>
      <trkpt lat="47.28774" lon="-2.36839">
        <ele>9.3999996185303</ele>
        <time>2019-12-01T08:47:29.000Z</time>
      </trkpt>
      <trkpt lat="47.28773" lon="-2.36851">
        <ele>8.1999998092651</ele>
        <time>2019-12-01T08:47:30.000Z</time>
      </trkpt>
      <trkpt lat="47.28772" lon="-2.36861">
        <ele>7.5999999046326</ele>
        <time>2019-12-01T08:47:31.000Z</time>
      </trkpt>
      <trkpt lat="47.28771" lon="-2.3687">
        <ele>7</ele>
        <time>2019-12-01T08:47:32.000Z</time>
      </trkpt>
      <trkpt lat="47.2877" lon="-2.36876">
        <ele>6.4000000953674</ele>
        <time>2019-12-01T08:47:33.000Z</time>
      </trkpt>
      <trkpt lat="47.28769" lon="-2.36879">
        <ele>5.8000001907349</ele>
        <time>2019-12-01T08:47:34.000Z</time>
      </trkpt>
      <trkpt lat="47.28768" lon="-2.36882">
        <ele>5.1999998092651</ele>
        <time>2019-12-01T08:47:35.000Z</time>
      </trkpt>
      <trkpt lat="47.28767" lon="-2.36885">
        <ele>4.5999999046326</ele>
        <time>2019-12-01T08:47:36.000Z</time>
      </trkpt>
      <trkpt lat="47.28765" lon="-2.36888">
        <ele>4</ele>
        <time>2019-12-01T08:47:37.000Z</time>
      </trkpt>
      <trkpt lat="47.28763" lon="-2.36891">
        <ele>3.4000000953674</ele>
        <time>2019-12-01T08:47:38.000Z</time>
      </trkpt>
      <trkpt lat="47.28754" lon="-2.36898">
        <ele>3.4000000953674</ele>
        <time>2019-12-01T08:47:41.000Z</time>
      </trkpt>
      <trkpt lat="47.28743" lon="-2.36902">
        <ele>3.4000000953674</ele>
        <time>2019-12-01T08:47:46.000Z</time>
      </trkpt>
      <trkpt lat="47.2874" lon="-2.36906">
        <ele>3.4000000953674</ele>
        <time>2019-12-01T08:47:48.000Z</time>
      </trkpt>
      <trkpt lat="47.28741" lon="-2.36911">
        <ele>3.4000000953674</ele>
        <time>2019-12-01T08:47:51.000Z</time>
      </trkpt>
      <trkpt lat="47.28741" lon="-2.36913">
        <ele>3.7999999523163</ele>
        <time>2019-12-01T08:47:52.000Z</time>
      </trkpt>
      <trkpt lat="47.28742" lon="-2.36915">
        <ele>4.1999998092651</ele>
        <time>2019-12-01T08:47:53.000Z</time>
      </trkpt>
      <trkpt lat="47.28743" lon="-2.36917">
        <ele>5</ele>
        <time>2019-12-01T08:47:54.000Z</time>
      </trkpt>
      <trkpt lat="47.28744" lon="-2.36919">
        <ele>5.5999999046326</ele>
        <time>2019-12-01T08:47:55.000Z</time>
      </trkpt>
      <trkpt lat="47.28744" lon="-2.36921">
        <ele>5.5999999046326</ele>
        <time>2019-12-01T08:47:56.000Z</time>
      </trkpt>
      <trkpt lat="47.28744" lon="-2.36922">
        <ele>5.5999999046326</ele>
        <time>2019-12-01T08:47:58.000Z</time>
      </trkpt>
      <trkpt lat="47.28746" lon="-2.36925">
        <ele>6</ele>
        <time>2019-12-01T08:48:00.000Z</time>
      </trkpt>
      <trkpt lat="47.28747" lon="-2.36927">
        <ele>6.4000000953674</ele>
        <time>2019-12-01T08:48:01.000Z</time>
      </trkpt>
      <trkpt lat="47.28748" lon="-2.36929">
        <ele>6.8000001907349</ele>
        <time>2019-12-01T08:48:02.000Z</time>
      </trkpt>
      <trkpt lat="47.28749" lon="-2.36931">
        <ele>7.1999998092651</ele>
        <time>2019-12-01T08:48:03.000Z</time>
      </trkpt>
      <trkpt lat="47.28749" lon="-2.36932">
        <ele>7.5999999046326</ele>
        <time>2019-12-01T08:48:04.000Z</time>
      </trkpt>
      <trkpt lat="47.28749" lon="-2.36933">
        <ele>7.5999999046326</ele>
        <time>2019-12-01T08:48:05.000Z</time>
      </trkpt>
      <trkpt lat="47.28754" lon="-2.36944">
        <ele>7.5999999046326</ele>
        <time>2019-12-01T08:48:14.000Z</time>
      </trkpt>
      <trkpt lat="47.28754" lon="-2.36946">
        <ele>8</ele>
        <time>2019-12-01T08:48:15.000Z</time>
      </trkpt>
      <trkpt lat="47.28754" lon="-2.36949">
        <ele>8.3999996185303</ele>
        <time>2019-12-01T08:48:16.000Z</time>
      </trkpt>
      <trkpt lat="47.28754" lon="-2.3695">
        <ele>9</ele>
        <time>2019-12-01T08:48:17.000Z</time>
      </trkpt>
      <trkpt lat="47.28755" lon="-2.36952">
        <ele>9.3999996185303</ele>
        <time>2019-12-01T08:48:18.000Z</time>
      </trkpt>
      <trkpt lat="47.28755" lon="-2.36953">
        <ele>9.8000001907349</ele>
        <time>2019-12-01T08:48:19.000Z</time>
      </trkpt>
      <trkpt lat="47.28755" lon="-2.36954">
        <ele>9.8000001907349</ele>
        <time>2019-12-01T08:48:20.000Z</time>
      </trkpt>
      <trkpt lat="47.28759" lon="-2.36974">
        <ele>12</ele>
        <time>2019-12-01T08:48:29.000Z</time>
      </trkpt>
      <trkpt lat="47.28761" lon="-2.3698">
        <ele>12</ele>
        <time>2019-12-01T08:48:31.000Z</time>
      </trkpt>
      <trkpt lat="47.28773" lon="-2.37001">
        <ele>12</ele>
        <time>2019-12-01T08:48:37.000Z</time>
      </trkpt>
      <trkpt lat="47.28777" lon="-2.37012">
        <ele>12</ele>
        <time>2019-12-01T08:48:39.000Z</time>
      </trkpt>
      <trkpt lat="47.2878" lon="-2.37023">
        <ele>12</ele>
        <time>2019-12-01T08:48:41.000Z</time>
      </trkpt>
      <trkpt lat="47.28785" lon="-2.37044">
        <ele>12</ele>
        <time>2019-12-01T08:48:46.000Z</time>
      </trkpt>
      <trkpt lat="47.2879" lon="-2.37065">
        <ele>11.60000038147</ele>
        <time>2019-12-01T08:48:50.000Z</time>
      </trkpt>
      <trkpt lat="47.2879" lon="-2.37071">
        <ele>11</ele>
        <time>2019-12-01T08:48:51.000Z</time>
      </trkpt>
      <trkpt lat="47.28792" lon="-2.37077">
        <ele>10.60000038147</ele>
        <time>2019-12-01T08:48:52.000Z</time>
      </trkpt>
      <trkpt lat="47.28793" lon="-2.37084">
        <ele>10.199999809265</ele>
        <time>2019-12-01T08:48:53.000Z</time>
      </trkpt>
      <trkpt lat="47.28794" lon="-2.37092">
        <ele>9.8000001907349</ele>
        <time>2019-12-01T08:48:54.000Z</time>
      </trkpt>
      <trkpt lat="47.28796" lon="-2.37098">
        <ele>9.1999998092651</ele>
        <time>2019-12-01T08:48:55.000Z</time>
      </trkpt>
      <trkpt lat="47.28796" lon="-2.37102">
        <ele>8.8000001907349</ele>
        <time>2019-12-01T08:48:56.000Z</time>
      </trkpt>
      <trkpt lat="47.28797" lon="-2.37105">
        <ele>8.1999998092651</ele>
        <time>2019-12-01T08:48:57.000Z</time>
      </trkpt>
      <trkpt lat="47.28797" lon="-2.37108">
        <ele>7.5999999046326</ele>
        <time>2019-12-01T08:48:58.000Z</time>
      </trkpt>
      <trkpt lat="47.28799" lon="-2.3711">
        <ele>7.1999998092651</ele>
        <time>2019-12-01T08:48:59.000Z</time>
      </trkpt>
      <trkpt lat="47.28801" lon="-2.37112">
        <ele>7.1999998092651</ele>
        <time>2019-12-01T08:49:00.000Z</time>
      </trkpt>
      <trkpt lat="47.28816" lon="-2.37112">
        <ele>6.5999999046326</ele>
        <time>2019-12-01T08:49:05.000Z</time>
      </trkpt>
      <trkpt lat="47.28818" lon="-2.3711">
        <ele>6.1999998092651</ele>
        <time>2019-12-01T08:49:06.000Z</time>
      </trkpt>
      <trkpt lat="47.2882" lon="-2.37109">
        <ele>5.5999999046326</ele>
        <time>2019-12-01T08:49:07.000Z</time>
      </trkpt>
      <trkpt lat="47.28822" lon="-2.37108">
        <ele>4.5999999046326</ele>
        <time>2019-12-01T08:49:08.000Z</time>
      </trkpt>
      <trkpt lat="47.28823" lon="-2.37108">
        <ele>4</ele>
        <time>2019-12-01T08:49:09.000Z</time>
      </trkpt>
      <trkpt lat="47.28823" lon="-2.37107">
        <ele>3.4000000953674</ele>
        <time>2019-12-01T08:49:10.000Z</time>
      </trkpt>
      <trkpt lat="47.28824" lon="-2.37108">
        <ele>2.7999999523163</ele>
        <time>2019-12-01T08:49:11.000Z</time>
      </trkpt>
      <trkpt lat="47.28825" lon="-2.37107">
        <ele>2.2000000476837</ele>
        <time>2019-12-01T08:49:12.000Z</time>
      </trkpt>
      <trkpt lat="47.28832" lon="-2.37103">
        <ele>2.2000000476837</ele>
        <time>2019-12-01T08:50:15.000Z</time>
      </trkpt>
      <trkpt lat="47.28832" lon="-2.37101">
        <ele>2.2000000476837</ele>
        <time>2019-12-01T08:50:16.000Z</time>
      </trkpt>
      <trkpt lat="47.2883" lon="-2.37077">
        <ele>2.2000000476837</ele>
        <time>2019-12-01T08:50:22.000Z</time>
      </trkpt>
      <trkpt lat="47.28826" lon="-2.37064">
        <ele>2.2000000476837</ele>
        <time>2019-12-01T08:50:25.000Z</time>
      </trkpt>
      <trkpt lat="47.28824" lon="-2.3706">
        <ele>2.2000000476837</ele>
        <time>2019-12-01T08:50:26.000Z</time>
      </trkpt>
      <trkpt lat="47.28813" lon="-2.37024">
        <ele>2.2000000476837</ele>
        <time>2019-12-01T08:50:32.000Z</time>
      </trkpt>
      <trkpt lat="47.28801" lon="-2.36988">
        <ele>2.2000000476837</ele>
        <time>2019-12-01T08:50:38.000Z</time>
      </trkpt>
      <trkpt lat="47.28799" lon="-2.36983">
        <ele>2.2000000476837</ele>
        <time>2019-12-01T08:50:39.000Z</time>
      </trkpt>
      <trkpt lat="47.28792" lon="-2.36955">
        <ele>2.2000000476837</ele>
        <time>2019-12-01T08:50:44.000Z</time>
      </trkpt>
      <trkpt lat="47.28787" lon="-2.36931">
        <ele>2.2000000476837</ele>
        <time>2019-12-01T08:50:48.000Z</time>
      </trkpt>
      <trkpt lat="47.28786" lon="-2.36927">
        <ele>2.2000000476837</ele>
        <time>2019-12-01T08:50:49.000Z</time>
      </trkpt>
      <trkpt lat="47.28781" lon="-2.36915">
        <ele>2.2000000476837</ele>
        <time>2019-12-01T08:50:53.000Z</time>
      </trkpt>
      <trkpt lat="47.28778" lon="-2.36915">
        <ele>2.2000000476837</ele>
        <time>2019-12-01T08:50:54.000Z</time>
      </trkpt>
      <trkpt lat="47.28772" lon="-2.36909">
        <ele>2.2000000476837</ele>
        <time>2019-12-01T08:50:59.000Z</time>
      </trkpt>
      <trkpt lat="47.28771" lon="-2.36908">
        <ele>2.2000000476837</ele>
        <time>2019-12-01T08:51:00.000Z</time>
      </trkpt>
      <trkpt lat="47.28767" lon="-2.36889">
        <ele>2.2000000476837</ele>
        <time>2019-12-01T08:51:08.000Z</time>
      </trkpt>
      <trkpt lat="47.28768" lon="-2.36874">
        <ele>2.5999999046326</ele>
        <time>2019-12-01T08:51:13.000Z</time>
      </trkpt>
      <trkpt lat="47.28768" lon="-2.36873">
        <ele>3</ele>
        <time>2019-12-01T08:51:14.000Z</time>
      </trkpt>
      <trkpt lat="47.28768" lon="-2.36868">
        <ele>3.5999999046326</ele>
        <time>2019-12-01T08:51:15.000Z</time>
      </trkpt>
      <trkpt lat="47.28768" lon="-2.36866">
        <ele>4</ele>
        <time>2019-12-01T08:51:16.000Z</time>
      </trkpt>
      <trkpt lat="47.28768" lon="-2.36863">
        <ele>4.4000000953674</ele>
        <time>2019-12-01T08:51:17.000Z</time>
      </trkpt>
      <trkpt lat="47.28769" lon="-2.36859">
        <ele>4.4000000953674</ele>
        <time>2019-12-01T08:51:19.000Z</time>
      </trkpt>
      <trkpt lat="47.28771" lon="-2.3685">
        <ele>4.8000001907349</ele>
        <time>2019-12-01T08:51:22.000Z</time>
      </trkpt>
      <trkpt lat="47.28771" lon="-2.36846">
        <ele>5.1999998092651</ele>
        <time>2019-12-01T08:51:23.000Z</time>
      </trkpt>
      <trkpt lat="47.28772" lon="-2.36843">
        <ele>5.5999999046326</ele>
        <time>2019-12-01T08:51:24.000Z</time>
      </trkpt>
      <trkpt lat="47.28772" lon="-2.36839">
        <ele>6</ele>
        <time>2019-12-01T08:51:25.000Z</time>
      </trkpt>
      <trkpt lat="47.28773" lon="-2.36834">
        <ele>6.4000000953674</ele>
        <time>2019-12-01T08:51:26.000Z</time>
      </trkpt>
      <trkpt lat="47.28776" lon="-2.36817">
        <ele>6.8000001907349</ele>
        <time>2019-12-01T08:51:30.000Z</time>
      </trkpt>
      <trkpt lat="47.28777" lon="-2.36811">
        <ele>7.1999998092651</ele>
        <time>2019-12-01T08:51:31.000Z</time>
      </trkpt>
      <trkpt lat="47.28777" lon="-2.36806">
        <ele>7.5999999046326</ele>
        <time>2019-12-01T08:51:32.000Z</time>
      </trkpt>
      <trkpt lat="47.28778" lon="-2.36801">
        <ele>8.1999998092651</ele>
        <time>2019-12-01T08:51:33.000Z</time>
      </trkpt>
      <trkpt lat="47.28779" lon="-2.36796">
        <ele>8.6000003814697</ele>
        <time>2019-12-01T08:51:34.000Z</time>
      </trkpt>
      <trkpt lat="47.2878" lon="-2.36774">
        <ele>8.6000003814697</ele>
        <time>2019-12-01T08:51:39.000Z</time>
      </trkpt>
      <trkpt lat="47.28786" lon="-2.36746">
        <ele>8.6000003814697</ele>
        <time>2019-12-01T08:51:46.000Z</time>
      </trkpt>
      <trkpt lat="47.28787" lon="-2.36742">
        <ele>9</ele>
        <time>2019-12-01T08:51:47.000Z</time>
      </trkpt>
      <trkpt lat="47.28788" lon="-2.36738">
        <ele>9.3999996185303</ele>
        <time>2019-12-01T08:51:48.000Z</time>
      </trkpt>
      <trkpt lat="47.2879" lon="-2.36734">
        <ele>9.8000001907349</ele>
        <time>2019-12-01T08:51:49.000Z</time>
      </trkpt>
      <trkpt lat="47.28791" lon="-2.36729">
        <ele>10.199999809265</ele>
        <time>2019-12-01T08:51:50.000Z</time>
      </trkpt>
      <trkpt lat="47.28792" lon="-2.36726">
        <ele>10.60000038147</ele>
        <time>2019-12-01T08:51:51.000Z</time>
      </trkpt>
      <trkpt lat="47.28795" lon="-2.36716">
        <ele>10.60000038147</ele>
        <time>2019-12-01T08:51:54.000Z</time>
      </trkpt>
      <trkpt lat="47.28797" lon="-2.36711">
        <ele>11</ele>
        <time>2019-12-01T08:51:55.000Z</time>
      </trkpt>
      <trkpt lat="47.28798" lon="-2.36707">
        <ele>11.39999961853</ele>
        <time>2019-12-01T08:51:56.000Z</time>
      </trkpt>
      <trkpt lat="47.28799" lon="-2.36705">
        <ele>11.800000190735</ele>
        <time>2019-12-01T08:51:57.000Z</time>
      </trkpt>
      <trkpt lat="47.28802" lon="-2.36701">
        <ele>12.199999809265</ele>
        <time>2019-12-01T08:51:58.000Z</time>
      </trkpt>
      <trkpt lat="47.28803" lon="-2.36697">
        <ele>12.60000038147</ele>
        <time>2019-12-01T08:51:59.000Z</time>
      </trkpt>
      <trkpt lat="47.28804" lon="-2.36694">
        <ele>13.199999809265</ele>
        <time>2019-12-01T08:52:00.000Z</time>
      </trkpt>
      <trkpt lat="47.28805" lon="-2.36692">
        <ele>13.60000038147</ele>
        <time>2019-12-01T08:52:01.000Z</time>
      </trkpt>
      <trkpt lat="47.28806" lon="-2.36688">
        <ele>14</ele>
        <time>2019-12-01T08:52:02.000Z</time>
      </trkpt>
      <trkpt lat="47.28806" lon="-2.36686">
        <ele>14.39999961853</ele>
        <time>2019-12-01T08:52:03.000Z</time>
      </trkpt>
      <trkpt lat="47.28807" lon="-2.36681">
        <ele>14.800000190735</ele>
        <time>2019-12-01T08:52:04.000Z</time>
      </trkpt>
      <trkpt lat="47.28808" lon="-2.36678">
        <ele>14.800000190735</ele>
        <time>2019-12-01T08:52:05.000Z</time>
      </trkpt>
      <trkpt lat="47.28811" lon="-2.3667">
        <ele>15.199999809265</ele>
        <time>2019-12-01T08:52:07.000Z</time>
      </trkpt>
      <trkpt lat="47.28813" lon="-2.36667">
        <ele>15.60000038147</ele>
        <time>2019-12-01T08:52:08.000Z</time>
      </trkpt>
      <trkpt lat="47.28814" lon="-2.36665">
        <ele>16.200000762939</ele>
        <time>2019-12-01T08:52:09.000Z</time>
      </trkpt>
      <trkpt lat="47.28815" lon="-2.36663">
        <ele>16.60000038147</ele>
        <time>2019-12-01T08:52:10.000Z</time>
      </trkpt>
      <trkpt lat="47.28817" lon="-2.36661">
        <ele>17</ele>
        <time>2019-12-01T08:52:11.000Z</time>
      </trkpt>
      <trkpt lat="47.28821" lon="-2.36653">
        <ele>17.39999961853</ele>
        <time>2019-12-01T08:52:14.000Z</time>
      </trkpt>
      <trkpt lat="47.28823" lon="-2.3665">
        <ele>17.799999237061</ele>
        <time>2019-12-01T08:52:15.000Z</time>
      </trkpt>
      <trkpt lat="47.28824" lon="-2.36648">
        <ele>18.200000762939</ele>
        <time>2019-12-01T08:52:16.000Z</time>
      </trkpt>
      <trkpt lat="47.28825" lon="-2.36647">
        <ele>18.60000038147</ele>
        <time>2019-12-01T08:52:17.000Z</time>
      </trkpt>
      <trkpt lat="47.28826" lon="-2.36645">
        <ele>19</ele>
        <time>2019-12-01T08:52:18.000Z</time>
      </trkpt>
      <trkpt lat="47.28838" lon="-2.36626">
        <ele>19</ele>
        <time>2019-12-01T08:52:24.000Z</time>
      </trkpt>
      <trkpt lat="47.28846" lon="-2.36604">
        <ele>19</ele>
        <time>2019-12-01T08:52:31.000Z</time>
      </trkpt>
      <trkpt lat="47.28853" lon="-2.36584">
        <ele>19</ele>
        <time>2019-12-01T08:52:36.000Z</time>
      </trkpt>
      <trkpt lat="47.28862" lon="-2.36553">
        <ele>19</ele>
        <time>2019-12-01T08:52:42.000Z</time>
      </trkpt>
      <trkpt lat="47.28866" lon="-2.36536">
        <ele>19.39999961853</ele>
        <time>2019-12-01T08:52:46.000Z</time>
      </trkpt>
      <trkpt lat="47.28866" lon="-2.36532">
        <ele>19.799999237061</ele>
        <time>2019-12-01T08:52:47.000Z</time>
      </trkpt>
      <trkpt lat="47.28866" lon="-2.36528">
        <ele>20.200000762939</ele>
        <time>2019-12-01T08:52:48.000Z</time>
      </trkpt>
      <trkpt lat="47.28866" lon="-2.36525">
        <ele>21.200000762939</ele>
        <time>2019-12-01T08:52:49.000Z</time>
      </trkpt>
      <trkpt lat="47.28865" lon="-2.36516">
        <ele>21.200000762939</ele>
        <time>2019-12-01T08:52:52.000Z</time>
      </trkpt>
      <trkpt lat="47.28864" lon="-2.36513">
        <ele>21.60000038147</ele>
        <time>2019-12-01T08:52:53.000Z</time>
      </trkpt>
      <trkpt lat="47.28863" lon="-2.36509">
        <ele>22</ele>
        <time>2019-12-01T08:52:54.000Z</time>
      </trkpt>
      <trkpt lat="47.28861" lon="-2.36506">
        <ele>22.39999961853</ele>
        <time>2019-12-01T08:52:55.000Z</time>
      </trkpt>
      <trkpt lat="47.28861" lon="-2.36503">
        <ele>22.799999237061</ele>
        <time>2019-12-01T08:52:56.000Z</time>
      </trkpt>
      <trkpt lat="47.28859" lon="-2.36499">
        <ele>23.200000762939</ele>
        <time>2019-12-01T08:52:57.000Z</time>
      </trkpt>
      <trkpt lat="47.28856" lon="-2.36485">
        <ele>23.200000762939</ele>
        <time>2019-12-01T08:53:01.000Z</time>
      </trkpt>
      <trkpt lat="47.28855" lon="-2.36472">
        <ele>23.200000762939</ele>
        <time>2019-12-01T08:53:04.000Z</time>
      </trkpt>
      <trkpt lat="47.28855" lon="-2.36469">
        <ele>23.200000762939</ele>
        <time>2019-12-01T08:53:05.000Z</time>
      </trkpt>
      <trkpt lat="47.28856" lon="-2.36465">
        <ele>23.60000038147</ele>
        <time>2019-12-01T08:53:06.000Z</time>
      </trkpt>
      <trkpt lat="47.28856" lon="-2.36462">
        <ele>24</ele>
        <time>2019-12-01T08:53:07.000Z</time>
      </trkpt>
      <trkpt lat="47.28856" lon="-2.36458">
        <ele>24.39999961853</ele>
        <time>2019-12-01T08:53:08.000Z</time>
      </trkpt>
      <trkpt lat="47.28855" lon="-2.36455">
        <ele>24.799999237061</ele>
        <time>2019-12-01T08:53:09.000Z</time>
      </trkpt>
      <trkpt lat="47.28855" lon="-2.36452">
        <ele>25.200000762939</ele>
        <time>2019-12-01T08:53:10.000Z</time>
      </trkpt>
      <trkpt lat="47.28854" lon="-2.36449">
        <ele>25.200000762939</ele>
        <time>2019-12-01T08:53:11.000Z</time>
      </trkpt>
      <trkpt lat="47.28852" lon="-2.36435">
        <ele>25.60000038147</ele>
        <time>2019-12-01T08:53:15.000Z</time>
      </trkpt>
      <trkpt lat="47.28851" lon="-2.36431">
        <ele>26</ele>
        <time>2019-12-01T08:53:16.000Z</time>
      </trkpt>
      <trkpt lat="47.28851" lon="-2.36428">
        <ele>26.60000038147</ele>
        <time>2019-12-01T08:53:17.000Z</time>
      </trkpt>
      <trkpt lat="47.2885" lon="-2.36424">
        <ele>27</ele>
        <time>2019-12-01T08:53:18.000Z</time>
      </trkpt>
      <trkpt lat="47.28849" lon="-2.36421">
        <ele>27.39999961853</ele>
        <time>2019-12-01T08:53:19.000Z</time>
      </trkpt>
      <trkpt lat="47.28848" lon="-2.36419">
        <ele>27.799999237061</ele>
        <time>2019-12-01T08:53:20.000Z</time>
      </trkpt>
      <trkpt lat="47.28846" lon="-2.36417">
        <ele>28.200000762939</ele>
        <time>2019-12-01T08:53:21.000Z</time>
      </trkpt>
      <trkpt lat="47.28845" lon="-2.36415">
        <ele>28.60000038147</ele>
        <time>2019-12-01T08:53:22.000Z</time>
      </trkpt>
      <trkpt lat="47.28844" lon="-2.36412">
        <ele>29</ele>
        <time>2019-12-01T08:53:23.000Z</time>
      </trkpt>
      <trkpt lat="47.28843" lon="-2.3641">
        <ele>29.60000038147</ele>
        <time>2019-12-01T08:53:24.000Z</time>
      </trkpt>
      <trkpt lat="47.28841" lon="-2.36409">
        <ele>29.60000038147</ele>
        <time>2019-12-01T08:53:26.000Z</time>
      </trkpt>
      <trkpt lat="47.28836" lon="-2.36406">
        <ele>29.60000038147</ele>
        <time>2019-12-01T08:53:30.000Z</time>
      </trkpt>
      <trkpt lat="47.28832" lon="-2.36408">
        <ele>29.60000038147</ele>
        <time>2019-12-01T08:53:33.000Z</time>
      </trkpt>
      <trkpt lat="47.28828" lon="-2.36411">
        <ele>29.60000038147</ele>
        <time>2019-12-01T08:53:37.000Z</time>
      </trkpt>
      <trkpt lat="47.28824" lon="-2.36414">
        <ele>29.60000038147</ele>
        <time>2019-12-01T08:53:41.000Z</time>
      </trkpt>
      <trkpt lat="47.28819" lon="-2.36414">
        <ele>29.60000038147</ele>
        <time>2019-12-01T08:53:43.000Z</time>
      </trkpt>
      <trkpt lat="47.28807" lon="-2.36415">
        <ele>29.60000038147</ele>
        <time>2019-12-01T08:53:48.000Z</time>
      </trkpt>
      <trkpt lat="47.28806" lon="-2.36414">
        <ele>29.60000038147</ele>
        <time>2019-12-01T08:53:49.000Z</time>
      </trkpt>
      <trkpt lat="47.28803" lon="-2.36423">
        <ele>29.60000038147</ele>
        <time>2019-12-01T08:54:05.000Z</time>
      </trkpt>
      <trkpt lat="47.28803" lon="-2.36427">
        <ele>29.60000038147</ele>
        <time>2019-12-01T08:54:07.000Z</time>
      </trkpt>
      <trkpt lat="47.28803" lon="-2.36428">
        <ele>29.60000038147</ele>
        <time>2019-12-01T08:54:08.000Z</time>
      </trkpt>
      <trkpt lat="47.28805" lon="-2.36429">
        <ele>29.60000038147</ele>
        <time>2019-12-01T08:54:11.000Z</time>
      </trkpt>
      <trkpt lat="47.28802" lon="-2.36426">
        <ele>29.60000038147</ele>
        <time>2019-12-01T08:55:28.000Z</time>
      </trkpt>
      <trkpt lat="47.28804" lon="-2.36414">
        <ele>29.60000038147</ele>
        <time>2019-12-01T08:55:32.000Z</time>
      </trkpt>
      <trkpt lat="47.28809" lon="-2.36396">
        <ele>29.60000038147</ele>
        <time>2019-12-01T08:55:36.000Z</time>
      </trkpt>
      <trkpt lat="47.28826" lon="-2.36361">
        <ele>29.60000038147</ele>
        <time>2019-12-01T08:55:42.000Z</time>
      </trkpt>
      <trkpt lat="47.28833" lon="-2.3635">
        <ele>29.60000038147</ele>
        <time>2019-12-01T08:55:44.000Z</time>
      </trkpt>
      <trkpt lat="47.28841" lon="-2.36339">
        <ele>29</ele>
        <time>2019-12-01T08:55:46.000Z</time>
      </trkpt>
      <trkpt lat="47.28844" lon="-2.36335">
        <ele>28.60000038147</ele>
        <time>2019-12-01T08:55:47.000Z</time>
      </trkpt>
      <trkpt lat="47.28848" lon="-2.36331">
        <ele>28.200000762939</ele>
        <time>2019-12-01T08:55:48.000Z</time>
      </trkpt>
      <trkpt lat="47.28851" lon="-2.36327">
        <ele>27.799999237061</ele>
        <time>2019-12-01T08:55:49.000Z</time>
      </trkpt>
      <trkpt lat="47.28855" lon="-2.36324">
        <ele>27.39999961853</ele>
        <time>2019-12-01T08:55:50.000Z</time>
      </trkpt>
      <trkpt lat="47.28863" lon="-2.36319">
        <ele>26.799999237061</ele>
        <time>2019-12-01T08:55:52.000Z</time>
      </trkpt>
      <trkpt lat="47.28867" lon="-2.36317">
        <ele>26.39999961853</ele>
        <time>2019-12-01T08:55:53.000Z</time>
      </trkpt>
      <trkpt lat="47.2887" lon="-2.36314">
        <ele>26</ele>
        <time>2019-12-01T08:55:54.000Z</time>
      </trkpt>
      <trkpt lat="47.28874" lon="-2.36312">
        <ele>25.60000038147</ele>
        <time>2019-12-01T08:55:55.000Z</time>
      </trkpt>
      <trkpt lat="47.28878" lon="-2.36308">
        <ele>25</ele>
        <time>2019-12-01T08:55:56.000Z</time>
      </trkpt>
      <trkpt lat="47.28888" lon="-2.36301">
        <ele>25</ele>
        <time>2019-12-01T08:55:58.000Z</time>
      </trkpt>
      <trkpt lat="47.28924" lon="-2.36284">
        <ele>25</ele>
        <time>2019-12-01T08:56:04.000Z</time>
      </trkpt>
      <trkpt lat="47.28944" lon="-2.36276">
        <ele>24.200000762939</ele>
        <time>2019-12-01T08:56:07.000Z</time>
      </trkpt>
      <trkpt lat="47.28951" lon="-2.36274">
        <ele>23.799999237061</ele>
        <time>2019-12-01T08:56:08.000Z</time>
      </trkpt>
      <trkpt lat="47.28957" lon="-2.36271">
        <ele>23.39999961853</ele>
        <time>2019-12-01T08:56:09.000Z</time>
      </trkpt>
      <trkpt lat="47.28964" lon="-2.36268">
        <ele>23</ele>
        <time>2019-12-01T08:56:10.000Z</time>
      </trkpt>
      <trkpt lat="47.28976" lon="-2.36262">
        <ele>23</ele>
        <time>2019-12-01T08:56:12.000Z</time>
      </trkpt>
      <trkpt lat="47.29019" lon="-2.36243">
        <ele>23</ele>
        <time>2019-12-01T08:56:19.000Z</time>
      </trkpt>
      <trkpt lat="47.29053" lon="-2.36229">
        <ele>23</ele>
        <time>2019-12-01T08:56:25.000Z</time>
      </trkpt>
      <trkpt lat="47.29097" lon="-2.3621">
        <ele>23</ele>
        <time>2019-12-01T08:56:33.000Z</time>
      </trkpt>
      <trkpt lat="47.29108" lon="-2.36205">
        <ele>23.39999961853</ele>
        <time>2019-12-01T08:56:35.000Z</time>
      </trkpt>
      <trkpt lat="47.29114" lon="-2.36202">
        <ele>23.799999237061</ele>
        <time>2019-12-01T08:56:36.000Z</time>
      </trkpt>
      <trkpt lat="47.29119" lon="-2.362">
        <ele>24.200000762939</ele>
        <time>2019-12-01T08:56:37.000Z</time>
      </trkpt>
      <trkpt lat="47.29125" lon="-2.36198">
        <ele>24.799999237061</ele>
        <time>2019-12-01T08:56:38.000Z</time>
      </trkpt>
      <trkpt lat="47.29131" lon="-2.36195">
        <ele>25.200000762939</ele>
        <time>2019-12-01T08:56:39.000Z</time>
      </trkpt>
      <trkpt lat="47.29136" lon="-2.36193">
        <ele>25.200000762939</ele>
        <time>2019-12-01T08:56:40.000Z</time>
      </trkpt>
      <trkpt lat="47.29181" lon="-2.36173">
        <ele>25.200000762939</ele>
        <time>2019-12-01T08:56:48.000Z</time>
      </trkpt>
      <trkpt lat="47.29226" lon="-2.36154">
        <ele>25.200000762939</ele>
        <time>2019-12-01T08:56:56.000Z</time>
      </trkpt>
      <trkpt lat="47.29264" lon="-2.36137">
        <ele>25.200000762939</ele>
        <time>2019-12-01T08:57:03.000Z</time>
      </trkpt>
      <trkpt lat="47.29303" lon="-2.36119">
        <ele>25.200000762939</ele>
        <time>2019-12-01T08:57:10.000Z</time>
      </trkpt>
      <trkpt lat="47.29352" lon="-2.36089">
        <ele>25.200000762939</ele>
        <time>2019-12-01T08:57:19.000Z</time>
      </trkpt>
      <trkpt lat="47.29382" lon="-2.36066">
        <ele>25.200000762939</ele>
        <time>2019-12-01T08:57:25.000Z</time>
      </trkpt>
      <trkpt lat="47.29411" lon="-2.36041">
        <ele>25.200000762939</ele>
        <time>2019-12-01T08:57:31.000Z</time>
      </trkpt>
      <trkpt lat="47.29438" lon="-2.36017">
        <ele>25.200000762939</ele>
        <time>2019-12-01T08:57:37.000Z</time>
      </trkpt>
      <trkpt lat="47.29456" lon="-2.36001">
        <ele>25.200000762939</ele>
        <time>2019-12-01T08:57:41.000Z</time>
      </trkpt>
      <trkpt lat="47.29459" lon="-2.35995">
        <ele>25.60000038147</ele>
        <time>2019-12-01T08:57:42.000Z</time>
      </trkpt>
      <trkpt lat="47.29462" lon="-2.35989">
        <ele>26</ele>
        <time>2019-12-01T08:57:43.000Z</time>
      </trkpt>
      <trkpt lat="47.29464" lon="-2.35983">
        <ele>26.39999961853</ele>
        <time>2019-12-01T08:57:44.000Z</time>
      </trkpt>
      <trkpt lat="47.29468" lon="-2.35978">
        <ele>27</ele>
        <time>2019-12-01T08:57:45.000Z</time>
      </trkpt>
      <trkpt lat="47.29472" lon="-2.35975">
        <ele>27.39999961853</ele>
        <time>2019-12-01T08:57:46.000Z</time>
      </trkpt>
      <trkpt lat="47.29477" lon="-2.35973">
        <ele>27.39999961853</ele>
        <time>2019-12-01T08:57:47.000Z</time>
      </trkpt>
      <trkpt lat="47.29488" lon="-2.35967">
        <ele>27.39999961853</ele>
        <time>2019-12-01T08:57:49.000Z</time>
      </trkpt>
      <trkpt lat="47.29502" lon="-2.35956">
        <ele>27.39999961853</ele>
        <time>2019-12-01T08:57:52.000Z</time>
      </trkpt>
      <trkpt lat="47.29537" lon="-2.35932">
        <ele>27.39999961853</ele>
        <time>2019-12-01T08:57:59.000Z</time>
      </trkpt>
      <trkpt lat="47.29542" lon="-2.35929">
        <ele>27.39999961853</ele>
        <time>2019-12-01T08:58:00.000Z</time>
      </trkpt>
      <trkpt lat="47.29563" lon="-2.35918">
        <ele>27.39999961853</ele>
        <time>2019-12-01T08:58:04.000Z</time>
      </trkpt>
      <trkpt lat="47.29599" lon="-2.35897">
        <ele>27.39999961853</ele>
        <time>2019-12-01T08:58:11.000Z</time>
      </trkpt>
      <trkpt lat="47.29628" lon="-2.35879">
        <ele>27.39999961853</ele>
        <time>2019-12-01T08:58:17.000Z</time>
      </trkpt>
      <trkpt lat="47.29649" lon="-2.35864">
        <ele>27.39999961853</ele>
        <time>2019-12-01T08:58:21.000Z</time>
      </trkpt>
      <trkpt lat="47.29653" lon="-2.35858">
        <ele>27.39999961853</ele>
        <time>2019-12-01T08:58:22.000Z</time>
      </trkpt>
      <trkpt lat="47.29661" lon="-2.3584">
        <ele>27.39999961853</ele>
        <time>2019-12-01T08:58:25.000Z</time>
      </trkpt>
      <trkpt lat="47.29676" lon="-2.35838">
        <ele>27.39999961853</ele>
        <time>2019-12-01T08:58:28.000Z</time>
      </trkpt>
      <trkpt lat="47.29681" lon="-2.35839">
        <ele>27.39999961853</ele>
        <time>2019-12-01T08:58:29.000Z</time>
      </trkpt>
      <trkpt lat="47.29698" lon="-2.35838">
        <ele>27.39999961853</ele>
        <time>2019-12-01T08:58:32.000Z</time>
      </trkpt>
      <trkpt lat="47.29709" lon="-2.35834">
        <ele>27.39999961853</ele>
        <time>2019-12-01T08:58:34.000Z</time>
      </trkpt>
      <trkpt lat="47.29728" lon="-2.35822">
        <ele>27.799999237061</ele>
        <time>2019-12-01T08:58:38.000Z</time>
      </trkpt>
      <trkpt lat="47.29732" lon="-2.3582">
        <ele>28.200000762939</ele>
        <time>2019-12-01T08:58:39.000Z</time>
      </trkpt>
      <trkpt lat="47.29736" lon="-2.35817">
        <ele>28.60000038147</ele>
        <time>2019-12-01T08:58:40.000Z</time>
      </trkpt>
      <trkpt lat="47.29741" lon="-2.35815">
        <ele>29</ele>
        <time>2019-12-01T08:58:41.000Z</time>
      </trkpt>
      <trkpt lat="47.29745" lon="-2.35813">
        <ele>29.39999961853</ele>
        <time>2019-12-01T08:58:42.000Z</time>
      </trkpt>
      <trkpt lat="47.29758" lon="-2.35807">
        <ele>29.39999961853</ele>
        <time>2019-12-01T08:58:45.000Z</time>
      </trkpt>
      <trkpt lat="47.29793" lon="-2.35794">
        <ele>29.39999961853</ele>
        <time>2019-12-01T08:58:53.000Z</time>
      </trkpt>
      <trkpt lat="47.29798" lon="-2.35792">
        <ele>29.799999237061</ele>
        <time>2019-12-01T08:58:54.000Z</time>
      </trkpt>
      <trkpt lat="47.29803" lon="-2.35791">
        <ele>30.200000762939</ele>
        <time>2019-12-01T08:58:55.000Z</time>
      </trkpt>
      <trkpt lat="47.29808" lon="-2.35789">
        <ele>30.60000038147</ele>
        <time>2019-12-01T08:58:56.000Z</time>
      </trkpt>
      <trkpt lat="47.29813" lon="-2.35787">
        <ele>31</ele>
        <time>2019-12-01T08:58:57.000Z</time>
      </trkpt>
      <trkpt lat="47.29818" lon="-2.35786">
        <ele>31.39999961853</ele>
        <time>2019-12-01T08:58:58.000Z</time>
      </trkpt>
      <trkpt lat="47.29834" lon="-2.3578">
        <ele>31.39999961853</ele>
        <time>2019-12-01T08:59:01.000Z</time>
      </trkpt>
      <trkpt lat="47.29865" lon="-2.35769">
        <ele>31</ele>
        <time>2019-12-01T08:59:06.000Z</time>
      </trkpt>
      <trkpt lat="47.29872" lon="-2.35768">
        <ele>30.60000038147</ele>
        <time>2019-12-01T08:59:07.000Z</time>
      </trkpt>
      <trkpt lat="47.29878" lon="-2.35766">
        <ele>30.200000762939</ele>
        <time>2019-12-01T08:59:08.000Z</time>
      </trkpt>
      <trkpt lat="47.29883" lon="-2.35765">
        <ele>29.799999237061</ele>
        <time>2019-12-01T08:59:09.000Z</time>
      </trkpt>
      <trkpt lat="47.29888" lon="-2.35762">
        <ele>29.39999961853</ele>
        <time>2019-12-01T08:59:10.000Z</time>
      </trkpt>
      <trkpt lat="47.29893" lon="-2.35759">
        <ele>29.39999961853</ele>
        <time>2019-12-01T08:59:11.000Z</time>
      </trkpt>
      <trkpt lat="47.29895" lon="-2.35753">
        <ele>29.39999961853</ele>
        <time>2019-12-01T08:59:12.000Z</time>
      </trkpt>
      <trkpt lat="47.29895" lon="-2.35735">
        <ele>29.39999961853</ele>
        <time>2019-12-01T08:59:15.000Z</time>
      </trkpt>
      <trkpt lat="47.29889" lon="-2.35715">
        <ele>29.39999961853</ele>
        <time>2019-12-01T08:59:18.000Z</time>
      </trkpt>
      <trkpt lat="47.29887" lon="-2.35708">
        <ele>29.39999961853</ele>
        <time>2019-12-01T08:59:19.000Z</time>
      </trkpt>
      <trkpt lat="47.29876" lon="-2.35658">
        <ele>29.39999961853</ele>
        <time>2019-12-01T08:59:25.000Z</time>
      </trkpt>
      <trkpt lat="47.29864" lon="-2.35597">
        <ele>29.39999961853</ele>
        <time>2019-12-01T08:59:32.000Z</time>
      </trkpt>
      <trkpt lat="47.29849" lon="-2.35543">
        <ele>29.39999961853</ele>
        <time>2019-12-01T08:59:38.000Z</time>
      </trkpt>
      <trkpt lat="47.29839" lon="-2.35509">
        <ele>29</ele>
        <time>2019-12-01T08:59:42.000Z</time>
      </trkpt>
      <trkpt lat="47.29837" lon="-2.355">
        <ele>28.60000038147</ele>
        <time>2019-12-01T08:59:43.000Z</time>
      </trkpt>
      <trkpt lat="47.29836" lon="-2.35492">
        <ele>28</ele>
        <time>2019-12-01T08:59:44.000Z</time>
      </trkpt>
      <trkpt lat="47.29834" lon="-2.35485">
        <ele>27.60000038147</ele>
        <time>2019-12-01T08:59:45.000Z</time>
      </trkpt>
      <trkpt lat="47.29832" lon="-2.35478">
        <ele>27.200000762939</ele>
        <time>2019-12-01T08:59:46.000Z</time>
      </trkpt>
      <trkpt lat="47.29834" lon="-2.35454">
        <ele>27.200000762939</ele>
        <time>2019-12-01T08:59:49.000Z</time>
      </trkpt>
      <trkpt lat="47.29852" lon="-2.35433">
        <ele>27.200000762939</ele>
        <time>2019-12-01T08:59:53.000Z</time>
      </trkpt>
      <trkpt lat="47.29875" lon="-2.35409">
        <ele>26.799999237061</ele>
        <time>2019-12-01T08:59:58.000Z</time>
      </trkpt>
      <trkpt lat="47.29879" lon="-2.35404">
        <ele>26.39999961853</ele>
        <time>2019-12-01T08:59:59.000Z</time>
      </trkpt>
      <trkpt lat="47.29884" lon="-2.354">
        <ele>26</ele>
        <time>2019-12-01T09:00:00.000Z</time>
      </trkpt>
      <trkpt lat="47.29888" lon="-2.35395">
        <ele>25.60000038147</ele>
        <time>2019-12-01T09:00:01.000Z</time>
      </trkpt>
      <trkpt lat="47.29893" lon="-2.3539">
        <ele>25.200000762939</ele>
        <time>2019-12-01T09:00:02.000Z</time>
      </trkpt>
      <trkpt lat="47.2991" lon="-2.35371">
        <ele>25.200000762939</ele>
        <time>2019-12-01T09:00:06.000Z</time>
      </trkpt>
      <trkpt lat="47.29927" lon="-2.35352">
        <ele>25.200000762939</ele>
        <time>2019-12-01T09:00:11.000Z</time>
      </trkpt>
      <trkpt lat="47.2995" lon="-2.35321">
        <ele>25.200000762939</ele>
        <time>2019-12-01T09:00:17.000Z</time>
      </trkpt>
      <trkpt lat="47.29967" lon="-2.353">
        <ele>25.200000762939</ele>
        <time>2019-12-01T09:00:21.000Z</time>
      </trkpt>
      <trkpt lat="47.29974" lon="-2.35289">
        <ele>25.200000762939</ele>
        <time>2019-12-01T09:00:23.000Z</time>
      </trkpt>
      <trkpt lat="47.29978" lon="-2.35285">
        <ele>25.200000762939</ele>
        <time>2019-12-01T09:00:24.000Z</time>
      </trkpt>
      <trkpt lat="47.29997" lon="-2.35265">
        <ele>25.200000762939</ele>
        <time>2019-12-01T09:00:29.000Z</time>
      </trkpt>
      <trkpt lat="47.3001" lon="-2.35254">
        <ele>24.799999237061</ele>
        <time>2019-12-01T09:00:33.000Z</time>
      </trkpt>
      <trkpt lat="47.30014" lon="-2.35253">
        <ele>24.39999961853</ele>
        <time>2019-12-01T09:00:34.000Z</time>
      </trkpt>
      <trkpt lat="47.30017" lon="-2.35251">
        <ele>23.799999237061</ele>
        <time>2019-12-01T09:00:35.000Z</time>
      </trkpt>
      <trkpt lat="47.30021" lon="-2.35248">
        <ele>23.39999961853</ele>
        <time>2019-12-01T09:00:36.000Z</time>
      </trkpt>
      <trkpt lat="47.30023" lon="-2.35246">
        <ele>23</ele>
        <time>2019-12-01T09:00:37.000Z</time>
      </trkpt>
      <trkpt lat="47.30024" lon="-2.35246">
        <ele>23</ele>
        <time>2019-12-01T09:00:38.000Z</time>
      </trkpt>
      <trkpt lat="47.3003" lon="-2.35244">
        <ele>23</ele>
        <time>2019-12-01T09:00:42.000Z</time>
      </trkpt>
      <trkpt lat="47.30048" lon="-2.35235">
        <ele>23</ele>
        <time>2019-12-01T09:00:48.000Z</time>
      </trkpt>
      <trkpt lat="47.30066" lon="-2.35225">
        <ele>23</ele>
        <time>2019-12-01T09:00:53.000Z</time>
      </trkpt>
      <trkpt lat="47.30077" lon="-2.35217">
        <ele>23</ele>
        <time>2019-12-01T09:00:56.000Z</time>
      </trkpt>
      <trkpt lat="47.30081" lon="-2.35216">
        <ele>23</ele>
        <time>2019-12-01T09:00:57.000Z</time>
      </trkpt>
      <trkpt lat="47.30093" lon="-2.35211">
        <ele>23</ele>
        <time>2019-12-01T09:01:00.000Z</time>
      </trkpt>
      <trkpt lat="47.30101" lon="-2.35207">
        <ele>23</ele>
        <time>2019-12-01T09:01:02.000Z</time>
      </trkpt>
      <trkpt lat="47.30123" lon="-2.35197">
        <ele>23</ele>
        <time>2019-12-01T09:01:08.000Z</time>
      </trkpt>
      <trkpt lat="47.30134" lon="-2.35195">
        <ele>23</ele>
        <time>2019-12-01T09:01:13.000Z</time>
      </trkpt>
      <trkpt lat="47.3014" lon="-2.35196">
        <ele>23</ele>
        <time>2019-12-01T09:01:18.000Z</time>
      </trkpt>
      <trkpt lat="47.30141" lon="-2.35196">
        <ele>23</ele>
        <time>2019-12-01T09:01:19.000Z</time>
      </trkpt>
      <trkpt lat="47.30166" lon="-2.35183">
        <ele>23</ele>
        <time>2019-12-01T09:02:17.000Z</time>
      </trkpt>
      <trkpt lat="47.30171" lon="-2.35179">
        <ele>23</ele>
        <time>2019-12-01T09:02:20.000Z</time>
      </trkpt>
      <trkpt lat="47.30184" lon="-2.35173">
        <ele>23</ele>
        <time>2019-12-01T09:02:26.000Z</time>
      </trkpt>
      <trkpt lat="47.30192" lon="-2.35169">
        <ele>23</ele>
        <time>2019-12-01T09:02:30.000Z</time>
      </trkpt>
      <trkpt lat="47.30203" lon="-2.3516">
        <ele>23</ele>
        <time>2019-12-01T09:02:34.000Z</time>
      </trkpt>
      <trkpt lat="47.30205" lon="-2.35156">
        <ele>23</ele>
        <time>2019-12-01T09:02:35.000Z</time>
      </trkpt>
      <trkpt lat="47.30206" lon="-2.35139">
        <ele>23</ele>
        <time>2019-12-01T09:02:38.000Z</time>
      </trkpt>
      <trkpt lat="47.30206" lon="-2.35128">
        <ele>23</ele>
        <time>2019-12-01T09:02:40.000Z</time>
      </trkpt>
      <trkpt lat="47.30207" lon="-2.35116">
        <ele>23</ele>
        <time>2019-12-01T09:02:42.000Z</time>
      </trkpt>
      <trkpt lat="47.30208" lon="-2.35109">
        <ele>23.39999961853</ele>
        <time>2019-12-01T09:02:43.000Z</time>
      </trkpt>
      <trkpt lat="47.30209" lon="-2.35103">
        <ele>23.799999237061</ele>
        <time>2019-12-01T09:02:44.000Z</time>
      </trkpt>
      <trkpt lat="47.30209" lon="-2.35097">
        <ele>24.39999961853</ele>
        <time>2019-12-01T09:02:45.000Z</time>
      </trkpt>
      <trkpt lat="47.30209" lon="-2.3509">
        <ele>24.799999237061</ele>
        <time>2019-12-01T09:02:46.000Z</time>
      </trkpt>
      <trkpt lat="47.30209" lon="-2.35084">
        <ele>25.200000762939</ele>
        <time>2019-12-01T09:02:47.000Z</time>
      </trkpt>
      <trkpt lat="47.3021" lon="-2.3505">
        <ele>25.200000762939</ele>
        <time>2019-12-01T09:02:53.000Z</time>
      </trkpt>
      <trkpt lat="47.30209" lon="-2.35024">
        <ele>25.200000762939</ele>
        <time>2019-12-01T09:02:58.000Z</time>
      </trkpt>
      <trkpt lat="47.30207" lon="-2.34995">
        <ele>25.200000762939</ele>
        <time>2019-12-01T09:03:04.000Z</time>
      </trkpt>
      <trkpt lat="47.30208" lon="-2.34981">
        <ele>25.60000038147</ele>
        <time>2019-12-01T09:03:07.000Z</time>
      </trkpt>
      <trkpt lat="47.30208" lon="-2.34976">
        <ele>26</ele>
        <time>2019-12-01T09:03:08.000Z</time>
      </trkpt>
      <trkpt lat="47.30208" lon="-2.34972">
        <ele>26.39999961853</ele>
        <time>2019-12-01T09:03:09.000Z</time>
      </trkpt>
      <trkpt lat="47.30208" lon="-2.34967">
        <ele>26.799999237061</ele>
        <time>2019-12-01T09:03:10.000Z</time>
      </trkpt>
      <trkpt lat="47.30208" lon="-2.34962">
        <ele>27.200000762939</ele>
        <time>2019-12-01T09:03:11.000Z</time>
      </trkpt>
      <trkpt lat="47.30208" lon="-2.34939">
        <ele>27.200000762939</ele>
        <time>2019-12-01T09:03:16.000Z</time>
      </trkpt>
      <trkpt lat="47.30212" lon="-2.34909">
        <ele>27.200000762939</ele>
        <time>2019-12-01T09:03:22.000Z</time>
      </trkpt>
      <trkpt lat="47.30219" lon="-2.34895">
        <ele>27.200000762939</ele>
        <time>2019-12-01T09:03:26.000Z</time>
      </trkpt>
      <trkpt lat="47.30239" lon="-2.34879">
        <ele>27.200000762939</ele>
        <time>2019-12-01T09:03:32.000Z</time>
      </trkpt>
      <trkpt lat="47.30257" lon="-2.34867">
        <ele>27.200000762939</ele>
        <time>2019-12-01T09:03:38.000Z</time>
      </trkpt>
      <trkpt lat="47.30263" lon="-2.34862">
        <ele>27.60000038147</ele>
        <time>2019-12-01T09:03:40.000Z</time>
      </trkpt>
      <trkpt lat="47.30267" lon="-2.3486">
        <ele>28</ele>
        <time>2019-12-01T09:03:41.000Z</time>
      </trkpt>
      <trkpt lat="47.3027" lon="-2.34858">
        <ele>28.39999961853</ele>
        <time>2019-12-01T09:03:42.000Z</time>
      </trkpt>
      <trkpt lat="47.30274" lon="-2.34857">
        <ele>28.799999237061</ele>
        <time>2019-12-01T09:03:43.000Z</time>
      </trkpt>
      <trkpt lat="47.30277" lon="-2.34855">
        <ele>29.200000762939</ele>
        <time>2019-12-01T09:03:44.000Z</time>
      </trkpt>
      <trkpt lat="47.30294" lon="-2.34843">
        <ele>29.200000762939</ele>
        <time>2019-12-01T09:03:49.000Z</time>
      </trkpt>
      <trkpt lat="47.3031" lon="-2.34823">
        <ele>29.200000762939</ele>
        <time>2019-12-01T09:03:55.000Z</time>
      </trkpt>
      <trkpt lat="47.30322" lon="-2.34806">
        <ele>29.200000762939</ele>
        <time>2019-12-01T09:04:00.000Z</time>
      </trkpt>
      <trkpt lat="47.30331" lon="-2.34786">
        <ele>29.200000762939</ele>
        <time>2019-12-01T09:04:05.000Z</time>
      </trkpt>
      <trkpt lat="47.30346" lon="-2.34768">
        <ele>29.200000762939</ele>
        <time>2019-12-01T09:04:10.000Z</time>
      </trkpt>
      <trkpt lat="47.30367" lon="-2.34756">
        <ele>29.200000762939</ele>
        <time>2019-12-01T09:04:15.000Z</time>
      </trkpt>
      <trkpt lat="47.30388" lon="-2.34743">
        <ele>29.200000762939</ele>
        <time>2019-12-01T09:04:20.000Z</time>
      </trkpt>
      <trkpt lat="47.30409" lon="-2.34731">
        <ele>29.200000762939</ele>
        <time>2019-12-01T09:04:25.000Z</time>
      </trkpt>
      <trkpt lat="47.30431" lon="-2.34713">
        <ele>29.200000762939</ele>
        <time>2019-12-01T09:04:30.000Z</time>
      </trkpt>
      <trkpt lat="47.30435" lon="-2.34707">
        <ele>29.200000762939</ele>
        <time>2019-12-01T09:04:31.000Z</time>
      </trkpt>
      <trkpt lat="47.30442" lon="-2.34699">
        <ele>29.200000762939</ele>
        <time>2019-12-01T09:04:33.000Z</time>
      </trkpt>
      <trkpt lat="47.30455" lon="-2.34688">
        <ele>29.200000762939</ele>
        <time>2019-12-01T09:04:36.000Z</time>
      </trkpt>
      <trkpt lat="47.30471" lon="-2.34672">
        <ele>29.200000762939</ele>
        <time>2019-12-01T09:04:40.000Z</time>
      </trkpt>
      <trkpt lat="47.30478" lon="-2.34663">
        <ele>29.200000762939</ele>
        <time>2019-12-01T09:04:42.000Z</time>
      </trkpt>
      <trkpt lat="47.30493" lon="-2.34645">
        <ele>29.200000762939</ele>
        <time>2019-12-01T09:04:47.000Z</time>
      </trkpt>
      <trkpt lat="47.30508" lon="-2.34615">
        <ele>29.200000762939</ele>
        <time>2019-12-01T09:04:54.000Z</time>
      </trkpt>
      <trkpt lat="47.30526" lon="-2.34593">
        <ele>29.200000762939</ele>
        <time>2019-12-01T09:04:59.000Z</time>
      </trkpt>
      <trkpt lat="47.30547" lon="-2.34566">
        <ele>29.200000762939</ele>
        <time>2019-12-01T09:05:05.000Z</time>
      </trkpt>
      <trkpt lat="47.30556" lon="-2.34555">
        <ele>29.200000762939</ele>
        <time>2019-12-01T09:05:09.000Z</time>
      </trkpt>
      <trkpt lat="47.30558" lon="-2.34551">
        <ele>29.200000762939</ele>
        <time>2019-12-01T09:05:12.000Z</time>
      </trkpt>
      <trkpt lat="47.30561" lon="-2.34547">
        <ele>29.200000762939</ele>
        <time>2019-12-01T09:05:18.000Z</time>
      </trkpt>
      <trkpt lat="47.30564" lon="-2.34536">
        <ele>29.200000762939</ele>
        <time>2019-12-01T09:05:22.000Z</time>
      </trkpt>
      <trkpt lat="47.30563" lon="-2.34534">
        <ele>29.200000762939</ele>
        <time>2019-12-01T09:05:23.000Z</time>
      </trkpt>
      <trkpt lat="47.30553" lon="-2.34514">
        <ele>29.200000762939</ele>
        <time>2019-12-01T09:05:31.000Z</time>
      </trkpt>
      <trkpt lat="47.30539" lon="-2.34496">
        <ele>29.200000762939</ele>
        <time>2019-12-01T09:05:36.000Z</time>
      </trkpt>
      <trkpt lat="47.30525" lon="-2.34487">
        <ele>29.200000762939</ele>
        <time>2019-12-01T09:05:40.000Z</time>
      </trkpt>
      <trkpt lat="47.30515" lon="-2.34473">
        <ele>29.200000762939</ele>
        <time>2019-12-01T09:05:45.000Z</time>
      </trkpt>
      <trkpt lat="47.30512" lon="-2.34465">
        <ele>29.200000762939</ele>
        <time>2019-12-01T09:05:48.000Z</time>
      </trkpt>
      <trkpt lat="47.30512" lon="-2.3446">
        <ele>29.200000762939</ele>
        <time>2019-12-01T09:05:50.000Z</time>
      </trkpt>
      <trkpt lat="47.30511" lon="-2.34454">
        <ele>29.200000762939</ele>
        <time>2019-12-01T09:05:52.000Z</time>
      </trkpt>
      <trkpt lat="47.3051" lon="-2.3445">
        <ele>29.60000038147</ele>
        <time>2019-12-01T09:05:53.000Z</time>
      </trkpt>
      <trkpt lat="47.30509" lon="-2.34447">
        <ele>30</ele>
        <time>2019-12-01T09:05:54.000Z</time>
      </trkpt>
      <trkpt lat="47.30509" lon="-2.34445">
        <ele>30.39999961853</ele>
        <time>2019-12-01T09:05:55.000Z</time>
      </trkpt>
      <trkpt lat="47.30508" lon="-2.34442">
        <ele>30.799999237061</ele>
        <time>2019-12-01T09:05:56.000Z</time>
      </trkpt>
      <trkpt lat="47.30507" lon="-2.34437">
        <ele>31.200000762939</ele>
        <time>2019-12-01T09:05:57.000Z</time>
      </trkpt>
      <trkpt lat="47.30506" lon="-2.34417">
        <ele>31.200000762939</ele>
        <time>2019-12-01T09:06:01.000Z</time>
      </trkpt>
      <trkpt lat="47.30511" lon="-2.34391">
        <ele>31.200000762939</ele>
        <time>2019-12-01T09:06:06.000Z</time>
      </trkpt>
      <trkpt lat="47.30517" lon="-2.34357">
        <ele>31.200000762939</ele>
        <time>2019-12-01T09:06:13.000Z</time>
      </trkpt>
      <trkpt lat="47.30517" lon="-2.34339">
        <ele>31.200000762939</ele>
        <time>2019-12-01T09:06:18.000Z</time>
      </trkpt>
      <trkpt lat="47.30509" lon="-2.3432">
        <ele>31.200000762939</ele>
        <time>2019-12-01T09:06:22.000Z</time>
      </trkpt>
      <trkpt lat="47.30504" lon="-2.343">
        <ele>31.200000762939</ele>
        <time>2019-12-01T09:06:27.000Z</time>
      </trkpt>
      <trkpt lat="47.30501" lon="-2.34259">
        <ele>31.200000762939</ele>
        <time>2019-12-01T09:06:34.000Z</time>
      </trkpt>
      <trkpt lat="47.30506" lon="-2.34224">
        <ele>31.200000762939</ele>
        <time>2019-12-01T09:06:39.000Z</time>
      </trkpt>
      <trkpt lat="47.30518" lon="-2.3419">
        <ele>30.799999237061</ele>
        <time>2019-12-01T09:06:45.000Z</time>
      </trkpt>
      <trkpt lat="47.30521" lon="-2.34186">
        <ele>30.39999961853</ele>
        <time>2019-12-01T09:06:46.000Z</time>
      </trkpt>
      <trkpt lat="47.30523" lon="-2.34184">
        <ele>30</ele>
        <time>2019-12-01T09:06:47.000Z</time>
      </trkpt>
      <trkpt lat="47.30526" lon="-2.34182">
        <ele>29.60000038147</ele>
        <time>2019-12-01T09:06:48.000Z</time>
      </trkpt>
      <trkpt lat="47.3053" lon="-2.3418">
        <ele>29.200000762939</ele>
        <time>2019-12-01T09:06:49.000Z</time>
      </trkpt>
      <trkpt lat="47.30534" lon="-2.34176">
        <ele>29.200000762939</ele>
        <time>2019-12-01T09:06:50.000Z</time>
      </trkpt>
      <trkpt lat="47.30554" lon="-2.34158">
        <ele>29.200000762939</ele>
        <time>2019-12-01T09:06:55.000Z</time>
      </trkpt>
      <trkpt lat="47.3057" lon="-2.3414">
        <ele>29.200000762939</ele>
        <time>2019-12-01T09:07:00.000Z</time>
      </trkpt>
      <trkpt lat="47.30582" lon="-2.34125">
        <ele>29.200000762939</ele>
        <time>2019-12-01T09:07:05.000Z</time>
      </trkpt>
      <trkpt lat="47.30592" lon="-2.34103">
        <ele>29.200000762939</ele>
        <time>2019-12-01T09:07:11.000Z</time>
      </trkpt>
      <trkpt lat="47.30601" lon="-2.34084">
        <ele>29.200000762939</ele>
        <time>2019-12-01T09:07:17.000Z</time>
      </trkpt>
      <trkpt lat="47.30609" lon="-2.34076">
        <ele>29.200000762939</ele>
        <time>2019-12-01T09:07:22.000Z</time>
      </trkpt>
      <trkpt lat="47.30619" lon="-2.34066">
        <ele>29.200000762939</ele>
        <time>2019-12-01T09:07:28.000Z</time>
      </trkpt>
      <trkpt lat="47.30623" lon="-2.34063">
        <ele>28.799999237061</ele>
        <time>2019-12-01T09:07:30.000Z</time>
      </trkpt>
      <trkpt lat="47.30626" lon="-2.34061">
        <ele>28.39999961853</ele>
        <time>2019-12-01T09:07:31.000Z</time>
      </trkpt>
      <trkpt lat="47.30628" lon="-2.34059">
        <ele>28</ele>
        <time>2019-12-01T09:07:32.000Z</time>
      </trkpt>
      <trkpt lat="47.3063" lon="-2.34058">
        <ele>27.60000038147</ele>
        <time>2019-12-01T09:07:33.000Z</time>
      </trkpt>
      <trkpt lat="47.30632" lon="-2.34057">
        <ele>27.200000762939</ele>
        <time>2019-12-01T09:07:34.000Z</time>
      </trkpt>
      <trkpt lat="47.30634" lon="-2.34056">
        <ele>27.200000762939</ele>
        <time>2019-12-01T09:07:35.000Z</time>
      </trkpt>
      <trkpt lat="47.30653" lon="-2.34047">
        <ele>27.200000762939</ele>
        <time>2019-12-01T09:07:42.000Z</time>
      </trkpt>
      <trkpt lat="47.30667" lon="-2.34035">
        <ele>27.200000762939</ele>
        <time>2019-12-01T09:07:48.000Z</time>
      </trkpt>
      <trkpt lat="47.30678" lon="-2.34025">
        <ele>27.200000762939</ele>
        <time>2019-12-01T09:07:53.000Z</time>
      </trkpt>
      <trkpt lat="47.30681" lon="-2.34024">
        <ele>27.200000762939</ele>
        <time>2019-12-01T09:07:54.000Z</time>
      </trkpt>
      <trkpt lat="47.30701" lon="-2.34021">
        <ele>27.200000762939</ele>
        <time>2019-12-01T09:08:01.000Z</time>
      </trkpt>
      <trkpt lat="47.30714" lon="-2.34019">
        <ele>27.200000762939</ele>
        <time>2019-12-01T09:08:07.000Z</time>
      </trkpt>
      <trkpt lat="47.30719" lon="-2.34013">
        <ele>27.200000762939</ele>
        <time>2019-12-01T09:08:10.000Z</time>
      </trkpt>
      <trkpt lat="47.3072" lon="-2.3401">
        <ele>27.200000762939</ele>
        <time>2019-12-01T09:08:11.000Z</time>
      </trkpt>
      <trkpt lat="47.30724" lon="-2.3399">
        <ele>27.200000762939</ele>
        <time>2019-12-01T09:08:16.000Z</time>
      </trkpt>
      <trkpt lat="47.30737" lon="-2.33981">
        <ele>27.200000762939</ele>
        <time>2019-12-01T09:08:20.000Z</time>
      </trkpt>
      <trkpt lat="47.30761" lon="-2.33975">
        <ele>27.200000762939</ele>
        <time>2019-12-01T09:08:26.000Z</time>
      </trkpt>
      <trkpt lat="47.30793" lon="-2.33968">
        <ele>27.200000762939</ele>
        <time>2019-12-01T09:08:34.000Z</time>
      </trkpt>
      <trkpt lat="47.30817" lon="-2.3396">
        <ele>27.200000762939</ele>
        <time>2019-12-01T09:08:39.000Z</time>
      </trkpt>
      <trkpt lat="47.30822" lon="-2.33959">
        <ele>27.200000762939</ele>
        <time>2019-12-01T09:08:40.000Z</time>
      </trkpt>
      <trkpt lat="47.30861" lon="-2.33952">
        <ele>27.200000762939</ele>
        <time>2019-12-01T09:08:48.000Z</time>
      </trkpt>
      <trkpt lat="47.30896" lon="-2.33948">
        <ele>27.200000762939</ele>
        <time>2019-12-01T09:08:55.000Z</time>
      </trkpt>
      <trkpt lat="47.30935" lon="-2.33951">
        <ele>27.200000762939</ele>
        <time>2019-12-01T09:09:03.000Z</time>
      </trkpt>
      <trkpt lat="47.30963" lon="-2.33957">
        <ele>27.200000762939</ele>
        <time>2019-12-01T09:09:09.000Z</time>
      </trkpt>
      <trkpt lat="47.30999" lon="-2.33955">
        <ele>27.200000762939</ele>
        <time>2019-12-01T09:09:16.000Z</time>
      </trkpt>
      <trkpt lat="47.31033" lon="-2.33949">
        <ele>27.200000762939</ele>
        <time>2019-12-01T09:09:22.000Z</time>
      </trkpt>
      <trkpt lat="47.31056" lon="-2.33944">
        <ele>27.200000762939</ele>
        <time>2019-12-01T09:09:26.000Z</time>
      </trkpt>
      <trkpt lat="47.31059" lon="-2.33941">
        <ele>27.200000762939</ele>
        <time>2019-12-01T09:09:27.000Z</time>
      </trkpt>
      <trkpt lat="47.31062" lon="-2.33921">
        <ele>27.200000762939</ele>
        <time>2019-12-01T09:09:30.000Z</time>
      </trkpt>
      <trkpt lat="47.31062" lon="-2.33914">
        <ele>27.200000762939</ele>
        <time>2019-12-01T09:09:31.000Z</time>
      </trkpt>
      <trkpt lat="47.31062" lon="-2.33885">
        <ele>27.200000762939</ele>
        <time>2019-12-01T09:09:35.000Z</time>
      </trkpt>
      <trkpt lat="47.31066" lon="-2.33833">
        <ele>27.200000762939</ele>
        <time>2019-12-01T09:09:42.000Z</time>
      </trkpt>
      <trkpt lat="47.31069" lon="-2.3381">
        <ele>27.200000762939</ele>
        <time>2019-12-01T09:09:45.000Z</time>
      </trkpt>
      <trkpt lat="47.31076" lon="-2.33789">
        <ele>27.200000762939</ele>
        <time>2019-12-01T09:09:48.000Z</time>
      </trkpt>
      <trkpt lat="47.31095" lon="-2.3374">
        <ele>27.200000762939</ele>
        <time>2019-12-01T09:09:55.000Z</time>
      </trkpt>
      <trkpt lat="47.31102" lon="-2.33689">
        <ele>27.200000762939</ele>
        <time>2019-12-01T09:10:02.000Z</time>
      </trkpt>
      <trkpt lat="47.31109" lon="-2.33636">
        <ele>27.200000762939</ele>
        <time>2019-12-01T09:10:09.000Z</time>
      </trkpt>
      <trkpt lat="47.31114" lon="-2.33609">
        <ele>27.200000762939</ele>
        <time>2019-12-01T09:10:13.000Z</time>
      </trkpt>
      <trkpt lat="47.31114" lon="-2.33595">
        <ele>27.200000762939</ele>
        <time>2019-12-01T09:10:15.000Z</time>
      </trkpt>
      <trkpt lat="47.31115" lon="-2.33582">
        <ele>27.200000762939</ele>
        <time>2019-12-01T09:10:17.000Z</time>
      </trkpt>
      <trkpt lat="47.31114" lon="-2.33564">
        <ele>27.200000762939</ele>
        <time>2019-12-01T09:10:20.000Z</time>
      </trkpt>
      <trkpt lat="47.31114" lon="-2.33559">
        <ele>27.200000762939</ele>
        <time>2019-12-01T09:10:21.000Z</time>
      </trkpt>
      <trkpt lat="47.31112" lon="-2.33525">
        <ele>27.200000762939</ele>
        <time>2019-12-01T09:10:26.000Z</time>
      </trkpt>
      <trkpt lat="47.31112" lon="-2.33525">
        <ele>27.200000762939</ele>
        <time>2019-12-01T09:10:28.000Z</time>
      </trkpt>
      <trkpt lat="47.31109" lon="-2.33512">
        <ele>27.200000762939</ele>
        <time>2019-12-01T09:10:30.000Z</time>
      </trkpt>
      <trkpt lat="47.31102" lon="-2.33485">
        <ele>27.200000762939</ele>
        <time>2019-12-01T09:10:33.000Z</time>
      </trkpt>
      <trkpt lat="47.311" lon="-2.33458">
        <ele>26.799999237061</ele>
        <time>2019-12-01T09:10:36.000Z</time>
      </trkpt>
      <trkpt lat="47.31099" lon="-2.3345">
        <ele>26.39999961853</ele>
        <time>2019-12-01T09:10:37.000Z</time>
      </trkpt>
      <trkpt lat="47.31099" lon="-2.33442">
        <ele>25.799999237061</ele>
        <time>2019-12-01T09:10:38.000Z</time>
      </trkpt>
      <trkpt lat="47.31098" lon="-2.33434">
        <ele>25.39999961853</ele>
        <time>2019-12-01T09:10:39.000Z</time>
      </trkpt>
      <trkpt lat="47.31098" lon="-2.33426">
        <ele>25</ele>
        <time>2019-12-01T09:10:40.000Z</time>
      </trkpt>
      <trkpt lat="47.31097" lon="-2.33385">
        <ele>25</ele>
        <time>2019-12-01T09:10:45.000Z</time>
      </trkpt>
      <trkpt lat="47.31097" lon="-2.33325">
        <ele>25</ele>
        <time>2019-12-01T09:10:52.000Z</time>
      </trkpt>
      <trkpt lat="47.31099" lon="-2.33281">
        <ele>25</ele>
        <time>2019-12-01T09:10:57.000Z</time>
      </trkpt>
      <trkpt lat="47.311" lon="-2.33272">
        <ele>24.200000762939</ele>
        <time>2019-12-01T09:10:58.000Z</time>
      </trkpt>
      <trkpt lat="47.311" lon="-2.33264">
        <ele>23.799999237061</ele>
        <time>2019-12-01T09:10:59.000Z</time>
      </trkpt>
      <trkpt lat="47.31101" lon="-2.33255">
        <ele>23.39999961853</ele>
        <time>2019-12-01T09:11:00.000Z</time>
      </trkpt>
      <trkpt lat="47.31102" lon="-2.33247">
        <ele>22.799999237061</ele>
        <time>2019-12-01T09:11:01.000Z</time>
      </trkpt>
      <trkpt lat="47.31106" lon="-2.33222">
        <ele>22.799999237061</ele>
        <time>2019-12-01T09:11:04.000Z</time>
      </trkpt>
      <trkpt lat="47.31108" lon="-2.33214">
        <ele>22.799999237061</ele>
        <time>2019-12-01T09:11:05.000Z</time>
      </trkpt>
      <trkpt lat="47.31117" lon="-2.33203">
        <ele>22.799999237061</ele>
        <time>2019-12-01T09:11:07.000Z</time>
      </trkpt>
      <trkpt lat="47.31127" lon="-2.33196">
        <ele>22.799999237061</ele>
        <time>2019-12-01T09:11:09.000Z</time>
      </trkpt>
      <trkpt lat="47.31142" lon="-2.33187">
        <ele>22.799999237061</ele>
        <time>2019-12-01T09:11:12.000Z</time>
      </trkpt>
      <trkpt lat="47.31171" lon="-2.33167">
        <ele>22.39999961853</ele>
        <time>2019-12-01T09:11:18.000Z</time>
      </trkpt>
      <trkpt lat="47.31175" lon="-2.33164">
        <ele>22</ele>
        <time>2019-12-01T09:11:19.000Z</time>
      </trkpt>
      <trkpt lat="47.3118" lon="-2.33161">
        <ele>21.60000038147</ele>
        <time>2019-12-01T09:11:20.000Z</time>
      </trkpt>
      <trkpt lat="47.31184" lon="-2.33158">
        <ele>21.200000762939</ele>
        <time>2019-12-01T09:11:21.000Z</time>
      </trkpt>
      <trkpt lat="47.31189" lon="-2.33155">
        <ele>20.799999237061</ele>
        <time>2019-12-01T09:11:22.000Z</time>
      </trkpt>
      <trkpt lat="47.31204" lon="-2.33148">
        <ele>20.799999237061</ele>
        <time>2019-12-01T09:11:25.000Z</time>
      </trkpt>
      <trkpt lat="47.31222" lon="-2.33144">
        <ele>20.799999237061</ele>
        <time>2019-12-01T09:11:28.000Z</time>
      </trkpt>
      <trkpt lat="47.31234" lon="-2.33146">
        <ele>20.799999237061</ele>
        <time>2019-12-01T09:11:30.000Z</time>
      </trkpt>
      <trkpt lat="47.31265" lon="-2.33154">
        <ele>20.799999237061</ele>
        <time>2019-12-01T09:11:35.000Z</time>
      </trkpt>
      <trkpt lat="47.31271" lon="-2.33157">
        <ele>20.799999237061</ele>
        <time>2019-12-01T09:11:36.000Z</time>
      </trkpt>
      <trkpt lat="47.31304" lon="-2.33176">
        <ele>20.799999237061</ele>
        <time>2019-12-01T09:11:42.000Z</time>
      </trkpt>
      <trkpt lat="47.31337" lon="-2.33207">
        <ele>20.799999237061</ele>
        <time>2019-12-01T09:11:49.000Z</time>
      </trkpt>
      <trkpt lat="47.31371" lon="-2.33233">
        <ele>20.799999237061</ele>
        <time>2019-12-01T09:11:56.000Z</time>
      </trkpt>
      <trkpt lat="47.31407" lon="-2.33259">
        <ele>20.799999237061</ele>
        <time>2019-12-01T09:12:04.000Z</time>
      </trkpt>
      <trkpt lat="47.31434" lon="-2.33282">
        <ele>20.799999237061</ele>
        <time>2019-12-01T09:12:11.000Z</time>
      </trkpt>
      <trkpt lat="47.31437" lon="-2.33286">
        <ele>20.799999237061</ele>
        <time>2019-12-01T09:12:12.000Z</time>
      </trkpt>
      <trkpt lat="47.31444" lon="-2.33294">
        <ele>20.799999237061</ele>
        <time>2019-12-01T09:12:14.000Z</time>
      </trkpt>
      <trkpt lat="47.31451" lon="-2.33308">
        <ele>20.799999237061</ele>
        <time>2019-12-01T09:12:17.000Z</time>
      </trkpt>
      <trkpt lat="47.31457" lon="-2.33318">
        <ele>20.799999237061</ele>
        <time>2019-12-01T09:12:19.000Z</time>
      </trkpt>
      <trkpt lat="47.31459" lon="-2.33323">
        <ele>20.799999237061</ele>
        <time>2019-12-01T09:12:20.000Z</time>
      </trkpt>
      <trkpt lat="47.31464" lon="-2.33333">
        <ele>20.799999237061</ele>
        <time>2019-12-01T09:12:22.000Z</time>
      </trkpt>
      <trkpt lat="47.3148" lon="-2.33365">
        <ele>20.799999237061</ele>
        <time>2019-12-01T09:12:28.000Z</time>
      </trkpt>
      <trkpt lat="47.31483" lon="-2.33368">
        <ele>20.799999237061</ele>
        <time>2019-12-01T09:12:29.000Z</time>
      </trkpt>
      <trkpt lat="47.31497" lon="-2.33366">
        <ele>20.799999237061</ele>
        <time>2019-12-01T09:12:32.000Z</time>
      </trkpt>
      <trkpt lat="47.31506" lon="-2.3336">
        <ele>20.799999237061</ele>
        <time>2019-12-01T09:12:34.000Z</time>
      </trkpt>
      <trkpt lat="47.31511" lon="-2.33358">
        <ele>21.200000762939</ele>
        <time>2019-12-01T09:12:35.000Z</time>
      </trkpt>
      <trkpt lat="47.31515" lon="-2.33355">
        <ele>21.60000038147</ele>
        <time>2019-12-01T09:12:36.000Z</time>
      </trkpt>
      <trkpt lat="47.3152" lon="-2.33351">
        <ele>22.39999961853</ele>
        <time>2019-12-01T09:12:37.000Z</time>
      </trkpt>
      <trkpt lat="47.31524" lon="-2.33348">
        <ele>22.799999237061</ele>
        <time>2019-12-01T09:12:38.000Z</time>
      </trkpt>
      <trkpt lat="47.31529" lon="-2.33346">
        <ele>22.799999237061</ele>
        <time>2019-12-01T09:12:39.000Z</time>
      </trkpt>
      <trkpt lat="47.31567" lon="-2.33329">
        <ele>22.799999237061</ele>
        <time>2019-12-01T09:12:47.000Z</time>
      </trkpt>
      <trkpt lat="47.31595" lon="-2.33315">
        <ele>22.799999237061</ele>
        <time>2019-12-01T09:12:53.000Z</time>
      </trkpt>
      <trkpt lat="47.31633" lon="-2.33292">
        <ele>22.799999237061</ele>
        <time>2019-12-01T09:13:01.000Z</time>
      </trkpt>
      <trkpt lat="47.31674" lon="-2.33269">
        <ele>22.799999237061</ele>
        <time>2019-12-01T09:13:09.000Z</time>
      </trkpt>
      <trkpt lat="47.31685" lon="-2.33267">
        <ele>22.799999237061</ele>
        <time>2019-12-01T09:13:12.000Z</time>
      </trkpt>
      <trkpt lat="47.31691" lon="-2.33264">
        <ele>22.799999237061</ele>
        <time>2019-12-01T09:13:14.000Z</time>
      </trkpt>
      <trkpt lat="47.317" lon="-2.33259">
        <ele>22.799999237061</ele>
        <time>2019-12-01T09:13:17.000Z</time>
      </trkpt>
      <trkpt lat="47.31703" lon="-2.33258">
        <ele>22.39999961853</ele>
        <time>2019-12-01T09:13:18.000Z</time>
      </trkpt>
      <trkpt lat="47.31707" lon="-2.33257">
        <ele>22</ele>
        <time>2019-12-01T09:13:19.000Z</time>
      </trkpt>
      <trkpt lat="47.3171" lon="-2.33255">
        <ele>21.60000038147</ele>
        <time>2019-12-01T09:13:20.000Z</time>
      </trkpt>
      <trkpt lat="47.31714" lon="-2.33253">
        <ele>21.200000762939</ele>
        <time>2019-12-01T09:13:21.000Z</time>
      </trkpt>
      <trkpt lat="47.31717" lon="-2.33253">
        <ele>20.799999237061</ele>
        <time>2019-12-01T09:13:22.000Z</time>
      </trkpt>
      <trkpt lat="47.31727" lon="-2.33249">
        <ele>20.39999961853</ele>
        <time>2019-12-01T09:13:26.000Z</time>
      </trkpt>
      <trkpt lat="47.3173" lon="-2.33247">
        <ele>19.799999237061</ele>
        <time>2019-12-01T09:13:27.000Z</time>
      </trkpt>
      <trkpt lat="47.31733" lon="-2.33247">
        <ele>19.39999961853</ele>
        <time>2019-12-01T09:13:28.000Z</time>
      </trkpt>
      <trkpt lat="47.31736" lon="-2.3325">
        <ele>19</ele>
        <time>2019-12-01T09:13:29.000Z</time>
      </trkpt>
      <trkpt lat="47.31738" lon="-2.33253">
        <ele>18.60000038147</ele>
        <time>2019-12-01T09:13:30.000Z</time>
      </trkpt>
      <trkpt lat="47.31739" lon="-2.33266">
        <ele>18.60000038147</ele>
        <time>2019-12-01T09:13:33.000Z</time>
      </trkpt>
      <trkpt lat="47.3174" lon="-2.33272">
        <ele>18.60000038147</ele>
        <time>2019-12-01T09:13:34.000Z</time>
      </trkpt>
      <trkpt lat="47.31747" lon="-2.33302">
        <ele>18.60000038147</ele>
        <time>2019-12-01T09:13:40.000Z</time>
      </trkpt>
      <trkpt lat="47.31757" lon="-2.33317">
        <ele>18.200000762939</ele>
        <time>2019-12-01T09:13:44.000Z</time>
      </trkpt>
      <trkpt lat="47.31761" lon="-2.33319">
        <ele>17.799999237061</ele>
        <time>2019-12-01T09:13:45.000Z</time>
      </trkpt>
      <trkpt lat="47.31765" lon="-2.3332">
        <ele>17.39999961853</ele>
        <time>2019-12-01T09:13:46.000Z</time>
      </trkpt>
      <trkpt lat="47.31768" lon="-2.3332">
        <ele>17</ele>
        <time>2019-12-01T09:13:47.000Z</time>
      </trkpt>
      <trkpt lat="47.3177" lon="-2.3332">
        <ele>16.60000038147</ele>
        <time>2019-12-01T09:13:48.000Z</time>
      </trkpt>
      <trkpt lat="47.3178" lon="-2.33314">
        <ele>16.200000762939</ele>
        <time>2019-12-01T09:13:52.000Z</time>
      </trkpt>
      <trkpt lat="47.31783" lon="-2.33312">
        <ele>15.800000190735</ele>
        <time>2019-12-01T09:13:53.000Z</time>
      </trkpt>
      <trkpt lat="47.31787" lon="-2.3331">
        <ele>15.39999961853</ele>
        <time>2019-12-01T09:13:54.000Z</time>
      </trkpt>
      <trkpt lat="47.31791" lon="-2.33307">
        <ele>15</ele>
        <time>2019-12-01T09:13:55.000Z</time>
      </trkpt>
      <trkpt lat="47.31796" lon="-2.33304">
        <ele>14.60000038147</ele>
        <time>2019-12-01T09:13:56.000Z</time>
      </trkpt>
      <trkpt lat="47.31805" lon="-2.33299">
        <ele>14.60000038147</ele>
        <time>2019-12-01T09:13:58.000Z</time>
      </trkpt>
      <trkpt lat="47.31809" lon="-2.33296">
        <ele>14.199999809265</ele>
        <time>2019-12-01T09:13:59.000Z</time>
      </trkpt>
      <trkpt lat="47.31812" lon="-2.33295">
        <ele>13.800000190735</ele>
        <time>2019-12-01T09:14:00.000Z</time>
      </trkpt>
      <trkpt lat="47.31816" lon="-2.33293">
        <ele>13.39999961853</ele>
        <time>2019-12-01T09:14:01.000Z</time>
      </trkpt>
      <trkpt lat="47.31819" lon="-2.33291">
        <ele>13</ele>
        <time>2019-12-01T09:14:02.000Z</time>
      </trkpt>
      <trkpt lat="47.31822" lon="-2.33288">
        <ele>12.60000038147</ele>
        <time>2019-12-01T09:14:03.000Z</time>
      </trkpt>
      <trkpt lat="47.31832" lon="-2.33277">
        <ele>12.199999809265</ele>
        <time>2019-12-01T09:14:06.000Z</time>
      </trkpt>
      <trkpt lat="47.31834" lon="-2.33273">
        <ele>11.800000190735</ele>
        <time>2019-12-01T09:14:07.000Z</time>
      </trkpt>
      <trkpt lat="47.31837" lon="-2.33269">
        <ele>11.39999961853</ele>
        <time>2019-12-01T09:14:08.000Z</time>
      </trkpt>
      <trkpt lat="47.31839" lon="-2.33264">
        <ele>11</ele>
        <time>2019-12-01T09:14:09.000Z</time>
      </trkpt>
      <trkpt lat="47.31841" lon="-2.33258">
        <ele>10.60000038147</ele>
        <time>2019-12-01T09:14:10.000Z</time>
      </trkpt>
      <trkpt lat="47.31851" lon="-2.33239">
        <ele>10.60000038147</ele>
        <time>2019-12-01T09:14:13.000Z</time>
      </trkpt>
      <trkpt lat="47.31854" lon="-2.33232">
        <ele>10.60000038147</ele>
        <time>2019-12-01T09:14:14.000Z</time>
      </trkpt>
      <trkpt lat="47.31859" lon="-2.33217">
        <ele>10.60000038147</ele>
        <time>2019-12-01T09:14:16.000Z</time>
      </trkpt>
      <trkpt lat="47.31861" lon="-2.33211">
        <ele>10.60000038147</ele>
        <time>2019-12-01T09:14:17.000Z</time>
      </trkpt>
      <trkpt lat="47.31865" lon="-2.33175">
        <ele>10.199999809265</ele>
        <time>2019-12-01T09:14:22.000Z</time>
      </trkpt>
      <trkpt lat="47.31866" lon="-2.33168">
        <ele>9.8000001907349</ele>
        <time>2019-12-01T09:14:23.000Z</time>
      </trkpt>
      <trkpt lat="47.31867" lon="-2.3316">
        <ele>9.3999996185303</ele>
        <time>2019-12-01T09:14:24.000Z</time>
      </trkpt>
      <trkpt lat="47.31868" lon="-2.33153">
        <ele>9</ele>
        <time>2019-12-01T09:14:25.000Z</time>
      </trkpt>
      <trkpt lat="47.3187" lon="-2.33144">
        <ele>8.6000003814697</ele>
        <time>2019-12-01T09:14:26.000Z</time>
      </trkpt>
      <trkpt lat="47.31872" lon="-2.33118">
        <ele>8.1999998092651</ele>
        <time>2019-12-01T09:14:29.000Z</time>
      </trkpt>
      <trkpt lat="47.31873" lon="-2.3311">
        <ele>7.8000001907349</ele>
        <time>2019-12-01T09:14:30.000Z</time>
      </trkpt>
      <trkpt lat="47.31873" lon="-2.33102">
        <ele>7.1999998092651</ele>
        <time>2019-12-01T09:14:31.000Z</time>
      </trkpt>
      <trkpt lat="47.31874" lon="-2.33095">
        <ele>6.8000001907349</ele>
        <time>2019-12-01T09:14:32.000Z</time>
      </trkpt>
      <trkpt lat="47.31874" lon="-2.33086">
        <ele>6.4000000953674</ele>
        <time>2019-12-01T09:14:33.000Z</time>
      </trkpt>
      <trkpt lat="47.31875" lon="-2.33079">
        <ele>6.4000000953674</ele>
        <time>2019-12-01T09:14:34.000Z</time>
      </trkpt>
      <trkpt lat="47.31876" lon="-2.33047">
        <ele>6</ele>
        <time>2019-12-01T09:14:38.000Z</time>
      </trkpt>
      <trkpt lat="47.31877" lon="-2.33039">
        <ele>5.5999999046326</ele>
        <time>2019-12-01T09:14:39.000Z</time>
      </trkpt>
      <trkpt lat="47.31877" lon="-2.3303">
        <ele>5.1999998092651</ele>
        <time>2019-12-01T09:14:40.000Z</time>
      </trkpt>
      <trkpt lat="47.31876" lon="-2.33022">
        <ele>4.4000000953674</ele>
        <time>2019-12-01T09:14:41.000Z</time>
      </trkpt>
      <trkpt lat="47.31876" lon="-2.32989">
        <ele>4.4000000953674</ele>
        <time>2019-12-01T09:14:45.000Z</time>
      </trkpt>
      <trkpt lat="47.31881" lon="-2.32947">
        <ele>4.4000000953674</ele>
        <time>2019-12-01T09:14:51.000Z</time>
      </trkpt>
      <trkpt lat="47.31882" lon="-2.32922">
        <ele>4.4000000953674</ele>
        <time>2019-12-01T09:14:55.000Z</time>
      </trkpt>
      <trkpt lat="47.31882" lon="-2.32915">
        <ele>4.4000000953674</ele>
        <time>2019-12-01T09:14:56.000Z</time>
      </trkpt>
      <trkpt lat="47.31881" lon="-2.32875">
        <ele>4.4000000953674</ele>
        <time>2019-12-01T09:15:02.000Z</time>
      </trkpt>
      <trkpt lat="47.31879" lon="-2.3284">
        <ele>4.4000000953674</ele>
        <time>2019-12-01T09:15:08.000Z</time>
      </trkpt>
      <trkpt lat="47.31879" lon="-2.3282">
        <ele>4.4000000953674</ele>
        <time>2019-12-01T09:15:12.000Z</time>
      </trkpt>
      <trkpt lat="47.31878" lon="-2.32803">
        <ele>4.4000000953674</ele>
        <time>2019-12-01T09:15:15.000Z</time>
      </trkpt>
      <trkpt lat="47.31877" lon="-2.32792">
        <ele>4.4000000953674</ele>
        <time>2019-12-01T09:15:17.000Z</time>
      </trkpt>
      <trkpt lat="47.31875" lon="-2.32767">
        <ele>4.4000000953674</ele>
        <time>2019-12-01T09:15:22.000Z</time>
      </trkpt>
      <trkpt lat="47.31874" lon="-2.32763">
        <ele>4.8000001907349</ele>
        <time>2019-12-01T09:15:23.000Z</time>
      </trkpt>
      <trkpt lat="47.31874" lon="-2.32759">
        <ele>5.4000000953674</ele>
        <time>2019-12-01T09:15:24.000Z</time>
      </trkpt>
      <trkpt lat="47.31873" lon="-2.32755">
        <ele>5.8000001907349</ele>
        <time>2019-12-01T09:15:25.000Z</time>
      </trkpt>
      <trkpt lat="47.31872" lon="-2.32751">
        <ele>6.1999998092651</ele>
        <time>2019-12-01T09:15:26.000Z</time>
      </trkpt>
      <trkpt lat="47.3187" lon="-2.32749">
        <ele>6.5999999046326</ele>
        <time>2019-12-01T09:15:27.000Z</time>
      </trkpt>
      <trkpt lat="47.31867" lon="-2.32738">
        <ele>6.5999999046326</ele>
        <time>2019-12-01T09:15:30.000Z</time>
      </trkpt>
      <trkpt lat="47.31858" lon="-2.32709">
        <ele>6.5999999046326</ele>
        <time>2019-12-01T09:15:38.000Z</time>
      </trkpt>
      <trkpt lat="47.31846" lon="-2.32681">
        <ele>6.5999999046326</ele>
        <time>2019-12-01T09:15:44.000Z</time>
      </trkpt>
      <trkpt lat="47.3184" lon="-2.32659">
        <ele>7</ele>
        <time>2019-12-01T09:15:49.000Z</time>
      </trkpt>
      <trkpt lat="47.31839" lon="-2.32655">
        <ele>7.4000000953674</ele>
        <time>2019-12-01T09:15:50.000Z</time>
      </trkpt>
      <trkpt lat="47.31839" lon="-2.3265">
        <ele>8</ele>
        <time>2019-12-01T09:15:51.000Z</time>
      </trkpt>
      <trkpt lat="47.31838" lon="-2.32646">
        <ele>8.3999996185303</ele>
        <time>2019-12-01T09:15:52.000Z</time>
      </trkpt>
      <trkpt lat="47.31838" lon="-2.32643">
        <ele>8.8000001907349</ele>
        <time>2019-12-01T09:15:53.000Z</time>
      </trkpt>
      <trkpt lat="47.31834" lon="-2.3263">
        <ele>8.8000001907349</ele>
        <time>2019-12-01T09:15:56.000Z</time>
      </trkpt>
      <trkpt lat="47.31826" lon="-2.32604">
        <ele>8.8000001907349</ele>
        <time>2019-12-01T09:16:02.000Z</time>
      </trkpt>
      <trkpt lat="47.31821" lon="-2.32576">
        <ele>8.8000001907349</ele>
        <time>2019-12-01T09:16:10.000Z</time>
      </trkpt>
      <trkpt lat="47.31819" lon="-2.32561">
        <ele>9.1999998092651</ele>
        <time>2019-12-01T09:16:15.000Z</time>
      </trkpt>
      <trkpt lat="47.31818" lon="-2.32559">
        <ele>9.6000003814697</ele>
        <time>2019-12-01T09:16:16.000Z</time>
      </trkpt>
      <trkpt lat="47.31818" lon="-2.32556">
        <ele>10</ele>
        <time>2019-12-01T09:16:17.000Z</time>
      </trkpt>
      <trkpt lat="47.31817" lon="-2.32553">
        <ele>10.39999961853</ele>
        <time>2019-12-01T09:16:18.000Z</time>
      </trkpt>
      <trkpt lat="47.31817" lon="-2.32551">
        <ele>10.800000190735</ele>
        <time>2019-12-01T09:16:19.000Z</time>
      </trkpt>
      <trkpt lat="47.31815" lon="-2.32542">
        <ele>10.800000190735</ele>
        <time>2019-12-01T09:16:21.000Z</time>
      </trkpt>
      <trkpt lat="47.31811" lon="-2.3252">
        <ele>10.800000190735</ele>
        <time>2019-12-01T09:16:27.000Z</time>
      </trkpt>
      <trkpt lat="47.31804" lon="-2.32504">
        <ele>11.199999809265</ele>
        <time>2019-12-01T09:16:30.000Z</time>
      </trkpt>
      <trkpt lat="47.31803" lon="-2.325">
        <ele>11.60000038147</ele>
        <time>2019-12-01T09:16:31.000Z</time>
      </trkpt>
      <trkpt lat="47.31802" lon="-2.32497">
        <ele>12</ele>
        <time>2019-12-01T09:16:32.000Z</time>
      </trkpt>
      <trkpt lat="47.31802" lon="-2.32494">
        <ele>12.39999961853</ele>
        <time>2019-12-01T09:16:33.000Z</time>
      </trkpt>
      <trkpt lat="47.31801" lon="-2.32491">
        <ele>12.800000190735</ele>
        <time>2019-12-01T09:16:34.000Z</time>
      </trkpt>
      <trkpt lat="47.31798" lon="-2.32483">
        <ele>12.800000190735</ele>
        <time>2019-12-01T09:16:36.000Z</time>
      </trkpt>
      <trkpt lat="47.31792" lon="-2.32466">
        <ele>12.800000190735</ele>
        <time>2019-12-01T09:16:41.000Z</time>
      </trkpt>
      <trkpt lat="47.3179" lon="-2.32459">
        <ele>13.39999961853</ele>
        <time>2019-12-01T09:16:43.000Z</time>
      </trkpt>
      <trkpt lat="47.3179" lon="-2.32454">
        <ele>13.800000190735</ele>
        <time>2019-12-01T09:16:44.000Z</time>
      </trkpt>
      <trkpt lat="47.31789" lon="-2.32449">
        <ele>14.800000190735</ele>
        <time>2019-12-01T09:16:45.000Z</time>
      </trkpt>
      <trkpt lat="47.31789" lon="-2.32445">
        <ele>15.199999809265</ele>
        <time>2019-12-01T09:16:46.000Z</time>
      </trkpt>
      <trkpt lat="47.31785" lon="-2.32414">
        <ele>15.199999809265</ele>
        <time>2019-12-01T09:16:52.000Z</time>
      </trkpt>
      <trkpt lat="47.31784" lon="-2.3241">
        <ele>15.60000038147</ele>
        <time>2019-12-01T09:16:53.000Z</time>
      </trkpt>
      <trkpt lat="47.31784" lon="-2.32406">
        <ele>16</ele>
        <time>2019-12-01T09:16:54.000Z</time>
      </trkpt>
      <trkpt lat="47.31783" lon="-2.32401">
        <ele>16.39999961853</ele>
        <time>2019-12-01T09:16:55.000Z</time>
      </trkpt>
      <trkpt lat="47.31782" lon="-2.32396">
        <ele>16.799999237061</ele>
        <time>2019-12-01T09:16:56.000Z</time>
      </trkpt>
      <trkpt lat="47.31781" lon="-2.32391">
        <ele>17.200000762939</ele>
        <time>2019-12-01T09:16:57.000Z</time>
      </trkpt>
      <trkpt lat="47.31774" lon="-2.32353">
        <ele>17.200000762939</ele>
        <time>2019-12-01T09:17:04.000Z</time>
      </trkpt>
      <trkpt lat="47.31767" lon="-2.32318">
        <ele>18</ele>
        <time>2019-12-01T09:17:10.000Z</time>
      </trkpt>
      <trkpt lat="47.31766" lon="-2.32312">
        <ele>18.39999961853</ele>
        <time>2019-12-01T09:17:11.000Z</time>
      </trkpt>
      <trkpt lat="47.31765" lon="-2.32305">
        <ele>18.799999237061</ele>
        <time>2019-12-01T09:17:12.000Z</time>
      </trkpt>
      <trkpt lat="47.31764" lon="-2.32298">
        <ele>19.200000762939</ele>
        <time>2019-12-01T09:17:13.000Z</time>
      </trkpt>
      <trkpt lat="47.31759" lon="-2.32268">
        <ele>19.200000762939</ele>
        <time>2019-12-01T09:17:18.000Z</time>
      </trkpt>
      <trkpt lat="47.31754" lon="-2.32238">
        <ele>19.200000762939</ele>
        <time>2019-12-01T09:17:23.000Z</time>
      </trkpt>
      <trkpt lat="47.31756" lon="-2.32234">
        <ele>19.200000762939</ele>
        <time>2019-12-01T09:17:24.000Z</time>
      </trkpt>
      <trkpt lat="47.31761" lon="-2.32228">
        <ele>19.200000762939</ele>
        <time>2019-12-01T09:17:26.000Z</time>
      </trkpt>
      <trkpt lat="47.31779" lon="-2.32227">
        <ele>19.200000762939</ele>
        <time>2019-12-01T09:17:30.000Z</time>
      </trkpt>
      <trkpt lat="47.31813" lon="-2.32224">
        <ele>19.200000762939</ele>
        <time>2019-12-01T09:17:37.000Z</time>
      </trkpt>
      <trkpt lat="47.31839" lon="-2.3222">
        <ele>19.200000762939</ele>
        <time>2019-12-01T09:17:42.000Z</time>
      </trkpt>
      <trkpt lat="47.31851" lon="-2.32216">
        <ele>18.799999237061</ele>
        <time>2019-12-01T09:17:44.000Z</time>
      </trkpt>
      <trkpt lat="47.31857" lon="-2.32215">
        <ele>18.39999961853</ele>
        <time>2019-12-01T09:17:45.000Z</time>
      </trkpt>
      <trkpt lat="47.31864" lon="-2.32213">
        <ele>18</ele>
        <time>2019-12-01T09:17:46.000Z</time>
      </trkpt>
      <trkpt lat="47.3187" lon="-2.32211">
        <ele>17.39999961853</ele>
        <time>2019-12-01T09:17:47.000Z</time>
      </trkpt>
      <trkpt lat="47.31877" lon="-2.32209">
        <ele>17</ele>
        <time>2019-12-01T09:17:48.000Z</time>
      </trkpt>
      <trkpt lat="47.31884" lon="-2.32207">
        <ele>16.60000038147</ele>
        <time>2019-12-01T09:17:49.000Z</time>
      </trkpt>
      <trkpt lat="47.31891" lon="-2.32205">
        <ele>16.200000762939</ele>
        <time>2019-12-01T09:17:50.000Z</time>
      </trkpt>
      <trkpt lat="47.31897" lon="-2.32203">
        <ele>15.800000190735</ele>
        <time>2019-12-01T09:17:51.000Z</time>
      </trkpt>
      <trkpt lat="47.31904" lon="-2.32203">
        <ele>15.39999961853</ele>
        <time>2019-12-01T09:17:52.000Z</time>
      </trkpt>
      <trkpt lat="47.3191" lon="-2.32202">
        <ele>14.800000190735</ele>
        <time>2019-12-01T09:17:53.000Z</time>
      </trkpt>
      <trkpt lat="47.31917" lon="-2.32203">
        <ele>14.800000190735</ele>
        <time>2019-12-01T09:17:54.000Z</time>
      </trkpt>
      <trkpt lat="47.31938" lon="-2.32208">
        <ele>14.39999961853</ele>
        <time>2019-12-01T09:17:57.000Z</time>
      </trkpt>
      <trkpt lat="47.31944" lon="-2.3221">
        <ele>13.800000190735</ele>
        <time>2019-12-01T09:17:58.000Z</time>
      </trkpt>
      <trkpt lat="47.31951" lon="-2.32212">
        <ele>12.39999961853</ele>
        <time>2019-12-01T09:17:59.000Z</time>
      </trkpt>
      <trkpt lat="47.31955" lon="-2.32215">
        <ele>11.800000190735</ele>
        <time>2019-12-01T09:18:00.000Z</time>
      </trkpt>
      <trkpt lat="47.31958" lon="-2.32219">
        <ele>11</ele>
        <time>2019-12-01T09:18:01.000Z</time>
      </trkpt>
      <trkpt lat="47.31959" lon="-2.32224">
        <ele>10.199999809265</ele>
        <time>2019-12-01T09:18:02.000Z</time>
      </trkpt>
      <trkpt lat="47.31958" lon="-2.3223">
        <ele>9.8000001907349</ele>
        <time>2019-12-01T09:18:03.000Z</time>
      </trkpt>
      <trkpt lat="47.31957" lon="-2.32234">
        <ele>9.1999998092651</ele>
        <time>2019-12-01T09:18:04.000Z</time>
      </trkpt>
      <trkpt lat="47.31955" lon="-2.32238">
        <ele>8.6000003814697</ele>
        <time>2019-12-01T09:18:05.000Z</time>
      </trkpt>
      <trkpt lat="47.31954" lon="-2.32242">
        <ele>8</ele>
        <time>2019-12-01T09:18:06.000Z</time>
      </trkpt>
      <trkpt lat="47.31953" lon="-2.32247">
        <ele>7.4000000953674</ele>
        <time>2019-12-01T09:18:07.000Z</time>
      </trkpt>
      <trkpt lat="47.31953" lon="-2.32264">
        <ele>7.4000000953674</ele>
        <time>2019-12-01T09:18:11.000Z</time>
      </trkpt>
      <trkpt lat="47.31962" lon="-2.32257">
        <ele>7.4000000953674</ele>
        <time>2019-12-01T09:18:14.000Z</time>
      </trkpt>
      <trkpt lat="47.31966" lon="-2.3225">
        <ele>7</ele>
        <time>2019-12-01T09:18:15.000Z</time>
      </trkpt>
      <trkpt lat="47.31969" lon="-2.32245">
        <ele>6.5999999046326</ele>
        <time>2019-12-01T09:18:16.000Z</time>
      </trkpt>
      <trkpt lat="47.31972" lon="-2.32238">
        <ele>6.1999998092651</ele>
        <time>2019-12-01T09:18:17.000Z</time>
      </trkpt>
      <trkpt lat="47.31977" lon="-2.32232">
        <ele>5.8000001907349</ele>
        <time>2019-12-01T09:18:18.000Z</time>
      </trkpt>
      <trkpt lat="47.31982" lon="-2.32227">
        <ele>5.4000000953674</ele>
        <time>2019-12-01T09:18:19.000Z</time>
      </trkpt>
      <trkpt lat="47.31988" lon="-2.32221">
        <ele>5</ele>
        <time>2019-12-01T09:18:20.000Z</time>
      </trkpt>
      <trkpt lat="47.31993" lon="-2.32214">
        <ele>4.4000000953674</ele>
        <time>2019-12-01T09:18:21.000Z</time>
      </trkpt>
      <trkpt lat="47.31998" lon="-2.32207">
        <ele>4</ele>
        <time>2019-12-01T09:18:22.000Z</time>
      </trkpt>
      <trkpt lat="47.32003" lon="-2.32201">
        <ele>3.5999999046326</ele>
        <time>2019-12-01T09:18:23.000Z</time>
      </trkpt>
      <trkpt lat="47.32008" lon="-2.32194">
        <ele>3.2000000476837</ele>
        <time>2019-12-01T09:18:24.000Z</time>
      </trkpt>
      <trkpt lat="47.32026" lon="-2.32183">
        <ele>3.2000000476837</ele>
        <time>2019-12-01T09:18:27.000Z</time>
      </trkpt>
      <trkpt lat="47.32033" lon="-2.32183">
        <ele>3.2000000476837</ele>
        <time>2019-12-01T09:18:28.000Z</time>
      </trkpt>
      <trkpt lat="47.32045" lon="-2.32183">
        <ele>2.7999999523163</ele>
        <time>2019-12-01T09:18:30.000Z</time>
      </trkpt>
      <trkpt lat="47.32052" lon="-2.32183">
        <ele>2.4000000953674</ele>
        <time>2019-12-01T09:18:31.000Z</time>
      </trkpt>
      <trkpt lat="47.32058" lon="-2.32183">
        <ele>2</ele>
        <time>2019-12-01T09:18:32.000Z</time>
      </trkpt>
      <trkpt lat="47.32065" lon="-2.32182">
        <ele>1.6000000238419</ele>
        <time>2019-12-01T09:18:33.000Z</time>
      </trkpt>
      <trkpt lat="47.32072" lon="-2.32182">
        <ele>1</ele>
        <time>2019-12-01T09:18:34.000Z</time>
      </trkpt>
      <trkpt lat="47.32085" lon="-2.32181">
        <ele>1</ele>
        <time>2019-12-01T09:18:36.000Z</time>
      </trkpt>
      <trkpt lat="47.32118" lon="-2.32177">
        <ele>0.60000002384186</ele>
        <time>2019-12-01T09:18:41.000Z</time>
      </trkpt>
      <trkpt lat="47.32125" lon="-2.32174">
        <ele>0.20000000298023</ele>
        <time>2019-12-01T09:18:42.000Z</time>
      </trkpt>
      <trkpt lat="47.32132" lon="-2.32172">
        <ele>-0.20000000298023</ele>
        <time>2019-12-01T09:18:43.000Z</time>
      </trkpt>
      <trkpt lat="47.32138" lon="-2.32168">
        <ele>-0.60000002384186</ele>
        <time>2019-12-01T09:18:44.000Z</time>
      </trkpt>
      <trkpt lat="47.32143" lon="-2.32164">
        <ele>-1</ele>
        <time>2019-12-01T09:18:45.000Z</time>
      </trkpt>
      <trkpt lat="47.32149" lon="-2.3216">
        <ele>-1</ele>
        <time>2019-12-01T09:18:46.000Z</time>
      </trkpt>
      <trkpt lat="47.32159" lon="-2.3215">
        <ele>-1</ele>
        <time>2019-12-01T09:18:48.000Z</time>
      </trkpt>
      <trkpt lat="47.32177" lon="-2.32135">
        <ele>-1</ele>
        <time>2019-12-01T09:18:52.000Z</time>
      </trkpt>
      <trkpt lat="47.3219" lon="-2.32127">
        <ele>-1</ele>
        <time>2019-12-01T09:18:56.000Z</time>
      </trkpt>
      <trkpt lat="47.32202" lon="-2.32119">
        <ele>-1</ele>
        <time>2019-12-01T09:19:02.000Z</time>
      </trkpt>
      <trkpt lat="47.32218" lon="-2.32112">
        <ele>-1</ele>
        <time>2019-12-01T09:19:07.000Z</time>
      </trkpt>
      <trkpt lat="47.32239" lon="-2.32106">
        <ele>-1</ele>
        <time>2019-12-01T09:19:13.000Z</time>
      </trkpt>
      <trkpt lat="47.32267" lon="-2.32101">
        <ele>-1</ele>
        <time>2019-12-01T09:19:19.000Z</time>
      </trkpt>
      <trkpt lat="47.32307" lon="-2.32099">
        <ele>-1</ele>
        <time>2019-12-01T09:19:27.000Z</time>
      </trkpt>
      <trkpt lat="47.32342" lon="-2.32103">
        <ele>-1</ele>
        <time>2019-12-01T09:19:34.000Z</time>
      </trkpt>
      <trkpt lat="47.32375" lon="-2.32106">
        <ele>-1</ele>
        <time>2019-12-01T09:19:41.000Z</time>
      </trkpt>
      <trkpt lat="47.32412" lon="-2.32105">
        <ele>-1</ele>
        <time>2019-12-01T09:19:48.000Z</time>
      </trkpt>
      <trkpt lat="47.32447" lon="-2.32101">
        <ele>-1</ele>
        <time>2019-12-01T09:19:55.000Z</time>
      </trkpt>
      <trkpt lat="47.32462" lon="-2.321">
        <ele>-1</ele>
        <time>2019-12-01T09:19:58.000Z</time>
      </trkpt>
      <trkpt lat="47.32477" lon="-2.32098">
        <ele>-1</ele>
        <time>2019-12-01T09:20:01.000Z</time>
      </trkpt>
      <trkpt lat="47.32491" lon="-2.32097">
        <ele>-1</ele>
        <time>2019-12-01T09:20:04.000Z</time>
      </trkpt>
      <trkpt lat="47.32497" lon="-2.32089">
        <ele>-1</ele>
        <time>2019-12-01T09:20:06.000Z</time>
      </trkpt>
      <trkpt lat="47.32501" lon="-2.32072">
        <ele>-1</ele>
        <time>2019-12-01T09:20:09.000Z</time>
      </trkpt>
      <trkpt lat="47.32501" lon="-2.32065">
        <ele>-1</ele>
        <time>2019-12-01T09:20:10.000Z</time>
      </trkpt>
      <trkpt lat="47.32501" lon="-2.32058">
        <ele>-1</ele>
        <time>2019-12-01T09:20:11.000Z</time>
      </trkpt>
      <trkpt lat="47.32502" lon="-2.32037">
        <ele>-1</ele>
        <time>2019-12-01T09:20:14.000Z</time>
      </trkpt>
      <trkpt lat="47.32504" lon="-2.31991">
        <ele>-1</ele>
        <time>2019-12-01T09:20:20.000Z</time>
      </trkpt>
      <trkpt lat="47.32508" lon="-2.31947">
        <ele>-1</ele>
        <time>2019-12-01T09:20:26.000Z</time>
      </trkpt>
      <trkpt lat="47.32511" lon="-2.31921">
        <ele>-1</ele>
        <time>2019-12-01T09:20:31.000Z</time>
      </trkpt>
      <trkpt lat="47.32515" lon="-2.31889">
        <ele>-1</ele>
        <time>2019-12-01T09:20:38.000Z</time>
      </trkpt>
      <trkpt lat="47.32519" lon="-2.31857">
        <ele>-1</ele>
        <time>2019-12-01T09:20:43.000Z</time>
      </trkpt>
      <trkpt lat="47.32519" lon="-2.3185">
        <ele>-1</ele>
        <time>2019-12-01T09:20:44.000Z</time>
      </trkpt>
      <trkpt lat="47.32519" lon="-2.31836">
        <ele>-1</ele>
        <time>2019-12-01T09:20:46.000Z</time>
      </trkpt>
      <trkpt lat="47.32519" lon="-2.31829">
        <ele>-0.40000000596046</ele>
        <time>2019-12-01T09:20:47.000Z</time>
      </trkpt>
      <trkpt lat="47.32518" lon="-2.31822">
        <ele>12</ele>
        <time>2019-12-01T09:20:48.000Z</time>
      </trkpt>
      <trkpt lat="47.32518" lon="-2.31816">
        <ele>0.40000000596046</ele>
        <time>2019-12-01T09:20:49.000Z</time>
      </trkpt>
      <trkpt lat="47.32517" lon="-2.31809">
        <ele>1</ele>
        <time>2019-12-01T09:20:50.000Z</time>
      </trkpt>
      <trkpt lat="47.32516" lon="-2.31803">
        <ele>1.3999999761581</ele>
        <time>2019-12-01T09:20:51.000Z</time>
      </trkpt>
      <trkpt lat="47.32514" lon="-2.31783">
        <ele>1.3999999761581</ele>
        <time>2019-12-01T09:20:54.000Z</time>
      </trkpt>
      <trkpt lat="47.32512" lon="-2.31749">
        <ele>1.3999999761581</ele>
        <time>2019-12-01T09:20:59.000Z</time>
      </trkpt>
      <trkpt lat="47.32511" lon="-2.31728">
        <ele>1.3999999761581</ele>
        <time>2019-12-01T09:21:02.000Z</time>
      </trkpt>
      <trkpt lat="47.32509" lon="-2.31706">
        <ele>1.3999999761581</ele>
        <time>2019-12-01T09:21:05.000Z</time>
      </trkpt>
      <trkpt lat="47.32508" lon="-2.31678">
        <ele>1.3999999761581</ele>
        <time>2019-12-01T09:21:09.000Z</time>
      </trkpt>
      <trkpt lat="47.32508" lon="-2.31655">
        <ele>1.3999999761581</ele>
        <time>2019-12-01T09:21:12.000Z</time>
      </trkpt>
      <trkpt lat="47.3251" lon="-2.31649">
        <ele>1.3999999761581</ele>
        <time>2019-12-01T09:21:13.000Z</time>
      </trkpt>
      <trkpt lat="47.32517" lon="-2.3164">
        <ele>1.3999999761581</ele>
        <time>2019-12-01T09:21:15.000Z</time>
      </trkpt>
      <trkpt lat="47.3254" lon="-2.31607">
        <ele>1.3999999761581</ele>
        <time>2019-12-01T09:21:21.000Z</time>
      </trkpt>
      <trkpt lat="47.32559" lon="-2.31583">
        <ele>1.3999999761581</ele>
        <time>2019-12-01T09:21:26.000Z</time>
      </trkpt>
      <trkpt lat="47.32558" lon="-2.31565">
        <ele>1.3999999761581</ele>
        <time>2019-12-01T09:21:29.000Z</time>
      </trkpt>
      <trkpt lat="47.32559" lon="-2.31551">
        <ele>1.3999999761581</ele>
        <time>2019-12-01T09:21:32.000Z</time>
      </trkpt>
      <trkpt lat="47.32559" lon="-2.31543">
        <ele>1.3999999761581</ele>
        <time>2019-12-01T09:21:34.000Z</time>
      </trkpt>
      <trkpt lat="47.32559" lon="-2.31524">
        <ele>1.3999999761581</ele>
        <time>2019-12-01T09:21:39.000Z</time>
      </trkpt>
      <trkpt lat="47.3256" lon="-2.31498">
        <ele>1.3999999761581</ele>
        <time>2019-12-01T09:21:44.000Z</time>
      </trkpt>
      <trkpt lat="47.32559" lon="-2.31474">
        <ele>1.3999999761581</ele>
        <time>2019-12-01T09:21:49.000Z</time>
      </trkpt>
      <trkpt lat="47.32555" lon="-2.3145">
        <ele>1.3999999761581</ele>
        <time>2019-12-01T09:21:53.000Z</time>
      </trkpt>
      <trkpt lat="47.32552" lon="-2.31416">
        <ele>1.3999999761581</ele>
        <time>2019-12-01T09:21:59.000Z</time>
      </trkpt>
      <trkpt lat="47.32554" lon="-2.31391">
        <ele>1.3999999761581</ele>
        <time>2019-12-01T09:22:04.000Z</time>
      </trkpt>
      <trkpt lat="47.32554" lon="-2.31383">
        <ele>1.3999999761581</ele>
        <time>2019-12-01T09:22:05.000Z</time>
      </trkpt>
      <trkpt lat="47.32556" lon="-2.31358">
        <ele>1.3999999761581</ele>
        <time>2019-12-01T09:22:08.000Z</time>
      </trkpt>
      <trkpt lat="47.32561" lon="-2.31332">
        <ele>1.3999999761581</ele>
        <time>2019-12-01T09:22:11.000Z</time>
      </trkpt>
      <trkpt lat="47.32569" lon="-2.31318">
        <ele>1.3999999761581</ele>
        <time>2019-12-01T09:22:13.000Z</time>
      </trkpt>
      <trkpt lat="47.32572" lon="-2.3131">
        <ele>1.3999999761581</ele>
        <time>2019-12-01T09:22:14.000Z</time>
      </trkpt>
      <trkpt lat="47.32573" lon="-2.31291">
        <ele>1.3999999761581</ele>
        <time>2019-12-01T09:22:16.000Z</time>
      </trkpt>
      <trkpt lat="47.32573" lon="-2.31272">
        <ele>1.3999999761581</ele>
        <time>2019-12-01T09:22:18.000Z</time>
      </trkpt>
      <trkpt lat="47.32575" lon="-2.31233">
        <ele>1.3999999761581</ele>
        <time>2019-12-01T09:22:22.000Z</time>
      </trkpt>
      <trkpt lat="47.32574" lon="-2.31216">
        <ele>1.3999999761581</ele>
        <time>2019-12-01T09:22:24.000Z</time>
      </trkpt>
      <trkpt lat="47.32567" lon="-2.31206">
        <ele>1.3999999761581</ele>
        <time>2019-12-01T09:22:26.000Z</time>
      </trkpt>
      <trkpt lat="47.3256" lon="-2.31186">
        <ele>1.3999999761581</ele>
        <time>2019-12-01T09:22:31.000Z</time>
      </trkpt>
      <trkpt lat="47.32561" lon="-2.31182">
        <ele>1.3999999761581</ele>
        <time>2019-12-01T09:22:32.000Z</time>
      </trkpt>
      <trkpt lat="47.32563" lon="-2.31173">
        <ele>1.3999999761581</ele>
        <time>2019-12-01T09:22:35.000Z</time>
      </trkpt>
      <trkpt lat="47.32565" lon="-2.31159">
        <ele>1.3999999761581</ele>
        <time>2019-12-01T09:22:40.000Z</time>
      </trkpt>
      <trkpt lat="47.32566" lon="-2.31154">
        <ele>1.3999999761581</ele>
        <time>2019-12-01T09:22:41.000Z</time>
      </trkpt>
      <trkpt lat="47.32567" lon="-2.31132">
        <ele>1.3999999761581</ele>
        <time>2019-12-01T09:22:45.000Z</time>
      </trkpt>
      <trkpt lat="47.32569" lon="-2.31115">
        <ele>1.3999999761581</ele>
        <time>2019-12-01T09:22:50.000Z</time>
      </trkpt>
      <trkpt lat="47.32572" lon="-2.31096">
        <ele>1.3999999761581</ele>
        <time>2019-12-01T09:22:54.000Z</time>
      </trkpt>
      <trkpt lat="47.32573" lon="-2.31073">
        <ele>1.3999999761581</ele>
        <time>2019-12-01T09:22:58.000Z</time>
      </trkpt>
      <trkpt lat="47.32571" lon="-2.31059">
        <ele>1.3999999761581</ele>
        <time>2019-12-01T09:23:01.000Z</time>
      </trkpt>
      <trkpt lat="47.3257" lon="-2.31049">
        <ele>1.3999999761581</ele>
        <time>2019-12-01T09:23:03.000Z</time>
      </trkpt>
      <trkpt lat="47.32567" lon="-2.31034">
        <ele>1.7999999523163</ele>
        <time>2019-12-01T09:23:06.000Z</time>
      </trkpt>
      <trkpt lat="47.32567" lon="-2.31028">
        <ele>2.2000000476837</ele>
        <time>2019-12-01T09:23:07.000Z</time>
      </trkpt>
      <trkpt lat="47.32566" lon="-2.3102">
        <ele>2.5999999046326</ele>
        <time>2019-12-01T09:23:08.000Z</time>
      </trkpt>
      <trkpt lat="47.32566" lon="-2.31013">
        <ele>3</ele>
        <time>2019-12-01T09:23:09.000Z</time>
      </trkpt>
      <trkpt lat="47.32566" lon="-2.31006">
        <ele>3.4000000953674</ele>
        <time>2019-12-01T09:23:10.000Z</time>
      </trkpt>
      <trkpt lat="47.32565" lon="-2.30983">
        <ele>3.4000000953674</ele>
        <time>2019-12-01T09:23:14.000Z</time>
      </trkpt>
      <trkpt lat="47.32567" lon="-2.30946">
        <ele>3.4000000953674</ele>
        <time>2019-12-01T09:23:20.000Z</time>
      </trkpt>
      <trkpt lat="47.32567" lon="-2.30911">
        <ele>3.4000000953674</ele>
        <time>2019-12-01T09:23:26.000Z</time>
      </trkpt>
      <trkpt lat="47.32568" lon="-2.30882">
        <ele>3.4000000953674</ele>
        <time>2019-12-01T09:23:31.000Z</time>
      </trkpt>
      <trkpt lat="47.32567" lon="-2.30834">
        <ele>3.4000000953674</ele>
        <time>2019-12-01T09:23:38.000Z</time>
      </trkpt>
      <trkpt lat="47.32565" lon="-2.30791">
        <ele>3.4000000953674</ele>
        <time>2019-12-01T09:23:44.000Z</time>
      </trkpt>
      <trkpt lat="47.32565" lon="-2.30784">
        <ele>3.4000000953674</ele>
        <time>2019-12-01T09:23:45.000Z</time>
      </trkpt>
      <trkpt lat="47.32559" lon="-2.30752">
        <ele>3.4000000953674</ele>
        <time>2019-12-01T09:23:50.000Z</time>
      </trkpt>
      <trkpt lat="47.32558" lon="-2.30743">
        <ele>3</ele>
        <time>2019-12-01T09:23:52.000Z</time>
      </trkpt>
      <trkpt lat="47.32557" lon="-2.30739">
        <ele>2.5999999046326</ele>
        <time>2019-12-01T09:23:53.000Z</time>
      </trkpt>
      <trkpt lat="47.32556" lon="-2.30735">
        <ele>2.2000000476837</ele>
        <time>2019-12-01T09:23:54.000Z</time>
      </trkpt>
      <trkpt lat="47.32556" lon="-2.30731">
        <ele>1.7999999523163</ele>
        <time>2019-12-01T09:23:55.000Z</time>
      </trkpt>
      <trkpt lat="47.32555" lon="-2.30727">
        <ele>1.3999999761581</ele>
        <time>2019-12-01T09:23:56.000Z</time>
      </trkpt>
      <trkpt lat="47.32556" lon="-2.30715">
        <ele>1.3999999761581</ele>
        <time>2019-12-01T09:24:00.000Z</time>
      </trkpt>
      <trkpt lat="47.32555" lon="-2.30713">
        <ele>1.3999999761581</ele>
        <time>2019-12-01T09:24:02.000Z</time>
      </trkpt>
      <trkpt lat="47.32555" lon="-2.30712">
        <ele>1.3999999761581</ele>
        <time>2019-12-01T09:24:04.000Z</time>
      </trkpt>
      <trkpt lat="47.32555" lon="-2.30712">
        <ele>1.3999999761581</ele>
        <time>2019-12-01T09:24:05.000Z</time>
      </trkpt>
      <trkpt lat="47.32553" lon="-2.30709">
        <ele>1.3999999761581</ele>
        <time>2019-12-01T09:24:13.000Z</time>
      </trkpt>
      <trkpt lat="47.32551" lon="-2.30706">
        <ele>1.3999999761581</ele>
        <time>2019-12-01T09:24:15.000Z</time>
      </trkpt>
      <trkpt lat="47.32551" lon="-2.30706">
        <ele>1.3999999761581</ele>
        <time>2019-12-01T09:24:16.000Z</time>
      </trkpt>
      <trkpt lat="47.32548" lon="-2.30698">
        <ele>1.3999999761581</ele>
        <time>2019-12-01T09:24:28.000Z</time>
      </trkpt>
      <trkpt lat="47.32546" lon="-2.30686">
        <ele>1.3999999761581</ele>
        <time>2019-12-01T09:24:31.000Z</time>
      </trkpt>
      <trkpt lat="47.32546" lon="-2.3068">
        <ele>1.3999999761581</ele>
        <time>2019-12-01T09:24:33.000Z</time>
      </trkpt>
      <trkpt lat="47.32545" lon="-2.30671">
        <ele>1.3999999761581</ele>
        <time>2019-12-01T09:24:35.000Z</time>
      </trkpt>
      <trkpt lat="47.32543" lon="-2.30657">
        <ele>1.3999999761581</ele>
        <time>2019-12-01T09:24:40.000Z</time>
      </trkpt>
      <trkpt lat="47.32543" lon="-2.30654">
        <ele>1.3999999761581</ele>
        <time>2019-12-01T09:24:42.000Z</time>
      </trkpt>
      <trkpt lat="47.32543" lon="-2.30654">
        <ele>1.3999999761581</ele>
        <time>2019-12-01T09:24:43.000Z</time>
      </trkpt>
      <trkpt lat="47.32542" lon="-2.30648">
        <ele>1.3999999761581</ele>
        <time>2019-12-01T09:24:47.000Z</time>
      </trkpt>
      <trkpt lat="47.32541" lon="-2.30646">
        <ele>1.3999999761581</ele>
        <time>2019-12-01T09:24:48.000Z</time>
      </trkpt>
      <trkpt lat="47.32537" lon="-2.30631">
        <ele>1.3999999761581</ele>
        <time>2019-12-01T09:24:53.000Z</time>
      </trkpt>
      <trkpt lat="47.32532" lon="-2.30608">
        <ele>1.3999999761581</ele>
        <time>2019-12-01T09:24:59.000Z</time>
      </trkpt>
      <trkpt lat="47.32528" lon="-2.30581">
        <ele>1.3999999761581</ele>
        <time>2019-12-01T09:25:04.000Z</time>
      </trkpt>
      <trkpt lat="47.32526" lon="-2.30568">
        <ele>1.7999999523163</ele>
        <time>2019-12-01T09:25:06.000Z</time>
      </trkpt>
      <trkpt lat="47.32525" lon="-2.30561">
        <ele>2.2000000476837</ele>
        <time>2019-12-01T09:25:07.000Z</time>
      </trkpt>
      <trkpt lat="47.32524" lon="-2.30555">
        <ele>2.5999999046326</ele>
        <time>2019-12-01T09:25:08.000Z</time>
      </trkpt>
      <trkpt lat="47.32523" lon="-2.30548">
        <ele>3</ele>
        <time>2019-12-01T09:25:09.000Z</time>
      </trkpt>
      <trkpt lat="47.32522" lon="-2.30542">
        <ele>3.4000000953674</ele>
        <time>2019-12-01T09:25:10.000Z</time>
      </trkpt>
      <trkpt lat="47.3252" lon="-2.3053">
        <ele>3.4000000953674</ele>
        <time>2019-12-01T09:25:12.000Z</time>
      </trkpt>
      <trkpt lat="47.32514" lon="-2.30493">
        <ele>3.4000000953674</ele>
        <time>2019-12-01T09:25:19.000Z</time>
      </trkpt>
      <trkpt lat="47.32511" lon="-2.30468">
        <ele>3.4000000953674</ele>
        <time>2019-12-01T09:25:24.000Z</time>
      </trkpt>
      <trkpt lat="47.32505" lon="-2.3044">
        <ele>3.4000000953674</ele>
        <time>2019-12-01T09:25:30.000Z</time>
      </trkpt>
      <trkpt lat="47.32508" lon="-2.30418">
        <ele>3.4000000953674</ele>
        <time>2019-12-01T09:25:35.000Z</time>
      </trkpt>
      <trkpt lat="47.3252" lon="-2.30411">
        <ele>3.4000000953674</ele>
        <time>2019-12-01T09:25:39.000Z</time>
      </trkpt>
      <trkpt lat="47.32537" lon="-2.30407">
        <ele>3.4000000953674</ele>
        <time>2019-12-01T09:25:45.000Z</time>
      </trkpt>
      <trkpt lat="47.32538" lon="-2.30404">
        <ele>3.4000000953674</ele>
        <time>2019-12-01T09:25:46.000Z</time>
      </trkpt>
      <trkpt lat="47.3254" lon="-2.30394">
        <ele>3.4000000953674</ele>
        <time>2019-12-01T09:25:49.000Z</time>
      </trkpt>
      <trkpt lat="47.32542" lon="-2.30383">
        <ele>3.4000000953674</ele>
        <time>2019-12-01T09:25:53.000Z</time>
      </trkpt>
      <trkpt lat="47.32541" lon="-2.30379">
        <ele>3.4000000953674</ele>
        <time>2019-12-01T09:25:54.000Z</time>
      </trkpt>
      <trkpt lat="47.32537" lon="-2.30357">
        <ele>3.4000000953674</ele>
        <time>2019-12-01T09:25:59.000Z</time>
      </trkpt>
      <trkpt lat="47.32532" lon="-2.30329">
        <ele>3.4000000953674</ele>
        <time>2019-12-01T09:26:05.000Z</time>
      </trkpt>
      <trkpt lat="47.32525" lon="-2.30298">
        <ele>3.4000000953674</ele>
        <time>2019-12-01T09:26:12.000Z</time>
      </trkpt>
      <trkpt lat="47.32524" lon="-2.30292">
        <ele>4.4000000953674</ele>
        <time>2019-12-01T09:26:13.000Z</time>
      </trkpt>
      <trkpt lat="47.32523" lon="-2.30286">
        <ele>4.8000001907349</ele>
        <time>2019-12-01T09:26:14.000Z</time>
      </trkpt>
      <trkpt lat="47.32522" lon="-2.3028">
        <ele>5.1999998092651</ele>
        <time>2019-12-01T09:26:15.000Z</time>
      </trkpt>
      <trkpt lat="47.32521" lon="-2.30273">
        <ele>5.5999999046326</ele>
        <time>2019-12-01T09:26:16.000Z</time>
      </trkpt>
      <trkpt lat="47.32519" lon="-2.3026">
        <ele>5.5999999046326</ele>
        <time>2019-12-01T09:26:18.000Z</time>
      </trkpt>
      <trkpt lat="47.32516" lon="-2.30239">
        <ele>5.5999999046326</ele>
        <time>2019-12-01T09:26:21.000Z</time>
      </trkpt>
      <trkpt lat="47.32513" lon="-2.30214">
        <ele>5.5999999046326</ele>
        <time>2019-12-01T09:26:25.000Z</time>
      </trkpt>
      <trkpt lat="47.32512" lon="-2.30207">
        <ele>5.5999999046326</ele>
        <time>2019-12-01T09:26:26.000Z</time>
      </trkpt>
      <trkpt lat="47.32509" lon="-2.30188">
        <ele>6</ele>
        <time>2019-12-01T09:26:29.000Z</time>
      </trkpt>
      <trkpt lat="47.32508" lon="-2.30182">
        <ele>6.4000000953674</ele>
        <time>2019-12-01T09:26:30.000Z</time>
      </trkpt>
      <trkpt lat="47.32507" lon="-2.30176">
        <ele>6.8000001907349</ele>
        <time>2019-12-01T09:26:31.000Z</time>
      </trkpt>
      <trkpt lat="47.32506" lon="-2.30171">
        <ele>7.1999998092651</ele>
        <time>2019-12-01T09:26:32.000Z</time>
      </trkpt>
      <trkpt lat="47.32505" lon="-2.30167">
        <ele>7.5999999046326</ele>
        <time>2019-12-01T09:26:33.000Z</time>
      </trkpt>
      <trkpt lat="47.32502" lon="-2.30149">
        <ele>7.5999999046326</ele>
        <time>2019-12-01T09:26:37.000Z</time>
      </trkpt>
      <trkpt lat="47.32498" lon="-2.30118">
        <ele>7.5999999046326</ele>
        <time>2019-12-01T09:26:43.000Z</time>
      </trkpt>
      <trkpt lat="47.32495" lon="-2.3008">
        <ele>7.5999999046326</ele>
        <time>2019-12-01T09:26:51.000Z</time>
      </trkpt>
      <trkpt lat="47.32496" lon="-2.30065">
        <ele>7.5999999046326</ele>
        <time>2019-12-01T09:26:55.000Z</time>
      </trkpt>
      <trkpt lat="47.32495" lon="-2.3006">
        <ele>7.5999999046326</ele>
        <time>2019-12-01T09:26:56.000Z</time>
      </trkpt>
      <trkpt lat="47.32484" lon="-2.30033">
        <ele>7.5999999046326</ele>
        <time>2019-12-01T09:27:01.000Z</time>
      </trkpt>
      <trkpt lat="47.32482" lon="-2.30026">
        <ele>7.5999999046326</ele>
        <time>2019-12-01T09:27:02.000Z</time>
      </trkpt>
      <trkpt lat="47.3247" lon="-2.29994">
        <ele>7.5999999046326</ele>
        <time>2019-12-01T09:27:07.000Z</time>
      </trkpt>
      <trkpt lat="47.32449" lon="-2.29962">
        <ele>7.5999999046326</ele>
        <time>2019-12-01T09:27:13.000Z</time>
      </trkpt>
      <trkpt lat="47.32443" lon="-2.29945">
        <ele>7.5999999046326</ele>
        <time>2019-12-01T09:27:16.000Z</time>
      </trkpt>
      <trkpt lat="47.32444" lon="-2.29939">
        <ele>7.5999999046326</ele>
        <time>2019-12-01T09:27:17.000Z</time>
      </trkpt>
      <trkpt lat="47.32448" lon="-2.29921">
        <ele>7.5999999046326</ele>
        <time>2019-12-01T09:27:20.000Z</time>
      </trkpt>
      <trkpt lat="47.32445" lon="-2.29909">
        <ele>7.5999999046326</ele>
        <time>2019-12-01T09:27:22.000Z</time>
      </trkpt>
      <trkpt lat="47.32444" lon="-2.29895">
        <ele>7.5999999046326</ele>
        <time>2019-12-01T09:27:24.000Z</time>
      </trkpt>
      <trkpt lat="47.32442" lon="-2.29869">
        <ele>7.5999999046326</ele>
        <time>2019-12-01T09:27:28.000Z</time>
      </trkpt>
      <trkpt lat="47.32444" lon="-2.29864">
        <ele>7.5999999046326</ele>
        <time>2019-12-01T09:27:29.000Z</time>
      </trkpt>
      <trkpt lat="47.32456" lon="-2.29851">
        <ele>7.5999999046326</ele>
        <time>2019-12-01T09:27:32.000Z</time>
      </trkpt>
      <trkpt lat="47.32466" lon="-2.29844">
        <ele>7.5999999046326</ele>
        <time>2019-12-01T09:27:34.000Z</time>
      </trkpt>
      <trkpt lat="47.32485" lon="-2.29828">
        <ele>7.5999999046326</ele>
        <time>2019-12-01T09:27:38.000Z</time>
      </trkpt>
      <trkpt lat="47.3252" lon="-2.29794">
        <ele>7.5999999046326</ele>
        <time>2019-12-01T09:27:46.000Z</time>
      </trkpt>
      <trkpt lat="47.32523" lon="-2.2979">
        <ele>7.5999999046326</ele>
        <time>2019-12-01T09:27:47.000Z</time>
      </trkpt>
      <trkpt lat="47.32523" lon="-2.29781">
        <ele>7.5999999046326</ele>
        <time>2019-12-01T09:27:49.000Z</time>
      </trkpt>
      <trkpt lat="47.32521" lon="-2.29766">
        <ele>7.5999999046326</ele>
        <time>2019-12-01T09:27:52.000Z</time>
      </trkpt>
      <trkpt lat="47.32519" lon="-2.29756">
        <ele>7.5999999046326</ele>
        <time>2019-12-01T09:27:54.000Z</time>
      </trkpt>
      <trkpt lat="47.32515" lon="-2.29742">
        <ele>7.5999999046326</ele>
        <time>2019-12-01T09:27:56.000Z</time>
      </trkpt>
      <trkpt lat="47.3251" lon="-2.29719">
        <ele>7.5999999046326</ele>
        <time>2019-12-01T09:27:59.000Z</time>
      </trkpt>
      <trkpt lat="47.32498" lon="-2.29668">
        <ele>7.5999999046326</ele>
        <time>2019-12-01T09:28:06.000Z</time>
      </trkpt>
      <trkpt lat="47.32489" lon="-2.2963">
        <ele>7.1999998092651</ele>
        <time>2019-12-01T09:28:11.000Z</time>
      </trkpt>
      <trkpt lat="47.32486" lon="-2.29623">
        <ele>6.5999999046326</ele>
        <time>2019-12-01T09:28:12.000Z</time>
      </trkpt>
      <trkpt lat="47.32485" lon="-2.29614">
        <ele>6.1999998092651</ele>
        <time>2019-12-01T09:28:13.000Z</time>
      </trkpt>
      <trkpt lat="47.32482" lon="-2.29607">
        <ele>5.8000001907349</ele>
        <time>2019-12-01T09:28:14.000Z</time>
      </trkpt>
      <trkpt lat="47.3248" lon="-2.29599">
        <ele>5.1999998092651</ele>
        <time>2019-12-01T09:28:15.000Z</time>
      </trkpt>
      <trkpt lat="47.32477" lon="-2.29583">
        <ele>4.8000001907349</ele>
        <time>2019-12-01T09:28:17.000Z</time>
      </trkpt>
      <trkpt lat="47.32475" lon="-2.29575">
        <ele>4.4000000953674</ele>
        <time>2019-12-01T09:28:18.000Z</time>
      </trkpt>
      <trkpt lat="47.32473" lon="-2.29567">
        <ele>4</ele>
        <time>2019-12-01T09:28:19.000Z</time>
      </trkpt>
      <trkpt lat="47.3247" lon="-2.2956">
        <ele>3.5999999046326</ele>
        <time>2019-12-01T09:28:20.000Z</time>
      </trkpt>
      <trkpt lat="47.32468" lon="-2.29553">
        <ele>3.2000000476837</ele>
        <time>2019-12-01T09:28:21.000Z</time>
      </trkpt>
      <trkpt lat="47.32466" lon="-2.29546">
        <ele>2.7999999523163</ele>
        <time>2019-12-01T09:28:22.000Z</time>
      </trkpt>
      <trkpt lat="47.32464" lon="-2.2954">
        <ele>2.2000000476837</ele>
        <time>2019-12-01T09:28:23.000Z</time>
      </trkpt>
      <trkpt lat="47.32461" lon="-2.29533">
        <ele>1.7999999523163</ele>
        <time>2019-12-01T09:28:24.000Z</time>
      </trkpt>
      <trkpt lat="47.32459" lon="-2.29526">
        <ele>1.3999999761581</ele>
        <time>2019-12-01T09:28:25.000Z</time>
      </trkpt>
      <trkpt lat="47.32456" lon="-2.29519">
        <ele>1</ele>
        <time>2019-12-01T09:28:26.000Z</time>
      </trkpt>
      <trkpt lat="47.32444" lon="-2.29482">
        <ele>1</ele>
        <time>2019-12-01T09:28:30.000Z</time>
      </trkpt>
      <trkpt lat="47.32438" lon="-2.29461">
        <ele>0.60000002384186</ele>
        <time>2019-12-01T09:28:32.000Z</time>
      </trkpt>
      <trkpt lat="47.32437" lon="-2.2945">
        <ele>0.20000000298023</ele>
        <time>2019-12-01T09:28:33.000Z</time>
      </trkpt>
      <trkpt lat="47.32435" lon="-2.29439">
        <ele>-0.20000000298023</ele>
        <time>2019-12-01T09:28:34.000Z</time>
      </trkpt>
      <trkpt lat="47.32435" lon="-2.29429">
        <ele>-0.60000002384186</ele>
        <time>2019-12-01T09:28:35.000Z</time>
      </trkpt>
      <trkpt lat="47.32434" lon="-2.29418">
        <ele>-1</ele>
        <time>2019-12-01T09:28:36.000Z</time>
      </trkpt>
      <trkpt lat="47.3243" lon="-2.29398">
        <ele>-1.3999999761581</ele>
        <time>2019-12-01T09:28:38.000Z</time>
      </trkpt>
      <trkpt lat="47.32428" lon="-2.29386">
        <ele>-2</ele>
        <time>2019-12-01T09:28:39.000Z</time>
      </trkpt>
      <trkpt lat="47.32426" lon="-2.29376">
        <ele>-2.4000000953674</ele>
        <time>2019-12-01T09:28:40.000Z</time>
      </trkpt>
      <trkpt lat="47.32424" lon="-2.29365">
        <ele>-2.7999999523163</ele>
        <time>2019-12-01T09:28:41.000Z</time>
      </trkpt>
      <trkpt lat="47.32423" lon="-2.29354">
        <ele>-3.2000000476837</ele>
        <time>2019-12-01T09:28:42.000Z</time>
      </trkpt>
      <trkpt lat="47.32417" lon="-2.29312">
        <ele>-3.2000000476837</ele>
        <time>2019-12-01T09:28:46.000Z</time>
      </trkpt>
      <trkpt lat="47.32407" lon="-2.29272">
        <ele>-3.5999999046326</ele>
        <time>2019-12-01T09:28:50.000Z</time>
      </trkpt>
      <trkpt lat="47.32402" lon="-2.29265">
        <ele>-4</ele>
        <time>2019-12-01T09:28:51.000Z</time>
      </trkpt>
      <trkpt lat="47.32397" lon="-2.2926">
        <ele>-4.5999999046326</ele>
        <time>2019-12-01T09:28:52.000Z</time>
      </trkpt>
      <trkpt lat="47.32392" lon="-2.29258">
        <ele>-5</ele>
        <time>2019-12-01T09:28:53.000Z</time>
      </trkpt>
      <trkpt lat="47.32387" lon="-2.29256">
        <ele>-5.4000000953674</ele>
        <time>2019-12-01T09:28:54.000Z</time>
      </trkpt>
      <trkpt lat="47.32382" lon="-2.29254">
        <ele>-5.4000000953674</ele>
        <time>2019-12-01T09:28:55.000Z</time>
      </trkpt>
      <trkpt lat="47.3236" lon="-2.29242">
        <ele>-5.4000000953674</ele>
        <time>2019-12-01T09:28:59.000Z</time>
      </trkpt>
      <trkpt lat="47.32354" lon="-2.29239">
        <ele>-5.4000000953674</ele>
        <time>2019-12-01T09:29:00.000Z</time>
      </trkpt>
      <trkpt lat="47.32322" lon="-2.29224">
        <ele>-5.4000000953674</ele>
        <time>2019-12-01T09:29:06.000Z</time>
      </trkpt>
      <trkpt lat="47.32302" lon="-2.29216">
        <ele>-5.4000000953674</ele>
        <time>2019-12-01T09:29:10.000Z</time>
      </trkpt>
      <trkpt lat="47.32291" lon="-2.29218">
        <ele>-5.4000000953674</ele>
        <time>2019-12-01T09:29:12.000Z</time>
      </trkpt>
      <trkpt lat="47.3226" lon="-2.29226">
        <ele>-5.4000000953674</ele>
        <time>2019-12-01T09:29:18.000Z</time>
      </trkpt>
      <trkpt lat="47.32255" lon="-2.29226">
        <ele>-5.4000000953674</ele>
        <time>2019-12-01T09:29:19.000Z</time>
      </trkpt>
      <trkpt lat="47.32246" lon="-2.29216">
        <ele>-5.4000000953674</ele>
        <time>2019-12-01T09:29:22.000Z</time>
      </trkpt>
      <trkpt lat="47.32227" lon="-2.2919">
        <ele>-5.4000000953674</ele>
        <time>2019-12-01T09:29:30.000Z</time>
      </trkpt>
      <trkpt lat="47.32215" lon="-2.29173">
        <ele>-5.4000000953674</ele>
        <time>2019-12-01T09:29:37.000Z</time>
      </trkpt>
      <trkpt lat="47.32202" lon="-2.29157">
        <ele>-5.4000000953674</ele>
        <time>2019-12-01T09:29:43.000Z</time>
      </trkpt>
      <trkpt lat="47.32187" lon="-2.29142">
        <ele>-5.4000000953674</ele>
        <time>2019-12-01T09:29:48.000Z</time>
      </trkpt>
      <trkpt lat="47.32176" lon="-2.29131">
        <ele>-5.4000000953674</ele>
        <time>2019-12-01T09:29:52.000Z</time>
      </trkpt>
      <trkpt lat="47.32159" lon="-2.29111">
        <ele>-5.4000000953674</ele>
        <time>2019-12-01T09:29:58.000Z</time>
      </trkpt>
      <trkpt lat="47.32154" lon="-2.29103">
        <ele>-5</ele>
        <time>2019-12-01T09:30:00.000Z</time>
      </trkpt>
      <trkpt lat="47.32153" lon="-2.29099">
        <ele>-4.5999999046326</ele>
        <time>2019-12-01T09:30:01.000Z</time>
      </trkpt>
      <trkpt lat="47.32151" lon="-2.29095">
        <ele>-4.1999998092651</ele>
        <time>2019-12-01T09:30:02.000Z</time>
      </trkpt>
      <trkpt lat="47.32149" lon="-2.29092">
        <ele>-3.7999999523163</ele>
        <time>2019-12-01T09:30:03.000Z</time>
      </trkpt>
      <trkpt lat="47.32148" lon="-2.29088">
        <ele>-3.4000000953674</ele>
        <time>2019-12-01T09:30:04.000Z</time>
      </trkpt>
      <trkpt lat="47.32144" lon="-2.29076">
        <ele>-3.4000000953674</ele>
        <time>2019-12-01T09:30:07.000Z</time>
      </trkpt>
      <trkpt lat="47.32134" lon="-2.29048">
        <ele>-3.4000000953674</ele>
        <time>2019-12-01T09:30:12.000Z</time>
      </trkpt>
      <trkpt lat="47.32128" lon="-2.29035">
        <ele>-3.4000000953674</ele>
        <time>2019-12-01T09:30:15.000Z</time>
      </trkpt>
      <trkpt lat="47.32115" lon="-2.29009">
        <ele>-3.4000000953674</ele>
        <time>2019-12-01T09:30:21.000Z</time>
      </trkpt>
      <trkpt lat="47.32109" lon="-2.28996">
        <ele>-3.7999999523163</ele>
        <time>2019-12-01T09:30:24.000Z</time>
      </trkpt>
      <trkpt lat="47.32107" lon="-2.28992">
        <ele>-4.1999998092651</ele>
        <time>2019-12-01T09:30:25.000Z</time>
      </trkpt>
      <trkpt lat="47.32105" lon="-2.28987">
        <ele>-4.5999999046326</ele>
        <time>2019-12-01T09:30:26.000Z</time>
      </trkpt>
      <trkpt lat="47.32102" lon="-2.28982">
        <ele>-5</ele>
        <time>2019-12-01T09:30:27.000Z</time>
      </trkpt>
      <trkpt lat="47.32099" lon="-2.28978">
        <ele>-5.4000000953674</ele>
        <time>2019-12-01T09:30:28.000Z</time>
      </trkpt>
      <trkpt lat="47.3209" lon="-2.28968">
        <ele>-5.4000000953674</ele>
        <time>2019-12-01T09:30:31.000Z</time>
      </trkpt>
      <trkpt lat="47.32067" lon="-2.28953">
        <ele>-5.4000000953674</ele>
        <time>2019-12-01T09:30:36.000Z</time>
      </trkpt>
      <trkpt lat="47.32055" lon="-2.28942">
        <ele>-5.4000000953674</ele>
        <time>2019-12-01T09:30:39.000Z</time>
      </trkpt>
      <trkpt lat="47.32051" lon="-2.28937">
        <ele>-5.4000000953674</ele>
        <time>2019-12-01T09:30:40.000Z</time>
      </trkpt>
      <trkpt lat="47.32046" lon="-2.28915">
        <ele>-5.4000000953674</ele>
        <time>2019-12-01T09:30:43.000Z</time>
      </trkpt>
      <trkpt lat="47.32042" lon="-2.28883">
        <ele>-5.8000001907349</ele>
        <time>2019-12-01T09:30:48.000Z</time>
      </trkpt>
      <trkpt lat="47.3204" lon="-2.28878">
        <ele>-6.4000000953674</ele>
        <time>2019-12-01T09:30:49.000Z</time>
      </trkpt>
      <trkpt lat="47.32039" lon="-2.28875">
        <ele>-6.8000001907349</ele>
        <time>2019-12-01T09:30:50.000Z</time>
      </trkpt>
      <trkpt lat="47.32037" lon="-2.28872">
        <ele>-7.1999998092651</ele>
        <time>2019-12-01T09:30:51.000Z</time>
      </trkpt>
      <trkpt lat="47.32035" lon="-2.28871">
        <ele>-7.5999999046326</ele>
        <time>2019-12-01T09:30:52.000Z</time>
      </trkpt>
      <trkpt lat="47.32033" lon="-2.28871">
        <ele>-7.5999999046326</ele>
        <time>2019-12-01T09:30:53.000Z</time>
      </trkpt>
      <trkpt lat="47.32019" lon="-2.2888">
        <ele>-7.5999999046326</ele>
        <time>2019-12-01T09:30:57.000Z</time>
      </trkpt>
      <trkpt lat="47.31992" lon="-2.28888">
        <ele>-7.5999999046326</ele>
        <time>2019-12-01T09:31:03.000Z</time>
      </trkpt>
      <trkpt lat="47.31966" lon="-2.2889">
        <ele>-7.5999999046326</ele>
        <time>2019-12-01T09:31:10.000Z</time>
      </trkpt>
      <trkpt lat="47.31958" lon="-2.28891">
        <ele>-7.5999999046326</ele>
        <time>2019-12-01T09:31:12.000Z</time>
      </trkpt>
      <trkpt lat="47.31952" lon="-2.28883">
        <ele>-7.5999999046326</ele>
        <time>2019-12-01T09:31:14.000Z</time>
      </trkpt>
      <trkpt lat="47.31947" lon="-2.28857">
        <ele>-7.5999999046326</ele>
        <time>2019-12-01T09:31:18.000Z</time>
      </trkpt>
      <trkpt lat="47.31946" lon="-2.28851">
        <ele>-7.5999999046326</ele>
        <time>2019-12-01T09:31:19.000Z</time>
      </trkpt>
      <trkpt lat="47.31944" lon="-2.28817">
        <ele>-7.5999999046326</ele>
        <time>2019-12-01T09:31:24.000Z</time>
      </trkpt>
      <trkpt lat="47.31944" lon="-2.28804">
        <ele>-7.5999999046326</ele>
        <time>2019-12-01T09:31:26.000Z</time>
      </trkpt>
      <trkpt lat="47.31941" lon="-2.2877">
        <ele>-7.5999999046326</ele>
        <time>2019-12-01T09:31:32.000Z</time>
      </trkpt>
      <trkpt lat="47.3194" lon="-2.28764">
        <ele>-7.5999999046326</ele>
        <time>2019-12-01T09:31:33.000Z</time>
      </trkpt>
      <trkpt lat="47.31936" lon="-2.2874">
        <ele>-7.5999999046326</ele>
        <time>2019-12-01T09:31:37.000Z</time>
      </trkpt>
      <trkpt lat="47.31932" lon="-2.28722">
        <ele>-7.5999999046326</ele>
        <time>2019-12-01T09:31:40.000Z</time>
      </trkpt>
      <trkpt lat="47.31924" lon="-2.28684">
        <ele>-7.5999999046326</ele>
        <time>2019-12-01T09:31:47.000Z</time>
      </trkpt>
      <trkpt lat="47.31916" lon="-2.28641">
        <ele>-7.5999999046326</ele>
        <time>2019-12-01T09:31:54.000Z</time>
      </trkpt>
      <trkpt lat="47.31907" lon="-2.28603">
        <ele>-7.1999998092651</ele>
        <time>2019-12-01T09:32:01.000Z</time>
      </trkpt>
      <trkpt lat="47.31906" lon="-2.28598">
        <ele>-6.8000001907349</ele>
        <time>2019-12-01T09:32:02.000Z</time>
      </trkpt>
      <trkpt lat="47.31905" lon="-2.28592">
        <ele>-6.1999998092651</ele>
        <time>2019-12-01T09:32:03.000Z</time>
      </trkpt>
      <trkpt lat="47.31904" lon="-2.28587">
        <ele>-5.8000001907349</ele>
        <time>2019-12-01T09:32:04.000Z</time>
      </trkpt>
      <trkpt lat="47.31903" lon="-2.28581">
        <ele>-5.4000000953674</ele>
        <time>2019-12-01T09:32:05.000Z</time>
      </trkpt>
      <trkpt lat="47.31901" lon="-2.2857">
        <ele>-5.4000000953674</ele>
        <time>2019-12-01T09:32:07.000Z</time>
      </trkpt>
      <trkpt lat="47.31897" lon="-2.28525">
        <ele>-5.4000000953674</ele>
        <time>2019-12-01T09:32:14.000Z</time>
      </trkpt>
      <trkpt lat="47.31899" lon="-2.28472">
        <ele>-5.4000000953674</ele>
        <time>2019-12-01T09:32:22.000Z</time>
      </trkpt>
      <trkpt lat="47.31898" lon="-2.28421">
        <ele>-5.4000000953674</ele>
        <time>2019-12-01T09:32:29.000Z</time>
      </trkpt>
      <trkpt lat="47.31896" lon="-2.28408">
        <ele>-5.4000000953674</ele>
        <time>2019-12-01T09:32:31.000Z</time>
      </trkpt>
      <trkpt lat="47.31892" lon="-2.2838">
        <ele>-5</ele>
        <time>2019-12-01T09:32:35.000Z</time>
      </trkpt>
      <trkpt lat="47.3189" lon="-2.28374">
        <ele>-4.1999998092651</ele>
        <time>2019-12-01T09:32:36.000Z</time>
      </trkpt>
      <trkpt lat="47.31889" lon="-2.28368">
        <ele>-3.7999999523163</ele>
        <time>2019-12-01T09:32:37.000Z</time>
      </trkpt>
      <trkpt lat="47.31888" lon="-2.28362">
        <ele>-3.4000000953674</ele>
        <time>2019-12-01T09:32:38.000Z</time>
      </trkpt>
      <trkpt lat="47.31881" lon="-2.28328">
        <ele>-3.4000000953674</ele>
        <time>2019-12-01T09:32:43.000Z</time>
      </trkpt>
      <trkpt lat="47.3187" lon="-2.28274">
        <ele>-3.4000000953674</ele>
        <time>2019-12-01T09:32:50.000Z</time>
      </trkpt>
      <trkpt lat="47.31861" lon="-2.28209">
        <ele>-3.4000000953674</ele>
        <time>2019-12-01T09:32:57.000Z</time>
      </trkpt>
      <trkpt lat="47.3186" lon="-2.28182">
        <ele>-3.4000000953674</ele>
        <time>2019-12-01T09:33:00.000Z</time>
      </trkpt>
      <trkpt lat="47.31862" lon="-2.28153">
        <ele>-3.4000000953674</ele>
        <time>2019-12-01T09:33:03.000Z</time>
      </trkpt>
      <trkpt lat="47.31862" lon="-2.28101">
        <ele>-3.4000000953674</ele>
        <time>2019-12-01T09:33:09.000Z</time>
      </trkpt>
      <trkpt lat="47.31863" lon="-2.28051">
        <ele>-3.4000000953674</ele>
        <time>2019-12-01T09:33:15.000Z</time>
      </trkpt>
      <trkpt lat="47.31863" lon="-2.28027">
        <ele>-3.4000000953674</ele>
        <time>2019-12-01T09:33:18.000Z</time>
      </trkpt>
      <trkpt lat="47.31863" lon="-2.28004">
        <ele>-3.4000000953674</ele>
        <time>2019-12-01T09:33:21.000Z</time>
      </trkpt>
      <trkpt lat="47.31862" lon="-2.27956">
        <ele>-3.4000000953674</ele>
        <time>2019-12-01T09:33:27.000Z</time>
      </trkpt>
      <trkpt lat="47.31862" lon="-2.27902">
        <ele>-3.4000000953674</ele>
        <time>2019-12-01T09:33:33.000Z</time>
      </trkpt>
      <trkpt lat="47.31863" lon="-2.27893">
        <ele>-3.4000000953674</ele>
        <time>2019-12-01T09:33:34.000Z</time>
      </trkpt>
      <trkpt lat="47.31865" lon="-2.27859">
        <ele>-3.4000000953674</ele>
        <time>2019-12-01T09:33:38.000Z</time>
      </trkpt>
      <trkpt lat="47.31867" lon="-2.27809">
        <ele>-3.4000000953674</ele>
        <time>2019-12-01T09:33:44.000Z</time>
      </trkpt>
      <trkpt lat="47.31867" lon="-2.27758">
        <ele>-3.4000000953674</ele>
        <time>2019-12-01T09:33:50.000Z</time>
      </trkpt>
      <trkpt lat="47.31869" lon="-2.27704">
        <ele>-3.4000000953674</ele>
        <time>2019-12-01T09:33:56.000Z</time>
      </trkpt>
      <trkpt lat="47.31867" lon="-2.27646">
        <ele>-3.4000000953674</ele>
        <time>2019-12-01T09:34:02.000Z</time>
      </trkpt>
      <trkpt lat="47.31864" lon="-2.27581">
        <ele>-3.4000000953674</ele>
        <time>2019-12-01T09:34:09.000Z</time>
      </trkpt>
      <trkpt lat="47.31862" lon="-2.27516">
        <ele>-3.4000000953674</ele>
        <time>2019-12-01T09:34:16.000Z</time>
      </trkpt>
      <trkpt lat="47.31861" lon="-2.2746">
        <ele>-3.4000000953674</ele>
        <time>2019-12-01T09:34:22.000Z</time>
      </trkpt>
      <trkpt lat="47.31858" lon="-2.27417">
        <ele>-3.4000000953674</ele>
        <time>2019-12-01T09:34:27.000Z</time>
      </trkpt>
      <trkpt lat="47.31857" lon="-2.27377">
        <ele>-3.4000000953674</ele>
        <time>2019-12-01T09:34:32.000Z</time>
      </trkpt>
      <trkpt lat="47.31855" lon="-2.27317">
        <ele>-3.4000000953674</ele>
        <time>2019-12-01T09:34:39.000Z</time>
      </trkpt>
      <trkpt lat="47.31855" lon="-2.27309">
        <ele>-3.4000000953674</ele>
        <time>2019-12-01T09:34:40.000Z</time>
      </trkpt>
      <trkpt lat="47.31855" lon="-2.27284">
        <ele>-3.4000000953674</ele>
        <time>2019-12-01T09:34:43.000Z</time>
      </trkpt>
      <trkpt lat="47.31853" lon="-2.27235">
        <ele>-3.4000000953674</ele>
        <time>2019-12-01T09:34:49.000Z</time>
      </trkpt>
      <trkpt lat="47.31852" lon="-2.2717">
        <ele>-3.4000000953674</ele>
        <time>2019-12-01T09:34:57.000Z</time>
      </trkpt>
      <trkpt lat="47.31851" lon="-2.27163">
        <ele>-3.4000000953674</ele>
        <time>2019-12-01T09:34:58.000Z</time>
      </trkpt>
      <trkpt lat="47.31848" lon="-2.27116">
        <ele>-3.4000000953674</ele>
        <time>2019-12-01T09:35:05.000Z</time>
      </trkpt>
      <trkpt lat="47.31846" lon="-2.27089">
        <ele>-3.4000000953674</ele>
        <time>2019-12-01T09:35:09.000Z</time>
      </trkpt>
      <trkpt lat="47.31846" lon="-2.27071">
        <ele>-3.7999999523163</ele>
        <time>2019-12-01T09:35:12.000Z</time>
      </trkpt>
      <trkpt lat="47.31846" lon="-2.27063">
        <ele>-4.4000000953674</ele>
        <time>2019-12-01T09:35:13.000Z</time>
      </trkpt>
      <trkpt lat="47.31846" lon="-2.27056">
        <ele>-4.8000001907349</ele>
        <time>2019-12-01T09:35:14.000Z</time>
      </trkpt>
      <trkpt lat="47.31846" lon="-2.27048">
        <ele>-5.1999998092651</ele>
        <time>2019-12-01T09:35:15.000Z</time>
      </trkpt>
      <trkpt lat="47.31846" lon="-2.27039">
        <ele>-5.8000001907349</ele>
        <time>2019-12-01T09:35:16.000Z</time>
      </trkpt>
      <trkpt lat="47.31846" lon="-2.27031">
        <ele>-5.8000001907349</ele>
        <time>2019-12-01T09:35:17.000Z</time>
      </trkpt>
      <trkpt lat="47.31843" lon="-2.26976">
        <ele>-5.8000001907349</ele>
        <time>2019-12-01T09:35:23.000Z</time>
      </trkpt>
      <trkpt lat="47.3184" lon="-2.26933">
        <ele>-5.8000001907349</ele>
        <time>2019-12-01T09:35:28.000Z</time>
      </trkpt>
      <trkpt lat="47.31837" lon="-2.26882">
        <ele>-5.8000001907349</ele>
        <time>2019-12-01T09:35:34.000Z</time>
      </trkpt>
      <trkpt lat="47.31835" lon="-2.26835">
        <ele>-5.8000001907349</ele>
        <time>2019-12-01T09:35:40.000Z</time>
      </trkpt>
      <trkpt lat="47.31835" lon="-2.26821">
        <ele>-5.8000001907349</ele>
        <time>2019-12-01T09:35:42.000Z</time>
      </trkpt>
      <trkpt lat="47.31835" lon="-2.26799">
        <ele>-5.8000001907349</ele>
        <time>2019-12-01T09:35:45.000Z</time>
      </trkpt>
      <trkpt lat="47.31833" lon="-2.2677">
        <ele>-5.1999998092651</ele>
        <time>2019-12-01T09:35:49.000Z</time>
      </trkpt>
      <trkpt lat="47.31832" lon="-2.26763">
        <ele>-4.8000001907349</ele>
        <time>2019-12-01T09:35:50.000Z</time>
      </trkpt>
      <trkpt lat="47.3183" lon="-2.26756">
        <ele>-4.4000000953674</ele>
        <time>2019-12-01T09:35:51.000Z</time>
      </trkpt>
      <trkpt lat="47.31828" lon="-2.26749">
        <ele>-4</ele>
        <time>2019-12-01T09:35:52.000Z</time>
      </trkpt>
      <trkpt lat="47.31825" lon="-2.26742">
        <ele>-3.5999999046326</ele>
        <time>2019-12-01T09:35:53.000Z</time>
      </trkpt>
      <trkpt lat="47.31811" lon="-2.26709">
        <ele>-3.5999999046326</ele>
        <time>2019-12-01T09:35:58.000Z</time>
      </trkpt>
      <trkpt lat="47.31809" lon="-2.26703">
        <ele>-3.5999999046326</ele>
        <time>2019-12-01T09:35:59.000Z</time>
      </trkpt>
      <trkpt lat="47.31797" lon="-2.26698">
        <ele>-3.5999999046326</ele>
        <time>2019-12-01T09:36:02.000Z</time>
      </trkpt>
      <trkpt lat="47.31783" lon="-2.26702">
        <ele>-3.5999999046326</ele>
        <time>2019-12-01T09:36:05.000Z</time>
      </trkpt>
      <trkpt lat="47.31777" lon="-2.26704">
        <ele>-3.5999999046326</ele>
        <time>2019-12-01T09:36:06.000Z</time>
      </trkpt>
      <trkpt lat="47.31743" lon="-2.26716">
        <ele>-4</ele>
        <time>2019-12-01T09:36:12.000Z</time>
      </trkpt>
      <trkpt lat="47.31737" lon="-2.26718">
        <ele>-4.4000000953674</ele>
        <time>2019-12-01T09:36:13.000Z</time>
      </trkpt>
      <trkpt lat="47.31731" lon="-2.2672">
        <ele>-5</ele>
        <time>2019-12-01T09:36:14.000Z</time>
      </trkpt>
      <trkpt lat="47.31725" lon="-2.26722">
        <ele>-5.4000000953674</ele>
        <time>2019-12-01T09:36:15.000Z</time>
      </trkpt>
      <trkpt lat="47.31719" lon="-2.26723">
        <ele>-5.8000001907349</ele>
        <time>2019-12-01T09:36:16.000Z</time>
      </trkpt>
      <trkpt lat="47.31708" lon="-2.26727">
        <ele>-5.8000001907349</ele>
        <time>2019-12-01T09:36:18.000Z</time>
      </trkpt>
      <trkpt lat="47.31684" lon="-2.2673">
        <ele>-5.8000001907349</ele>
        <time>2019-12-01T09:36:23.000Z</time>
      </trkpt>
      <trkpt lat="47.31667" lon="-2.2673">
        <ele>-5.8000001907349</ele>
        <time>2019-12-01T09:36:28.000Z</time>
      </trkpt>
      <trkpt lat="47.31663" lon="-2.26731">
        <ele>-6.1999998092651</ele>
        <time>2019-12-01T09:36:29.000Z</time>
      </trkpt>
      <trkpt lat="47.31659" lon="-2.26732">
        <ele>-6.5999999046326</ele>
        <time>2019-12-01T09:36:30.000Z</time>
      </trkpt>
      <trkpt lat="47.31655" lon="-2.26733">
        <ele>-7</ele>
        <time>2019-12-01T09:36:31.000Z</time>
      </trkpt>
      <trkpt lat="47.31651" lon="-2.26736">
        <ele>-7.4000000953674</ele>
        <time>2019-12-01T09:36:32.000Z</time>
      </trkpt>
      <trkpt lat="47.31647" lon="-2.26738">
        <ele>-7.8000001907349</ele>
        <time>2019-12-01T09:36:33.000Z</time>
      </trkpt>
      <trkpt lat="47.31633" lon="-2.26749">
        <ele>-7.8000001907349</ele>
        <time>2019-12-01T09:36:36.000Z</time>
      </trkpt>
      <trkpt lat="47.31623" lon="-2.26757">
        <ele>-7.8000001907349</ele>
        <time>2019-12-01T09:36:38.000Z</time>
      </trkpt>
      <trkpt lat="47.31618" lon="-2.26759">
        <ele>-7.8000001907349</ele>
        <time>2019-12-01T09:36:39.000Z</time>
      </trkpt>
      <trkpt lat="47.31607" lon="-2.26759">
        <ele>-7.8000001907349</ele>
        <time>2019-12-01T09:36:41.000Z</time>
      </trkpt>
      <trkpt lat="47.31585" lon="-2.26755">
        <ele>-7.8000001907349</ele>
        <time>2019-12-01T09:36:45.000Z</time>
      </trkpt>
      <trkpt lat="47.3158" lon="-2.26755">
        <ele>-7.8000001907349</ele>
        <time>2019-12-01T09:36:46.000Z</time>
      </trkpt>
      <trkpt lat="47.31567" lon="-2.26766">
        <ele>-7.8000001907349</ele>
        <time>2019-12-01T09:36:49.000Z</time>
      </trkpt>
      <trkpt lat="47.3156" lon="-2.26779">
        <ele>-7.8000001907349</ele>
        <time>2019-12-01T09:36:51.000Z</time>
      </trkpt>
      <trkpt lat="47.31558" lon="-2.26786">
        <ele>-7.8000001907349</ele>
        <time>2019-12-01T09:36:52.000Z</time>
      </trkpt>
      <trkpt lat="47.31556" lon="-2.26793">
        <ele>-7.8000001907349</ele>
        <time>2019-12-01T09:36:53.000Z</time>
      </trkpt>
      <trkpt lat="47.31549" lon="-2.26811">
        <ele>-7.8000001907349</ele>
        <time>2019-12-01T09:36:56.000Z</time>
      </trkpt>
      <trkpt lat="47.31544" lon="-2.26824">
        <ele>-7.8000001907349</ele>
        <time>2019-12-01T09:36:58.000Z</time>
      </trkpt>
      <trkpt lat="47.31539" lon="-2.26837">
        <ele>-8.1999998092651</ele>
        <time>2019-12-01T09:37:00.000Z</time>
      </trkpt>
      <trkpt lat="47.31536" lon="-2.26844">
        <ele>-8.8000001907349</ele>
        <time>2019-12-01T09:37:01.000Z</time>
      </trkpt>
      <trkpt lat="47.31533" lon="-2.2685">
        <ele>-9.1999998092651</ele>
        <time>2019-12-01T09:37:02.000Z</time>
      </trkpt>
      <trkpt lat="47.31531" lon="-2.26857">
        <ele>-9.6000003814697</ele>
        <time>2019-12-01T09:37:03.000Z</time>
      </trkpt>
      <trkpt lat="47.31528" lon="-2.26863">
        <ele>-10</ele>
        <time>2019-12-01T09:37:04.000Z</time>
      </trkpt>
      <trkpt lat="47.31512" lon="-2.26905">
        <ele>-10</ele>
        <time>2019-12-01T09:37:11.000Z</time>
      </trkpt>
      <trkpt lat="47.31497" lon="-2.26952">
        <ele>-10</ele>
        <time>2019-12-01T09:37:18.000Z</time>
      </trkpt>
      <trkpt lat="47.31496" lon="-2.26958">
        <ele>-9.6000003814697</ele>
        <time>2019-12-01T09:37:19.000Z</time>
      </trkpt>
      <trkpt lat="47.31493" lon="-2.26964">
        <ele>-9.1999998092651</ele>
        <time>2019-12-01T09:37:20.000Z</time>
      </trkpt>
      <trkpt lat="47.31491" lon="-2.2697">
        <ele>-8.8000001907349</ele>
        <time>2019-12-01T09:37:21.000Z</time>
      </trkpt>
      <trkpt lat="47.3149" lon="-2.26974">
        <ele>-8.3999996185303</ele>
        <time>2019-12-01T09:37:22.000Z</time>
      </trkpt>
      <trkpt lat="47.31488" lon="-2.26979">
        <ele>-8</ele>
        <time>2019-12-01T09:37:23.000Z</time>
      </trkpt>
      <trkpt lat="47.31483" lon="-2.26986">
        <ele>-8</ele>
        <time>2019-12-01T09:37:25.000Z</time>
      </trkpt>
      <trkpt lat="47.31479" lon="-2.2699">
        <ele>-8</ele>
        <time>2019-12-01T09:37:26.000Z</time>
      </trkpt>
      <trkpt lat="47.31454" lon="-2.27011">
        <ele>-8</ele>
        <time>2019-12-01T09:37:31.000Z</time>
      </trkpt>
      <trkpt lat="47.31417" lon="-2.27039">
        <ele>-8</ele>
        <time>2019-12-01T09:37:39.000Z</time>
      </trkpt>
      <trkpt lat="47.31398" lon="-2.27053">
        <ele>-7.4000000953674</ele>
        <time>2019-12-01T09:37:43.000Z</time>
      </trkpt>
      <trkpt lat="47.31393" lon="-2.27055">
        <ele>-7</ele>
        <time>2019-12-01T09:37:44.000Z</time>
      </trkpt>
      <trkpt lat="47.31387" lon="-2.27058">
        <ele>-6.5999999046326</ele>
        <time>2019-12-01T09:37:45.000Z</time>
      </trkpt>
      <trkpt lat="47.31382" lon="-2.27061">
        <ele>-6.1999998092651</ele>
        <time>2019-12-01T09:37:46.000Z</time>
      </trkpt>
      <trkpt lat="47.31377" lon="-2.27063">
        <ele>-5.8000001907349</ele>
        <time>2019-12-01T09:37:47.000Z</time>
      </trkpt>
      <trkpt lat="47.31351" lon="-2.27072">
        <ele>-5.8000001907349</ele>
        <time>2019-12-01T09:37:52.000Z</time>
      </trkpt>
      <trkpt lat="47.31311" lon="-2.27086">
        <ele>-5.8000001907349</ele>
        <time>2019-12-01T09:37:59.000Z</time>
      </trkpt>
      <trkpt lat="47.31272" lon="-2.27106">
        <ele>-5.8000001907349</ele>
        <time>2019-12-01T09:38:06.000Z</time>
      </trkpt>
      <trkpt lat="47.31239" lon="-2.27129">
        <ele>-5.8000001907349</ele>
        <time>2019-12-01T09:38:13.000Z</time>
      </trkpt>
      <trkpt lat="47.312" lon="-2.27163">
        <ele>-5.8000001907349</ele>
        <time>2019-12-01T09:38:21.000Z</time>
      </trkpt>
      <trkpt lat="47.31172" lon="-2.27195">
        <ele>-5.8000001907349</ele>
        <time>2019-12-01T09:38:27.000Z</time>
      </trkpt>
      <trkpt lat="47.3114" lon="-2.27224">
        <ele>-5.8000001907349</ele>
        <time>2019-12-01T09:38:33.000Z</time>
      </trkpt>
      <trkpt lat="47.3113" lon="-2.2723">
        <ele>-5.4000000953674</ele>
        <time>2019-12-01T09:38:35.000Z</time>
      </trkpt>
      <trkpt lat="47.31125" lon="-2.27233">
        <ele>-5</ele>
        <time>2019-12-01T09:38:36.000Z</time>
      </trkpt>
      <trkpt lat="47.3112" lon="-2.27234">
        <ele>-4.4000000953674</ele>
        <time>2019-12-01T09:38:37.000Z</time>
      </trkpt>
      <trkpt lat="47.31115" lon="-2.27236">
        <ele>-4</ele>
        <time>2019-12-01T09:38:38.000Z</time>
      </trkpt>
      <trkpt lat="47.3111" lon="-2.27238">
        <ele>-3.5999999046326</ele>
        <time>2019-12-01T09:38:39.000Z</time>
      </trkpt>
      <trkpt lat="47.31077" lon="-2.27251">
        <ele>-3.5999999046326</ele>
        <time>2019-12-01T09:38:46.000Z</time>
      </trkpt>
      <trkpt lat="47.31053" lon="-2.27258">
        <ele>-3.5999999046326</ele>
        <time>2019-12-01T09:38:51.000Z</time>
      </trkpt>
      <trkpt lat="47.31043" lon="-2.27259">
        <ele>-3.5999999046326</ele>
        <time>2019-12-01T09:38:53.000Z</time>
      </trkpt>
      <trkpt lat="47.31039" lon="-2.27258">
        <ele>-3.5999999046326</ele>
        <time>2019-12-01T09:38:54.000Z</time>
      </trkpt>
      <trkpt lat="47.31021" lon="-2.27254">
        <ele>-3.5999999046326</ele>
        <time>2019-12-01T09:38:58.000Z</time>
      </trkpt>
      <trkpt lat="47.31016" lon="-2.27254">
        <ele>-3.5999999046326</ele>
        <time>2019-12-01T09:38:59.000Z</time>
      </trkpt>
      <trkpt lat="47.31012" lon="-2.2725">
        <ele>-3.5999999046326</ele>
        <time>2019-12-01T09:39:00.000Z</time>
      </trkpt>
      <trkpt lat="47.31009" lon="-2.27244">
        <ele>-3.5999999046326</ele>
        <time>2019-12-01T09:39:01.000Z</time>
      </trkpt>
      <trkpt lat="47.31006" lon="-2.27222">
        <ele>-3.5999999046326</ele>
        <time>2019-12-01T09:39:04.000Z</time>
      </trkpt>
      <trkpt lat="47.31003" lon="-2.2718">
        <ele>-3.5999999046326</ele>
        <time>2019-12-01T09:39:10.000Z</time>
      </trkpt>
      <trkpt lat="47.31003" lon="-2.27168">
        <ele>-3.5999999046326</ele>
        <time>2019-12-01T09:39:12.000Z</time>
      </trkpt>
      <trkpt lat="47.31001" lon="-2.27144">
        <ele>-3.5999999046326</ele>
        <time>2019-12-01T09:39:16.000Z</time>
      </trkpt>
      <trkpt lat="47.31001" lon="-2.27138">
        <ele>-3.5999999046326</ele>
        <time>2019-12-01T09:39:17.000Z</time>
      </trkpt>
      <trkpt lat="47.30999" lon="-2.27104">
        <ele>-3.5999999046326</ele>
        <time>2019-12-01T09:39:22.000Z</time>
      </trkpt>
      <trkpt lat="47.30996" lon="-2.27053">
        <ele>-3.5999999046326</ele>
        <time>2019-12-01T09:39:28.000Z</time>
      </trkpt>
      <trkpt lat="47.30995" lon="-2.27033">
        <ele>-4.1999998092651</ele>
        <time>2019-12-01T09:39:30.000Z</time>
      </trkpt>
      <trkpt lat="47.30994" lon="-2.27022">
        <ele>-4.5999999046326</ele>
        <time>2019-12-01T09:39:31.000Z</time>
      </trkpt>
      <trkpt lat="47.30993" lon="-2.27011">
        <ele>-5</ele>
        <time>2019-12-01T09:39:32.000Z</time>
      </trkpt>
      <trkpt lat="47.30991" lon="-2.27001">
        <ele>-5.5999999046326</ele>
        <time>2019-12-01T09:39:33.000Z</time>
      </trkpt>
      <trkpt lat="47.30988" lon="-2.26989">
        <ele>-6</ele>
        <time>2019-12-01T09:39:34.000Z</time>
      </trkpt>
      <trkpt lat="47.30978" lon="-2.26973">
        <ele>-6</ele>
        <time>2019-12-01T09:39:36.000Z</time>
      </trkpt>
      <trkpt lat="47.30971" lon="-2.26966">
        <ele>-6.8000001907349</ele>
        <time>2019-12-01T09:39:37.000Z</time>
      </trkpt>
      <trkpt lat="47.30965" lon="-2.2696">
        <ele>-7.1999998092651</ele>
        <time>2019-12-01T09:39:38.000Z</time>
      </trkpt>
      <trkpt lat="47.30958" lon="-2.26956">
        <ele>-7.5999999046326</ele>
        <time>2019-12-01T09:39:39.000Z</time>
      </trkpt>
      <trkpt lat="47.30952" lon="-2.26952">
        <ele>-8.1999998092651</ele>
        <time>2019-12-01T09:39:40.000Z</time>
      </trkpt>
      <trkpt lat="47.30946" lon="-2.26949">
        <ele>-8.1999998092651</ele>
        <time>2019-12-01T09:39:41.000Z</time>
      </trkpt>
      <trkpt lat="47.30921" lon="-2.26935">
        <ele>-8.1999998092651</ele>
        <time>2019-12-01T09:39:45.000Z</time>
      </trkpt>
      <trkpt lat="47.30895" lon="-2.26911">
        <ele>-8.1999998092651</ele>
        <time>2019-12-01T09:39:50.000Z</time>
      </trkpt>
      <trkpt lat="47.30896" lon="-2.26887">
        <ele>-8.1999998092651</ele>
        <time>2019-12-01T09:39:53.000Z</time>
      </trkpt>
      <trkpt lat="47.30897" lon="-2.26879">
        <ele>-8.1999998092651</ele>
        <time>2019-12-01T09:39:54.000Z</time>
      </trkpt>
      <trkpt lat="47.309" lon="-2.2687">
        <ele>-8.1999998092651</ele>
        <time>2019-12-01T09:39:55.000Z</time>
      </trkpt>
      <trkpt lat="47.30905" lon="-2.26852">
        <ele>-8.1999998092651</ele>
        <time>2019-12-01T09:39:57.000Z</time>
      </trkpt>
      <trkpt lat="47.3092" lon="-2.26776">
        <ele>-8.1999998092651</ele>
        <time>2019-12-01T09:40:05.000Z</time>
      </trkpt>
      <trkpt lat="47.3093" lon="-2.26721">
        <ele>-8.1999998092651</ele>
        <time>2019-12-01T09:40:11.000Z</time>
      </trkpt>
      <trkpt lat="47.30933" lon="-2.26704">
        <ele>-8.1999998092651</ele>
        <time>2019-12-01T09:40:13.000Z</time>
      </trkpt>
      <trkpt lat="47.30939" lon="-2.26678">
        <ele>-8.1999998092651</ele>
        <time>2019-12-01T09:40:16.000Z</time>
      </trkpt>
      <trkpt lat="47.30942" lon="-2.2667">
        <ele>-8.1999998092651</ele>
        <time>2019-12-01T09:40:17.000Z</time>
      </trkpt>
      <trkpt lat="47.30949" lon="-2.26636">
        <ele>-8.1999998092651</ele>
        <time>2019-12-01T09:40:21.000Z</time>
      </trkpt>
      <trkpt lat="47.30953" lon="-2.26621">
        <ele>-8.1999998092651</ele>
        <time>2019-12-01T09:40:23.000Z</time>
      </trkpt>
      <trkpt lat="47.30956" lon="-2.26607">
        <ele>-8.1999998092651</ele>
        <time>2019-12-01T09:40:26.000Z</time>
      </trkpt>
      <trkpt lat="47.30961" lon="-2.26602">
        <ele>-8.1999998092651</ele>
        <time>2019-12-01T09:40:30.000Z</time>
      </trkpt>
      <trkpt lat="47.30965" lon="-2.26602">
        <ele>-8.1999998092651</ele>
        <time>2019-12-01T09:40:32.000Z</time>
      </trkpt>
      <trkpt lat="47.30967" lon="-2.26603">
        <ele>-8.1999998092651</ele>
        <time>2019-12-01T09:40:35.000Z</time>
      </trkpt>
      <trkpt lat="47.30964" lon="-2.26602">
        <ele>-9.8000001907349</ele>
        <time>2019-12-01T09:40:40.000Z</time>
      </trkpt>
      <trkpt lat="47.30962" lon="-2.26602">
        <ele>-10.199999809265</ele>
        <time>2019-12-01T09:40:41.000Z</time>
      </trkpt>
      <trkpt lat="47.30962" lon="-2.266">
        <ele>-10.199999809265</ele>
        <time>2019-12-01T09:40:42.000Z</time>
      </trkpt>
      <trkpt lat="47.30962" lon="-2.26601">
        <ele>-10.199999809265</ele>
        <time>2019-12-01T09:40:43.000Z</time>
      </trkpt>
      <trkpt lat="47.30961" lon="-2.26597">
        <ele>-10.199999809265</ele>
        <time>2019-12-01T09:40:46.000Z</time>
      </trkpt>
      <trkpt lat="47.30961" lon="-2.26593">
        <ele>-10.199999809265</ele>
        <time>2019-12-01T09:40:48.000Z</time>
      </trkpt>
      <trkpt lat="47.3096" lon="-2.26585">
        <ele>-10.199999809265</ele>
        <time>2019-12-01T09:40:52.000Z</time>
      </trkpt>
      <trkpt lat="47.30961" lon="-2.26583">
        <ele>-10.199999809265</ele>
        <time>2019-12-01T09:40:53.000Z</time>
      </trkpt>
      <trkpt lat="47.30961" lon="-2.26578">
        <ele>-10.199999809265</ele>
        <time>2019-12-01T09:40:56.000Z</time>
      </trkpt>
      <trkpt lat="47.30962" lon="-2.26574">
        <ele>-10.199999809265</ele>
        <time>2019-12-01T09:40:59.000Z</time>
      </trkpt>
      <trkpt lat="47.30962" lon="-2.26573">
        <ele>-10.199999809265</ele>
        <time>2019-12-01T09:41:01.000Z</time>
      </trkpt>
      <trkpt lat="47.30963" lon="-2.26565">
        <ele>-10.199999809265</ele>
        <time>2019-12-01T09:41:27.000Z</time>
      </trkpt>
      <trkpt lat="47.30963" lon="-2.26562">
        <ele>-10.199999809265</ele>
        <time>2019-12-01T09:41:28.000Z</time>
      </trkpt>
      <trkpt lat="47.30966" lon="-2.26538">
        <ele>-10.199999809265</ele>
        <time>2019-12-01T09:41:34.000Z</time>
      </trkpt>
      <trkpt lat="47.30969" lon="-2.26513">
        <ele>-10.199999809265</ele>
        <time>2019-12-01T09:41:38.000Z</time>
      </trkpt>
      <trkpt lat="47.30969" lon="-2.26506">
        <ele>-10.199999809265</ele>
        <time>2019-12-01T09:41:39.000Z</time>
      </trkpt>
      <trkpt lat="47.30976" lon="-2.2646">
        <ele>-10.199999809265</ele>
        <time>2019-12-01T09:41:45.000Z</time>
      </trkpt>
      <trkpt lat="47.30986" lon="-2.26401">
        <ele>-10.199999809265</ele>
        <time>2019-12-01T09:41:52.000Z</time>
      </trkpt>
      <trkpt lat="47.30997" lon="-2.26343">
        <ele>-10.199999809265</ele>
        <time>2019-12-01T09:41:59.000Z</time>
      </trkpt>
      <trkpt lat="47.3101" lon="-2.26282">
        <ele>-10.199999809265</ele>
        <time>2019-12-01T09:42:06.000Z</time>
      </trkpt>
      <trkpt lat="47.31016" lon="-2.26256">
        <ele>-9.8000001907349</ele>
        <time>2019-12-01T09:42:09.000Z</time>
      </trkpt>
      <trkpt lat="47.31018" lon="-2.26248">
        <ele>-9.3999996185303</ele>
        <time>2019-12-01T09:42:10.000Z</time>
      </trkpt>
      <trkpt lat="47.31019" lon="-2.26239">
        <ele>-9</ele>
        <time>2019-12-01T09:42:11.000Z</time>
      </trkpt>
      <trkpt lat="47.3102" lon="-2.2623">
        <ele>-8.3999996185303</ele>
        <time>2019-12-01T09:42:12.000Z</time>
      </trkpt>
      <trkpt lat="47.31021" lon="-2.26222">
        <ele>-8</ele>
        <time>2019-12-01T09:42:13.000Z</time>
      </trkpt>
      <trkpt lat="47.31026" lon="-2.26177">
        <ele>-8</ele>
        <time>2019-12-01T09:42:18.000Z</time>
      </trkpt>
      <trkpt lat="47.31034" lon="-2.26126">
        <ele>-8</ele>
        <time>2019-12-01T09:42:24.000Z</time>
      </trkpt>
      <trkpt lat="47.31041" lon="-2.26075">
        <ele>-8</ele>
        <time>2019-12-01T09:42:30.000Z</time>
      </trkpt>
      <trkpt lat="47.31043" lon="-2.26058">
        <ele>-8</ele>
        <time>2019-12-01T09:42:32.000Z</time>
      </trkpt>
      <trkpt lat="47.3105" lon="-2.26034">
        <ele>-7.5999999046326</ele>
        <time>2019-12-01T09:42:35.000Z</time>
      </trkpt>
      <trkpt lat="47.31053" lon="-2.26026">
        <ele>-7.1999998092651</ele>
        <time>2019-12-01T09:42:36.000Z</time>
      </trkpt>
      <trkpt lat="47.31058" lon="-2.26021">
        <ele>-6.8000001907349</ele>
        <time>2019-12-01T09:42:37.000Z</time>
      </trkpt>
      <trkpt lat="47.31063" lon="-2.26016">
        <ele>-6.4000000953674</ele>
        <time>2019-12-01T09:42:38.000Z</time>
      </trkpt>
      <trkpt lat="47.31068" lon="-2.26012">
        <ele>-6</ele>
        <time>2019-12-01T09:42:39.000Z</time>
      </trkpt>
      <trkpt lat="47.31073" lon="-2.26008">
        <ele>-6</ele>
        <time>2019-12-01T09:42:40.000Z</time>
      </trkpt>
      <trkpt lat="47.31088" lon="-2.26003">
        <ele>-6</ele>
        <time>2019-12-01T09:42:43.000Z</time>
      </trkpt>
      <trkpt lat="47.31106" lon="-2.26008">
        <ele>-6</ele>
        <time>2019-12-01T09:42:47.000Z</time>
      </trkpt>
      <trkpt lat="47.3111" lon="-2.2601">
        <ele>-6</ele>
        <time>2019-12-01T09:42:49.000Z</time>
      </trkpt>
      <trkpt lat="47.31116" lon="-2.26013">
        <ele>-6</ele>
        <time>2019-12-01T09:42:51.000Z</time>
      </trkpt>
      <trkpt lat="47.31123" lon="-2.26019">
        <ele>-6</ele>
        <time>2019-12-01T09:42:54.000Z</time>
      </trkpt>
      <trkpt lat="47.3113" lon="-2.26024">
        <ele>-6</ele>
        <time>2019-12-01T09:42:57.000Z</time>
      </trkpt>
      <trkpt lat="47.31132" lon="-2.26025">
        <ele>-6</ele>
        <time>2019-12-01T09:42:58.000Z</time>
      </trkpt>
      <trkpt lat="47.31136" lon="-2.26029">
        <ele>-6.4000000953674</ele>
        <time>2019-12-01T09:43:00.000Z</time>
      </trkpt>
      <trkpt lat="47.31139" lon="-2.26031">
        <ele>-6.8000001907349</ele>
        <time>2019-12-01T09:43:01.000Z</time>
      </trkpt>
      <trkpt lat="47.31141" lon="-2.26032">
        <ele>-7.1999998092651</ele>
        <time>2019-12-01T09:43:02.000Z</time>
      </trkpt>
      <trkpt lat="47.31143" lon="-2.26034">
        <ele>-7.5999999046326</ele>
        <time>2019-12-01T09:43:03.000Z</time>
      </trkpt>
      <trkpt lat="47.31146" lon="-2.26036">
        <ele>-8.1999998092651</ele>
        <time>2019-12-01T09:43:04.000Z</time>
      </trkpt>
      <trkpt lat="47.31162" lon="-2.26047">
        <ele>-8.1999998092651</ele>
        <time>2019-12-01T09:43:09.000Z</time>
      </trkpt>
      <trkpt lat="47.31162" lon="-2.26049">
        <ele>-8.1999998092651</ele>
        <time>2019-12-01T09:43:10.000Z</time>
      </trkpt>
      <trkpt lat="47.31163" lon="-2.26049">
        <ele>-8.1999998092651</ele>
        <time>2019-12-01T09:43:12.000Z</time>
      </trkpt>
      <trkpt lat="47.31167" lon="-2.26052">
        <ele>-8.1999998092651</ele>
        <time>2019-12-01T09:43:31.000Z</time>
      </trkpt>
      <trkpt lat="47.31172" lon="-2.26054">
        <ele>-8.1999998092651</ele>
        <time>2019-12-01T09:43:33.000Z</time>
      </trkpt>
      <trkpt lat="47.31185" lon="-2.26061">
        <ele>-8.1999998092651</ele>
        <time>2019-12-01T09:43:39.000Z</time>
      </trkpt>
      <trkpt lat="47.31188" lon="-2.26059">
        <ele>-8.1999998092651</ele>
        <time>2019-12-01T09:43:40.000Z</time>
      </trkpt>
      <trkpt lat="47.31193" lon="-2.26055">
        <ele>-8.1999998092651</ele>
        <time>2019-12-01T09:43:43.000Z</time>
      </trkpt>
      <trkpt lat="47.31193" lon="-2.26054">
        <ele>-8.1999998092651</ele>
        <time>2019-12-01T09:43:44.000Z</time>
      </trkpt>
      <trkpt lat="47.31196" lon="-2.26052">
        <ele>-8.1999998092651</ele>
        <time>2019-12-01T09:43:46.000Z</time>
      </trkpt>
      <trkpt lat="47.31199" lon="-2.26051">
        <ele>-8.1999998092651</ele>
        <time>2019-12-01T09:43:48.000Z</time>
      </trkpt>
      <trkpt lat="47.31208" lon="-2.26045">
        <ele>-8.1999998092651</ele>
        <time>2019-12-01T09:43:53.000Z</time>
      </trkpt>
      <trkpt lat="47.31214" lon="-2.26038">
        <ele>-8.1999998092651</ele>
        <time>2019-12-01T09:43:57.000Z</time>
      </trkpt>
      <trkpt lat="47.31216" lon="-2.26038">
        <ele>-8.1999998092651</ele>
        <time>2019-12-01T09:43:58.000Z</time>
      </trkpt>
      <trkpt lat="47.31232" lon="-2.26031">
        <ele>-8.1999998092651</ele>
        <time>2019-12-01T09:44:05.000Z</time>
      </trkpt>
      <trkpt lat="47.31241" lon="-2.26025">
        <ele>-8.1999998092651</ele>
        <time>2019-12-01T09:44:12.000Z</time>
      </trkpt>
      <trkpt lat="47.31249" lon="-2.2602">
        <ele>-8.1999998092651</ele>
        <time>2019-12-01T09:44:18.000Z</time>
      </trkpt>
      <trkpt lat="47.31255" lon="-2.26015">
        <ele>-8.1999998092651</ele>
        <time>2019-12-01T09:44:25.000Z</time>
      </trkpt>
      <trkpt lat="47.31261" lon="-2.26012">
        <ele>-8.1999998092651</ele>
        <time>2019-12-01T09:44:30.000Z</time>
      </trkpt>
      <trkpt lat="47.31272" lon="-2.25999">
        <ele>-8.1999998092651</ele>
        <time>2019-12-01T09:44:46.000Z</time>
      </trkpt>
      <trkpt lat="47.31275" lon="-2.25997">
        <ele>-8.1999998092651</ele>
        <time>2019-12-01T09:44:48.000Z</time>
      </trkpt>
      <trkpt lat="47.3128" lon="-2.25992">
        <ele>-8.1999998092651</ele>
        <time>2019-12-01T09:44:52.000Z</time>
      </trkpt>
      <trkpt lat="47.31283" lon="-2.25987">
        <ele>-8.1999998092651</ele>
        <time>2019-12-01T09:44:55.000Z</time>
      </trkpt>
      <trkpt lat="47.31282" lon="-2.25985">
        <ele>-8.1999998092651</ele>
        <time>2019-12-01T09:44:56.000Z</time>
      </trkpt>
      <trkpt lat="47.31282" lon="-2.25981">
        <ele>-8.1999998092651</ele>
        <time>2019-12-01T09:44:58.000Z</time>
      </trkpt>
      <trkpt lat="47.31283" lon="-2.25979">
        <ele>-8.1999998092651</ele>
        <time>2019-12-01T09:45:00.000Z</time>
      </trkpt>
      <trkpt lat="47.31283" lon="-2.25974">
        <ele>-7.8000001907349</ele>
        <time>2019-12-01T09:45:04.000Z</time>
      </trkpt>
      <trkpt lat="47.31283" lon="-2.25973">
        <ele>-7.1999998092651</ele>
        <time>2019-12-01T09:45:05.000Z</time>
      </trkpt>
      <trkpt lat="47.31279" lon="-2.25932">
        <ele>-6</ele>
        <time>2019-12-01T09:45:31.000Z</time>
      </trkpt>
      <trkpt lat="47.31278" lon="-2.25929">
        <ele>-6</ele>
        <time>2019-12-01T09:45:32.000Z</time>
      </trkpt>
      <trkpt lat="47.31274" lon="-2.25908">
        <ele>-5.5999999046326</ele>
        <time>2019-12-01T09:45:37.000Z</time>
      </trkpt>
      <trkpt lat="47.31273" lon="-2.25902">
        <ele>-5.1999998092651</ele>
        <time>2019-12-01T09:45:38.000Z</time>
      </trkpt>
      <trkpt lat="47.31272" lon="-2.25896">
        <ele>-4.8000001907349</ele>
        <time>2019-12-01T09:45:39.000Z</time>
      </trkpt>
      <trkpt lat="47.31271" lon="-2.25892">
        <ele>-4.4000000953674</ele>
        <time>2019-12-01T09:45:40.000Z</time>
      </trkpt>
      <trkpt lat="47.31271" lon="-2.25888">
        <ele>-4</ele>
        <time>2019-12-01T09:45:41.000Z</time>
      </trkpt>
      <trkpt lat="47.31266" lon="-2.2587">
        <ele>-4</ele>
        <time>2019-12-01T09:45:45.000Z</time>
      </trkpt>
      <trkpt lat="47.31256" lon="-2.25832">
        <ele>-4</ele>
        <time>2019-12-01T09:45:53.000Z</time>
      </trkpt>
      <trkpt lat="47.31251" lon="-2.25815">
        <ele>-4</ele>
        <time>2019-12-01T09:45:59.000Z</time>
      </trkpt>
      <trkpt lat="47.31249" lon="-2.25808">
        <ele>-4</ele>
        <time>2019-12-01T09:46:02.000Z</time>
      </trkpt>
      <trkpt lat="47.31249" lon="-2.25805">
        <ele>-4</ele>
        <time>2019-12-01T09:46:04.000Z</time>
      </trkpt>
      <trkpt lat="47.3125" lon="-2.258">
        <ele>-4</ele>
        <time>2019-12-01T09:46:06.000Z</time>
      </trkpt>
      <trkpt lat="47.31256" lon="-2.25794">
        <ele>-4</ele>
        <time>2019-12-01T09:46:09.000Z</time>
      </trkpt>
      <trkpt lat="47.31263" lon="-2.25788">
        <ele>-4</ele>
        <time>2019-12-01T09:46:11.000Z</time>
      </trkpt>
      <trkpt lat="47.31271" lon="-2.25778">
        <ele>-4</ele>
        <time>2019-12-01T09:46:14.000Z</time>
      </trkpt>
      <trkpt lat="47.31285" lon="-2.25766">
        <ele>-4</ele>
        <time>2019-12-01T09:46:20.000Z</time>
      </trkpt>
      <trkpt lat="47.31301" lon="-2.25754">
        <ele>-4</ele>
        <time>2019-12-01T09:46:26.000Z</time>
      </trkpt>
      <trkpt lat="47.31316" lon="-2.25743">
        <ele>-4</ele>
        <time>2019-12-01T09:46:32.000Z</time>
      </trkpt>
      <trkpt lat="47.31335" lon="-2.25734">
        <ele>-4</ele>
        <time>2019-12-01T09:46:37.000Z</time>
      </trkpt>
      <trkpt lat="47.31362" lon="-2.25721">
        <ele>-4</ele>
        <time>2019-12-01T09:46:44.000Z</time>
      </trkpt>
      <trkpt lat="47.31396" lon="-2.25702">
        <ele>-4</ele>
        <time>2019-12-01T09:46:52.000Z</time>
      </trkpt>
      <trkpt lat="47.31419" lon="-2.25692">
        <ele>-4.4000000953674</ele>
        <time>2019-12-01T09:46:57.000Z</time>
      </trkpt>
      <trkpt lat="47.31424" lon="-2.2569">
        <ele>-4.8000001907349</ele>
        <time>2019-12-01T09:46:58.000Z</time>
      </trkpt>
      <trkpt lat="47.31428" lon="-2.25688">
        <ele>-5.1999998092651</ele>
        <time>2019-12-01T09:46:59.000Z</time>
      </trkpt>
      <trkpt lat="47.31433" lon="-2.25686">
        <ele>-6</ele>
        <time>2019-12-01T09:47:00.000Z</time>
      </trkpt>
      <trkpt lat="47.31457" lon="-2.25674">
        <ele>-6</ele>
        <time>2019-12-01T09:47:05.000Z</time>
      </trkpt>
      <trkpt lat="47.31481" lon="-2.25661">
        <ele>-6.4000000953674</ele>
        <time>2019-12-01T09:47:10.000Z</time>
      </trkpt>
      <trkpt lat="47.31486" lon="-2.25659">
        <ele>-6.8000001907349</ele>
        <time>2019-12-01T09:47:11.000Z</time>
      </trkpt>
      <trkpt lat="47.31491" lon="-2.25656">
        <ele>-7.1999998092651</ele>
        <time>2019-12-01T09:47:12.000Z</time>
      </trkpt>
      <trkpt lat="47.31496" lon="-2.25654">
        <ele>-7.5999999046326</ele>
        <time>2019-12-01T09:47:13.000Z</time>
      </trkpt>
      <trkpt lat="47.31501" lon="-2.25651">
        <ele>-8</ele>
        <time>2019-12-01T09:47:14.000Z</time>
      </trkpt>
      <trkpt lat="47.31508" lon="-2.25649">
        <ele>-8</ele>
        <time>2019-12-01T09:47:16.000Z</time>
      </trkpt>
      <trkpt lat="47.31517" lon="-2.25661">
        <ele>-8</ele>
        <time>2019-12-01T09:47:19.000Z</time>
      </trkpt>
      <trkpt lat="47.31519" lon="-2.25666">
        <ele>-8</ele>
        <time>2019-12-01T09:47:20.000Z</time>
      </trkpt>
      <trkpt lat="47.31525" lon="-2.25687">
        <ele>-8</ele>
        <time>2019-12-01T09:47:24.000Z</time>
      </trkpt>
      <trkpt lat="47.31533" lon="-2.25699">
        <ele>-8</ele>
        <time>2019-12-01T09:47:28.000Z</time>
      </trkpt>
      <trkpt lat="47.31536" lon="-2.25709">
        <ele>-8</ele>
        <time>2019-12-01T09:47:33.000Z</time>
      </trkpt>
      <trkpt lat="47.31536" lon="-2.25715">
        <ele>-8</ele>
        <time>2019-12-01T09:47:36.000Z</time>
      </trkpt>
      <trkpt lat="47.31536" lon="-2.25723">
        <ele>-8</ele>
        <time>2019-12-01T09:47:39.000Z</time>
      </trkpt>
      <trkpt lat="47.3154" lon="-2.25742">
        <ele>-8</ele>
        <time>2019-12-01T09:47:45.000Z</time>
      </trkpt>
      <trkpt lat="47.31544" lon="-2.2577">
        <ele>-8</ele>
        <time>2019-12-01T09:47:52.000Z</time>
      </trkpt>
      <trkpt lat="47.31546" lon="-2.25788">
        <ele>-8</ele>
        <time>2019-12-01T09:47:58.000Z</time>
      </trkpt>
      <trkpt lat="47.31548" lon="-2.25811">
        <ele>-8</ele>
        <time>2019-12-01T09:48:04.000Z</time>
      </trkpt>
      <trkpt lat="47.3155" lon="-2.2583">
        <ele>-8.3999996185303</ele>
        <time>2019-12-01T09:48:09.000Z</time>
      </trkpt>
      <trkpt lat="47.31551" lon="-2.25833">
        <ele>-8.8000001907349</ele>
        <time>2019-12-01T09:48:10.000Z</time>
      </trkpt>
      <trkpt lat="47.31552" lon="-2.25839">
        <ele>-9.1999998092651</ele>
        <time>2019-12-01T09:48:11.000Z</time>
      </trkpt>
      <trkpt lat="47.31552" lon="-2.25844">
        <ele>-9.8000001907349</ele>
        <time>2019-12-01T09:48:12.000Z</time>
      </trkpt>
      <trkpt lat="47.31551" lon="-2.25848">
        <ele>-10.199999809265</ele>
        <time>2019-12-01T09:48:13.000Z</time>
      </trkpt>
      <trkpt lat="47.31552" lon="-2.25864">
        <ele>-10.199999809265</ele>
        <time>2019-12-01T09:48:17.000Z</time>
      </trkpt>
      <trkpt lat="47.31546" lon="-2.25881">
        <ele>-10.199999809265</ele>
        <time>2019-12-01T09:48:23.000Z</time>
      </trkpt>
      <trkpt lat="47.31545" lon="-2.25887">
        <ele>-10.199999809265</ele>
        <time>2019-12-01T09:48:26.000Z</time>
      </trkpt>
      <trkpt lat="47.31543" lon="-2.25895">
        <ele>-10.199999809265</ele>
        <time>2019-12-01T09:48:30.000Z</time>
      </trkpt>
      <trkpt lat="47.31542" lon="-2.25897">
        <ele>-10.199999809265</ele>
        <time>2019-12-01T09:48:32.000Z</time>
      </trkpt>
      <trkpt lat="47.31542" lon="-2.25892">
        <ele>-10.199999809265</ele>
        <time>2019-12-01T09:57:04.000Z</time>
      </trkpt>
      <trkpt lat="47.31544" lon="-2.25889">
        <ele>-10.199999809265</ele>
        <time>2019-12-01T09:57:05.000Z</time>
      </trkpt>
      <trkpt lat="47.31551" lon="-2.25864">
        <ele>-10.199999809265</ele>
        <time>2019-12-01T09:57:10.000Z</time>
      </trkpt>
      <trkpt lat="47.31551" lon="-2.25852">
        <ele>-10.199999809265</ele>
        <time>2019-12-01T09:57:12.000Z</time>
      </trkpt>
      <trkpt lat="47.31551" lon="-2.25838">
        <ele>-10.199999809265</ele>
        <time>2019-12-01T09:57:14.000Z</time>
      </trkpt>
      <trkpt lat="47.31549" lon="-2.25825">
        <ele>-10.199999809265</ele>
        <time>2019-12-01T09:57:16.000Z</time>
      </trkpt>
      <trkpt lat="47.31549" lon="-2.25819">
        <ele>-10.199999809265</ele>
        <time>2019-12-01T09:57:17.000Z</time>
      </trkpt>
      <trkpt lat="47.31545" lon="-2.25785">
        <ele>-10.199999809265</ele>
        <time>2019-12-01T09:57:22.000Z</time>
      </trkpt>
      <trkpt lat="47.31541" lon="-2.25749">
        <ele>-10.199999809265</ele>
        <time>2019-12-01T09:57:27.000Z</time>
      </trkpt>
      <trkpt lat="47.31534" lon="-2.25704">
        <ele>-10.199999809265</ele>
        <time>2019-12-01T09:57:33.000Z</time>
      </trkpt>
      <trkpt lat="47.31522" lon="-2.25661">
        <ele>-10.199999809265</ele>
        <time>2019-12-01T09:57:39.000Z</time>
      </trkpt>
      <trkpt lat="47.31519" lon="-2.25645">
        <ele>-9.8000001907349</ele>
        <time>2019-12-01T09:57:41.000Z</time>
      </trkpt>
      <trkpt lat="47.31517" lon="-2.25637">
        <ele>-9.3999996185303</ele>
        <time>2019-12-01T09:57:42.000Z</time>
      </trkpt>
      <trkpt lat="47.31514" lon="-2.25629">
        <ele>-9</ele>
        <time>2019-12-01T09:57:43.000Z</time>
      </trkpt>
      <trkpt lat="47.31512" lon="-2.25621">
        <ele>-8</ele>
        <time>2019-12-01T09:57:44.000Z</time>
      </trkpt>
      <trkpt lat="47.31504" lon="-2.25597">
        <ele>-8</ele>
        <time>2019-12-01T09:57:47.000Z</time>
      </trkpt>
      <trkpt lat="47.31492" lon="-2.25576">
        <ele>-8</ele>
        <time>2019-12-01T09:57:50.000Z</time>
      </trkpt>
      <trkpt lat="47.31478" lon="-2.2556">
        <ele>-8</ele>
        <time>2019-12-01T09:57:53.000Z</time>
      </trkpt>
      <trkpt lat="47.31463" lon="-2.25546">
        <ele>-8</ele>
        <time>2019-12-01T09:57:56.000Z</time>
      </trkpt>
      <trkpt lat="47.31443" lon="-2.25522">
        <ele>-8</ele>
        <time>2019-12-01T09:58:00.000Z</time>
      </trkpt>
      <trkpt lat="47.31439" lon="-2.25516">
        <ele>-8</ele>
        <time>2019-12-01T09:58:01.000Z</time>
      </trkpt>
      <trkpt lat="47.31428" lon="-2.25499">
        <ele>-8</ele>
        <time>2019-12-01T09:58:04.000Z</time>
      </trkpt>
      <trkpt lat="47.31422" lon="-2.25486">
        <ele>-8</ele>
        <time>2019-12-01T09:58:06.000Z</time>
      </trkpt>
      <trkpt lat="47.31419" lon="-2.25479">
        <ele>-8</ele>
        <time>2019-12-01T09:58:07.000Z</time>
      </trkpt>
      <trkpt lat="47.31405" lon="-2.25446">
        <ele>-8</ele>
        <time>2019-12-01T09:58:12.000Z</time>
      </trkpt>
      <trkpt lat="47.31394" lon="-2.25424">
        <ele>-8</ele>
        <time>2019-12-01T09:58:15.000Z</time>
      </trkpt>
      <trkpt lat="47.31385" lon="-2.25411">
        <ele>-8</ele>
        <time>2019-12-01T09:58:17.000Z</time>
      </trkpt>
      <trkpt lat="47.31374" lon="-2.25401">
        <ele>-8</ele>
        <time>2019-12-01T09:58:19.000Z</time>
      </trkpt>
      <trkpt lat="47.31365" lon="-2.2539">
        <ele>-8</ele>
        <time>2019-12-01T09:58:21.000Z</time>
      </trkpt>
      <trkpt lat="47.3136" lon="-2.25383">
        <ele>-8</ele>
        <time>2019-12-01T09:58:22.000Z</time>
      </trkpt>
      <trkpt lat="47.31357" lon="-2.25376">
        <ele>-8</ele>
        <time>2019-12-01T09:58:23.000Z</time>
      </trkpt>
      <trkpt lat="47.31349" lon="-2.25352">
        <ele>-8</ele>
        <time>2019-12-01T09:58:26.000Z</time>
      </trkpt>
      <trkpt lat="47.31347" lon="-2.25344">
        <ele>-8</ele>
        <time>2019-12-01T09:58:27.000Z</time>
      </trkpt>
      <trkpt lat="47.31344" lon="-2.2532">
        <ele>-8</ele>
        <time>2019-12-01T09:58:30.000Z</time>
      </trkpt>
      <trkpt lat="47.31342" lon="-2.25303">
        <ele>-8</ele>
        <time>2019-12-01T09:58:32.000Z</time>
      </trkpt>
      <trkpt lat="47.31336" lon="-2.2527">
        <ele>-8</ele>
        <time>2019-12-01T09:58:36.000Z</time>
      </trkpt>
      <trkpt lat="47.31329" lon="-2.25255">
        <ele>-8</ele>
        <time>2019-12-01T09:58:38.000Z</time>
      </trkpt>
      <trkpt lat="47.31316" lon="-2.25238">
        <ele>-8</ele>
        <time>2019-12-01T09:58:41.000Z</time>
      </trkpt>
      <trkpt lat="47.31306" lon="-2.25226">
        <ele>-8</ele>
        <time>2019-12-01T09:58:43.000Z</time>
      </trkpt>
      <trkpt lat="47.31292" lon="-2.25209">
        <ele>-8</ele>
        <time>2019-12-01T09:58:46.000Z</time>
      </trkpt>
      <trkpt lat="47.3128" lon="-2.25191">
        <ele>-8</ele>
        <time>2019-12-01T09:58:49.000Z</time>
      </trkpt>
      <trkpt lat="47.31254" lon="-2.25143">
        <ele>-8</ele>
        <time>2019-12-01T09:58:56.000Z</time>
      </trkpt>
      <trkpt lat="47.31229" lon="-2.25095">
        <ele>-8</ele>
        <time>2019-12-01T09:59:03.000Z</time>
      </trkpt>
      <trkpt lat="47.31207" lon="-2.25035">
        <ele>-8</ele>
        <time>2019-12-01T09:59:11.000Z</time>
      </trkpt>
      <trkpt lat="47.31192" lon="-2.25">
        <ele>-8</ele>
        <time>2019-12-01T09:59:16.000Z</time>
      </trkpt>
      <trkpt lat="47.31188" lon="-2.24995">
        <ele>-8</ele>
        <time>2019-12-01T09:59:17.000Z</time>
      </trkpt>
      <trkpt lat="47.31171" lon="-2.24988">
        <ele>-8</ele>
        <time>2019-12-01T09:59:20.000Z</time>
      </trkpt>
      <trkpt lat="47.31161" lon="-2.24972">
        <ele>-8</ele>
        <time>2019-12-01T09:59:23.000Z</time>
      </trkpt>
      <trkpt lat="47.31158" lon="-2.24956">
        <ele>-8</ele>
        <time>2019-12-01T09:59:25.000Z</time>
      </trkpt>
      <trkpt lat="47.31156" lon="-2.2494">
        <ele>-8</ele>
        <time>2019-12-01T09:59:27.000Z</time>
      </trkpt>
      <trkpt lat="47.31154" lon="-2.24924">
        <ele>-8</ele>
        <time>2019-12-01T09:59:29.000Z</time>
      </trkpt>
      <trkpt lat="47.31151" lon="-2.24893">
        <ele>-8</ele>
        <time>2019-12-01T09:59:33.000Z</time>
      </trkpt>
      <trkpt lat="47.31149" lon="-2.24886">
        <ele>-8</ele>
        <time>2019-12-01T09:59:34.000Z</time>
      </trkpt>
      <trkpt lat="47.31146" lon="-2.24864">
        <ele>-8</ele>
        <time>2019-12-01T09:59:37.000Z</time>
      </trkpt>
      <trkpt lat="47.31144" lon="-2.2485">
        <ele>-8</ele>
        <time>2019-12-01T09:59:39.000Z</time>
      </trkpt>
      <trkpt lat="47.31141" lon="-2.24837">
        <ele>-8</ele>
        <time>2019-12-01T09:59:41.000Z</time>
      </trkpt>
      <trkpt lat="47.31134" lon="-2.24795">
        <ele>-8</ele>
        <time>2019-12-01T09:59:47.000Z</time>
      </trkpt>
      <trkpt lat="47.31134" lon="-2.24789">
        <ele>-8</ele>
        <time>2019-12-01T09:59:48.000Z</time>
      </trkpt>
      <trkpt lat="47.31126" lon="-2.24777">
        <ele>-8</ele>
        <time>2019-12-01T09:59:51.000Z</time>
      </trkpt>
      <trkpt lat="47.31108" lon="-2.24775">
        <ele>-8</ele>
        <time>2019-12-01T09:59:55.000Z</time>
      </trkpt>
      <trkpt lat="47.31074" lon="-2.24776">
        <ele>-8</ele>
        <time>2019-12-01T10:00:02.000Z</time>
      </trkpt>
      <trkpt lat="47.31065" lon="-2.24774">
        <ele>-8</ele>
        <time>2019-12-01T10:00:04.000Z</time>
      </trkpt>
      <trkpt lat="47.31055" lon="-2.24771">
        <ele>-8</ele>
        <time>2019-12-01T10:00:06.000Z</time>
      </trkpt>
      <trkpt lat="47.31045" lon="-2.24767">
        <ele>-8</ele>
        <time>2019-12-01T10:00:08.000Z</time>
      </trkpt>
      <trkpt lat="47.31007" lon="-2.24756">
        <ele>-8</ele>
        <time>2019-12-01T10:00:15.000Z</time>
      </trkpt>
      <trkpt lat="47.30987" lon="-2.24757">
        <ele>-8</ele>
        <time>2019-12-01T10:00:19.000Z</time>
      </trkpt>
      <trkpt lat="47.30977" lon="-2.2476">
        <ele>-8</ele>
        <time>2019-12-01T10:00:21.000Z</time>
      </trkpt>
      <trkpt lat="47.30948" lon="-2.24781">
        <ele>-8</ele>
        <time>2019-12-01T10:00:27.000Z</time>
      </trkpt>
      <trkpt lat="47.30918" lon="-2.24819">
        <ele>-8</ele>
        <time>2019-12-01T10:00:34.000Z</time>
      </trkpt>
      <trkpt lat="47.30886" lon="-2.24861">
        <ele>-8</ele>
        <time>2019-12-01T10:00:42.000Z</time>
      </trkpt>
      <trkpt lat="47.30877" lon="-2.24877">
        <ele>-8</ele>
        <time>2019-12-01T10:00:45.000Z</time>
      </trkpt>
      <trkpt lat="47.30873" lon="-2.24892">
        <ele>-8</ele>
        <time>2019-12-01T10:00:47.000Z</time>
      </trkpt>
      <trkpt lat="47.3087" lon="-2.24905">
        <ele>-8</ele>
        <time>2019-12-01T10:00:49.000Z</time>
      </trkpt>
      <trkpt lat="47.30868" lon="-2.24912">
        <ele>-8</ele>
        <time>2019-12-01T10:00:50.000Z</time>
      </trkpt>
      <trkpt lat="47.30865" lon="-2.24925">
        <ele>-8</ele>
        <time>2019-12-01T10:00:52.000Z</time>
      </trkpt>
      <trkpt lat="47.30861" lon="-2.24936">
        <ele>-8</ele>
        <time>2019-12-01T10:00:54.000Z</time>
      </trkpt>
      <trkpt lat="47.30854" lon="-2.2494">
        <ele>-8</ele>
        <time>2019-12-01T10:00:56.000Z</time>
      </trkpt>
      <trkpt lat="47.30839" lon="-2.24936">
        <ele>-8</ele>
        <time>2019-12-01T10:00:59.000Z</time>
      </trkpt>
      <trkpt lat="47.30834" lon="-2.24933">
        <ele>-8</ele>
        <time>2019-12-01T10:01:00.000Z</time>
      </trkpt>
      <trkpt lat="47.30801" lon="-2.24919">
        <ele>-8</ele>
        <time>2019-12-01T10:01:06.000Z</time>
      </trkpt>
      <trkpt lat="47.30757" lon="-2.24898">
        <ele>-8</ele>
        <time>2019-12-01T10:01:15.000Z</time>
      </trkpt>
      <trkpt lat="47.30738" lon="-2.24885">
        <ele>-8</ele>
        <time>2019-12-01T10:01:19.000Z</time>
      </trkpt>
      <trkpt lat="47.30729" lon="-2.24876">
        <ele>-8</ele>
        <time>2019-12-01T10:01:21.000Z</time>
      </trkpt>
      <trkpt lat="47.30718" lon="-2.24861">
        <ele>-8</ele>
        <time>2019-12-01T10:01:24.000Z</time>
      </trkpt>
      <trkpt lat="47.3071" lon="-2.24849">
        <ele>-8</ele>
        <time>2019-12-01T10:01:26.000Z</time>
      </trkpt>
      <trkpt lat="47.30689" lon="-2.24812">
        <ele>-8</ele>
        <time>2019-12-01T10:01:32.000Z</time>
      </trkpt>
      <trkpt lat="47.30662" lon="-2.24775">
        <ele>-8</ele>
        <time>2019-12-01T10:01:39.000Z</time>
      </trkpt>
      <trkpt lat="47.30652" lon="-2.24756">
        <ele>-8</ele>
        <time>2019-12-01T10:01:42.000Z</time>
      </trkpt>
      <trkpt lat="47.30644" lon="-2.24734">
        <ele>-8</ele>
        <time>2019-12-01T10:01:45.000Z</time>
      </trkpt>
      <trkpt lat="47.30625" lon="-2.2467">
        <ele>-8</ele>
        <time>2019-12-01T10:01:53.000Z</time>
      </trkpt>
      <trkpt lat="47.30612" lon="-2.24624">
        <ele>-8</ele>
        <time>2019-12-01T10:01:59.000Z</time>
      </trkpt>
      <trkpt lat="47.3061" lon="-2.24609">
        <ele>-8</ele>
        <time>2019-12-01T10:02:01.000Z</time>
      </trkpt>
      <trkpt lat="47.30614" lon="-2.2457">
        <ele>-8</ele>
        <time>2019-12-01T10:02:06.000Z</time>
      </trkpt>
      <trkpt lat="47.30616" lon="-2.24554">
        <ele>-8</ele>
        <time>2019-12-01T10:02:08.000Z</time>
      </trkpt>
      <trkpt lat="47.30619" lon="-2.2454">
        <ele>-7.5999999046326</ele>
        <time>2019-12-01T10:02:10.000Z</time>
      </trkpt>
      <trkpt lat="47.3062" lon="-2.24533">
        <ele>-7.1999998092651</ele>
        <time>2019-12-01T10:02:11.000Z</time>
      </trkpt>
      <trkpt lat="47.30621" lon="-2.24526">
        <ele>-6.8000001907349</ele>
        <time>2019-12-01T10:02:12.000Z</time>
      </trkpt>
      <trkpt lat="47.30622" lon="-2.2452">
        <ele>-6.4000000953674</ele>
        <time>2019-12-01T10:02:13.000Z</time>
      </trkpt>
      <trkpt lat="47.30623" lon="-2.24513">
        <ele>-5.8000001907349</ele>
        <time>2019-12-01T10:02:14.000Z</time>
      </trkpt>
      <trkpt lat="47.30625" lon="-2.24506">
        <ele>-5.4000000953674</ele>
        <time>2019-12-01T10:02:15.000Z</time>
      </trkpt>
      <trkpt lat="47.30626" lon="-2.245">
        <ele>-5</ele>
        <time>2019-12-01T10:02:16.000Z</time>
      </trkpt>
      <trkpt lat="47.30627" lon="-2.24493">
        <ele>-4.5999999046326</ele>
        <time>2019-12-01T10:02:17.000Z</time>
      </trkpt>
      <trkpt lat="47.30628" lon="-2.24487">
        <ele>-4.1999998092651</ele>
        <time>2019-12-01T10:02:18.000Z</time>
      </trkpt>
      <trkpt lat="47.30629" lon="-2.2448">
        <ele>-3.7999999523163</ele>
        <time>2019-12-01T10:02:19.000Z</time>
      </trkpt>
      <trkpt lat="47.30631" lon="-2.24468">
        <ele>-3.4000000953674</ele>
        <time>2019-12-01T10:02:21.000Z</time>
      </trkpt>
      <trkpt lat="47.30632" lon="-2.24461">
        <ele>-3</ele>
        <time>2019-12-01T10:02:22.000Z</time>
      </trkpt>
      <trkpt lat="47.30633" lon="-2.24454">
        <ele>-2.5999999046326</ele>
        <time>2019-12-01T10:02:23.000Z</time>
      </trkpt>
      <trkpt lat="47.30633" lon="-2.24449">
        <ele>-2.2000000476837</ele>
        <time>2019-12-01T10:02:24.000Z</time>
      </trkpt>
      <trkpt lat="47.30634" lon="-2.24442">
        <ele>-1.7999999523163</ele>
        <time>2019-12-01T10:02:25.000Z</time>
      </trkpt>
      <trkpt lat="47.30633" lon="-2.2443">
        <ele>-1.7999999523163</ele>
        <time>2019-12-01T10:02:27.000Z</time>
      </trkpt>
      <trkpt lat="47.30631" lon="-2.24426">
        <ele>-1.3999999761581</ele>
        <time>2019-12-01T10:02:28.000Z</time>
      </trkpt>
      <trkpt lat="47.30628" lon="-2.24424">
        <ele>-1</ele>
        <time>2019-12-01T10:02:29.000Z</time>
      </trkpt>
      <trkpt lat="47.30625" lon="-2.24422">
        <ele>-0.60000002384186</ele>
        <time>2019-12-01T10:02:30.000Z</time>
      </trkpt>
      <trkpt lat="47.30622" lon="-2.24421">
        <ele>-0.20000000298023</ele>
        <time>2019-12-01T10:02:31.000Z</time>
      </trkpt>
      <trkpt lat="47.30619" lon="-2.24419">
        <ele>0.20000000298023</ele>
        <time>2019-12-01T10:02:32.000Z</time>
      </trkpt>
      <trkpt lat="47.30605" lon="-2.24412">
        <ele>0.60000002384186</ele>
        <time>2019-12-01T10:02:36.000Z</time>
      </trkpt>
      <trkpt lat="47.30602" lon="-2.24409">
        <ele>1</ele>
        <time>2019-12-01T10:02:37.000Z</time>
      </trkpt>
      <trkpt lat="47.30598" lon="-2.24406">
        <ele>1.3999999761581</ele>
        <time>2019-12-01T10:02:38.000Z</time>
      </trkpt>
      <trkpt lat="47.30595" lon="-2.24402">
        <ele>2.4000000953674</ele>
        <time>2019-12-01T10:02:39.000Z</time>
      </trkpt>
      <trkpt lat="47.3058" lon="-2.24386">
        <ele>2.4000000953674</ele>
        <time>2019-12-01T10:02:43.000Z</time>
      </trkpt>
      <trkpt lat="47.30552" lon="-2.24355">
        <ele>2.7999999523163</ele>
        <time>2019-12-01T10:02:51.000Z</time>
      </trkpt>
      <trkpt lat="47.30548" lon="-2.24351">
        <ele>3.2000000476837</ele>
        <time>2019-12-01T10:02:52.000Z</time>
      </trkpt>
      <trkpt lat="47.30544" lon="-2.24348">
        <ele>3.5999999046326</ele>
        <time>2019-12-01T10:02:53.000Z</time>
      </trkpt>
      <trkpt lat="47.30541" lon="-2.24345">
        <ele>4</ele>
        <time>2019-12-01T10:02:54.000Z</time>
      </trkpt>
      <trkpt lat="47.30537" lon="-2.24341">
        <ele>4.4000000953674</ele>
        <time>2019-12-01T10:02:55.000Z</time>
      </trkpt>
      <trkpt lat="47.30529" lon="-2.24333">
        <ele>4.4000000953674</ele>
        <time>2019-12-01T10:02:57.000Z</time>
      </trkpt>
      <trkpt lat="47.30514" lon="-2.24318">
        <ele>4.4000000953674</ele>
        <time>2019-12-01T10:03:01.000Z</time>
      </trkpt>
      <trkpt lat="47.30502" lon="-2.24306">
        <ele>4.4000000953674</ele>
        <time>2019-12-01T10:03:04.000Z</time>
      </trkpt>
      <trkpt lat="47.30489" lon="-2.24296">
        <ele>4.4000000953674</ele>
        <time>2019-12-01T10:03:07.000Z</time>
      </trkpt>
      <trkpt lat="47.30475" lon="-2.24289">
        <ele>4.4000000953674</ele>
        <time>2019-12-01T10:03:10.000Z</time>
      </trkpt>
      <trkpt lat="47.30465" lon="-2.24285">
        <ele>4.4000000953674</ele>
        <time>2019-12-01T10:03:12.000Z</time>
      </trkpt>
      <trkpt lat="47.30445" lon="-2.24279">
        <ele>4.4000000953674</ele>
        <time>2019-12-01T10:03:16.000Z</time>
      </trkpt>
      <trkpt lat="47.3044" lon="-2.24279">
        <ele>4.4000000953674</ele>
        <time>2019-12-01T10:03:17.000Z</time>
      </trkpt>
      <trkpt lat="47.3043" lon="-2.24276">
        <ele>4.4000000953674</ele>
        <time>2019-12-01T10:03:20.000Z</time>
      </trkpt>
      <trkpt lat="47.30411" lon="-2.24265">
        <ele>4.4000000953674</ele>
        <time>2019-12-01T10:03:26.000Z</time>
      </trkpt>
      <trkpt lat="47.30392" lon="-2.24246">
        <ele>4.4000000953674</ele>
        <time>2019-12-01T10:03:31.000Z</time>
      </trkpt>
      <trkpt lat="47.30374" lon="-2.24226">
        <ele>4.4000000953674</ele>
        <time>2019-12-01T10:03:36.000Z</time>
      </trkpt>
      <trkpt lat="47.3037" lon="-2.24221">
        <ele>4.4000000953674</ele>
        <time>2019-12-01T10:03:37.000Z</time>
      </trkpt>
      <trkpt lat="47.30367" lon="-2.24217">
        <ele>4.4000000953674</ele>
        <time>2019-12-01T10:03:38.000Z</time>
      </trkpt>
      <trkpt lat="47.30356" lon="-2.24204">
        <ele>4.4000000953674</ele>
        <time>2019-12-01T10:03:41.000Z</time>
      </trkpt>
      <trkpt lat="47.30352" lon="-2.24194">
        <ele>4.4000000953674</ele>
        <time>2019-12-01T10:03:43.000Z</time>
      </trkpt>
      <trkpt lat="47.30352" lon="-2.24187">
        <ele>4.4000000953674</ele>
        <time>2019-12-01T10:03:44.000Z</time>
      </trkpt>
      <trkpt lat="47.30357" lon="-2.24172">
        <ele>4.4000000953674</ele>
        <time>2019-12-01T10:03:47.000Z</time>
      </trkpt>
      <trkpt lat="47.30363" lon="-2.24162">
        <ele>4.4000000953674</ele>
        <time>2019-12-01T10:03:49.000Z</time>
      </trkpt>
      <trkpt lat="47.30368" lon="-2.24152">
        <ele>4.4000000953674</ele>
        <time>2019-12-01T10:03:51.000Z</time>
      </trkpt>
      <trkpt lat="47.30372" lon="-2.24147">
        <ele>4.4000000953674</ele>
        <time>2019-12-01T10:03:52.000Z</time>
      </trkpt>
      <trkpt lat="47.30375" lon="-2.24143">
        <ele>4.4000000953674</ele>
        <time>2019-12-01T10:03:53.000Z</time>
      </trkpt>
      <trkpt lat="47.30386" lon="-2.24126">
        <ele>4.8000001907349</ele>
        <time>2019-12-01T10:03:57.000Z</time>
      </trkpt>
      <trkpt lat="47.30389" lon="-2.24123">
        <ele>5.1999998092651</ele>
        <time>2019-12-01T10:03:58.000Z</time>
      </trkpt>
      <trkpt lat="47.30392" lon="-2.2412">
        <ele>5.8000001907349</ele>
        <time>2019-12-01T10:03:59.000Z</time>
      </trkpt>
      <trkpt lat="47.30394" lon="-2.24116">
        <ele>6.1999998092651</ele>
        <time>2019-12-01T10:04:00.000Z</time>
      </trkpt>
      <trkpt lat="47.30397" lon="-2.24112">
        <ele>6.5999999046326</ele>
        <time>2019-12-01T10:04:01.000Z</time>
      </trkpt>
      <trkpt lat="47.30403" lon="-2.24104">
        <ele>6.5999999046326</ele>
        <time>2019-12-01T10:04:03.000Z</time>
      </trkpt>
      <trkpt lat="47.3041" lon="-2.24096">
        <ele>6.5999999046326</ele>
        <time>2019-12-01T10:04:05.000Z</time>
      </trkpt>
      <trkpt lat="47.30417" lon="-2.24088">
        <ele>6.1999998092651</ele>
        <time>2019-12-01T10:04:07.000Z</time>
      </trkpt>
      <trkpt lat="47.3042" lon="-2.24084">
        <ele>5.5999999046326</ele>
        <time>2019-12-01T10:04:08.000Z</time>
      </trkpt>
      <trkpt lat="47.30424" lon="-2.24081">
        <ele>5.1999998092651</ele>
        <time>2019-12-01T10:04:09.000Z</time>
      </trkpt>
      <trkpt lat="47.30427" lon="-2.24076">
        <ele>4.8000001907349</ele>
        <time>2019-12-01T10:04:10.000Z</time>
      </trkpt>
      <trkpt lat="47.30431" lon="-2.24072">
        <ele>4.4000000953674</ele>
        <time>2019-12-01T10:04:11.000Z</time>
      </trkpt>
      <trkpt lat="47.30443" lon="-2.24061">
        <ele>4.4000000953674</ele>
        <time>2019-12-01T10:04:14.000Z</time>
      </trkpt>
      <trkpt lat="47.30454" lon="-2.24047">
        <ele>3.7999999523163</ele>
        <time>2019-12-01T10:04:17.000Z</time>
      </trkpt>
      <trkpt lat="47.30458" lon="-2.24043">
        <ele>3</ele>
        <time>2019-12-01T10:04:18.000Z</time>
      </trkpt>
      <trkpt lat="47.30464" lon="-2.2404">
        <ele>2.5999999046326</ele>
        <time>2019-12-01T10:04:19.000Z</time>
      </trkpt>
      <trkpt lat="47.30468" lon="-2.24038">
        <ele>2</ele>
        <time>2019-12-01T10:04:20.000Z</time>
      </trkpt>
      <trkpt lat="47.30478" lon="-2.24031">
        <ele>2</ele>
        <time>2019-12-01T10:04:22.000Z</time>
      </trkpt>
      <trkpt lat="47.30482" lon="-2.24026">
        <ele>2</ele>
        <time>2019-12-01T10:04:23.000Z</time>
      </trkpt>
      <trkpt lat="47.30486" lon="-2.24021">
        <ele>1.6000000238419</ele>
        <time>2019-12-01T10:04:24.000Z</time>
      </trkpt>
      <trkpt lat="47.3049" lon="-2.24015">
        <ele>1</ele>
        <time>2019-12-01T10:04:25.000Z</time>
      </trkpt>
      <trkpt lat="47.30495" lon="-2.24008">
        <ele>0.60000002384186</ele>
        <time>2019-12-01T10:04:26.000Z</time>
      </trkpt>
      <trkpt lat="47.305" lon="-2.24002">
        <ele>0.20000000298023</ele>
        <time>2019-12-01T10:04:27.000Z</time>
      </trkpt>
      <trkpt lat="47.30505" lon="-2.23995">
        <ele>-0.40000000596046</ele>
        <time>2019-12-01T10:04:28.000Z</time>
      </trkpt>
      <trkpt lat="47.3051" lon="-2.23987">
        <ele>-0.80000001192093</ele>
        <time>2019-12-01T10:04:29.000Z</time>
      </trkpt>
      <trkpt lat="47.30515" lon="-2.23981">
        <ele>-1.2000000476837</ele>
        <time>2019-12-01T10:04:30.000Z</time>
      </trkpt>
      <trkpt lat="47.30521" lon="-2.23973">
        <ele>-1.6000000238419</ele>
        <time>2019-12-01T10:04:31.000Z</time>
      </trkpt>
      <trkpt lat="47.30527" lon="-2.23966">
        <ele>-2</ele>
        <time>2019-12-01T10:04:32.000Z</time>
      </trkpt>
      <trkpt lat="47.30533" lon="-2.23958">
        <ele>-2.4000000953674</ele>
        <time>2019-12-01T10:04:33.000Z</time>
      </trkpt>
      <trkpt lat="47.30538" lon="-2.23951">
        <ele>-3</ele>
        <time>2019-12-01T10:04:34.000Z</time>
      </trkpt>
      <trkpt lat="47.30542" lon="-2.23945">
        <ele>-3.4000000953674</ele>
        <time>2019-12-01T10:04:35.000Z</time>
      </trkpt>
      <trkpt lat="47.30545" lon="-2.23939">
        <ele>-3.7999999523163</ele>
        <time>2019-12-01T10:04:36.000Z</time>
      </trkpt>
      <trkpt lat="47.30546" lon="-2.23933">
        <ele>-4.4000000953674</ele>
        <time>2019-12-01T10:04:37.000Z</time>
      </trkpt>
      <trkpt lat="47.30547" lon="-2.23927">
        <ele>-5</ele>
        <time>2019-12-01T10:04:38.000Z</time>
      </trkpt>
      <trkpt lat="47.30545" lon="-2.23921">
        <ele>-5.5999999046326</ele>
        <time>2019-12-01T10:04:39.000Z</time>
      </trkpt>
      <trkpt lat="47.30542" lon="-2.23916">
        <ele>-6.1999998092651</ele>
        <time>2019-12-01T10:04:40.000Z</time>
      </trkpt>
      <trkpt lat="47.30538" lon="-2.23911">
        <ele>-6.8000001907349</ele>
        <time>2019-12-01T10:04:41.000Z</time>
      </trkpt>
      <trkpt lat="47.30534" lon="-2.23906">
        <ele>-6.8000001907349</ele>
        <time>2019-12-01T10:04:42.000Z</time>
      </trkpt>
      <trkpt lat="47.30504" lon="-2.23866">
        <ele>-6.8000001907349</ele>
        <time>2019-12-01T10:04:49.000Z</time>
      </trkpt>
      <trkpt lat="47.30486" lon="-2.23845">
        <ele>-6.8000001907349</ele>
        <time>2019-12-01T10:04:53.000Z</time>
      </trkpt>
      <trkpt lat="47.30474" lon="-2.23842">
        <ele>-6.8000001907349</ele>
        <time>2019-12-01T10:04:55.000Z</time>
      </trkpt>
      <trkpt lat="47.30462" lon="-2.23843">
        <ele>-6.8000001907349</ele>
        <time>2019-12-01T10:04:57.000Z</time>
      </trkpt>
      <trkpt lat="47.30456" lon="-2.23844">
        <ele>-6.8000001907349</ele>
        <time>2019-12-01T10:04:58.000Z</time>
      </trkpt>
      <trkpt lat="47.30445" lon="-2.23847">
        <ele>-6.8000001907349</ele>
        <time>2019-12-01T10:05:00.000Z</time>
      </trkpt>
      <trkpt lat="47.30414" lon="-2.23851">
        <ele>-6.8000001907349</ele>
        <time>2019-12-01T10:05:06.000Z</time>
      </trkpt>
      <trkpt lat="47.30393" lon="-2.23855">
        <ele>-6.8000001907349</ele>
        <time>2019-12-01T10:05:12.000Z</time>
      </trkpt>
      <trkpt lat="47.30373" lon="-2.23856">
        <ele>-6.8000001907349</ele>
        <time>2019-12-01T10:05:18.000Z</time>
      </trkpt>
      <trkpt lat="47.30353" lon="-2.2386">
        <ele>-6.8000001907349</ele>
        <time>2019-12-01T10:05:24.000Z</time>
      </trkpt>
      <trkpt lat="47.30337" lon="-2.23865">
        <ele>-6.8000001907349</ele>
        <time>2019-12-01T10:05:29.000Z</time>
      </trkpt>
      <trkpt lat="47.30321" lon="-2.23874">
        <ele>-6.8000001907349</ele>
        <time>2019-12-01T10:05:34.000Z</time>
      </trkpt>
      <trkpt lat="47.30298" lon="-2.23885">
        <ele>-6.8000001907349</ele>
        <time>2019-12-01T10:05:40.000Z</time>
      </trkpt>
      <trkpt lat="47.3028" lon="-2.23889">
        <ele>-6.8000001907349</ele>
        <time>2019-12-01T10:05:44.000Z</time>
      </trkpt>
      <trkpt lat="47.30276" lon="-2.23891">
        <ele>-6.8000001907349</ele>
        <time>2019-12-01T10:05:45.000Z</time>
      </trkpt>
      <trkpt lat="47.30263" lon="-2.2391">
        <ele>-6.8000001907349</ele>
        <time>2019-12-01T10:05:49.000Z</time>
      </trkpt>
      <trkpt lat="47.30262" lon="-2.23931">
        <ele>-6.8000001907349</ele>
        <time>2019-12-01T10:05:52.000Z</time>
      </trkpt>
      <trkpt lat="47.30263" lon="-2.23937">
        <ele>-6.8000001907349</ele>
        <time>2019-12-01T10:05:53.000Z</time>
      </trkpt>
      <trkpt lat="47.30268" lon="-2.23958">
        <ele>-6.8000001907349</ele>
        <time>2019-12-01T10:05:56.000Z</time>
      </trkpt>
      <trkpt lat="47.3027" lon="-2.23965">
        <ele>-6.8000001907349</ele>
        <time>2019-12-01T10:05:57.000Z</time>
      </trkpt>
      <trkpt lat="47.30277" lon="-2.2399">
        <ele>-6.8000001907349</ele>
        <time>2019-12-01T10:06:01.000Z</time>
      </trkpt>
      <trkpt lat="47.30278" lon="-2.23996">
        <ele>-6.8000001907349</ele>
        <time>2019-12-01T10:06:02.000Z</time>
      </trkpt>
      <trkpt lat="47.30281" lon="-2.24013">
        <ele>-6.4000000953674</ele>
        <time>2019-12-01T10:06:05.000Z</time>
      </trkpt>
      <trkpt lat="47.30281" lon="-2.24018">
        <ele>-5.8000001907349</ele>
        <time>2019-12-01T10:06:06.000Z</time>
      </trkpt>
      <trkpt lat="47.30282" lon="-2.24023">
        <ele>-5.4000000953674</ele>
        <time>2019-12-01T10:06:07.000Z</time>
      </trkpt>
      <trkpt lat="47.30282" lon="-2.24028">
        <ele>-5</ele>
        <time>2019-12-01T10:06:08.000Z</time>
      </trkpt>
      <trkpt lat="47.30282" lon="-2.24032">
        <ele>-4.5999999046326</ele>
        <time>2019-12-01T10:06:09.000Z</time>
      </trkpt>
      <trkpt lat="47.3028" lon="-2.24054">
        <ele>-4.5999999046326</ele>
        <time>2019-12-01T10:06:14.000Z</time>
      </trkpt>
      <trkpt lat="47.30277" lon="-2.24058">
        <ele>-4.5999999046326</ele>
        <time>2019-12-01T10:06:15.000Z</time>
      </trkpt>
      <trkpt lat="47.30274" lon="-2.24059">
        <ele>-4.1999998092651</ele>
        <time>2019-12-01T10:06:16.000Z</time>
      </trkpt>
      <trkpt lat="47.30272" lon="-2.2406">
        <ele>-3.7999999523163</ele>
        <time>2019-12-01T10:06:17.000Z</time>
      </trkpt>
      <trkpt lat="47.30268" lon="-2.24061">
        <ele>-3.2000000476837</ele>
        <time>2019-12-01T10:06:18.000Z</time>
      </trkpt>
      <trkpt lat="47.30266" lon="-2.24061">
        <ele>-2.7999999523163</ele>
        <time>2019-12-01T10:06:19.000Z</time>
      </trkpt>
      <trkpt lat="47.30263" lon="-2.24061">
        <ele>-2.4000000953674</ele>
        <time>2019-12-01T10:06:20.000Z</time>
      </trkpt>
      <trkpt lat="47.3026" lon="-2.24061">
        <ele>-2.4000000953674</ele>
        <time>2019-12-01T10:06:21.000Z</time>
      </trkpt>
      <trkpt lat="47.30258" lon="-2.24061">
        <ele>-2.4000000953674</ele>
        <time>2019-12-01T10:06:22.000Z</time>
      </trkpt>
      <trkpt lat="47.30244" lon="-2.24062">
        <ele>-2.4000000953674</ele>
        <time>2019-12-01T10:06:27.000Z</time>
      </trkpt>
      <trkpt lat="47.30228" lon="-2.24063">
        <ele>-2.4000000953674</ele>
        <time>2019-12-01T10:06:33.000Z</time>
      </trkpt>
      <trkpt lat="47.30218" lon="-2.24062">
        <ele>-2.4000000953674</ele>
        <time>2019-12-01T10:06:37.000Z</time>
      </trkpt>
      <trkpt lat="47.3021" lon="-2.24062">
        <ele>-2.4000000953674</ele>
        <time>2019-12-01T10:06:40.000Z</time>
      </trkpt>
      <trkpt lat="47.30206" lon="-2.24061">
        <ele>-2.4000000953674</ele>
        <time>2019-12-01T10:06:41.000Z</time>
      </trkpt>
      <trkpt lat="47.30198" lon="-2.24059">
        <ele>-2</ele>
        <time>2019-12-01T10:06:43.000Z</time>
      </trkpt>
      <trkpt lat="47.30195" lon="-2.24059">
        <ele>-1.6000000238419</ele>
        <time>2019-12-01T10:06:44.000Z</time>
      </trkpt>
      <trkpt lat="47.30192" lon="-2.24059">
        <ele>-1.2000000476837</ele>
        <time>2019-12-01T10:06:45.000Z</time>
      </trkpt>
      <trkpt lat="47.30188" lon="-2.24059">
        <ele>-0.80000001192093</ele>
        <time>2019-12-01T10:06:46.000Z</time>
      </trkpt>
      <trkpt lat="47.30185" lon="-2.24061">
        <ele>-0.20000000298023</ele>
        <time>2019-12-01T10:06:47.000Z</time>
      </trkpt>
      <trkpt lat="47.30173" lon="-2.24063">
        <ele>-0.20000000298023</ele>
        <time>2019-12-01T10:06:51.000Z</time>
      </trkpt>
      <trkpt lat="47.30154" lon="-2.24072">
        <ele>-0.20000000298023</ele>
        <time>2019-12-01T10:06:58.000Z</time>
      </trkpt>
      <trkpt lat="47.3014" lon="-2.24077">
        <ele>-0.20000000298023</ele>
        <time>2019-12-01T10:07:03.000Z</time>
      </trkpt>
      <trkpt lat="47.30135" lon="-2.2408">
        <ele>-0.20000000298023</ele>
        <time>2019-12-01T10:07:05.000Z</time>
      </trkpt>
      <trkpt lat="47.3013" lon="-2.24085">
        <ele>-0.20000000298023</ele>
        <time>2019-12-01T10:07:07.000Z</time>
      </trkpt>
      <trkpt lat="47.30124" lon="-2.24087">
        <ele>-0.20000000298023</ele>
        <time>2019-12-01T10:07:09.000Z</time>
      </trkpt>
      <trkpt lat="47.30114" lon="-2.24092">
        <ele>-0.20000000298023</ele>
        <time>2019-12-01T10:07:12.000Z</time>
      </trkpt>
      <trkpt lat="47.30102" lon="-2.241">
        <ele>-0.20000000298023</ele>
        <time>2019-12-01T10:07:17.000Z</time>
      </trkpt>
      <trkpt lat="47.30088" lon="-2.24104">
        <ele>-0.20000000298023</ele>
        <time>2019-12-01T10:07:22.000Z</time>
      </trkpt>
      <trkpt lat="47.30077" lon="-2.24113">
        <ele>-0.20000000298023</ele>
        <time>2019-12-01T10:07:27.000Z</time>
      </trkpt>
      <trkpt lat="47.3007" lon="-2.24121">
        <ele>-0.20000000298023</ele>
        <time>2019-12-01T10:07:31.000Z</time>
      </trkpt>
      <trkpt lat="47.30063" lon="-2.24125">
        <ele>-0.20000000298023</ele>
        <time>2019-12-01T10:07:36.000Z</time>
      </trkpt>
      <trkpt lat="47.30062" lon="-2.24126">
        <ele>-0.20000000298023</ele>
        <time>2019-12-01T10:07:37.000Z</time>
      </trkpt>
      <trkpt lat="47.30054" lon="-2.2413">
        <ele>-0.20000000298023</ele>
        <time>2019-12-01T10:07:42.000Z</time>
      </trkpt>
      <trkpt lat="47.3004" lon="-2.24137">
        <ele>-0.20000000298023</ele>
        <time>2019-12-01T10:07:48.000Z</time>
      </trkpt>
      <trkpt lat="47.30032" lon="-2.24147">
        <ele>-0.20000000298023</ele>
        <time>2019-12-01T10:07:54.000Z</time>
      </trkpt>
      <trkpt lat="47.30032" lon="-2.24156">
        <ele>-0.20000000298023</ele>
        <time>2019-12-01T10:07:59.000Z</time>
      </trkpt>
      <trkpt lat="47.30032" lon="-2.2416">
        <ele>-0.20000000298023</ele>
        <time>2019-12-01T10:08:00.000Z</time>
      </trkpt>
      <trkpt lat="47.30033" lon="-2.24182">
        <ele>-0.20000000298023</ele>
        <time>2019-12-01T10:08:06.000Z</time>
      </trkpt>
      <trkpt lat="47.30032" lon="-2.2419">
        <ele>-0.20000000298023</ele>
        <time>2019-12-01T10:08:08.000Z</time>
      </trkpt>
      <trkpt lat="47.30031" lon="-2.24196">
        <ele>-0.20000000298023</ele>
        <time>2019-12-01T10:08:10.000Z</time>
      </trkpt>
      <trkpt lat="47.3003" lon="-2.242">
        <ele>0.20000000298023</ele>
        <time>2019-12-01T10:08:12.000Z</time>
      </trkpt>
      <trkpt lat="47.3003" lon="-2.24203">
        <ele>0.60000002384186</ele>
        <time>2019-12-01T10:08:13.000Z</time>
      </trkpt>
      <trkpt lat="47.3003" lon="-2.24207">
        <ele>1</ele>
        <time>2019-12-01T10:08:14.000Z</time>
      </trkpt>
      <trkpt lat="47.30029" lon="-2.24211">
        <ele>1.3999999761581</ele>
        <time>2019-12-01T10:08:15.000Z</time>
      </trkpt>
      <trkpt lat="47.30029" lon="-2.24215">
        <ele>1.7999999523163</ele>
        <time>2019-12-01T10:08:16.000Z</time>
      </trkpt>
      <trkpt lat="47.3003" lon="-2.24245">
        <ele>1.7999999523163</ele>
        <time>2019-12-01T10:08:23.000Z</time>
      </trkpt>
      <trkpt lat="47.3003" lon="-2.24248">
        <ele>1.7999999523163</ele>
        <time>2019-12-01T10:08:24.000Z</time>
      </trkpt>
      <trkpt lat="47.30029" lon="-2.24255">
        <ele>2.7999999523163</ele>
        <time>2019-12-01T10:08:26.000Z</time>
      </trkpt>
      <trkpt lat="47.30029" lon="-2.24258">
        <ele>3.2000000476837</ele>
        <time>2019-12-01T10:08:27.000Z</time>
      </trkpt>
      <trkpt lat="47.30029" lon="-2.24262">
        <ele>3.5999999046326</ele>
        <time>2019-12-01T10:08:28.000Z</time>
      </trkpt>
      <trkpt lat="47.30029" lon="-2.24265">
        <ele>4.1999998092651</ele>
        <time>2019-12-01T10:08:29.000Z</time>
      </trkpt>
      <trkpt lat="47.30025" lon="-2.2428">
        <ele>4.1999998092651</ele>
        <time>2019-12-01T10:08:33.000Z</time>
      </trkpt>
      <trkpt lat="47.3002" lon="-2.24284">
        <ele>4.1999998092651</ele>
        <time>2019-12-01T10:08:35.000Z</time>
      </trkpt>
      <trkpt lat="47.30018" lon="-2.24292">
        <ele>4.1999998092651</ele>
        <time>2019-12-01T10:08:37.000Z</time>
      </trkpt>
      <trkpt lat="47.30015" lon="-2.24304">
        <ele>4.5999999046326</ele>
        <time>2019-12-01T10:08:40.000Z</time>
      </trkpt>
      <trkpt lat="47.30014" lon="-2.24308">
        <ele>5</ele>
        <time>2019-12-01T10:08:41.000Z</time>
      </trkpt>
      <trkpt lat="47.30011" lon="-2.24312">
        <ele>5.4000000953674</ele>
        <time>2019-12-01T10:08:42.000Z</time>
      </trkpt>
      <trkpt lat="47.30009" lon="-2.24316">
        <ele>5.8000001907349</ele>
        <time>2019-12-01T10:08:43.000Z</time>
      </trkpt>
      <trkpt lat="47.30007" lon="-2.2432">
        <ele>6.1999998092651</ele>
        <time>2019-12-01T10:08:44.000Z</time>
      </trkpt>
      <trkpt lat="47.30005" lon="-2.24329">
        <ele>6.1999998092651</ele>
        <time>2019-12-01T10:08:46.000Z</time>
      </trkpt>
      <trkpt lat="47.29994" lon="-2.24359">
        <ele>6.1999998092651</ele>
        <time>2019-12-01T10:08:53.000Z</time>
      </trkpt>
      <trkpt lat="47.29984" lon="-2.24354">
        <ele>6.1999998092651</ele>
        <time>2019-12-01T10:08:56.000Z</time>
      </trkpt>
      <trkpt lat="47.29969" lon="-2.24336">
        <ele>6.1999998092651</ele>
        <time>2019-12-01T10:09:01.000Z</time>
      </trkpt>
      <trkpt lat="47.29953" lon="-2.2432">
        <ele>6.1999998092651</ele>
        <time>2019-12-01T10:09:06.000Z</time>
      </trkpt>
      <trkpt lat="47.29936" lon="-2.24296">
        <ele>6.1999998092651</ele>
        <time>2019-12-01T10:09:12.000Z</time>
      </trkpt>
      <trkpt lat="47.29932" lon="-2.24291">
        <ele>6.1999998092651</ele>
        <time>2019-12-01T10:09:13.000Z</time>
      </trkpt>
      <trkpt lat="47.29919" lon="-2.24284">
        <ele>6.1999998092651</ele>
        <time>2019-12-01T10:09:16.000Z</time>
      </trkpt>
      <trkpt lat="47.29893" lon="-2.24266">
        <ele>6.1999998092651</ele>
        <time>2019-12-01T10:09:22.000Z</time>
      </trkpt>
      <trkpt lat="47.29861" lon="-2.24244">
        <ele>6.1999998092651</ele>
        <time>2019-12-01T10:09:30.000Z</time>
      </trkpt>
      <trkpt lat="47.29844" lon="-2.24238">
        <ele>6.1999998092651</ele>
        <time>2019-12-01T10:09:34.000Z</time>
      </trkpt>
      <trkpt lat="47.29836" lon="-2.24234">
        <ele>6.1999998092651</ele>
        <time>2019-12-01T10:09:36.000Z</time>
      </trkpt>
      <trkpt lat="47.29819" lon="-2.24224">
        <ele>6.1999998092651</ele>
        <time>2019-12-01T10:09:42.000Z</time>
      </trkpt>
      <trkpt lat="47.29819" lon="-2.24224">
        <ele>6.1999998092651</ele>
        <time>2019-12-01T10:09:43.000Z</time>
      </trkpt>
      <trkpt lat="47.29818" lon="-2.24223">
        <ele>6.1999998092651</ele>
        <time>2019-12-01T10:10:58.000Z</time>
      </trkpt>
      <trkpt lat="47.29816" lon="-2.24222">
        <ele>6.1999998092651</ele>
        <time>2019-12-01T10:10:59.000Z</time>
      </trkpt>
      <trkpt lat="47.29814" lon="-2.24222">
        <ele>6.1999998092651</ele>
        <time>2019-12-01T10:11:00.000Z</time>
      </trkpt>
      <trkpt lat="47.29804" lon="-2.24218">
        <ele>6.1999998092651</ele>
        <time>2019-12-01T10:11:03.000Z</time>
      </trkpt>
      <trkpt lat="47.29796" lon="-2.24219">
        <ele>6.1999998092651</ele>
        <time>2019-12-01T10:11:05.000Z</time>
      </trkpt>
      <trkpt lat="47.29791" lon="-2.24221">
        <ele>5.8000001907349</ele>
        <time>2019-12-01T10:11:06.000Z</time>
      </trkpt>
      <trkpt lat="47.29787" lon="-2.24224">
        <ele>5.1999998092651</ele>
        <time>2019-12-01T10:11:07.000Z</time>
      </trkpt>
      <trkpt lat="47.29782" lon="-2.24226">
        <ele>4.8000001907349</ele>
        <time>2019-12-01T10:11:08.000Z</time>
      </trkpt>
      <trkpt lat="47.29777" lon="-2.24229">
        <ele>4.4000000953674</ele>
        <time>2019-12-01T10:11:09.000Z</time>
      </trkpt>
      <trkpt lat="47.29772" lon="-2.24233">
        <ele>4</ele>
        <time>2019-12-01T10:11:10.000Z</time>
      </trkpt>
      <trkpt lat="47.2976" lon="-2.24239">
        <ele>4</ele>
        <time>2019-12-01T10:11:12.000Z</time>
      </trkpt>
      <trkpt lat="47.29747" lon="-2.24246">
        <ele>3.5999999046326</ele>
        <time>2019-12-01T10:11:14.000Z</time>
      </trkpt>
      <trkpt lat="47.2974" lon="-2.24249">
        <ele>3.2000000476837</ele>
        <time>2019-12-01T10:11:15.000Z</time>
      </trkpt>
      <trkpt lat="47.29732" lon="-2.24253">
        <ele>2.7999999523163</ele>
        <time>2019-12-01T10:11:16.000Z</time>
      </trkpt>
      <trkpt lat="47.29725" lon="-2.24257">
        <ele>2.4000000953674</ele>
        <time>2019-12-01T10:11:17.000Z</time>
      </trkpt>
      <trkpt lat="47.29717" lon="-2.24261">
        <ele>2</ele>
        <time>2019-12-01T10:11:18.000Z</time>
      </trkpt>
      <trkpt lat="47.29695" lon="-2.24273">
        <ele>1.6000000238419</ele>
        <time>2019-12-01T10:11:21.000Z</time>
      </trkpt>
      <trkpt lat="47.29688" lon="-2.24277">
        <ele>1.2000000476837</ele>
        <time>2019-12-01T10:11:22.000Z</time>
      </trkpt>
      <trkpt lat="47.2968" lon="-2.24281">
        <ele>0.80000001192093</ele>
        <time>2019-12-01T10:11:23.000Z</time>
      </trkpt>
      <trkpt lat="47.29672" lon="-2.24286">
        <ele>0.40000000596046</ele>
        <time>2019-12-01T10:11:24.000Z</time>
      </trkpt>
      <trkpt lat="47.29665" lon="-2.2429">
        <ele>9.5</ele>
        <time>2019-12-01T10:11:25.000Z</time>
      </trkpt>
      <trkpt lat="47.29657" lon="-2.24294">
        <ele>8.9</ele>
        <time>2019-12-01T10:11:26.000Z</time>
      </trkpt>
      <trkpt lat="47.29642" lon="-2.24302">
        <ele>-0.60000002384186</ele>
        <time>2019-12-01T10:11:28.000Z</time>
      </trkpt>
      <trkpt lat="47.29634" lon="-2.24306">
        <ele>-1</ele>
        <time>2019-12-01T10:11:29.000Z</time>
      </trkpt>
      <trkpt lat="47.29627" lon="-2.2431">
        <ele>-1.3999999761581</ele>
        <time>2019-12-01T10:11:30.000Z</time>
      </trkpt>
      <trkpt lat="47.29619" lon="-2.24313">
        <ele>-1.7999999523163</ele>
        <time>2019-12-01T10:11:31.000Z</time>
      </trkpt>
      <trkpt lat="47.29611" lon="-2.24315">
        <ele>-2.2000000476837</ele>
        <time>2019-12-01T10:11:32.000Z</time>
      </trkpt>
      <trkpt lat="47.29604" lon="-2.24316">
        <ele>-2.2000000476837</ele>
        <time>2019-12-01T10:11:33.000Z</time>
      </trkpt>
      <trkpt lat="47.29576" lon="-2.24318">
        <ele>-2.2000000476837</ele>
        <time>2019-12-01T10:11:37.000Z</time>
      </trkpt>
      <trkpt lat="47.2957" lon="-2.24316">
        <ele>-2.2000000476837</ele>
        <time>2019-12-01T10:11:38.000Z</time>
      </trkpt>
      <trkpt lat="47.29563" lon="-2.24311">
        <ele>-2.5999999046326</ele>
        <time>2019-12-01T10:11:39.000Z</time>
      </trkpt>
      <trkpt lat="47.29556" lon="-2.24304">
        <ele>-3</ele>
        <time>2019-12-01T10:11:40.000Z</time>
      </trkpt>
      <trkpt lat="47.29551" lon="-2.24297">
        <ele>-3.4000000953674</ele>
        <time>2019-12-01T10:11:41.000Z</time>
      </trkpt>
      <trkpt lat="47.29544" lon="-2.24291">
        <ele>-4</ele>
        <time>2019-12-01T10:11:42.000Z</time>
      </trkpt>
      <trkpt lat="47.29537" lon="-2.24289">
        <ele>-4.4000000953674</ele>
        <time>2019-12-01T10:11:43.000Z</time>
      </trkpt>
      <trkpt lat="47.2953" lon="-2.24289">
        <ele>-4.4000000953674</ele>
        <time>2019-12-01T10:11:44.000Z</time>
      </trkpt>
      <trkpt lat="47.29511" lon="-2.24295">
        <ele>-4.4000000953674</ele>
        <time>2019-12-01T10:11:47.000Z</time>
      </trkpt>
      <trkpt lat="47.29486" lon="-2.24306">
        <ele>-4.4000000953674</ele>
        <time>2019-12-01T10:11:51.000Z</time>
      </trkpt>
      <trkpt lat="47.29461" lon="-2.24315">
        <ele>-4.4000000953674</ele>
        <time>2019-12-01T10:11:55.000Z</time>
      </trkpt>
      <trkpt lat="47.29455" lon="-2.24315">
        <ele>-4.4000000953674</ele>
        <time>2019-12-01T10:11:56.000Z</time>
      </trkpt>
      <trkpt lat="47.29442" lon="-2.24318">
        <ele>-3.7999999523163</ele>
        <time>2019-12-01T10:11:58.000Z</time>
      </trkpt>
      <trkpt lat="47.29435" lon="-2.24321">
        <ele>-3.4000000953674</ele>
        <time>2019-12-01T10:11:59.000Z</time>
      </trkpt>
      <trkpt lat="47.29429" lon="-2.24325">
        <ele>-3</ele>
        <time>2019-12-01T10:12:00.000Z</time>
      </trkpt>
      <trkpt lat="47.29423" lon="-2.24331">
        <ele>-2.4000000953674</ele>
        <time>2019-12-01T10:12:01.000Z</time>
      </trkpt>
      <trkpt lat="47.29417" lon="-2.24337">
        <ele>-2</ele>
        <time>2019-12-01T10:12:02.000Z</time>
      </trkpt>
      <trkpt lat="47.29411" lon="-2.24341">
        <ele>-2</ele>
        <time>2019-12-01T10:12:03.000Z</time>
      </trkpt>
      <trkpt lat="47.29385" lon="-2.24369">
        <ele>-2</ele>
        <time>2019-12-01T10:12:08.000Z</time>
      </trkpt>
      <trkpt lat="47.2938" lon="-2.24375">
        <ele>-1.2000000476837</ele>
        <time>2019-12-01T10:12:09.000Z</time>
      </trkpt>
      <trkpt lat="47.29374" lon="-2.2438">
        <ele>-0.80000001192093</ele>
        <time>2019-12-01T10:12:10.000Z</time>
      </trkpt>
      <trkpt lat="47.29368" lon="-2.24386">
        <ele>-0.20000000298023</ele>
        <time>2019-12-01T10:12:11.000Z</time>
      </trkpt>
      <trkpt lat="47.29363" lon="-2.24392">
        <ele>0.20000000298023</ele>
        <time>2019-12-01T10:12:12.000Z</time>
      </trkpt>
      <trkpt lat="47.29357" lon="-2.24398">
        <ele>0.20000000298023</ele>
        <time>2019-12-01T10:12:13.000Z</time>
      </trkpt>
      <trkpt lat="47.29318" lon="-2.24438">
        <ele>0.20000000298023</ele>
        <time>2019-12-01T10:12:20.000Z</time>
      </trkpt>
      <trkpt lat="47.29313" lon="-2.24442">
        <ele>0.20000000298023</ele>
        <time>2019-12-01T10:12:21.000Z</time>
      </trkpt>
      <trkpt lat="47.29299" lon="-2.24452">
        <ele>0.20000000298023</ele>
        <time>2019-12-01T10:12:24.000Z</time>
      </trkpt>
      <trkpt lat="47.29293" lon="-2.24462">
        <ele>0.20000000298023</ele>
        <time>2019-12-01T10:12:26.000Z</time>
      </trkpt>
      <trkpt lat="47.29292" lon="-2.24479">
        <ele>0.20000000298023</ele>
        <time>2019-12-01T10:12:29.000Z</time>
      </trkpt>
      <trkpt lat="47.29292" lon="-2.24485">
        <ele>0.20000000298023</ele>
        <time>2019-12-01T10:12:30.000Z</time>
      </trkpt>
      <trkpt lat="47.29294" lon="-2.24516">
        <ele>0.20000000298023</ele>
        <time>2019-12-01T10:12:34.000Z</time>
      </trkpt>
      <trkpt lat="47.29295" lon="-2.24558">
        <ele>0.20000000298023</ele>
        <time>2019-12-01T10:12:39.000Z</time>
      </trkpt>
      <trkpt lat="47.29298" lon="-2.24582">
        <ele>0.20000000298023</ele>
        <time>2019-12-01T10:12:42.000Z</time>
      </trkpt>
      <trkpt lat="47.29299" lon="-2.24596">
        <ele>0.20000000298023</ele>
        <time>2019-12-01T10:12:44.000Z</time>
      </trkpt>
      <trkpt lat="47.29299" lon="-2.24615">
        <ele>0.20000000298023</ele>
        <time>2019-12-01T10:12:47.000Z</time>
      </trkpt>
      <trkpt lat="47.29297" lon="-2.24628">
        <ele>0.20000000298023</ele>
        <time>2019-12-01T10:12:49.000Z</time>
      </trkpt>
      <trkpt lat="47.29296" lon="-2.24647">
        <ele>0.20000000298023</ele>
        <time>2019-12-01T10:12:52.000Z</time>
      </trkpt>
      <trkpt lat="47.29296" lon="-2.24656">
        <ele>0.20000000298023</ele>
        <time>2019-12-01T10:12:54.000Z</time>
      </trkpt>
      <trkpt lat="47.29297" lon="-2.24678">
        <ele>0.20000000298023</ele>
        <time>2019-12-01T10:12:59.000Z</time>
      </trkpt>
      <trkpt lat="47.29306" lon="-2.24709">
        <ele>0.60000002384186</ele>
        <time>2019-12-01T10:13:05.000Z</time>
      </trkpt>
      <trkpt lat="47.29307" lon="-2.24715">
        <ele>1</ele>
        <time>2019-12-01T10:13:06.000Z</time>
      </trkpt>
      <trkpt lat="47.29308" lon="-2.24722">
        <ele>1.3999999761581</ele>
        <time>2019-12-01T10:13:07.000Z</time>
      </trkpt>
      <trkpt lat="47.29309" lon="-2.24728">
        <ele>1.7999999523163</ele>
        <time>2019-12-01T10:13:08.000Z</time>
      </trkpt>
      <trkpt lat="47.2931" lon="-2.24734">
        <ele>2.2000000476837</ele>
        <time>2019-12-01T10:13:09.000Z</time>
      </trkpt>
      <trkpt lat="47.29311" lon="-2.24739">
        <ele>2.2000000476837</ele>
        <time>2019-12-01T10:13:10.000Z</time>
      </trkpt>
      <trkpt lat="47.29317" lon="-2.24758">
        <ele>2.2000000476837</ele>
        <time>2019-12-01T10:13:14.000Z</time>
      </trkpt>
      <trkpt lat="47.29324" lon="-2.24773">
        <ele>2.2000000476837</ele>
        <time>2019-12-01T10:13:19.000Z</time>
      </trkpt>
      <trkpt lat="47.29331" lon="-2.24795">
        <ele>2.2000000476837</ele>
        <time>2019-12-01T10:13:24.000Z</time>
      </trkpt>
      <trkpt lat="47.29333" lon="-2.248">
        <ele>2.2000000476837</ele>
        <time>2019-12-01T10:13:25.000Z</time>
      </trkpt>
      <trkpt lat="47.29337" lon="-2.24829">
        <ele>2.2000000476837</ele>
        <time>2019-12-01T10:13:31.000Z</time>
      </trkpt>
      <trkpt lat="47.29337" lon="-2.24857">
        <ele>2.2000000476837</ele>
        <time>2019-12-01T10:13:36.000Z</time>
      </trkpt>
      <trkpt lat="47.29336" lon="-2.24888">
        <ele>2.2000000476837</ele>
        <time>2019-12-01T10:13:41.000Z</time>
      </trkpt>
      <trkpt lat="47.29327" lon="-2.24911">
        <ele>2.2000000476837</ele>
        <time>2019-12-01T10:13:45.000Z</time>
      </trkpt>
      <trkpt lat="47.29323" lon="-2.24913">
        <ele>2.2000000476837</ele>
        <time>2019-12-01T10:13:46.000Z</time>
      </trkpt>
      <trkpt lat="47.29306" lon="-2.24917">
        <ele>2.2000000476837</ele>
        <time>2019-12-01T10:13:50.000Z</time>
      </trkpt>
      <trkpt lat="47.29297" lon="-2.24918">
        <ele>2.2000000476837</ele>
        <time>2019-12-01T10:13:52.000Z</time>
      </trkpt>
      <trkpt lat="47.29293" lon="-2.24919">
        <ele>2.5999999046326</ele>
        <time>2019-12-01T10:13:53.000Z</time>
      </trkpt>
      <trkpt lat="47.29289" lon="-2.2492">
        <ele>3</ele>
        <time>2019-12-01T10:13:54.000Z</time>
      </trkpt>
      <trkpt lat="47.29284" lon="-2.2492">
        <ele>3.4000000953674</ele>
        <time>2019-12-01T10:13:55.000Z</time>
      </trkpt>
      <trkpt lat="47.2928" lon="-2.24921">
        <ele>3.7999999523163</ele>
        <time>2019-12-01T10:13:56.000Z</time>
      </trkpt>
      <trkpt lat="47.29276" lon="-2.24921">
        <ele>4.1999998092651</ele>
        <time>2019-12-01T10:13:57.000Z</time>
      </trkpt>
      <trkpt lat="47.29257" lon="-2.24928">
        <ele>4.1999998092651</ele>
        <time>2019-12-01T10:14:02.000Z</time>
      </trkpt>
      <trkpt lat="47.29256" lon="-2.24932">
        <ele>4.1999998092651</ele>
        <time>2019-12-01T10:14:03.000Z</time>
      </trkpt>
      <trkpt lat="47.29256" lon="-2.2495">
        <ele>4.1999998092651</ele>
        <time>2019-12-01T10:14:06.000Z</time>
      </trkpt>
      <trkpt lat="47.29256" lon="-2.24956">
        <ele>4.1999998092651</ele>
        <time>2019-12-01T10:14:07.000Z</time>
      </trkpt>
      <trkpt lat="47.29257" lon="-2.24963">
        <ele>4.1999998092651</ele>
        <time>2019-12-01T10:14:08.000Z</time>
      </trkpt>
      <trkpt lat="47.29261" lon="-2.24983">
        <ele>4.1999998092651</ele>
        <time>2019-12-01T10:14:11.000Z</time>
      </trkpt>
      <trkpt lat="47.29272" lon="-2.25029">
        <ele>4.1999998092651</ele>
        <time>2019-12-01T10:14:17.000Z</time>
      </trkpt>
      <trkpt lat="47.29288" lon="-2.25077">
        <ele>4.1999998092651</ele>
        <time>2019-12-01T10:14:24.000Z</time>
      </trkpt>
      <trkpt lat="47.29297" lon="-2.25118">
        <ele>4.1999998092651</ele>
        <time>2019-12-01T10:14:29.000Z</time>
      </trkpt>
      <trkpt lat="47.29298" lon="-2.25128">
        <ele>4.1999998092651</ele>
        <time>2019-12-01T10:14:30.000Z</time>
      </trkpt>
      <trkpt lat="47.29302" lon="-2.25149">
        <ele>3.7999999523163</ele>
        <time>2019-12-01T10:14:32.000Z</time>
      </trkpt>
      <trkpt lat="47.29303" lon="-2.25159">
        <ele>3.4000000953674</ele>
        <time>2019-12-01T10:14:33.000Z</time>
      </trkpt>
      <trkpt lat="47.29305" lon="-2.25169">
        <ele>3</ele>
        <time>2019-12-01T10:14:34.000Z</time>
      </trkpt>
      <trkpt lat="47.29306" lon="-2.25179">
        <ele>2.4000000953674</ele>
        <time>2019-12-01T10:14:35.000Z</time>
      </trkpt>
      <trkpt lat="47.29308" lon="-2.25187">
        <ele>2</ele>
        <time>2019-12-01T10:14:36.000Z</time>
      </trkpt>
      <trkpt lat="47.29309" lon="-2.25194">
        <ele>1.2000000476837</ele>
        <time>2019-12-01T10:14:37.000Z</time>
      </trkpt>
      <trkpt lat="47.2931" lon="-2.252">
        <ele>0.80000001192093</ele>
        <time>2019-12-01T10:14:38.000Z</time>
      </trkpt>
      <trkpt lat="47.29313" lon="-2.25201">
        <ele>0.40000000596046</ele>
        <time>2019-12-01T10:14:39.000Z</time>
      </trkpt>
      <trkpt lat="47.29317" lon="-2.25199">
        <ele>10.6</ele>
        <time>2019-12-01T10:14:40.000Z</time>
      </trkpt>
      <trkpt lat="47.29325" lon="-2.25197">
        <ele>10.8</ele>
        <time>2019-12-01T10:14:42.000Z</time>
      </trkpt>
      <trkpt lat="47.29336" lon="-2.25197">
        <ele>11.1</ele>
        <time>2019-12-01T10:14:44.000Z</time>
      </trkpt>
      <trkpt lat="47.29363" lon="-2.252">
        <ele>11.2</ele>
        <time>2019-12-01T10:14:49.000Z</time>
      </trkpt>
      <trkpt lat="47.29399" lon="-2.25209">
        <ele>10.6</ele>
        <time>2019-12-01T10:14:56.000Z</time>
      </trkpt>
      <trkpt lat="47.29421" lon="-2.25209">
        <ele>9.8</ele>
        <time>2019-12-01T10:15:00.000Z</time>
      </trkpt>
      <trkpt lat="47.29426" lon="-2.25207">
        <ele>9.7</ele>
        <time>2019-12-01T10:15:01.000Z</time>
      </trkpt>
      <trkpt lat="47.29436" lon="-2.25205">
        <ele>9.3</ele>
        <time>2019-12-01T10:15:03.000Z</time>
      </trkpt>
      <trkpt lat="47.29446" lon="-2.25203">
        <ele>0.40000000596046</ele>
        <time>2019-12-01T10:15:05.000Z</time>
      </trkpt>
      <trkpt lat="47.29451" lon="-2.25202">
        <ele>0.80000001192093</ele>
        <time>2019-12-01T10:15:06.000Z</time>
      </trkpt>
      <trkpt lat="47.29455" lon="-2.25202">
        <ele>1.2000000476837</ele>
        <time>2019-12-01T10:15:07.000Z</time>
      </trkpt>
      <trkpt lat="47.2946" lon="-2.252">
        <ele>1.6000000238419</ele>
        <time>2019-12-01T10:15:08.000Z</time>
      </trkpt>
      <trkpt lat="47.29465" lon="-2.25199">
        <ele>2</ele>
        <time>2019-12-01T10:15:09.000Z</time>
      </trkpt>
      <trkpt lat="47.2948" lon="-2.25194">
        <ele>2</ele>
        <time>2019-12-01T10:15:12.000Z</time>
      </trkpt>
      <trkpt lat="47.29505" lon="-2.25188">
        <ele>2</ele>
        <time>2019-12-01T10:15:17.000Z</time>
      </trkpt>
      <trkpt lat="47.29521" lon="-2.25183">
        <ele>2.4000000953674</ele>
        <time>2019-12-01T10:15:21.000Z</time>
      </trkpt>
      <trkpt lat="47.29525" lon="-2.25181">
        <ele>2.7999999523163</ele>
        <time>2019-12-01T10:15:22.000Z</time>
      </trkpt>
      <trkpt lat="47.29529" lon="-2.2518">
        <ele>3.2000000476837</ele>
        <time>2019-12-01T10:15:23.000Z</time>
      </trkpt>
      <trkpt lat="47.29533" lon="-2.25179">
        <ele>3.5999999046326</ele>
        <time>2019-12-01T10:15:24.000Z</time>
      </trkpt>
      <trkpt lat="47.29536" lon="-2.25179">
        <ele>4</ele>
        <time>2019-12-01T10:15:25.000Z</time>
      </trkpt>
      <trkpt lat="47.29542" lon="-2.25178">
        <ele>4</ele>
        <time>2019-12-01T10:15:27.000Z</time>
      </trkpt>
      <trkpt lat="47.29546" lon="-2.25182">
        <ele>4</ele>
        <time>2019-12-01T10:15:30.000Z</time>
      </trkpt>
      <trkpt lat="47.29546" lon="-2.25183">
        <ele>4</ele>
        <time>2019-12-01T10:15:31.000Z</time>
      </trkpt>
      <trkpt lat="47.29546" lon="-2.25183">
        <ele>4</ele>
        <time>2019-12-01T10:15:32.000Z</time>
      </trkpt>
      <trkpt lat="47.29546" lon="-2.25187">
        <ele>4</ele>
        <time>2019-12-01T10:15:46.000Z</time>
      </trkpt>
      <trkpt lat="47.29546" lon="-2.25191">
        <ele>4</ele>
        <time>2019-12-01T10:15:48.000Z</time>
      </trkpt>
      <trkpt lat="47.29547" lon="-2.25197">
        <ele>4</ele>
        <time>2019-12-01T10:15:52.000Z</time>
      </trkpt>
      <trkpt lat="47.29547" lon="-2.25199">
        <ele>4</ele>
        <time>2019-12-01T10:15:53.000Z</time>
      </trkpt>
      <trkpt lat="47.29545" lon="-2.25218">
        <ele>4</ele>
        <time>2019-12-01T10:15:57.000Z</time>
      </trkpt>
      <trkpt lat="47.29541" lon="-2.25249">
        <ele>4</ele>
        <time>2019-12-01T10:16:02.000Z</time>
      </trkpt>
      <trkpt lat="47.29541" lon="-2.25256">
        <ele>4</ele>
        <time>2019-12-01T10:16:03.000Z</time>
      </trkpt>
      <trkpt lat="47.29542" lon="-2.25277">
        <ele>4</ele>
        <time>2019-12-01T10:16:06.000Z</time>
      </trkpt>
      <trkpt lat="47.29547" lon="-2.25299">
        <ele>4</ele>
        <time>2019-12-01T10:16:09.000Z</time>
      </trkpt>
      <trkpt lat="47.29564" lon="-2.2534">
        <ele>4</ele>
        <time>2019-12-01T10:16:15.000Z</time>
      </trkpt>
      <trkpt lat="47.2957" lon="-2.25354">
        <ele>4.5999999046326</ele>
        <time>2019-12-01T10:16:17.000Z</time>
      </trkpt>
      <trkpt lat="47.29573" lon="-2.25361">
        <ele>5</ele>
        <time>2019-12-01T10:16:18.000Z</time>
      </trkpt>
      <trkpt lat="47.29575" lon="-2.25368">
        <ele>5.4000000953674</ele>
        <time>2019-12-01T10:16:19.000Z</time>
      </trkpt>
      <trkpt lat="47.29577" lon="-2.25376">
        <ele>5.8000001907349</ele>
        <time>2019-12-01T10:16:20.000Z</time>
      </trkpt>
      <trkpt lat="47.29579" lon="-2.25384">
        <ele>6.1999998092651</ele>
        <time>2019-12-01T10:16:21.000Z</time>
      </trkpt>
      <trkpt lat="47.29581" lon="-2.25392">
        <ele>6.1999998092651</ele>
        <time>2019-12-01T10:16:22.000Z</time>
      </trkpt>
      <trkpt lat="47.29586" lon="-2.25432">
        <ele>6.1999998092651</ele>
        <time>2019-12-01T10:16:27.000Z</time>
      </trkpt>
      <trkpt lat="47.29586" lon="-2.2544">
        <ele>6.1999998092651</ele>
        <time>2019-12-01T10:16:28.000Z</time>
      </trkpt>
      <trkpt lat="47.29588" lon="-2.25474">
        <ele>6.8000001907349</ele>
        <time>2019-12-01T10:16:32.000Z</time>
      </trkpt>
      <trkpt lat="47.29588" lon="-2.25482">
        <ele>7.1999998092651</ele>
        <time>2019-12-01T10:16:33.000Z</time>
      </trkpt>
      <trkpt lat="47.29587" lon="-2.25491">
        <ele>7.5999999046326</ele>
        <time>2019-12-01T10:16:34.000Z</time>
      </trkpt>
      <trkpt lat="47.29586" lon="-2.25499">
        <ele>8</ele>
        <time>2019-12-01T10:16:35.000Z</time>
      </trkpt>
      <trkpt lat="47.29584" lon="-2.25507">
        <ele>8.3999996185303</ele>
        <time>2019-12-01T10:16:36.000Z</time>
      </trkpt>
      <trkpt lat="47.29575" lon="-2.2553">
        <ele>8.3999996185303</ele>
        <time>2019-12-01T10:16:39.000Z</time>
      </trkpt>
      <trkpt lat="47.29557" lon="-2.2555">
        <ele>8.3999996185303</ele>
        <time>2019-12-01T10:16:43.000Z</time>
      </trkpt>
      <trkpt lat="47.29547" lon="-2.25556">
        <ele>8.3999996185303</ele>
        <time>2019-12-01T10:16:45.000Z</time>
      </trkpt>
      <trkpt lat="47.29523" lon="-2.25571">
        <ele>8.3999996185303</ele>
        <time>2019-12-01T10:16:50.000Z</time>
      </trkpt>
      <trkpt lat="47.29518" lon="-2.25574">
        <ele>8.8000001907349</ele>
        <time>2019-12-01T10:16:51.000Z</time>
      </trkpt>
      <trkpt lat="47.29513" lon="-2.25578">
        <ele>9.1999998092651</ele>
        <time>2019-12-01T10:16:52.000Z</time>
      </trkpt>
      <trkpt lat="47.29508" lon="-2.25581">
        <ele>9.6000003814697</ele>
        <time>2019-12-01T10:16:53.000Z</time>
      </trkpt>
      <trkpt lat="47.29503" lon="-2.25584">
        <ele>10</ele>
        <time>2019-12-01T10:16:54.000Z</time>
      </trkpt>
      <trkpt lat="47.29498" lon="-2.25588">
        <ele>10.39999961853</ele>
        <time>2019-12-01T10:16:55.000Z</time>
      </trkpt>
      <trkpt lat="47.29488" lon="-2.25593">
        <ele>10.39999961853</ele>
        <time>2019-12-01T10:16:57.000Z</time>
      </trkpt>
      <trkpt lat="47.29447" lon="-2.25612">
        <ele>10.39999961853</ele>
        <time>2019-12-01T10:17:05.000Z</time>
      </trkpt>
      <trkpt lat="47.29441" lon="-2.25614">
        <ele>11.39999961853</ele>
        <time>2019-12-01T10:17:06.000Z</time>
      </trkpt>
      <trkpt lat="47.29436" lon="-2.25616">
        <ele>11.800000190735</ele>
        <time>2019-12-01T10:17:07.000Z</time>
      </trkpt>
      <trkpt lat="47.2943" lon="-2.25619">
        <ele>12.199999809265</ele>
        <time>2019-12-01T10:17:08.000Z</time>
      </trkpt>
      <trkpt lat="47.29425" lon="-2.25621">
        <ele>12.60000038147</ele>
        <time>2019-12-01T10:17:09.000Z</time>
      </trkpt>
      <trkpt lat="47.29403" lon="-2.2563">
        <ele>12.60000038147</ele>
        <time>2019-12-01T10:17:13.000Z</time>
      </trkpt>
      <trkpt lat="47.29398" lon="-2.25634">
        <ele>12.60000038147</ele>
        <time>2019-12-01T10:17:14.000Z</time>
      </trkpt>
      <trkpt lat="47.29394" lon="-2.25638">
        <ele>12.60000038147</ele>
        <time>2019-12-01T10:17:15.000Z</time>
      </trkpt>
      <trkpt lat="47.29387" lon="-2.25652">
        <ele>12.60000038147</ele>
        <time>2019-12-01T10:17:17.000Z</time>
      </trkpt>
      <trkpt lat="47.29383" lon="-2.25679">
        <ele>12.60000038147</ele>
        <time>2019-12-01T10:17:20.000Z</time>
      </trkpt>
      <trkpt lat="47.29374" lon="-2.2572">
        <ele>12.60000038147</ele>
        <time>2019-12-01T10:17:25.000Z</time>
      </trkpt>
      <trkpt lat="47.29371" lon="-2.25728">
        <ele>12.60000038147</ele>
        <time>2019-12-01T10:17:26.000Z</time>
      </trkpt>
      <trkpt lat="47.29361" lon="-2.25748">
        <ele>12.60000038147</ele>
        <time>2019-12-01T10:17:29.000Z</time>
      </trkpt>
      <trkpt lat="47.29352" lon="-2.25758">
        <ele>12.60000038147</ele>
        <time>2019-12-01T10:17:31.000Z</time>
      </trkpt>
      <trkpt lat="47.29345" lon="-2.25767">
        <ele>12.60000038147</ele>
        <time>2019-12-01T10:17:33.000Z</time>
      </trkpt>
      <trkpt lat="47.29337" lon="-2.25774">
        <ele>12.60000038147</ele>
        <time>2019-12-01T10:17:35.000Z</time>
      </trkpt>
      <trkpt lat="47.29333" lon="-2.25777">
        <ele>12.60000038147</ele>
        <time>2019-12-01T10:17:36.000Z</time>
      </trkpt>
      <trkpt lat="47.29324" lon="-2.25787">
        <ele>12.60000038147</ele>
        <time>2019-12-01T10:17:40.000Z</time>
      </trkpt>
      <trkpt lat="47.29325" lon="-2.25792">
        <ele>12.60000038147</ele>
        <time>2019-12-01T10:17:44.000Z</time>
      </trkpt>
      <trkpt lat="47.29327" lon="-2.25794">
        <ele>12.60000038147</ele>
        <time>2019-12-01T10:17:45.000Z</time>
      </trkpt>
      <trkpt lat="47.29334" lon="-2.25798">
        <ele>12.199999809265</ele>
        <time>2019-12-01T10:17:48.000Z</time>
      </trkpt>
      <trkpt lat="47.29337" lon="-2.25797">
        <ele>11.60000038147</ele>
        <time>2019-12-01T10:17:49.000Z</time>
      </trkpt>
      <trkpt lat="47.29339" lon="-2.25797">
        <ele>11.199999809265</ele>
        <time>2019-12-01T10:17:50.000Z</time>
      </trkpt>
      <trkpt lat="47.29341" lon="-2.25796">
        <ele>10.800000190735</ele>
        <time>2019-12-01T10:17:51.000Z</time>
      </trkpt>
      <trkpt lat="47.29342" lon="-2.25795">
        <ele>10.39999961853</ele>
        <time>2019-12-01T10:17:52.000Z</time>
      </trkpt>
      <trkpt lat="47.29348" lon="-2.25794">
        <ele>10.39999961853</ele>
        <time>2019-12-01T10:17:55.000Z</time>
      </trkpt>
      <trkpt lat="47.29351" lon="-2.25791">
        <ele>10.39999961853</ele>
        <time>2019-12-01T10:17:57.000Z</time>
      </trkpt>
      <trkpt lat="47.29352" lon="-2.25782">
        <ele>10.39999961853</ele>
        <time>2019-12-01T10:18:01.000Z</time>
      </trkpt>
      <trkpt lat="47.29355" lon="-2.25775">
        <ele>10.39999961853</ele>
        <time>2019-12-01T10:18:04.000Z</time>
      </trkpt>
      <trkpt lat="47.29355" lon="-2.25772">
        <ele>10.39999961853</ele>
        <time>2019-12-01T10:18:05.000Z</time>
      </trkpt>
      <trkpt lat="47.29358" lon="-2.25768">
        <ele>10.39999961853</ele>
        <time>2019-12-01T10:18:09.000Z</time>
      </trkpt>
      <trkpt lat="47.29367" lon="-2.25766">
        <ele>10.39999961853</ele>
        <time>2019-12-01T10:18:14.000Z</time>
      </trkpt>
      <trkpt lat="47.29376" lon="-2.2576">
        <ele>10.39999961853</ele>
        <time>2019-12-01T10:18:18.000Z</time>
      </trkpt>
      <trkpt lat="47.29385" lon="-2.25753">
        <ele>10.39999961853</ele>
        <time>2019-12-01T10:18:22.000Z</time>
      </trkpt>
      <trkpt lat="47.29388" lon="-2.25755">
        <ele>10</ele>
        <time>2019-12-01T10:18:23.000Z</time>
      </trkpt>
      <trkpt lat="47.29391" lon="-2.25757">
        <ele>9.3999996185303</ele>
        <time>2019-12-01T10:18:24.000Z</time>
      </trkpt>
      <trkpt lat="47.29393" lon="-2.25758">
        <ele>9</ele>
        <time>2019-12-01T10:18:25.000Z</time>
      </trkpt>
      <trkpt lat="47.29396" lon="-2.25759">
        <ele>8.6000003814697</ele>
        <time>2019-12-01T10:18:26.000Z</time>
      </trkpt>
      <trkpt lat="47.29399" lon="-2.25758">
        <ele>8.1999998092651</ele>
        <time>2019-12-01T10:18:27.000Z</time>
      </trkpt>
      <trkpt lat="47.29408" lon="-2.25762">
        <ele>8.1999998092651</ele>
        <time>2019-12-01T10:18:30.000Z</time>
      </trkpt>
      <trkpt lat="47.29422" lon="-2.25773">
        <ele>7.8000001907349</ele>
        <time>2019-12-01T10:18:35.000Z</time>
      </trkpt>
      <trkpt lat="47.29425" lon="-2.25775">
        <ele>7.4000000953674</ele>
        <time>2019-12-01T10:18:36.000Z</time>
      </trkpt>
      <trkpt lat="47.29425" lon="-2.25779">
        <ele>7</ele>
        <time>2019-12-01T10:18:37.000Z</time>
      </trkpt>
      <trkpt lat="47.29425" lon="-2.2578">
        <ele>6.5999999046326</ele>
        <time>2019-12-01T10:18:38.000Z</time>
      </trkpt>
      <trkpt lat="47.29427" lon="-2.25782">
        <ele>6.1999998092651</ele>
        <time>2019-12-01T10:18:39.000Z</time>
      </trkpt>
      <trkpt lat="47.29431" lon="-2.25798">
        <ele>6.1999998092651</ele>
        <time>2019-12-01T10:18:43.000Z</time>
      </trkpt>
      <trkpt lat="47.29432" lon="-2.25804">
        <ele>6.1999998092651</ele>
        <time>2019-12-01T10:18:44.000Z</time>
      </trkpt>
      <trkpt lat="47.29433" lon="-2.25808">
        <ele>5.8000001907349</ele>
        <time>2019-12-01T10:18:45.000Z</time>
      </trkpt>
      <trkpt lat="47.29433" lon="-2.25812">
        <ele>5.4000000953674</ele>
        <time>2019-12-01T10:18:46.000Z</time>
      </trkpt>
      <trkpt lat="47.29433" lon="-2.25817">
        <ele>5</ele>
        <time>2019-12-01T10:18:47.000Z</time>
      </trkpt>
      <trkpt lat="47.29432" lon="-2.25822">
        <ele>4.5999999046326</ele>
        <time>2019-12-01T10:18:48.000Z</time>
      </trkpt>
      <trkpt lat="47.2943" lon="-2.25826">
        <ele>4.1999998092651</ele>
        <time>2019-12-01T10:18:49.000Z</time>
      </trkpt>
      <trkpt lat="47.29428" lon="-2.25835">
        <ele>4.1999998092651</ele>
        <time>2019-12-01T10:18:51.000Z</time>
      </trkpt>
      <trkpt lat="47.29428" lon="-2.25857">
        <ele>4.1999998092651</ele>
        <time>2019-12-01T10:18:55.000Z</time>
      </trkpt>
      <trkpt lat="47.29433" lon="-2.25865">
        <ele>4.1999998092651</ele>
        <time>2019-12-01T10:18:57.000Z</time>
      </trkpt>
      <trkpt lat="47.29439" lon="-2.25885">
        <ele>4.1999998092651</ele>
        <time>2019-12-01T10:19:01.000Z</time>
      </trkpt>
      <trkpt lat="47.29445" lon="-2.25911">
        <ele>4.1999998092651</ele>
        <time>2019-12-01T10:19:06.000Z</time>
      </trkpt>
      <trkpt lat="47.29445" lon="-2.25918">
        <ele>4.1999998092651</ele>
        <time>2019-12-01T10:19:08.000Z</time>
      </trkpt>
      <trkpt lat="47.29442" lon="-2.25929">
        <ele>4.1999998092651</ele>
        <time>2019-12-01T10:19:11.000Z</time>
      </trkpt>
      <trkpt lat="47.29434" lon="-2.25941">
        <ele>4.1999998092651</ele>
        <time>2019-12-01T10:19:14.000Z</time>
      </trkpt>
      <trkpt lat="47.2943" lon="-2.25943">
        <ele>4.1999998092651</ele>
        <time>2019-12-01T10:19:15.000Z</time>
      </trkpt>
      <trkpt lat="47.29412" lon="-2.25953">
        <ele>4.1999998092651</ele>
        <time>2019-12-01T10:19:20.000Z</time>
      </trkpt>
      <trkpt lat="47.29401" lon="-2.25952">
        <ele>4.5999999046326</ele>
        <time>2019-12-01T10:19:24.000Z</time>
      </trkpt>
      <trkpt lat="47.29399" lon="-2.25952">
        <ele>5</ele>
        <time>2019-12-01T10:19:25.000Z</time>
      </trkpt>
      <trkpt lat="47.29398" lon="-2.25953">
        <ele>5.4000000953674</ele>
        <time>2019-12-01T10:19:26.000Z</time>
      </trkpt>
      <trkpt lat="47.29395" lon="-2.25956">
        <ele>5.8000001907349</ele>
        <time>2019-12-01T10:19:27.000Z</time>
      </trkpt>
      <trkpt lat="47.29393" lon="-2.25958">
        <ele>6.1999998092651</ele>
        <time>2019-12-01T10:19:28.000Z</time>
      </trkpt>
      <trkpt lat="47.29392" lon="-2.25972">
        <ele>6.1999998092651</ele>
        <time>2019-12-01T10:19:32.000Z</time>
      </trkpt>
      <trkpt lat="47.29393" lon="-2.26">
        <ele>6.1999998092651</ele>
        <time>2019-12-01T10:19:37.000Z</time>
      </trkpt>
      <trkpt lat="47.29392" lon="-2.26016">
        <ele>5.8000001907349</ele>
        <time>2019-12-01T10:19:40.000Z</time>
      </trkpt>
      <trkpt lat="47.29393" lon="-2.26021">
        <ele>5.4000000953674</ele>
        <time>2019-12-01T10:19:41.000Z</time>
      </trkpt>
      <trkpt lat="47.29395" lon="-2.26025">
        <ele>5</ele>
        <time>2019-12-01T10:19:42.000Z</time>
      </trkpt>
      <trkpt lat="47.29398" lon="-2.2603">
        <ele>4.5999999046326</ele>
        <time>2019-12-01T10:19:43.000Z</time>
      </trkpt>
      <trkpt lat="47.294" lon="-2.26034">
        <ele>4.1999998092651</ele>
        <time>2019-12-01T10:19:44.000Z</time>
      </trkpt>
      <trkpt lat="47.29405" lon="-2.26042">
        <ele>4.1999998092651</ele>
        <time>2019-12-01T10:19:46.000Z</time>
      </trkpt>
      <trkpt lat="47.29418" lon="-2.26063">
        <ele>4.1999998092651</ele>
        <time>2019-12-01T10:19:52.000Z</time>
      </trkpt>
      <trkpt lat="47.29426" lon="-2.26082">
        <ele>4.1999998092651</ele>
        <time>2019-12-01T10:19:57.000Z</time>
      </trkpt>
      <trkpt lat="47.29427" lon="-2.2611">
        <ele>4.1999998092651</ele>
        <time>2019-12-01T10:20:02.000Z</time>
      </trkpt>
      <trkpt lat="47.2942" lon="-2.26135">
        <ele>4.1999998092651</ele>
        <time>2019-12-01T10:20:07.000Z</time>
      </trkpt>
      <trkpt lat="47.29417" lon="-2.26154">
        <ele>4.5999999046326</ele>
        <time>2019-12-01T10:20:11.000Z</time>
      </trkpt>
      <trkpt lat="47.29414" lon="-2.26158">
        <ele>5</ele>
        <time>2019-12-01T10:20:12.000Z</time>
      </trkpt>
      <trkpt lat="47.29411" lon="-2.2616">
        <ele>5.4000000953674</ele>
        <time>2019-12-01T10:20:13.000Z</time>
      </trkpt>
      <trkpt lat="47.29408" lon="-2.2616">
        <ele>6</ele>
        <time>2019-12-01T10:20:14.000Z</time>
      </trkpt>
      <trkpt lat="47.29406" lon="-2.26161">
        <ele>6.4000000953674</ele>
        <time>2019-12-01T10:20:15.000Z</time>
      </trkpt>
      <trkpt lat="47.29403" lon="-2.26161">
        <ele>6.4000000953674</ele>
        <time>2019-12-01T10:20:16.000Z</time>
      </trkpt>
      <trkpt lat="47.29395" lon="-2.26162">
        <ele>6.8000001907349</ele>
        <time>2019-12-01T10:20:18.000Z</time>
      </trkpt>
      <trkpt lat="47.29392" lon="-2.26162">
        <ele>7.1999998092651</ele>
        <time>2019-12-01T10:20:19.000Z</time>
      </trkpt>
      <trkpt lat="47.29389" lon="-2.26162">
        <ele>7.5999999046326</ele>
        <time>2019-12-01T10:20:20.000Z</time>
      </trkpt>
      <trkpt lat="47.29386" lon="-2.26162">
        <ele>8.6000003814697</ele>
        <time>2019-12-01T10:20:21.000Z</time>
      </trkpt>
      <trkpt lat="47.29364" lon="-2.26167">
        <ele>8.6000003814697</ele>
        <time>2019-12-01T10:20:27.000Z</time>
      </trkpt>
      <trkpt lat="47.2935" lon="-2.26168">
        <ele>9</ele>
        <time>2019-12-01T10:20:31.000Z</time>
      </trkpt>
      <trkpt lat="47.29347" lon="-2.26168">
        <ele>9.3999996185303</ele>
        <time>2019-12-01T10:20:32.000Z</time>
      </trkpt>
      <trkpt lat="47.29345" lon="-2.26169">
        <ele>9.8000001907349</ele>
        <time>2019-12-01T10:20:33.000Z</time>
      </trkpt>
      <trkpt lat="47.29342" lon="-2.26169">
        <ele>10.199999809265</ele>
        <time>2019-12-01T10:20:34.000Z</time>
      </trkpt>
      <trkpt lat="47.2934" lon="-2.26171">
        <ele>10.60000038147</ele>
        <time>2019-12-01T10:20:35.000Z</time>
      </trkpt>
      <trkpt lat="47.29334" lon="-2.26173">
        <ele>10.60000038147</ele>
        <time>2019-12-01T10:20:37.000Z</time>
      </trkpt>
      <trkpt lat="47.29321" lon="-2.26171">
        <ele>10.60000038147</ele>
        <time>2019-12-01T10:20:42.000Z</time>
      </trkpt>
      <trkpt lat="47.2932" lon="-2.26171">
        <ele>10.60000038147</ele>
        <time>2019-12-01T10:20:45.000Z</time>
      </trkpt>
      <trkpt lat="47.29312" lon="-2.26184">
        <ele>12.60000038147</ele>
        <time>2019-12-01T10:21:00.000Z</time>
      </trkpt>
      <trkpt lat="47.29301" lon="-2.26181">
        <ele>12.60000038147</ele>
        <time>2019-12-01T10:21:04.000Z</time>
      </trkpt>
      <trkpt lat="47.29285" lon="-2.26181">
        <ele>12.60000038147</ele>
        <time>2019-12-01T10:21:08.000Z</time>
      </trkpt>
      <trkpt lat="47.29278" lon="-2.26181">
        <ele>12.60000038147</ele>
        <time>2019-12-01T10:21:10.000Z</time>
      </trkpt>
      <trkpt lat="47.29274" lon="-2.26179">
        <ele>12.60000038147</ele>
        <time>2019-12-01T10:21:12.000Z</time>
      </trkpt>
      <trkpt lat="47.29267" lon="-2.26178">
        <ele>12.60000038147</ele>
        <time>2019-12-01T10:21:16.000Z</time>
      </trkpt>
      <trkpt lat="47.29263" lon="-2.26176">
        <ele>12.60000038147</ele>
        <time>2019-12-01T10:21:18.000Z</time>
      </trkpt>
      <trkpt lat="47.29261" lon="-2.26176">
        <ele>12.60000038147</ele>
        <time>2019-12-01T10:21:21.000Z</time>
      </trkpt>
      <trkpt lat="47.29261" lon="-2.26176">
        <ele>12.60000038147</ele>
        <time>2019-12-01T10:21:22.000Z</time>
      </trkpt>
      <trkpt lat="47.29261" lon="-2.26182">
        <ele>12.60000038147</ele>
        <time>2019-12-01T10:21:46.000Z</time>
      </trkpt>
      <trkpt lat="47.29262" lon="-2.26184">
        <ele>12.60000038147</ele>
        <time>2019-12-01T10:21:48.000Z</time>
      </trkpt>
      <trkpt lat="47.2926" lon="-2.26196">
        <ele>12.60000038147</ele>
        <time>2019-12-01T10:21:55.000Z</time>
      </trkpt>
      <trkpt lat="47.29255" lon="-2.26203">
        <ele>12.60000038147</ele>
        <time>2019-12-01T10:21:58.000Z</time>
      </trkpt>
      <trkpt lat="47.29247" lon="-2.26206">
        <ele>12.60000038147</ele>
        <time>2019-12-01T10:22:02.000Z</time>
      </trkpt>
      <trkpt lat="47.29244" lon="-2.26207">
        <ele>12.60000038147</ele>
        <time>2019-12-01T10:22:03.000Z</time>
      </trkpt>
      <trkpt lat="47.29224" lon="-2.26211">
        <ele>12.60000038147</ele>
        <time>2019-12-01T10:22:08.000Z</time>
      </trkpt>
      <trkpt lat="47.29198" lon="-2.26215">
        <ele>12.60000038147</ele>
        <time>2019-12-01T10:22:13.000Z</time>
      </trkpt>
      <trkpt lat="47.29164" lon="-2.26229">
        <ele>12.60000038147</ele>
        <time>2019-12-01T10:22:21.000Z</time>
      </trkpt>
      <trkpt lat="47.29142" lon="-2.26237">
        <ele>12.60000038147</ele>
        <time>2019-12-01T10:22:27.000Z</time>
      </trkpt>
      <trkpt lat="47.29135" lon="-2.26242">
        <ele>12.60000038147</ele>
        <time>2019-12-01T10:22:30.000Z</time>
      </trkpt>
      <trkpt lat="47.29135" lon="-2.26251">
        <ele>12.60000038147</ele>
        <time>2019-12-01T10:22:32.000Z</time>
      </trkpt>
      <trkpt lat="47.29137" lon="-2.26268">
        <ele>12.60000038147</ele>
        <time>2019-12-01T10:22:35.000Z</time>
      </trkpt>
      <trkpt lat="47.2914" lon="-2.26282">
        <ele>12.60000038147</ele>
        <time>2019-12-01T10:22:37.000Z</time>
      </trkpt>
      <trkpt lat="47.29148" lon="-2.26327">
        <ele>12.60000038147</ele>
        <time>2019-12-01T10:22:43.000Z</time>
      </trkpt>
      <trkpt lat="47.29157" lon="-2.26386">
        <ele>12.60000038147</ele>
        <time>2019-12-01T10:22:50.000Z</time>
      </trkpt>
      <trkpt lat="47.2916" lon="-2.26415">
        <ele>12.199999809265</ele>
        <time>2019-12-01T10:22:53.000Z</time>
      </trkpt>
      <trkpt lat="47.29161" lon="-2.26425">
        <ele>11.800000190735</ele>
        <time>2019-12-01T10:22:54.000Z</time>
      </trkpt>
      <trkpt lat="47.29162" lon="-2.26435">
        <ele>11.39999961853</ele>
        <time>2019-12-01T10:22:55.000Z</time>
      </trkpt>
      <trkpt lat="47.29163" lon="-2.26445">
        <ele>11</ele>
        <time>2019-12-01T10:22:56.000Z</time>
      </trkpt>
      <trkpt lat="47.29163" lon="-2.26456">
        <ele>10.60000038147</ele>
        <time>2019-12-01T10:22:57.000Z</time>
      </trkpt>
      <trkpt lat="47.29163" lon="-2.26467">
        <ele>10.199999809265</ele>
        <time>2019-12-01T10:22:58.000Z</time>
      </trkpt>
      <trkpt lat="47.29163" lon="-2.26478">
        <ele>9.6000003814697</ele>
        <time>2019-12-01T10:22:59.000Z</time>
      </trkpt>
      <trkpt lat="47.29163" lon="-2.26489">
        <ele>9.1999998092651</ele>
        <time>2019-12-01T10:23:00.000Z</time>
      </trkpt>
      <trkpt lat="47.29162" lon="-2.265">
        <ele>8.8000001907349</ele>
        <time>2019-12-01T10:23:01.000Z</time>
      </trkpt>
      <trkpt lat="47.29161" lon="-2.26511">
        <ele>8.3999996185303</ele>
        <time>2019-12-01T10:23:02.000Z</time>
      </trkpt>
      <trkpt lat="47.2916" lon="-2.26522">
        <ele>8</ele>
        <time>2019-12-01T10:23:03.000Z</time>
      </trkpt>
      <trkpt lat="47.29159" lon="-2.26534">
        <ele>7.5999999046326</ele>
        <time>2019-12-01T10:23:04.000Z</time>
      </trkpt>
      <trkpt lat="47.29158" lon="-2.26546">
        <ele>7</ele>
        <time>2019-12-01T10:23:05.000Z</time>
      </trkpt>
      <trkpt lat="47.29159" lon="-2.26557">
        <ele>6.5999999046326</ele>
        <time>2019-12-01T10:23:06.000Z</time>
      </trkpt>
      <trkpt lat="47.29161" lon="-2.26568">
        <ele>6.1999998092651</ele>
        <time>2019-12-01T10:23:07.000Z</time>
      </trkpt>
      <trkpt lat="47.29163" lon="-2.26579">
        <ele>6.1999998092651</ele>
        <time>2019-12-01T10:23:08.000Z</time>
      </trkpt>
      <trkpt lat="47.29168" lon="-2.26601">
        <ele>6.1999998092651</ele>
        <time>2019-12-01T10:23:10.000Z</time>
      </trkpt>
      <trkpt lat="47.29172" lon="-2.26612">
        <ele>5.8000001907349</ele>
        <time>2019-12-01T10:23:11.000Z</time>
      </trkpt>
      <trkpt lat="47.29176" lon="-2.26623">
        <ele>5.4000000953674</ele>
        <time>2019-12-01T10:23:12.000Z</time>
      </trkpt>
      <trkpt lat="47.2918" lon="-2.26634">
        <ele>5</ele>
        <time>2019-12-01T10:23:13.000Z</time>
      </trkpt>
      <trkpt lat="47.29184" lon="-2.26645">
        <ele>4.5999999046326</ele>
        <time>2019-12-01T10:23:14.000Z</time>
      </trkpt>
      <trkpt lat="47.29187" lon="-2.26656">
        <ele>4.1999998092651</ele>
        <time>2019-12-01T10:23:15.000Z</time>
      </trkpt>
      <trkpt lat="47.292" lon="-2.26702">
        <ele>4.1999998092651</ele>
        <time>2019-12-01T10:23:19.000Z</time>
      </trkpt>
      <trkpt lat="47.29217" lon="-2.2678">
        <ele>4.1999998092651</ele>
        <time>2019-12-01T10:23:26.000Z</time>
      </trkpt>
      <trkpt lat="47.29231" lon="-2.26867">
        <ele>4.1999998092651</ele>
        <time>2019-12-01T10:23:34.000Z</time>
      </trkpt>
      <trkpt lat="47.29236" lon="-2.26896">
        <ele>4.1999998092651</ele>
        <time>2019-12-01T10:23:38.000Z</time>
      </trkpt>
      <trkpt lat="47.2924" lon="-2.26925">
        <ele>4.1999998092651</ele>
        <time>2019-12-01T10:23:43.000Z</time>
      </trkpt>
      <trkpt lat="47.29237" lon="-2.26928">
        <ele>4.1999998092651</ele>
        <time>2019-12-01T10:23:44.000Z</time>
      </trkpt>
      <trkpt lat="47.29234" lon="-2.26935">
        <ele>4.1999998092651</ele>
        <time>2019-12-01T10:23:46.000Z</time>
      </trkpt>
      <trkpt lat="47.29228" lon="-2.26943">
        <ele>4.1999998092651</ele>
        <time>2019-12-01T10:23:50.000Z</time>
      </trkpt>
      <trkpt lat="47.29225" lon="-2.26961">
        <ele>4.1999998092651</ele>
        <time>2019-12-01T10:23:54.000Z</time>
      </trkpt>
      <trkpt lat="47.29224" lon="-2.26966">
        <ele>4.1999998092651</ele>
        <time>2019-12-01T10:23:55.000Z</time>
      </trkpt>
      <trkpt lat="47.29225" lon="-2.26994">
        <ele>4.1999998092651</ele>
        <time>2019-12-01T10:24:00.000Z</time>
      </trkpt>
      <trkpt lat="47.29229" lon="-2.27036">
        <ele>4.1999998092651</ele>
        <time>2019-12-01T10:24:06.000Z</time>
      </trkpt>
      <trkpt lat="47.29231" lon="-2.27064">
        <ele>4.1999998092651</ele>
        <time>2019-12-01T10:24:10.000Z</time>
      </trkpt>
      <trkpt lat="47.2923" lon="-2.27076">
        <ele>4.1999998092651</ele>
        <time>2019-12-01T10:24:12.000Z</time>
      </trkpt>
      <trkpt lat="47.29233" lon="-2.27095">
        <ele>4.1999998092651</ele>
        <time>2019-12-01T10:24:16.000Z</time>
      </trkpt>
      <trkpt lat="47.29231" lon="-2.27116">
        <ele>4.1999998092651</ele>
        <time>2019-12-01T10:24:20.000Z</time>
      </trkpt>
      <trkpt lat="47.29229" lon="-2.2712">
        <ele>4.1999998092651</ele>
        <time>2019-12-01T10:24:21.000Z</time>
      </trkpt>
      <trkpt lat="47.29224" lon="-2.27149">
        <ele>4.1999998092651</ele>
        <time>2019-12-01T10:24:26.000Z</time>
      </trkpt>
      <trkpt lat="47.29221" lon="-2.27154">
        <ele>4.1999998092651</ele>
        <time>2019-12-01T10:24:27.000Z</time>
      </trkpt>
      <trkpt lat="47.29216" lon="-2.27161">
        <ele>4.1999998092651</ele>
        <time>2019-12-01T10:24:29.000Z</time>
      </trkpt>
      <trkpt lat="47.29209" lon="-2.27169">
        <ele>4.1999998092651</ele>
        <time>2019-12-01T10:24:33.000Z</time>
      </trkpt>
      <trkpt lat="47.29198" lon="-2.27171">
        <ele>4.1999998092651</ele>
        <time>2019-12-01T10:24:36.000Z</time>
      </trkpt>
      <trkpt lat="47.29192" lon="-2.27176">
        <ele>4.1999998092651</ele>
        <time>2019-12-01T10:24:37.000Z</time>
      </trkpt>
      <trkpt lat="47.29178" lon="-2.27185">
        <ele>4.1999998092651</ele>
        <time>2019-12-01T10:24:42.000Z</time>
      </trkpt>
      <trkpt lat="47.29176" lon="-2.27186">
        <ele>4.1999998092651</ele>
        <time>2019-12-01T10:24:47.000Z</time>
      </trkpt>
      <trkpt lat="47.29176" lon="-2.27186">
        <ele>4.1999998092651</ele>
        <time>2019-12-01T10:24:48.000Z</time>
      </trkpt>
      <trkpt lat="47.29162" lon="-2.27189">
        <ele>4.1999998092651</ele>
        <time>2019-12-01T10:25:10.000Z</time>
      </trkpt>
      <trkpt lat="47.29159" lon="-2.27191">
        <ele>4.1999998092651</ele>
        <time>2019-12-01T10:25:11.000Z</time>
      </trkpt>
      <trkpt lat="47.29158" lon="-2.27192">
        <ele>4.1999998092651</ele>
        <time>2019-12-01T10:25:12.000Z</time>
      </trkpt>
      <trkpt lat="47.29147" lon="-2.27192">
        <ele>4.1999998092651</ele>
        <time>2019-12-01T10:25:18.000Z</time>
      </trkpt>
      <trkpt lat="47.29141" lon="-2.27194">
        <ele>4.1999998092651</ele>
        <time>2019-12-01T10:25:22.000Z</time>
      </trkpt>
      <trkpt lat="47.29134" lon="-2.27207">
        <ele>4.1999998092651</ele>
        <time>2019-12-01T10:25:26.000Z</time>
      </trkpt>
      <trkpt lat="47.2913" lon="-2.27221">
        <ele>4.1999998092651</ele>
        <time>2019-12-01T10:25:31.000Z</time>
      </trkpt>
      <trkpt lat="47.29121" lon="-2.27246">
        <ele>4.1999998092651</ele>
        <time>2019-12-01T10:25:38.000Z</time>
      </trkpt>
      <trkpt lat="47.29118" lon="-2.27262">
        <ele>3.7999999523163</ele>
        <time>2019-12-01T10:25:44.000Z</time>
      </trkpt>
      <trkpt lat="47.29117" lon="-2.27264">
        <ele>3.4000000953674</ele>
        <time>2019-12-01T10:25:45.000Z</time>
      </trkpt>
      <trkpt lat="47.29117" lon="-2.27266">
        <ele>3</ele>
        <time>2019-12-01T10:25:46.000Z</time>
      </trkpt>
      <trkpt lat="47.29116" lon="-2.27269">
        <ele>2.5999999046326</ele>
        <time>2019-12-01T10:25:47.000Z</time>
      </trkpt>
      <trkpt lat="47.29115" lon="-2.27273">
        <ele>2.2000000476837</ele>
        <time>2019-12-01T10:25:48.000Z</time>
      </trkpt>
      <trkpt lat="47.29112" lon="-2.27286">
        <ele>2.2000000476837</ele>
        <time>2019-12-01T10:25:52.000Z</time>
      </trkpt>
      <trkpt lat="47.29108" lon="-2.27304">
        <ele>2.2000000476837</ele>
        <time>2019-12-01T10:25:58.000Z</time>
      </trkpt>
      <trkpt lat="47.29104" lon="-2.27327">
        <ele>2.2000000476837</ele>
        <time>2019-12-01T10:26:05.000Z</time>
      </trkpt>
      <trkpt lat="47.29099" lon="-2.27347">
        <ele>2.2000000476837</ele>
        <time>2019-12-01T10:26:10.000Z</time>
      </trkpt>
      <trkpt lat="47.29102" lon="-2.27374">
        <ele>2.2000000476837</ele>
        <time>2019-12-01T10:26:15.000Z</time>
      </trkpt>
      <trkpt lat="47.2911" lon="-2.27419">
        <ele>2.2000000476837</ele>
        <time>2019-12-01T10:26:21.000Z</time>
      </trkpt>
      <trkpt lat="47.29108" lon="-2.27447">
        <ele>2.2000000476837</ele>
        <time>2019-12-01T10:26:25.000Z</time>
      </trkpt>
      <trkpt lat="47.29108" lon="-2.2746">
        <ele>2.2000000476837</ele>
        <time>2019-12-01T10:26:27.000Z</time>
      </trkpt>
      <trkpt lat="47.29105" lon="-2.27502">
        <ele>2.2000000476837</ele>
        <time>2019-12-01T10:26:34.000Z</time>
      </trkpt>
      <trkpt lat="47.29104" lon="-2.27507">
        <ele>2.5999999046326</ele>
        <time>2019-12-01T10:26:35.000Z</time>
      </trkpt>
      <trkpt lat="47.29103" lon="-2.27512">
        <ele>3</ele>
        <time>2019-12-01T10:26:36.000Z</time>
      </trkpt>
      <trkpt lat="47.29103" lon="-2.27516">
        <ele>3.4000000953674</ele>
        <time>2019-12-01T10:26:37.000Z</time>
      </trkpt>
      <trkpt lat="47.29103" lon="-2.2752">
        <ele>4</ele>
        <time>2019-12-01T10:26:38.000Z</time>
      </trkpt>
      <trkpt lat="47.29104" lon="-2.27523">
        <ele>4.4000000953674</ele>
        <time>2019-12-01T10:26:39.000Z</time>
      </trkpt>
      <trkpt lat="47.29103" lon="-2.27529">
        <ele>4.4000000953674</ele>
        <time>2019-12-01T10:26:42.000Z</time>
      </trkpt>
      <trkpt lat="47.29102" lon="-2.2753">
        <ele>4.4000000953674</ele>
        <time>2019-12-01T10:26:43.000Z</time>
      </trkpt>
      <trkpt lat="47.29092" lon="-2.27532">
        <ele>4.4000000953674</ele>
        <time>2019-12-01T10:26:47.000Z</time>
      </trkpt>
      <trkpt lat="47.29088" lon="-2.27532">
        <ele>4.4000000953674</ele>
        <time>2019-12-01T10:26:48.000Z</time>
      </trkpt>
      <trkpt lat="47.29068" lon="-2.27529">
        <ele>4.4000000953674</ele>
        <time>2019-12-01T10:26:52.000Z</time>
      </trkpt>
      <trkpt lat="47.29037" lon="-2.27525">
        <ele>4.4000000953674</ele>
        <time>2019-12-01T10:26:57.000Z</time>
      </trkpt>
      <trkpt lat="47.28989" lon="-2.27525">
        <ele>4.4000000953674</ele>
        <time>2019-12-01T10:27:05.000Z</time>
      </trkpt>
      <trkpt lat="47.28951" lon="-2.27525">
        <ele>4.4000000953674</ele>
        <time>2019-12-01T10:27:11.000Z</time>
      </trkpt>
      <trkpt lat="47.28931" lon="-2.27525">
        <ele>4.4000000953674</ele>
        <time>2019-12-01T10:27:14.000Z</time>
      </trkpt>
      <trkpt lat="47.28919" lon="-2.27526">
        <ele>4.4000000953674</ele>
        <time>2019-12-01T10:27:16.000Z</time>
      </trkpt>
      <trkpt lat="47.2888" lon="-2.27534">
        <ele>4.4000000953674</ele>
        <time>2019-12-01T10:27:22.000Z</time>
      </trkpt>
      <trkpt lat="47.28836" lon="-2.27539">
        <ele>4.4000000953674</ele>
        <time>2019-12-01T10:27:29.000Z</time>
      </trkpt>
      <trkpt lat="47.28814" lon="-2.27543">
        <ele>4.4000000953674</ele>
        <time>2019-12-01T10:27:33.000Z</time>
      </trkpt>
      <trkpt lat="47.28805" lon="-2.2755">
        <ele>4.4000000953674</ele>
        <time>2019-12-01T10:27:35.000Z</time>
      </trkpt>
      <trkpt lat="47.28777" lon="-2.27583">
        <ele>4.4000000953674</ele>
        <time>2019-12-01T10:27:42.000Z</time>
      </trkpt>
      <trkpt lat="47.28761" lon="-2.276">
        <ele>4.4000000953674</ele>
        <time>2019-12-01T10:27:46.000Z</time>
      </trkpt>
      <trkpt lat="47.28757" lon="-2.27605">
        <ele>4.4000000953674</ele>
        <time>2019-12-01T10:27:47.000Z</time>
      </trkpt>
      <trkpt lat="47.28727" lon="-2.27648">
        <ele>4.4000000953674</ele>
        <time>2019-12-01T10:27:55.000Z</time>
      </trkpt>
      <trkpt lat="47.28702" lon="-2.27689">
        <ele>4.4000000953674</ele>
        <time>2019-12-01T10:28:02.000Z</time>
      </trkpt>
      <trkpt lat="47.28674" lon="-2.27736">
        <ele>4.4000000953674</ele>
        <time>2019-12-01T10:28:10.000Z</time>
      </trkpt>
      <trkpt lat="47.28655" lon="-2.27776">
        <ele>4.4000000953674</ele>
        <time>2019-12-01T10:28:16.000Z</time>
      </trkpt>
      <trkpt lat="47.28643" lon="-2.2783">
        <ele>4.4000000953674</ele>
        <time>2019-12-01T10:28:23.000Z</time>
      </trkpt>
      <trkpt lat="47.28641" lon="-2.27838">
        <ele>4.8000001907349</ele>
        <time>2019-12-01T10:28:24.000Z</time>
      </trkpt>
      <trkpt lat="47.2864" lon="-2.27846">
        <ele>5.1999998092651</ele>
        <time>2019-12-01T10:28:25.000Z</time>
      </trkpt>
      <trkpt lat="47.28639" lon="-2.27854">
        <ele>5.5999999046326</ele>
        <time>2019-12-01T10:28:26.000Z</time>
      </trkpt>
      <trkpt lat="47.28638" lon="-2.27861">
        <ele>6</ele>
        <time>2019-12-01T10:28:27.000Z</time>
      </trkpt>
      <trkpt lat="47.28637" lon="-2.27869">
        <ele>6.4000000953674</ele>
        <time>2019-12-01T10:28:28.000Z</time>
      </trkpt>
      <trkpt lat="47.28634" lon="-2.27884">
        <ele>6.4000000953674</ele>
        <time>2019-12-01T10:28:30.000Z</time>
      </trkpt>
      <trkpt lat="47.2863" lon="-2.27914">
        <ele>6.4000000953674</ele>
        <time>2019-12-01T10:28:35.000Z</time>
      </trkpt>
      <trkpt lat="47.28629" lon="-2.27933">
        <ele>6.4000000953674</ele>
        <time>2019-12-01T10:28:40.000Z</time>
      </trkpt>
      <trkpt lat="47.28628" lon="-2.27942">
        <ele>6.4000000953674</ele>
        <time>2019-12-01T10:28:44.000Z</time>
      </trkpt>
      <trkpt lat="47.28625" lon="-2.27945">
        <ele>6.4000000953674</ele>
        <time>2019-12-01T10:28:46.000Z</time>
      </trkpt>
      <trkpt lat="47.28621" lon="-2.27955">
        <ele>6.4000000953674</ele>
        <time>2019-12-01T10:28:49.000Z</time>
      </trkpt>
      <trkpt lat="47.28619" lon="-2.2796">
        <ele>6.4000000953674</ele>
        <time>2019-12-01T10:28:50.000Z</time>
      </trkpt>
      <trkpt lat="47.28613" lon="-2.27984">
        <ele>6.4000000953674</ele>
        <time>2019-12-01T10:28:54.000Z</time>
      </trkpt>
      <trkpt lat="47.28606" lon="-2.28011">
        <ele>6.4000000953674</ele>
        <time>2019-12-01T10:28:59.000Z</time>
      </trkpt>
      <trkpt lat="47.286" lon="-2.28022">
        <ele>6.8000001907349</ele>
        <time>2019-12-01T10:29:02.000Z</time>
      </trkpt>
      <trkpt lat="47.28598" lon="-2.28025">
        <ele>7.1999998092651</ele>
        <time>2019-12-01T10:29:03.000Z</time>
      </trkpt>
      <trkpt lat="47.28595" lon="-2.28028">
        <ele>7.5999999046326</ele>
        <time>2019-12-01T10:29:04.000Z</time>
      </trkpt>
      <trkpt lat="47.28593" lon="-2.2803">
        <ele>8</ele>
        <time>2019-12-01T10:29:05.000Z</time>
      </trkpt>
      <trkpt lat="47.28591" lon="-2.28033">
        <ele>8.3999996185303</ele>
        <time>2019-12-01T10:29:06.000Z</time>
      </trkpt>
      <trkpt lat="47.28582" lon="-2.28042">
        <ele>8.3999996185303</ele>
        <time>2019-12-01T10:29:09.000Z</time>
      </trkpt>
      <trkpt lat="47.28579" lon="-2.28043">
        <ele>8.3999996185303</ele>
        <time>2019-12-01T10:29:10.000Z</time>
      </trkpt>
      <trkpt lat="47.28572" lon="-2.28047">
        <ele>8.3999996185303</ele>
        <time>2019-12-01T10:29:13.000Z</time>
      </trkpt>
      <trkpt lat="47.28568" lon="-2.28049">
        <ele>8.3999996185303</ele>
        <time>2019-12-01T10:29:15.000Z</time>
      </trkpt>
      <trkpt lat="47.28562" lon="-2.28049">
        <ele>8.3999996185303</ele>
        <time>2019-12-01T10:29:17.000Z</time>
      </trkpt>
      <trkpt lat="47.2855" lon="-2.28049">
        <ele>8.3999996185303</ele>
        <time>2019-12-01T10:29:21.000Z</time>
      </trkpt>
      <trkpt lat="47.28546" lon="-2.2805">
        <ele>8.8000001907349</ele>
        <time>2019-12-01T10:29:23.000Z</time>
      </trkpt>
      <trkpt lat="47.28543" lon="-2.2805">
        <ele>9.1999998092651</ele>
        <time>2019-12-01T10:29:24.000Z</time>
      </trkpt>
      <trkpt lat="47.28541" lon="-2.2805">
        <ele>10</ele>
        <time>2019-12-01T10:29:25.000Z</time>
      </trkpt>
      <trkpt lat="47.28539" lon="-2.28049">
        <ele>10.39999961853</ele>
        <time>2019-12-01T10:29:26.000Z</time>
      </trkpt>
      <trkpt lat="47.28531" lon="-2.28049">
        <ele>11</ele>
        <time>2019-12-01T10:29:29.000Z</time>
      </trkpt>
      <trkpt lat="47.28529" lon="-2.28048">
        <ele>11.39999961853</ele>
        <time>2019-12-01T10:29:30.000Z</time>
      </trkpt>
      <trkpt lat="47.28526" lon="-2.28048">
        <ele>11.800000190735</ele>
        <time>2019-12-01T10:29:31.000Z</time>
      </trkpt>
      <trkpt lat="47.28524" lon="-2.28048">
        <ele>12.199999809265</ele>
        <time>2019-12-01T10:29:32.000Z</time>
      </trkpt>
      <trkpt lat="47.28521" lon="-2.28048">
        <ele>12.60000038147</ele>
        <time>2019-12-01T10:29:33.000Z</time>
      </trkpt>
      <trkpt lat="47.28518" lon="-2.28047">
        <ele>12.60000038147</ele>
        <time>2019-12-01T10:29:34.000Z</time>
      </trkpt>
      <trkpt lat="47.28509" lon="-2.28037">
        <ele>13.199999809265</ele>
        <time>2019-12-01T10:29:38.000Z</time>
      </trkpt>
      <trkpt lat="47.28507" lon="-2.28035">
        <ele>13.60000038147</ele>
        <time>2019-12-01T10:29:39.000Z</time>
      </trkpt>
      <trkpt lat="47.28505" lon="-2.28033">
        <ele>14</ele>
        <time>2019-12-01T10:29:40.000Z</time>
      </trkpt>
      <trkpt lat="47.28502" lon="-2.28031">
        <ele>14.39999961853</ele>
        <time>2019-12-01T10:29:41.000Z</time>
      </trkpt>
      <trkpt lat="47.285" lon="-2.2803">
        <ele>14.800000190735</ele>
        <time>2019-12-01T10:29:42.000Z</time>
      </trkpt>
      <trkpt lat="47.28498" lon="-2.28031">
        <ele>14.800000190735</ele>
        <time>2019-12-01T10:29:43.000Z</time>
      </trkpt>
      <trkpt lat="47.28495" lon="-2.28032">
        <ele>14.800000190735</ele>
        <time>2019-12-01T10:29:44.000Z</time>
      </trkpt>
      <trkpt lat="47.28484" lon="-2.28041">
        <ele>14.800000190735</ele>
        <time>2019-12-01T10:29:49.000Z</time>
      </trkpt>
      <trkpt lat="47.28483" lon="-2.28044">
        <ele>14.800000190735</ele>
        <time>2019-12-01T10:29:50.000Z</time>
      </trkpt>
      <trkpt lat="47.28482" lon="-2.28055">
        <ele>14.800000190735</ele>
        <time>2019-12-01T10:29:54.000Z</time>
      </trkpt>
      <trkpt lat="47.28489" lon="-2.2807">
        <ele>14.800000190735</ele>
        <time>2019-12-01T10:29:58.000Z</time>
      </trkpt>
      <trkpt lat="47.2849" lon="-2.28074">
        <ele>14.800000190735</ele>
        <time>2019-12-01T10:29:59.000Z</time>
      </trkpt>
      <trkpt lat="47.28484" lon="-2.28083">
        <ele>14.800000190735</ele>
        <time>2019-12-01T10:30:02.000Z</time>
      </trkpt>
      <trkpt lat="47.28468" lon="-2.28094">
        <ele>14.800000190735</ele>
        <time>2019-12-01T10:30:06.000Z</time>
      </trkpt>
      <trkpt lat="47.28465" lon="-2.28094">
        <ele>14.39999961853</ele>
        <time>2019-12-01T10:30:07.000Z</time>
      </trkpt>
      <trkpt lat="47.28462" lon="-2.28092">
        <ele>14</ele>
        <time>2019-12-01T10:30:08.000Z</time>
      </trkpt>
      <trkpt lat="47.2846" lon="-2.28089">
        <ele>13.60000038147</ele>
        <time>2019-12-01T10:30:09.000Z</time>
      </trkpt>
      <trkpt lat="47.28458" lon="-2.28088">
        <ele>13.199999809265</ele>
        <time>2019-12-01T10:30:10.000Z</time>
      </trkpt>
      <trkpt lat="47.28457" lon="-2.28086">
        <ele>12.800000190735</ele>
        <time>2019-12-01T10:30:11.000Z</time>
      </trkpt>
      <trkpt lat="47.2845" lon="-2.28086">
        <ele>12.800000190735</ele>
        <time>2019-12-01T10:30:14.000Z</time>
      </trkpt>
      <trkpt lat="47.28441" lon="-2.28083">
        <ele>12.800000190735</ele>
        <time>2019-12-01T10:30:18.000Z</time>
      </trkpt>
      <trkpt lat="47.28438" lon="-2.28085">
        <ele>12.800000190735</ele>
        <time>2019-12-01T10:30:19.000Z</time>
      </trkpt>
      <trkpt lat="47.28433" lon="-2.28086">
        <ele>12.800000190735</ele>
        <time>2019-12-01T10:30:21.000Z</time>
      </trkpt>
      <trkpt lat="47.28429" lon="-2.28084">
        <ele>12.800000190735</ele>
        <time>2019-12-01T10:30:23.000Z</time>
      </trkpt>
      <trkpt lat="47.28427" lon="-2.28083">
        <ele>12.800000190735</ele>
        <time>2019-12-01T10:30:24.000Z</time>
      </trkpt>
      <trkpt lat="47.28422" lon="-2.28085">
        <ele>12.800000190735</ele>
        <time>2019-12-01T10:30:27.000Z</time>
      </trkpt>
      <trkpt lat="47.28413" lon="-2.28083">
        <ele>12.800000190735</ele>
        <time>2019-12-01T10:30:31.000Z</time>
      </trkpt>
      <trkpt lat="47.284" lon="-2.2808">
        <ele>12.800000190735</ele>
        <time>2019-12-01T10:30:35.000Z</time>
      </trkpt>
      <trkpt lat="47.28396" lon="-2.28079">
        <ele>12.800000190735</ele>
        <time>2019-12-01T10:30:36.000Z</time>
      </trkpt>
      <trkpt lat="47.28383" lon="-2.28078">
        <ele>12.800000190735</ele>
        <time>2019-12-01T10:30:41.000Z</time>
      </trkpt>
      <trkpt lat="47.28373" lon="-2.28073">
        <ele>12.800000190735</ele>
        <time>2019-12-01T10:30:47.000Z</time>
      </trkpt>
      <trkpt lat="47.28373" lon="-2.28071">
        <ele>12.800000190735</ele>
        <time>2019-12-01T10:30:48.000Z</time>
      </trkpt>
      <trkpt lat="47.28373" lon="-2.28067">
        <ele>12.800000190735</ele>
        <time>2019-12-01T10:30:51.000Z</time>
      </trkpt>
      <trkpt lat="47.2837" lon="-2.28057">
        <ele>12.800000190735</ele>
        <time>2019-12-01T10:31:38.000Z</time>
      </trkpt>
      <trkpt lat="47.28366" lon="-2.28065">
        <ele>12.800000190735</ele>
        <time>2019-12-01T10:31:42.000Z</time>
      </trkpt>
      <trkpt lat="47.28366" lon="-2.28067">
        <ele>12.800000190735</ele>
        <time>2019-12-01T10:31:43.000Z</time>
      </trkpt>
      <trkpt lat="47.28364" lon="-2.28078">
        <ele>12.800000190735</ele>
        <time>2019-12-01T10:31:47.000Z</time>
      </trkpt>
      <trkpt lat="47.28361" lon="-2.28084">
        <ele>12.800000190735</ele>
        <time>2019-12-01T10:31:50.000Z</time>
      </trkpt>
      <trkpt lat="47.28362" lon="-2.28086">
        <ele>12.800000190735</ele>
        <time>2019-12-01T10:31:51.000Z</time>
      </trkpt>
      <trkpt lat="47.28358" lon="-2.2809">
        <ele>12.800000190735</ele>
        <time>2019-12-01T10:31:56.000Z</time>
      </trkpt>
      <trkpt lat="47.28357" lon="-2.28089">
        <ele>12.800000190735</ele>
        <time>2019-12-01T10:31:57.000Z</time>
      </trkpt>
      <trkpt lat="47.28345" lon="-2.28082">
        <ele>12.800000190735</ele>
        <time>2019-12-01T10:32:04.000Z</time>
      </trkpt>
      <trkpt lat="47.28331" lon="-2.28101">
        <ele>12.800000190735</ele>
        <time>2019-12-01T10:32:08.000Z</time>
      </trkpt>
      <trkpt lat="47.2833" lon="-2.28127">
        <ele>12.800000190735</ele>
        <time>2019-12-01T10:32:13.000Z</time>
      </trkpt>
      <trkpt lat="47.28329" lon="-2.28167">
        <ele>12.800000190735</ele>
        <time>2019-12-01T10:32:20.000Z</time>
      </trkpt>
      <trkpt lat="47.28329" lon="-2.28173">
        <ele>13.199999809265</ele>
        <time>2019-12-01T10:32:21.000Z</time>
      </trkpt>
      <trkpt lat="47.28328" lon="-2.28179">
        <ele>13.60000038147</ele>
        <time>2019-12-01T10:32:22.000Z</time>
      </trkpt>
      <trkpt lat="47.28327" lon="-2.28184">
        <ele>14</ele>
        <time>2019-12-01T10:32:23.000Z</time>
      </trkpt>
      <trkpt lat="47.28327" lon="-2.2819">
        <ele>14.39999961853</ele>
        <time>2019-12-01T10:32:24.000Z</time>
      </trkpt>
      <trkpt lat="47.28327" lon="-2.28196">
        <ele>14.800000190735</ele>
        <time>2019-12-01T10:32:25.000Z</time>
      </trkpt>
      <trkpt lat="47.28326" lon="-2.28207">
        <ele>14.800000190735</ele>
        <time>2019-12-01T10:32:27.000Z</time>
      </trkpt>
      <trkpt lat="47.28326" lon="-2.28217">
        <ele>15.39999961853</ele>
        <time>2019-12-01T10:32:29.000Z</time>
      </trkpt>
      <trkpt lat="47.28325" lon="-2.28222">
        <ele>15.800000190735</ele>
        <time>2019-12-01T10:32:30.000Z</time>
      </trkpt>
      <trkpt lat="47.28325" lon="-2.28227">
        <ele>16.200000762939</ele>
        <time>2019-12-01T10:32:31.000Z</time>
      </trkpt>
      <trkpt lat="47.28325" lon="-2.28232">
        <ele>16.60000038147</ele>
        <time>2019-12-01T10:32:32.000Z</time>
      </trkpt>
      <trkpt lat="47.28325" lon="-2.28238">
        <ele>17</ele>
        <time>2019-12-01T10:32:33.000Z</time>
      </trkpt>
      <trkpt lat="47.28325" lon="-2.28269">
        <ele>17</ele>
        <time>2019-12-01T10:32:39.000Z</time>
      </trkpt>
      <trkpt lat="47.28325" lon="-2.28285">
        <ele>17.39999961853</ele>
        <time>2019-12-01T10:32:42.000Z</time>
      </trkpt>
      <trkpt lat="47.28325" lon="-2.28289">
        <ele>17.799999237061</ele>
        <time>2019-12-01T10:32:43.000Z</time>
      </trkpt>
      <trkpt lat="47.28325" lon="-2.28294">
        <ele>18.60000038147</ele>
        <time>2019-12-01T10:32:44.000Z</time>
      </trkpt>
      <trkpt lat="47.28324" lon="-2.28298">
        <ele>19</ele>
        <time>2019-12-01T10:32:45.000Z</time>
      </trkpt>
      <trkpt lat="47.28324" lon="-2.28307">
        <ele>19</ele>
        <time>2019-12-01T10:32:47.000Z</time>
      </trkpt>
      <trkpt lat="47.28325" lon="-2.28341">
        <ele>19</ele>
        <time>2019-12-01T10:32:54.000Z</time>
      </trkpt>
      <trkpt lat="47.28324" lon="-2.28351">
        <ele>19.39999961853</ele>
        <time>2019-12-01T10:32:56.000Z</time>
      </trkpt>
      <trkpt lat="47.28323" lon="-2.28357">
        <ele>19.799999237061</ele>
        <time>2019-12-01T10:32:57.000Z</time>
      </trkpt>
      <trkpt lat="47.28323" lon="-2.28362">
        <ele>20.200000762939</ele>
        <time>2019-12-01T10:32:58.000Z</time>
      </trkpt>
      <trkpt lat="47.28322" lon="-2.28368">
        <ele>20.60000038147</ele>
        <time>2019-12-01T10:32:59.000Z</time>
      </trkpt>
      <trkpt lat="47.28322" lon="-2.28374">
        <ele>21</ele>
        <time>2019-12-01T10:33:00.000Z</time>
      </trkpt>
      <trkpt lat="47.28321" lon="-2.2838">
        <ele>21</ele>
        <time>2019-12-01T10:33:01.000Z</time>
      </trkpt>
      <trkpt lat="47.28319" lon="-2.28394">
        <ele>21</ele>
        <time>2019-12-01T10:33:03.000Z</time>
      </trkpt>
      <trkpt lat="47.28312" lon="-2.28422">
        <ele>21</ele>
        <time>2019-12-01T10:33:07.000Z</time>
      </trkpt>
      <trkpt lat="47.28301" lon="-2.28467">
        <ele>21</ele>
        <time>2019-12-01T10:33:13.000Z</time>
      </trkpt>
      <trkpt lat="47.28289" lon="-2.28541">
        <ele>21</ele>
        <time>2019-12-01T10:33:22.000Z</time>
      </trkpt>
      <trkpt lat="47.28282" lon="-2.28584">
        <ele>21</ele>
        <time>2019-12-01T10:33:27.000Z</time>
      </trkpt>
      <trkpt lat="47.28271" lon="-2.28639">
        <ele>21</ele>
        <time>2019-12-01T10:33:34.000Z</time>
      </trkpt>
      <trkpt lat="47.28258" lon="-2.28702">
        <ele>21</ele>
        <time>2019-12-01T10:33:42.000Z</time>
      </trkpt>
      <trkpt lat="47.28248" lon="-2.28759">
        <ele>21</ele>
        <time>2019-12-01T10:33:49.000Z</time>
      </trkpt>
      <trkpt lat="47.28238" lon="-2.2882">
        <ele>21</ele>
        <time>2019-12-01T10:33:57.000Z</time>
      </trkpt>
      <trkpt lat="47.2823" lon="-2.28864">
        <ele>21</ele>
        <time>2019-12-01T10:34:04.000Z</time>
      </trkpt>
      <trkpt lat="47.28228" lon="-2.28873">
        <ele>21</ele>
        <time>2019-12-01T10:34:07.000Z</time>
      </trkpt>
      <trkpt lat="47.28228" lon="-2.28873">
        <ele>21</ele>
        <time>2019-12-01T10:34:08.000Z</time>
      </trkpt>
      <trkpt lat="47.28226" lon="-2.28874">
        <ele>21</ele>
        <time>2019-12-01T10:34:50.000Z</time>
      </trkpt>
      <trkpt lat="47.28223" lon="-2.28874">
        <ele>21</ele>
        <time>2019-12-01T10:34:52.000Z</time>
      </trkpt>
      <trkpt lat="47.28219" lon="-2.28873">
        <ele>21</ele>
        <time>2019-12-01T10:34:54.000Z</time>
      </trkpt>
      <trkpt lat="47.28213" lon="-2.28872">
        <ele>21</ele>
        <time>2019-12-01T10:34:56.000Z</time>
      </trkpt>
      <trkpt lat="47.2821" lon="-2.28871">
        <ele>20.60000038147</ele>
        <time>2019-12-01T10:34:57.000Z</time>
      </trkpt>
      <trkpt lat="47.28206" lon="-2.28869">
        <ele>20.200000762939</ele>
        <time>2019-12-01T10:34:58.000Z</time>
      </trkpt>
      <trkpt lat="47.28203" lon="-2.28868">
        <ele>19.799999237061</ele>
        <time>2019-12-01T10:34:59.000Z</time>
      </trkpt>
      <trkpt lat="47.282" lon="-2.28866">
        <ele>19.39999961853</ele>
        <time>2019-12-01T10:35:00.000Z</time>
      </trkpt>
      <trkpt lat="47.28197" lon="-2.28863">
        <ele>19</ele>
        <time>2019-12-01T10:35:01.000Z</time>
      </trkpt>
      <trkpt lat="47.28194" lon="-2.28861">
        <ele>19</ele>
        <time>2019-12-01T10:35:02.000Z</time>
      </trkpt>
      <trkpt lat="47.28177" lon="-2.28844">
        <ele>19</ele>
        <time>2019-12-01T10:35:07.000Z</time>
      </trkpt>
      <trkpt lat="47.28141" lon="-2.28814">
        <ele>19</ele>
        <time>2019-12-01T10:35:15.000Z</time>
      </trkpt>
      <trkpt lat="47.2812" lon="-2.28797">
        <ele>18.60000038147</ele>
        <time>2019-12-01T10:35:19.000Z</time>
      </trkpt>
      <trkpt lat="47.28114" lon="-2.28794">
        <ele>18.200000762939</ele>
        <time>2019-12-01T10:35:20.000Z</time>
      </trkpt>
      <trkpt lat="47.28108" lon="-2.28791">
        <ele>17.799999237061</ele>
        <time>2019-12-01T10:35:21.000Z</time>
      </trkpt>
      <trkpt lat="47.28102" lon="-2.28788">
        <ele>17.39999961853</ele>
        <time>2019-12-01T10:35:22.000Z</time>
      </trkpt>
      <trkpt lat="47.28097" lon="-2.28784">
        <ele>17</ele>
        <time>2019-12-01T10:35:23.000Z</time>
      </trkpt>
      <trkpt lat="47.28055" lon="-2.28763">
        <ele>17</ele>
        <time>2019-12-01T10:35:30.000Z</time>
      </trkpt>
      <trkpt lat="47.2803" lon="-2.28756">
        <ele>16.39999961853</ele>
        <time>2019-12-01T10:35:34.000Z</time>
      </trkpt>
      <trkpt lat="47.28024" lon="-2.28755">
        <ele>16</ele>
        <time>2019-12-01T10:35:35.000Z</time>
      </trkpt>
      <trkpt lat="47.28017" lon="-2.28754">
        <ele>15.60000038147</ele>
        <time>2019-12-01T10:35:36.000Z</time>
      </trkpt>
      <trkpt lat="47.28011" lon="-2.28753">
        <ele>14.800000190735</ele>
        <time>2019-12-01T10:35:37.000Z</time>
      </trkpt>
      <trkpt lat="47.27973" lon="-2.28748">
        <ele>14.800000190735</ele>
        <time>2019-12-01T10:35:43.000Z</time>
      </trkpt>
      <trkpt lat="47.27941" lon="-2.28752">
        <ele>14.800000190735</ele>
        <time>2019-12-01T10:35:48.000Z</time>
      </trkpt>
      <trkpt lat="47.27936" lon="-2.28755">
        <ele>14.800000190735</ele>
        <time>2019-12-01T10:35:49.000Z</time>
      </trkpt>
      <trkpt lat="47.27897" lon="-2.28769">
        <ele>14.800000190735</ele>
        <time>2019-12-01T10:35:56.000Z</time>
      </trkpt>
      <trkpt lat="47.27888" lon="-2.28772">
        <ele>14.800000190735</ele>
        <time>2019-12-01T10:35:58.000Z</time>
      </trkpt>
      <trkpt lat="47.27881" lon="-2.2878">
        <ele>14.800000190735</ele>
        <time>2019-12-01T10:36:00.000Z</time>
      </trkpt>
      <trkpt lat="47.27877" lon="-2.28792">
        <ele>14.800000190735</ele>
        <time>2019-12-01T10:36:02.000Z</time>
      </trkpt>
      <trkpt lat="47.2787" lon="-2.28812">
        <ele>14.800000190735</ele>
        <time>2019-12-01T10:36:05.000Z</time>
      </trkpt>
      <trkpt lat="47.27867" lon="-2.28816">
        <ele>14.800000190735</ele>
        <time>2019-12-01T10:36:06.000Z</time>
      </trkpt>
      <trkpt lat="47.27856" lon="-2.28812">
        <ele>14.800000190735</ele>
        <time>2019-12-01T10:36:09.000Z</time>
      </trkpt>
      <trkpt lat="47.27847" lon="-2.28806">
        <ele>14.800000190735</ele>
        <time>2019-12-01T10:36:11.000Z</time>
      </trkpt>
      <trkpt lat="47.27829" lon="-2.28796">
        <ele>14.800000190735</ele>
        <time>2019-12-01T10:36:15.000Z</time>
      </trkpt>
      <trkpt lat="47.2781" lon="-2.28796">
        <ele>14.800000190735</ele>
        <time>2019-12-01T10:36:19.000Z</time>
      </trkpt>
      <trkpt lat="47.27805" lon="-2.28796">
        <ele>14.800000190735</ele>
        <time>2019-12-01T10:36:20.000Z</time>
      </trkpt>
      <trkpt lat="47.27773" lon="-2.28801">
        <ele>14.800000190735</ele>
        <time>2019-12-01T10:36:26.000Z</time>
      </trkpt>
      <trkpt lat="47.27736" lon="-2.28814">
        <ele>14.800000190735</ele>
        <time>2019-12-01T10:36:32.000Z</time>
      </trkpt>
      <trkpt lat="47.27694" lon="-2.2883">
        <ele>14.800000190735</ele>
        <time>2019-12-01T10:36:39.000Z</time>
      </trkpt>
      <trkpt lat="47.27665" lon="-2.2884">
        <ele>14.800000190735</ele>
        <time>2019-12-01T10:36:44.000Z</time>
      </trkpt>
      <trkpt lat="47.27646" lon="-2.28847">
        <ele>14.800000190735</ele>
        <time>2019-12-01T10:36:47.000Z</time>
      </trkpt>
      <trkpt lat="47.27633" lon="-2.28852">
        <ele>14.800000190735</ele>
        <time>2019-12-01T10:36:49.000Z</time>
      </trkpt>
      <trkpt lat="47.27596" lon="-2.28868">
        <ele>14.800000190735</ele>
        <time>2019-12-01T10:36:55.000Z</time>
      </trkpt>
      <trkpt lat="47.27559" lon="-2.28893">
        <ele>14.800000190735</ele>
        <time>2019-12-01T10:37:02.000Z</time>
      </trkpt>
      <trkpt lat="47.27541" lon="-2.28905">
        <ele>14.800000190735</ele>
        <time>2019-12-01T10:37:06.000Z</time>
      </trkpt>
      <trkpt lat="47.27536" lon="-2.28908">
        <ele>14.800000190735</ele>
        <time>2019-12-01T10:37:07.000Z</time>
      </trkpt>
      <trkpt lat="47.27526" lon="-2.28913">
        <ele>14.800000190735</ele>
        <time>2019-12-01T10:37:09.000Z</time>
      </trkpt>
      <trkpt lat="47.27513" lon="-2.28921">
        <ele>14.800000190735</ele>
        <time>2019-12-01T10:37:12.000Z</time>
      </trkpt>
      <trkpt lat="47.27487" lon="-2.28938">
        <ele>14.800000190735</ele>
        <time>2019-12-01T10:37:17.000Z</time>
      </trkpt>
      <trkpt lat="47.27474" lon="-2.28953">
        <ele>14.800000190735</ele>
        <time>2019-12-01T10:37:20.000Z</time>
      </trkpt>
      <trkpt lat="47.2747" lon="-2.2896">
        <ele>14.800000190735</ele>
        <time>2019-12-01T10:37:21.000Z</time>
      </trkpt>
      <trkpt lat="47.27461" lon="-2.28984">
        <ele>14.800000190735</ele>
        <time>2019-12-01T10:37:24.000Z</time>
      </trkpt>
      <trkpt lat="47.27456" lon="-2.29">
        <ele>14.800000190735</ele>
        <time>2019-12-01T10:37:26.000Z</time>
      </trkpt>
      <trkpt lat="47.27443" lon="-2.29027">
        <ele>14.800000190735</ele>
        <time>2019-12-01T10:37:30.000Z</time>
      </trkpt>
      <trkpt lat="47.2744" lon="-2.29031">
        <ele>14.800000190735</ele>
        <time>2019-12-01T10:37:31.000Z</time>
      </trkpt>
      <trkpt lat="47.27426" lon="-2.29037">
        <ele>14.800000190735</ele>
        <time>2019-12-01T10:37:34.000Z</time>
      </trkpt>
      <trkpt lat="47.27421" lon="-2.29037">
        <ele>14.800000190735</ele>
        <time>2019-12-01T10:37:35.000Z</time>
      </trkpt>
      <trkpt lat="47.27408" lon="-2.29039">
        <ele>14.800000190735</ele>
        <time>2019-12-01T10:37:38.000Z</time>
      </trkpt>
      <trkpt lat="47.27399" lon="-2.29039">
        <ele>15.800000190735</ele>
        <time>2019-12-01T10:37:40.000Z</time>
      </trkpt>
      <trkpt lat="47.27394" lon="-2.29039">
        <ele>16.200000762939</ele>
        <time>2019-12-01T10:37:41.000Z</time>
      </trkpt>
      <trkpt lat="47.27389" lon="-2.29039">
        <ele>16.60000038147</ele>
        <time>2019-12-01T10:37:42.000Z</time>
      </trkpt>
      <trkpt lat="47.27382" lon="-2.29039">
        <ele>17</ele>
        <time>2019-12-01T10:37:43.000Z</time>
      </trkpt>
      <trkpt lat="47.2737" lon="-2.29038">
        <ele>17</ele>
        <time>2019-12-01T10:37:45.000Z</time>
      </trkpt>
      <trkpt lat="47.27356" lon="-2.29035">
        <ele>17</ele>
        <time>2019-12-01T10:37:47.000Z</time>
      </trkpt>
      <trkpt lat="47.27351" lon="-2.29032">
        <ele>17</ele>
        <time>2019-12-01T10:37:48.000Z</time>
      </trkpt>
      <trkpt lat="47.27342" lon="-2.29012">
        <ele>17</ele>
        <time>2019-12-01T10:37:51.000Z</time>
      </trkpt>
      <trkpt lat="47.27343" lon="-2.28987">
        <ele>17</ele>
        <time>2019-12-01T10:37:54.000Z</time>
      </trkpt>
      <trkpt lat="47.27345" lon="-2.28966">
        <ele>17</ele>
        <time>2019-12-01T10:37:57.000Z</time>
      </trkpt>
      <trkpt lat="47.27343" lon="-2.28954">
        <ele>17</ele>
        <time>2019-12-01T10:37:59.000Z</time>
      </trkpt>
      <trkpt lat="47.27334" lon="-2.28944">
        <ele>17</ele>
        <time>2019-12-01T10:38:02.000Z</time>
      </trkpt>
      <trkpt lat="47.27324" lon="-2.28944">
        <ele>17</ele>
        <time>2019-12-01T10:38:05.000Z</time>
      </trkpt>
      <trkpt lat="47.2732" lon="-2.28952">
        <ele>17</ele>
        <time>2019-12-01T10:38:09.000Z</time>
      </trkpt>
      <trkpt lat="47.27316" lon="-2.28963">
        <ele>17</ele>
        <time>2019-12-01T10:38:14.000Z</time>
      </trkpt>
      <trkpt lat="47.27311" lon="-2.28974">
        <ele>17</ele>
        <time>2019-12-01T10:38:19.000Z</time>
      </trkpt>
      <trkpt lat="47.27304" lon="-2.29005">
        <ele>17</ele>
        <time>2019-12-01T10:38:26.000Z</time>
      </trkpt>
      <trkpt lat="47.27286" lon="-2.29028">
        <ele>17</ele>
        <time>2019-12-01T10:38:31.000Z</time>
      </trkpt>
      <trkpt lat="47.27269" lon="-2.2905">
        <ele>17</ele>
        <time>2019-12-01T10:38:35.000Z</time>
      </trkpt>
      <trkpt lat="47.27265" lon="-2.29054">
        <ele>17</ele>
        <time>2019-12-01T10:38:36.000Z</time>
      </trkpt>
      <trkpt lat="47.27253" lon="-2.29062">
        <ele>17</ele>
        <time>2019-12-01T10:38:38.000Z</time>
      </trkpt>
      <trkpt lat="47.27229" lon="-2.29082">
        <ele>17</ele>
        <time>2019-12-01T10:38:42.000Z</time>
      </trkpt>
      <trkpt lat="47.27213" lon="-2.29095">
        <ele>17</ele>
        <time>2019-12-01T10:38:45.000Z</time>
      </trkpt>
      <trkpt lat="47.27208" lon="-2.29099">
        <ele>17</ele>
        <time>2019-12-01T10:38:46.000Z</time>
      </trkpt>
      <trkpt lat="47.27192" lon="-2.29121">
        <ele>17</ele>
        <time>2019-12-01T10:38:50.000Z</time>
      </trkpt>
      <trkpt lat="47.27183" lon="-2.29132">
        <ele>17</ele>
        <time>2019-12-01T10:38:52.000Z</time>
      </trkpt>
      <trkpt lat="47.2717" lon="-2.29149">
        <ele>17</ele>
        <time>2019-12-01T10:38:55.000Z</time>
      </trkpt>
      <trkpt lat="47.27158" lon="-2.29165">
        <ele>17</ele>
        <time>2019-12-01T10:38:58.000Z</time>
      </trkpt>
      <trkpt lat="47.27156" lon="-2.29172">
        <ele>17</ele>
        <time>2019-12-01T10:38:59.000Z</time>
      </trkpt>
      <trkpt lat="47.2716" lon="-2.29194">
        <ele>17</ele>
        <time>2019-12-01T10:39:02.000Z</time>
      </trkpt>
      <trkpt lat="47.27164" lon="-2.29207">
        <ele>17</ele>
        <time>2019-12-01T10:39:04.000Z</time>
      </trkpt>
      <trkpt lat="47.27173" lon="-2.29227">
        <ele>17</ele>
        <time>2019-12-01T10:39:07.000Z</time>
      </trkpt>
      <trkpt lat="47.27175" lon="-2.29234">
        <ele>17</ele>
        <time>2019-12-01T10:39:08.000Z</time>
      </trkpt>
      <trkpt lat="47.27176" lon="-2.29262">
        <ele>17</ele>
        <time>2019-12-01T10:39:12.000Z</time>
      </trkpt>
      <trkpt lat="47.27174" lon="-2.29268">
        <ele>17</ele>
        <time>2019-12-01T10:39:13.000Z</time>
      </trkpt>
      <trkpt lat="47.27168" lon="-2.29288">
        <ele>17.39999961853</ele>
        <time>2019-12-01T10:39:16.000Z</time>
      </trkpt>
      <trkpt lat="47.27165" lon="-2.29293">
        <ele>17.799999237061</ele>
        <time>2019-12-01T10:39:17.000Z</time>
      </trkpt>
      <trkpt lat="47.27162" lon="-2.29299">
        <ele>18.200000762939</ele>
        <time>2019-12-01T10:39:18.000Z</time>
      </trkpt>
      <trkpt lat="47.2716" lon="-2.29305">
        <ele>19</ele>
        <time>2019-12-01T10:39:19.000Z</time>
      </trkpt>
      <trkpt lat="47.27159" lon="-2.29318">
        <ele>19</ele>
        <time>2019-12-01T10:39:22.000Z</time>
      </trkpt>
      <trkpt lat="47.27162" lon="-2.29323">
        <ele>19</ele>
        <time>2019-12-01T10:39:23.000Z</time>
      </trkpt>
      <trkpt lat="47.27171" lon="-2.29337">
        <ele>19</ele>
        <time>2019-12-01T10:39:26.000Z</time>
      </trkpt>
      <trkpt lat="47.27178" lon="-2.29347">
        <ele>19</ele>
        <time>2019-12-01T10:39:28.000Z</time>
      </trkpt>
      <trkpt lat="47.27188" lon="-2.29368">
        <ele>19</ele>
        <time>2019-12-01T10:39:31.000Z</time>
      </trkpt>
      <trkpt lat="47.27207" lon="-2.29422">
        <ele>19</ele>
        <time>2019-12-01T10:39:38.000Z</time>
      </trkpt>
      <trkpt lat="47.27221" lon="-2.29466">
        <ele>19</ele>
        <time>2019-12-01T10:39:44.000Z</time>
      </trkpt>
      <trkpt lat="47.27231" lon="-2.29495">
        <ele>19</ele>
        <time>2019-12-01T10:39:48.000Z</time>
      </trkpt>
      <trkpt lat="47.27235" lon="-2.29508">
        <ele>19</ele>
        <time>2019-12-01T10:39:50.000Z</time>
      </trkpt>
      <trkpt lat="47.27238" lon="-2.29514">
        <ele>19</ele>
        <time>2019-12-01T10:39:51.000Z</time>
      </trkpt>
      <trkpt lat="47.27244" lon="-2.29527">
        <ele>19</ele>
        <time>2019-12-01T10:39:53.000Z</time>
      </trkpt>
      <trkpt lat="47.27247" lon="-2.29534">
        <ele>19</ele>
        <time>2019-12-01T10:39:54.000Z</time>
      </trkpt>
      <trkpt lat="47.2725" lon="-2.29558">
        <ele>19</ele>
        <time>2019-12-01T10:39:57.000Z</time>
      </trkpt>
      <trkpt lat="47.27251" lon="-2.29566">
        <ele>19</ele>
        <time>2019-12-01T10:39:58.000Z</time>
      </trkpt>
      <trkpt lat="47.27257" lon="-2.29608">
        <ele>19</ele>
        <time>2019-12-01T10:40:04.000Z</time>
      </trkpt>
      <trkpt lat="47.27263" lon="-2.29639">
        <ele>19</ele>
        <time>2019-12-01T10:40:10.000Z</time>
      </trkpt>
      <trkpt lat="47.27266" lon="-2.2966">
        <ele>19</ele>
        <time>2019-12-01T10:40:15.000Z</time>
      </trkpt>
      <trkpt lat="47.27269" lon="-2.29674">
        <ele>19</ele>
        <time>2019-12-01T10:40:20.000Z</time>
      </trkpt>
      <trkpt lat="47.27273" lon="-2.29692">
        <ele>19</ele>
        <time>2019-12-01T10:40:27.000Z</time>
      </trkpt>
      <trkpt lat="47.27281" lon="-2.29721">
        <ele>19</ele>
        <time>2019-12-01T10:40:32.000Z</time>
      </trkpt>
      <trkpt lat="47.27284" lon="-2.29735">
        <ele>19</ele>
        <time>2019-12-01T10:40:34.000Z</time>
      </trkpt>
      <trkpt lat="47.27291" lon="-2.29758">
        <ele>19</ele>
        <time>2019-12-01T10:40:37.000Z</time>
      </trkpt>
      <trkpt lat="47.27296" lon="-2.29773">
        <ele>19</ele>
        <time>2019-12-01T10:40:39.000Z</time>
      </trkpt>
      <trkpt lat="47.27309" lon="-2.29803">
        <ele>19</ele>
        <time>2019-12-01T10:40:43.000Z</time>
      </trkpt>
      <trkpt lat="47.27317" lon="-2.29816">
        <ele>19</ele>
        <time>2019-12-01T10:40:45.000Z</time>
      </trkpt>
      <trkpt lat="47.27325" lon="-2.29828">
        <ele>19</ele>
        <time>2019-12-01T10:40:47.000Z</time>
      </trkpt>
      <trkpt lat="47.27329" lon="-2.29834">
        <ele>19</ele>
        <time>2019-12-01T10:40:48.000Z</time>
      </trkpt>
      <trkpt lat="47.2735" lon="-2.29875">
        <ele>19</ele>
        <time>2019-12-01T10:40:54.000Z</time>
      </trkpt>
      <trkpt lat="47.27369" lon="-2.29919">
        <ele>19</ele>
        <time>2019-12-01T10:41:00.000Z</time>
      </trkpt>
      <trkpt lat="47.27375" lon="-2.29933">
        <ele>19</ele>
        <time>2019-12-01T10:41:02.000Z</time>
      </trkpt>
      <trkpt lat="47.27384" lon="-2.29954">
        <ele>19</ele>
        <time>2019-12-01T10:41:05.000Z</time>
      </trkpt>
      <trkpt lat="47.27403" lon="-2.29999">
        <ele>19</ele>
        <time>2019-12-01T10:41:11.000Z</time>
      </trkpt>
      <trkpt lat="47.27405" lon="-2.30006">
        <ele>19</ele>
        <time>2019-12-01T10:41:12.000Z</time>
      </trkpt>
      <trkpt lat="47.27422" lon="-2.30054">
        <ele>19</ele>
        <time>2019-12-01T10:41:18.000Z</time>
      </trkpt>
      <trkpt lat="47.2744" lon="-2.30112">
        <ele>19</ele>
        <time>2019-12-01T10:41:25.000Z</time>
      </trkpt>
      <trkpt lat="47.27444" lon="-2.30129">
        <ele>18.60000038147</ele>
        <time>2019-12-01T10:41:27.000Z</time>
      </trkpt>
      <trkpt lat="47.27446" lon="-2.30137">
        <ele>18.200000762939</ele>
        <time>2019-12-01T10:41:28.000Z</time>
      </trkpt>
      <trkpt lat="47.27448" lon="-2.30145">
        <ele>17.799999237061</ele>
        <time>2019-12-01T10:41:29.000Z</time>
      </trkpt>
      <trkpt lat="47.2745" lon="-2.30152">
        <ele>17.39999961853</ele>
        <time>2019-12-01T10:41:30.000Z</time>
      </trkpt>
      <trkpt lat="47.27452" lon="-2.3016">
        <ele>17</ele>
        <time>2019-12-01T10:41:31.000Z</time>
      </trkpt>
      <trkpt lat="47.27458" lon="-2.30188">
        <ele>17</ele>
        <time>2019-12-01T10:41:35.000Z</time>
      </trkpt>
      <trkpt lat="47.27459" lon="-2.30196">
        <ele>16.60000038147</ele>
        <time>2019-12-01T10:41:37.000Z</time>
      </trkpt>
      <trkpt lat="47.27459" lon="-2.30198">
        <ele>16</ele>
        <time>2019-12-01T10:41:38.000Z</time>
      </trkpt>
      <trkpt lat="47.27458" lon="-2.30201">
        <ele>15.60000038147</ele>
        <time>2019-12-01T10:41:39.000Z</time>
      </trkpt>
      <trkpt lat="47.27457" lon="-2.30204">
        <ele>15.199999809265</ele>
        <time>2019-12-01T10:41:40.000Z</time>
      </trkpt>
      <trkpt lat="47.27455" lon="-2.30206">
        <ele>14.800000190735</ele>
        <time>2019-12-01T10:41:41.000Z</time>
      </trkpt>
      <trkpt lat="47.27449" lon="-2.30212">
        <ele>14.800000190735</ele>
        <time>2019-12-01T10:41:43.000Z</time>
      </trkpt>
      <trkpt lat="47.27446" lon="-2.30212">
        <ele>14.800000190735</ele>
        <time>2019-12-01T10:41:44.000Z</time>
      </trkpt>
      <trkpt lat="47.2744" lon="-2.30216">
        <ele>14.800000190735</ele>
        <time>2019-12-01T10:41:46.000Z</time>
      </trkpt>
      <trkpt lat="47.27417" lon="-2.3023">
        <ele>14.800000190735</ele>
        <time>2019-12-01T10:41:51.000Z</time>
      </trkpt>
      <trkpt lat="47.27394" lon="-2.30241">
        <ele>14.800000190735</ele>
        <time>2019-12-01T10:41:55.000Z</time>
      </trkpt>
      <trkpt lat="47.27383" lon="-2.30245">
        <ele>14.800000190735</ele>
        <time>2019-12-01T10:41:57.000Z</time>
      </trkpt>
      <trkpt lat="47.27365" lon="-2.3025">
        <ele>14.800000190735</ele>
        <time>2019-12-01T10:42:00.000Z</time>
      </trkpt>
      <trkpt lat="47.27352" lon="-2.30251">
        <ele>14.800000190735</ele>
        <time>2019-12-01T10:42:02.000Z</time>
      </trkpt>
      <trkpt lat="47.27341" lon="-2.30252">
        <ele>14.800000190735</ele>
        <time>2019-12-01T10:42:04.000Z</time>
      </trkpt>
      <trkpt lat="47.27322" lon="-2.30256">
        <ele>14.800000190735</ele>
        <time>2019-12-01T10:42:07.000Z</time>
      </trkpt>
      <trkpt lat="47.27316" lon="-2.30256">
        <ele>14.800000190735</ele>
        <time>2019-12-01T10:42:08.000Z</time>
      </trkpt>
      <trkpt lat="47.27291" lon="-2.30257">
        <ele>14.800000190735</ele>
        <time>2019-12-01T10:42:12.000Z</time>
      </trkpt>
      <trkpt lat="47.27274" lon="-2.30259">
        <ele>14.39999961853</ele>
        <time>2019-12-01T10:42:15.000Z</time>
      </trkpt>
      <trkpt lat="47.27268" lon="-2.3026">
        <ele>14</ele>
        <time>2019-12-01T10:42:16.000Z</time>
      </trkpt>
      <trkpt lat="47.27262" lon="-2.30263">
        <ele>13.39999961853</ele>
        <time>2019-12-01T10:42:17.000Z</time>
      </trkpt>
      <trkpt lat="47.27258" lon="-2.30264">
        <ele>13</ele>
        <time>2019-12-01T10:42:18.000Z</time>
      </trkpt>
      <trkpt lat="47.27254" lon="-2.30264">
        <ele>12.60000038147</ele>
        <time>2019-12-01T10:42:19.000Z</time>
      </trkpt>
      <trkpt lat="47.27245" lon="-2.30265">
        <ele>12.60000038147</ele>
        <time>2019-12-01T10:42:22.000Z</time>
      </trkpt>
      <trkpt lat="47.27237" lon="-2.30263">
        <ele>12.60000038147</ele>
        <time>2019-12-01T10:42:26.000Z</time>
      </trkpt>
      <trkpt lat="47.27236" lon="-2.30262">
        <ele>12.60000038147</ele>
        <time>2019-12-01T10:42:27.000Z</time>
      </trkpt>
      <trkpt lat="47.27222" lon="-2.30257">
        <ele>12.60000038147</ele>
        <time>2019-12-01T10:42:33.000Z</time>
      </trkpt>
      <trkpt lat="47.27211" lon="-2.30257">
        <ele>12.60000038147</ele>
        <time>2019-12-01T10:42:37.000Z</time>
      </trkpt>
      <trkpt lat="47.27194" lon="-2.30263">
        <ele>12.60000038147</ele>
        <time>2019-12-01T10:42:43.000Z</time>
      </trkpt>
      <trkpt lat="47.27184" lon="-2.30255">
        <ele>12.60000038147</ele>
        <time>2019-12-01T10:42:46.000Z</time>
      </trkpt>
      <trkpt lat="47.27177" lon="-2.30252">
        <ele>12.60000038147</ele>
        <time>2019-12-01T10:42:49.000Z</time>
      </trkpt>
      <trkpt lat="47.27173" lon="-2.30251">
        <ele>12.60000038147</ele>
        <time>2019-12-01T10:42:50.000Z</time>
      </trkpt>
      <trkpt lat="47.27162" lon="-2.30248">
        <ele>12.60000038147</ele>
        <time>2019-12-01T10:42:54.000Z</time>
      </trkpt>
      <trkpt lat="47.27159" lon="-2.30249">
        <ele>12.60000038147</ele>
        <time>2019-12-01T10:42:55.000Z</time>
      </trkpt>
      <trkpt lat="47.27147" lon="-2.30251">
        <ele>12.60000038147</ele>
        <time>2019-12-01T10:42:58.000Z</time>
      </trkpt>
      <trkpt lat="47.27137" lon="-2.30254">
        <ele>12.60000038147</ele>
        <time>2019-12-01T10:43:00.000Z</time>
      </trkpt>
      <trkpt lat="47.27118" lon="-2.30261">
        <ele>12.60000038147</ele>
        <time>2019-12-01T10:43:04.000Z</time>
      </trkpt>
      <trkpt lat="47.27108" lon="-2.30264">
        <ele>12.60000038147</ele>
        <time>2019-12-01T10:43:06.000Z</time>
      </trkpt>
      <trkpt lat="47.27093" lon="-2.30273">
        <ele>12.60000038147</ele>
        <time>2019-12-01T10:43:10.000Z</time>
      </trkpt>
      <trkpt lat="47.27089" lon="-2.30277">
        <ele>13</ele>
        <time>2019-12-01T10:43:11.000Z</time>
      </trkpt>
      <trkpt lat="47.27086" lon="-2.3028">
        <ele>13.39999961853</ele>
        <time>2019-12-01T10:43:12.000Z</time>
      </trkpt>
      <trkpt lat="47.27084" lon="-2.30284">
        <ele>13.800000190735</ele>
        <time>2019-12-01T10:43:13.000Z</time>
      </trkpt>
      <trkpt lat="47.27081" lon="-2.30289">
        <ele>14.199999809265</ele>
        <time>2019-12-01T10:43:14.000Z</time>
      </trkpt>
      <trkpt lat="47.27079" lon="-2.30294">
        <ele>14.60000038147</ele>
        <time>2019-12-01T10:43:15.000Z</time>
      </trkpt>
      <trkpt lat="47.27071" lon="-2.30316">
        <ele>14.60000038147</ele>
        <time>2019-12-01T10:43:19.000Z</time>
      </trkpt>
      <trkpt lat="47.2706" lon="-2.30365">
        <ele>14.60000038147</ele>
        <time>2019-12-01T10:43:26.000Z</time>
      </trkpt>
      <trkpt lat="47.27059" lon="-2.30372">
        <ele>14.60000038147</ele>
        <time>2019-12-01T10:43:27.000Z</time>
      </trkpt>
      <trkpt lat="47.27056" lon="-2.30408">
        <ele>14.60000038147</ele>
        <time>2019-12-01T10:43:32.000Z</time>
      </trkpt>
      <trkpt lat="47.27052" lon="-2.30436">
        <ele>14.60000038147</ele>
        <time>2019-12-01T10:43:36.000Z</time>
      </trkpt>
      <trkpt lat="47.2705" lon="-2.30451">
        <ele>14.60000038147</ele>
        <time>2019-12-01T10:43:38.000Z</time>
      </trkpt>
      <trkpt lat="47.27048" lon="-2.30458">
        <ele>14.60000038147</ele>
        <time>2019-12-01T10:43:39.000Z</time>
      </trkpt>
      <trkpt lat="47.2704" lon="-2.30492">
        <ele>14.60000038147</ele>
        <time>2019-12-01T10:43:44.000Z</time>
      </trkpt>
      <trkpt lat="47.27029" lon="-2.30537">
        <ele>14.60000038147</ele>
        <time>2019-12-01T10:43:51.000Z</time>
      </trkpt>
      <trkpt lat="47.2702" lon="-2.30566">
        <ele>14.60000038147</ele>
        <time>2019-12-01T10:43:57.000Z</time>
      </trkpt>
      <trkpt lat="47.27016" lon="-2.30579">
        <ele>14.60000038147</ele>
        <time>2019-12-01T10:43:59.000Z</time>
      </trkpt>
      <trkpt lat="47.27007" lon="-2.30598">
        <ele>14.60000038147</ele>
        <time>2019-12-01T10:44:02.000Z</time>
      </trkpt>
      <trkpt lat="47.27004" lon="-2.30602">
        <ele>14.60000038147</ele>
        <time>2019-12-01T10:44:03.000Z</time>
      </trkpt>
      <trkpt lat="47.26993" lon="-2.3061">
        <ele>14.60000038147</ele>
        <time>2019-12-01T10:44:05.000Z</time>
      </trkpt>
      <trkpt lat="47.26963" lon="-2.30624">
        <ele>14.60000038147</ele>
        <time>2019-12-01T10:44:11.000Z</time>
      </trkpt>
      <trkpt lat="47.26944" lon="-2.30632">
        <ele>14.60000038147</ele>
        <time>2019-12-01T10:44:15.000Z</time>
      </trkpt>
      <trkpt lat="47.26934" lon="-2.30635">
        <ele>15</ele>
        <time>2019-12-01T10:44:17.000Z</time>
      </trkpt>
      <trkpt lat="47.2693" lon="-2.30636">
        <ele>15.39999961853</ele>
        <time>2019-12-01T10:44:18.000Z</time>
      </trkpt>
      <trkpt lat="47.26926" lon="-2.30637">
        <ele>15.800000190735</ele>
        <time>2019-12-01T10:44:19.000Z</time>
      </trkpt>
      <trkpt lat="47.26923" lon="-2.30639">
        <ele>16.200000762939</ele>
        <time>2019-12-01T10:44:20.000Z</time>
      </trkpt>
      <trkpt lat="47.26919" lon="-2.30642">
        <ele>16.60000038147</ele>
        <time>2019-12-01T10:44:21.000Z</time>
      </trkpt>
      <trkpt lat="47.26905" lon="-2.30657">
        <ele>16.60000038147</ele>
        <time>2019-12-01T10:44:26.000Z</time>
      </trkpt>
      <trkpt lat="47.26904" lon="-2.30672">
        <ele>16.60000038147</ele>
        <time>2019-12-01T10:44:30.000Z</time>
      </trkpt>
      <trkpt lat="47.26915" lon="-2.30688">
        <ele>16.60000038147</ele>
        <time>2019-12-01T10:44:36.000Z</time>
      </trkpt>
      <trkpt lat="47.26922" lon="-2.30699">
        <ele>16.60000038147</ele>
        <time>2019-12-01T10:44:43.000Z</time>
      </trkpt>
      <trkpt lat="47.26926" lon="-2.30706">
        <ele>16.60000038147</ele>
        <time>2019-12-01T10:44:49.000Z</time>
      </trkpt>
      <trkpt lat="47.26935" lon="-2.30719">
        <ele>16.60000038147</ele>
        <time>2019-12-01T10:44:56.000Z</time>
      </trkpt>
      <trkpt lat="47.26949" lon="-2.3074">
        <ele>16.60000038147</ele>
        <time>2019-12-01T10:45:02.000Z</time>
      </trkpt>
      <trkpt lat="47.26952" lon="-2.30744">
        <ele>16.60000038147</ele>
        <time>2019-12-01T10:45:03.000Z</time>
      </trkpt>
      <trkpt lat="47.26967" lon="-2.30765">
        <ele>16.60000038147</ele>
        <time>2019-12-01T10:45:07.000Z</time>
      </trkpt>
      <trkpt lat="47.26977" lon="-2.30781">
        <ele>16.200000762939</ele>
        <time>2019-12-01T10:45:10.000Z</time>
      </trkpt>
      <trkpt lat="47.26981" lon="-2.30786">
        <ele>15.800000190735</ele>
        <time>2019-12-01T10:45:11.000Z</time>
      </trkpt>
      <trkpt lat="47.26984" lon="-2.30791">
        <ele>15.39999961853</ele>
        <time>2019-12-01T10:45:12.000Z</time>
      </trkpt>
      <trkpt lat="47.26988" lon="-2.30796">
        <ele>15</ele>
        <time>2019-12-01T10:45:13.000Z</time>
      </trkpt>
      <trkpt lat="47.26991" lon="-2.308">
        <ele>14.60000038147</ele>
        <time>2019-12-01T10:45:14.000Z</time>
      </trkpt>
      <trkpt lat="47.27" lon="-2.30814">
        <ele>14.60000038147</ele>
        <time>2019-12-01T10:45:17.000Z</time>
      </trkpt>
      <trkpt lat="47.27007" lon="-2.30824">
        <ele>14.60000038147</ele>
        <time>2019-12-01T10:45:19.000Z</time>
      </trkpt>
      <trkpt lat="47.27009" lon="-2.30829">
        <ele>14.199999809265</ele>
        <time>2019-12-01T10:45:20.000Z</time>
      </trkpt>
      <trkpt lat="47.27012" lon="-2.30834">
        <ele>13.800000190735</ele>
        <time>2019-12-01T10:45:21.000Z</time>
      </trkpt>
      <trkpt lat="47.27015" lon="-2.30839">
        <ele>13.39999961853</ele>
        <time>2019-12-01T10:45:22.000Z</time>
      </trkpt>
      <trkpt lat="47.27019" lon="-2.30844">
        <ele>13</ele>
        <time>2019-12-01T10:45:23.000Z</time>
      </trkpt>
      <trkpt lat="47.27023" lon="-2.30849">
        <ele>12.60000038147</ele>
        <time>2019-12-01T10:45:24.000Z</time>
      </trkpt>
      <trkpt lat="47.2703" lon="-2.30861">
        <ele>12.60000038147</ele>
        <time>2019-12-01T10:45:26.000Z</time>
      </trkpt>
      <trkpt lat="47.27043" lon="-2.30882">
        <ele>12.199999809265</ele>
        <time>2019-12-01T10:45:30.000Z</time>
      </trkpt>
      <trkpt lat="47.27045" lon="-2.30887">
        <ele>11.60000038147</ele>
        <time>2019-12-01T10:45:31.000Z</time>
      </trkpt>
      <trkpt lat="47.27046" lon="-2.30891">
        <ele>11.199999809265</ele>
        <time>2019-12-01T10:45:32.000Z</time>
      </trkpt>
      <trkpt lat="47.27047" lon="-2.30896">
        <ele>10.800000190735</ele>
        <time>2019-12-01T10:45:33.000Z</time>
      </trkpt>
      <trkpt lat="47.27048" lon="-2.30901">
        <ele>10.39999961853</ele>
        <time>2019-12-01T10:45:34.000Z</time>
      </trkpt>
      <trkpt lat="47.27056" lon="-2.30921">
        <ele>10.39999961853</ele>
        <time>2019-12-01T10:45:39.000Z</time>
      </trkpt>
      <trkpt lat="47.27062" lon="-2.3094">
        <ele>10.39999961853</ele>
        <time>2019-12-01T10:45:45.000Z</time>
      </trkpt>
      <trkpt lat="47.27065" lon="-2.30959">
        <ele>10.39999961853</ele>
        <time>2019-12-01T10:45:50.000Z</time>
      </trkpt>
      <trkpt lat="47.27069" lon="-2.30978">
        <ele>10.39999961853</ele>
        <time>2019-12-01T10:45:54.000Z</time>
      </trkpt>
      <trkpt lat="47.27068" lon="-2.30983">
        <ele>10.39999961853</ele>
        <time>2019-12-01T10:45:55.000Z</time>
      </trkpt>
      <trkpt lat="47.27063" lon="-2.30991">
        <ele>10.39999961853</ele>
        <time>2019-12-01T10:45:57.000Z</time>
      </trkpt>
      <trkpt lat="47.27045" lon="-2.31013">
        <ele>10.39999961853</ele>
        <time>2019-12-01T10:46:02.000Z</time>
      </trkpt>
      <trkpt lat="47.2703" lon="-2.31032">
        <ele>10.39999961853</ele>
        <time>2019-12-01T10:46:06.000Z</time>
      </trkpt>
      <trkpt lat="47.27022" lon="-2.31041">
        <ele>10.39999961853</ele>
        <time>2019-12-01T10:46:08.000Z</time>
      </trkpt>
      <trkpt lat="47.27017" lon="-2.31044">
        <ele>10.39999961853</ele>
        <time>2019-12-01T10:46:09.000Z</time>
      </trkpt>
      <trkpt lat="47.27002" lon="-2.31068">
        <ele>10.39999961853</ele>
        <time>2019-12-01T10:46:13.000Z</time>
      </trkpt>
      <trkpt lat="47.27" lon="-2.31074">
        <ele>10.800000190735</ele>
        <time>2019-12-01T10:46:14.000Z</time>
      </trkpt>
      <trkpt lat="47.26999" lon="-2.31079">
        <ele>11.199999809265</ele>
        <time>2019-12-01T10:46:15.000Z</time>
      </trkpt>
      <trkpt lat="47.26999" lon="-2.31084">
        <ele>11.60000038147</ele>
        <time>2019-12-01T10:46:16.000Z</time>
      </trkpt>
      <trkpt lat="47.26999" lon="-2.3109">
        <ele>12.199999809265</ele>
        <time>2019-12-01T10:46:17.000Z</time>
      </trkpt>
      <trkpt lat="47.26999" lon="-2.31096">
        <ele>12.60000038147</ele>
        <time>2019-12-01T10:46:18.000Z</time>
      </trkpt>
      <trkpt lat="47.26998" lon="-2.31127">
        <ele>12.60000038147</ele>
        <time>2019-12-01T10:46:23.000Z</time>
      </trkpt>
      <trkpt lat="47.26996" lon="-2.31139">
        <ele>12.60000038147</ele>
        <time>2019-12-01T10:46:25.000Z</time>
      </trkpt>
      <trkpt lat="47.26993" lon="-2.31157">
        <ele>13</ele>
        <time>2019-12-01T10:46:28.000Z</time>
      </trkpt>
      <trkpt lat="47.26993" lon="-2.31162">
        <ele>13.39999961853</ele>
        <time>2019-12-01T10:46:29.000Z</time>
      </trkpt>
      <trkpt lat="47.26991" lon="-2.31168">
        <ele>14</ele>
        <time>2019-12-01T10:46:30.000Z</time>
      </trkpt>
      <trkpt lat="47.26989" lon="-2.31174">
        <ele>14.39999961853</ele>
        <time>2019-12-01T10:46:31.000Z</time>
      </trkpt>
      <trkpt lat="47.26988" lon="-2.3118">
        <ele>14.800000190735</ele>
        <time>2019-12-01T10:46:32.000Z</time>
      </trkpt>
      <trkpt lat="47.26982" lon="-2.31212">
        <ele>14.800000190735</ele>
        <time>2019-12-01T10:46:37.000Z</time>
      </trkpt>
      <trkpt lat="47.26979" lon="-2.31231">
        <ele>15.199999809265</ele>
        <time>2019-12-01T10:46:40.000Z</time>
      </trkpt>
      <trkpt lat="47.26978" lon="-2.31237">
        <ele>15.60000038147</ele>
        <time>2019-12-01T10:46:41.000Z</time>
      </trkpt>
      <trkpt lat="47.26978" lon="-2.31245">
        <ele>16</ele>
        <time>2019-12-01T10:46:42.000Z</time>
      </trkpt>
      <trkpt lat="47.26977" lon="-2.31252">
        <ele>17</ele>
        <time>2019-12-01T10:46:43.000Z</time>
      </trkpt>
      <trkpt lat="47.26978" lon="-2.31283">
        <ele>17</ele>
        <time>2019-12-01T10:46:48.000Z</time>
      </trkpt>
      <trkpt lat="47.26978" lon="-2.31296">
        <ele>17</ele>
        <time>2019-12-01T10:46:50.000Z</time>
      </trkpt>
      <trkpt lat="47.26982" lon="-2.31322">
        <ele>17</ele>
        <time>2019-12-01T10:46:54.000Z</time>
      </trkpt>
      <trkpt lat="47.26984" lon="-2.31334">
        <ele>17</ele>
        <time>2019-12-01T10:46:56.000Z</time>
      </trkpt>
      <trkpt lat="47.26987" lon="-2.3136">
        <ele>17</ele>
        <time>2019-12-01T10:47:00.000Z</time>
      </trkpt>
      <trkpt lat="47.2699" lon="-2.3141">
        <ele>17</ele>
        <time>2019-12-01T10:47:06.000Z</time>
      </trkpt>
      <trkpt lat="47.26992" lon="-2.31445">
        <ele>16.60000038147</ele>
        <time>2019-12-01T10:47:10.000Z</time>
      </trkpt>
      <trkpt lat="47.26992" lon="-2.31453">
        <ele>16</ele>
        <time>2019-12-01T10:47:11.000Z</time>
      </trkpt>
      <trkpt lat="47.26993" lon="-2.31461">
        <ele>15.60000038147</ele>
        <time>2019-12-01T10:47:12.000Z</time>
      </trkpt>
      <trkpt lat="47.26995" lon="-2.31468">
        <ele>15.199999809265</ele>
        <time>2019-12-01T10:47:13.000Z</time>
      </trkpt>
      <trkpt lat="47.26997" lon="-2.31475">
        <ele>14.800000190735</ele>
        <time>2019-12-01T10:47:14.000Z</time>
      </trkpt>
      <trkpt lat="47.26999" lon="-2.31481">
        <ele>14.800000190735</ele>
        <time>2019-12-01T10:47:15.000Z</time>
      </trkpt>
      <trkpt lat="47.27007" lon="-2.31514">
        <ele>14.39999961853</ele>
        <time>2019-12-01T10:47:19.000Z</time>
      </trkpt>
      <trkpt lat="47.27009" lon="-2.31524">
        <ele>13.800000190735</ele>
        <time>2019-12-01T10:47:20.000Z</time>
      </trkpt>
      <trkpt lat="47.2701" lon="-2.31532">
        <ele>13.39999961853</ele>
        <time>2019-12-01T10:47:21.000Z</time>
      </trkpt>
      <trkpt lat="47.27012" lon="-2.31541">
        <ele>13</ele>
        <time>2019-12-01T10:47:22.000Z</time>
      </trkpt>
      <trkpt lat="47.27015" lon="-2.3155">
        <ele>12.39999961853</ele>
        <time>2019-12-01T10:47:23.000Z</time>
      </trkpt>
      <trkpt lat="47.27018" lon="-2.31557">
        <ele>12</ele>
        <time>2019-12-01T10:47:24.000Z</time>
      </trkpt>
      <trkpt lat="47.27021" lon="-2.31565">
        <ele>11.60000038147</ele>
        <time>2019-12-01T10:47:25.000Z</time>
      </trkpt>
      <trkpt lat="47.27024" lon="-2.31571">
        <ele>11.199999809265</ele>
        <time>2019-12-01T10:47:26.000Z</time>
      </trkpt>
      <trkpt lat="47.27027" lon="-2.31577">
        <ele>10.800000190735</ele>
        <time>2019-12-01T10:47:27.000Z</time>
      </trkpt>
      <trkpt lat="47.27029" lon="-2.31583">
        <ele>10.39999961853</ele>
        <time>2019-12-01T10:47:28.000Z</time>
      </trkpt>
      <trkpt lat="47.2703" lon="-2.31589">
        <ele>10.39999961853</ele>
        <time>2019-12-01T10:47:29.000Z</time>
      </trkpt>
      <trkpt lat="47.27031" lon="-2.31595">
        <ele>10</ele>
        <time>2019-12-01T10:47:30.000Z</time>
      </trkpt>
      <trkpt lat="47.27032" lon="-2.31601">
        <ele>9.3999996185303</ele>
        <time>2019-12-01T10:47:31.000Z</time>
      </trkpt>
      <trkpt lat="47.27033" lon="-2.31608">
        <ele>8.3999996185303</ele>
        <time>2019-12-01T10:47:32.000Z</time>
      </trkpt>
      <trkpt lat="47.27034" lon="-2.31616">
        <ele>8</ele>
        <time>2019-12-01T10:47:33.000Z</time>
      </trkpt>
      <trkpt lat="47.27035" lon="-2.31624">
        <ele>8</ele>
        <time>2019-12-01T10:47:34.000Z</time>
      </trkpt>
      <trkpt lat="47.27037" lon="-2.3165">
        <ele>7.4000000953674</ele>
        <time>2019-12-01T10:47:37.000Z</time>
      </trkpt>
      <trkpt lat="47.27037" lon="-2.31658">
        <ele>7</ele>
        <time>2019-12-01T10:47:38.000Z</time>
      </trkpt>
      <trkpt lat="47.27037" lon="-2.31666">
        <ele>6.5999999046326</ele>
        <time>2019-12-01T10:47:39.000Z</time>
      </trkpt>
      <trkpt lat="47.27035" lon="-2.31675">
        <ele>6</ele>
        <time>2019-12-01T10:47:40.000Z</time>
      </trkpt>
      <trkpt lat="47.27034" lon="-2.31682">
        <ele>5.5999999046326</ele>
        <time>2019-12-01T10:47:41.000Z</time>
      </trkpt>
      <trkpt lat="47.27032" lon="-2.31692">
        <ele>5.1999998092651</ele>
        <time>2019-12-01T10:47:43.000Z</time>
      </trkpt>
      <trkpt lat="47.27031" lon="-2.31696">
        <ele>4.8000001907349</ele>
        <time>2019-12-01T10:47:44.000Z</time>
      </trkpt>
      <trkpt lat="47.27031" lon="-2.31699">
        <ele>4.1999998092651</ele>
        <time>2019-12-01T10:47:45.000Z</time>
      </trkpt>
      <trkpt lat="47.27033" lon="-2.31702">
        <ele>3.7999999523163</ele>
        <time>2019-12-01T10:47:46.000Z</time>
      </trkpt>
      <trkpt lat="47.27036" lon="-2.31706">
        <ele>3.4000000953674</ele>
        <time>2019-12-01T10:47:47.000Z</time>
      </trkpt>
      <trkpt lat="47.27054" lon="-2.31727">
        <ele>3.4000000953674</ele>
        <time>2019-12-01T10:47:53.000Z</time>
      </trkpt>
      <trkpt lat="47.27054" lon="-2.3173">
        <ele>3.4000000953674</ele>
        <time>2019-12-01T10:47:54.000Z</time>
      </trkpt>
      <trkpt lat="47.27053" lon="-2.31737">
        <ele>3.4000000953674</ele>
        <time>2019-12-01T10:47:56.000Z</time>
      </trkpt>
      <trkpt lat="47.27054" lon="-2.31757">
        <ele>3.4000000953674</ele>
        <time>2019-12-01T10:48:01.000Z</time>
      </trkpt>
      <trkpt lat="47.27057" lon="-2.31792">
        <ele>3</ele>
        <time>2019-12-01T10:48:07.000Z</time>
      </trkpt>
      <trkpt lat="47.27057" lon="-2.31798">
        <ele>2.4000000953674</ele>
        <time>2019-12-01T10:48:08.000Z</time>
      </trkpt>
      <trkpt lat="47.27058" lon="-2.31804">
        <ele>2</ele>
        <time>2019-12-01T10:48:09.000Z</time>
      </trkpt>
      <trkpt lat="47.27058" lon="-2.31811">
        <ele>1.6000000238419</ele>
        <time>2019-12-01T10:48:10.000Z</time>
      </trkpt>
      <trkpt lat="47.27059" lon="-2.31817">
        <ele>1.2000000476837</ele>
        <time>2019-12-01T10:48:11.000Z</time>
      </trkpt>
      <trkpt lat="47.2706" lon="-2.31835">
        <ele>0.80000001192093</ele>
        <time>2019-12-01T10:48:14.000Z</time>
      </trkpt>
      <trkpt lat="47.27061" lon="-2.3184">
        <ele>0.20000000298023</ele>
        <time>2019-12-01T10:48:15.000Z</time>
      </trkpt>
      <trkpt lat="47.27061" lon="-2.31844">
        <ele>-0.20000000298023</ele>
        <time>2019-12-01T10:48:16.000Z</time>
      </trkpt>
      <trkpt lat="47.27061" lon="-2.31846">
        <ele>-0.60000002384186</ele>
        <time>2019-12-01T10:48:17.000Z</time>
      </trkpt>
      <trkpt lat="47.27062" lon="-2.31848">
        <ele>-1</ele>
        <time>2019-12-01T10:48:18.000Z</time>
      </trkpt>
      <trkpt lat="47.2707" lon="-2.31854">
        <ele>-1</ele>
        <time>2019-12-01T10:48:23.000Z</time>
      </trkpt>
      <trkpt lat="47.27076" lon="-2.31861">
        <ele>-1</ele>
        <time>2019-12-01T10:48:27.000Z</time>
      </trkpt>
      <trkpt lat="47.27076" lon="-2.31863">
        <ele>-1</ele>
        <time>2019-12-01T10:48:28.000Z</time>
      </trkpt>
      <trkpt lat="47.27077" lon="-2.31865">
        <ele>-1</ele>
        <time>2019-12-01T10:48:29.000Z</time>
      </trkpt>
      <trkpt lat="47.27075" lon="-2.31872">
        <ele>-1</ele>
        <time>2019-12-01T10:48:32.000Z</time>
      </trkpt>
      <trkpt lat="47.27074" lon="-2.31876">
        <ele>-1</ele>
        <time>2019-12-01T10:48:33.000Z</time>
      </trkpt>
      <trkpt lat="47.27071" lon="-2.31894">
        <ele>-1</ele>
        <time>2019-12-01T10:48:37.000Z</time>
      </trkpt>
      <trkpt lat="47.27072" lon="-2.31913">
        <ele>-1.3999999761581</ele>
        <time>2019-12-01T10:48:41.000Z</time>
      </trkpt>
      <trkpt lat="47.27073" lon="-2.31917">
        <ele>-1.7999999523163</ele>
        <time>2019-12-01T10:48:42.000Z</time>
      </trkpt>
      <trkpt lat="47.27074" lon="-2.31921">
        <ele>-2.2000000476837</ele>
        <time>2019-12-01T10:48:43.000Z</time>
      </trkpt>
      <trkpt lat="47.27075" lon="-2.31925">
        <ele>-2.5999999046326</ele>
        <time>2019-12-01T10:48:44.000Z</time>
      </trkpt>
      <trkpt lat="47.27075" lon="-2.31928">
        <ele>-3</ele>
        <time>2019-12-01T10:48:45.000Z</time>
      </trkpt>
      <trkpt lat="47.27077" lon="-2.31939">
        <ele>-3</ele>
        <time>2019-12-01T10:48:47.000Z</time>
      </trkpt>
      <trkpt lat="47.27076" lon="-2.31949">
        <ele>-3</ele>
        <time>2019-12-01T10:48:50.000Z</time>
      </trkpt>
      <trkpt lat="47.27072" lon="-2.31949">
        <ele>-3</ele>
        <time>2019-12-01T10:48:53.000Z</time>
      </trkpt>
      <trkpt lat="47.27068" lon="-2.3195">
        <ele>-3</ele>
        <time>2019-12-01T10:48:55.000Z</time>
      </trkpt>
      <trkpt lat="47.27063" lon="-2.31951">
        <ele>-3</ele>
        <time>2019-12-01T10:48:58.000Z</time>
      </trkpt>
      <trkpt lat="47.27051" lon="-2.31954">
        <ele>-3</ele>
        <time>2019-12-01T10:49:04.000Z</time>
      </trkpt>
      <trkpt lat="47.27036" lon="-2.31961">
        <ele>-3</ele>
        <time>2019-12-01T10:49:11.000Z</time>
      </trkpt>
      <trkpt lat="47.2702" lon="-2.31971">
        <ele>-3</ele>
        <time>2019-12-01T10:49:17.000Z</time>
      </trkpt>
      <trkpt lat="47.27008" lon="-2.31985">
        <ele>-3</ele>
        <time>2019-12-01T10:49:22.000Z</time>
      </trkpt>
      <trkpt lat="47.27008" lon="-2.31989">
        <ele>-3</ele>
        <time>2019-12-01T10:49:23.000Z</time>
      </trkpt>
      <trkpt lat="47.27011" lon="-2.32001">
        <ele>-3</ele>
        <time>2019-12-01T10:49:26.000Z</time>
      </trkpt>
      <trkpt lat="47.27014" lon="-2.32012">
        <ele>-3</ele>
        <time>2019-12-01T10:49:28.000Z</time>
      </trkpt>
      <trkpt lat="47.27017" lon="-2.32025">
        <ele>-3</ele>
        <time>2019-12-01T10:49:30.000Z</time>
      </trkpt>
      <trkpt lat="47.2702" lon="-2.32046">
        <ele>-3</ele>
        <time>2019-12-01T10:49:33.000Z</time>
      </trkpt>
      <trkpt lat="47.27019" lon="-2.3206">
        <ele>-3</ele>
        <time>2019-12-01T10:49:35.000Z</time>
      </trkpt>
      <trkpt lat="47.27019" lon="-2.32067">
        <ele>-3.7999999523163</ele>
        <time>2019-12-01T10:49:36.000Z</time>
      </trkpt>
      <trkpt lat="47.27019" lon="-2.32074">
        <ele>-4.1999998092651</ele>
        <time>2019-12-01T10:49:37.000Z</time>
      </trkpt>
      <trkpt lat="47.27018" lon="-2.3208">
        <ele>-4.5999999046326</ele>
        <time>2019-12-01T10:49:38.000Z</time>
      </trkpt>
      <trkpt lat="47.27018" lon="-2.32085">
        <ele>-5.1999998092651</ele>
        <time>2019-12-01T10:49:39.000Z</time>
      </trkpt>
      <trkpt lat="47.27017" lon="-2.32089">
        <ele>-5.1999998092651</ele>
        <time>2019-12-01T10:49:40.000Z</time>
      </trkpt>
      <trkpt lat="47.2701" lon="-2.32115">
        <ele>-5.1999998092651</ele>
        <time>2019-12-01T10:49:45.000Z</time>
      </trkpt>
      <trkpt lat="47.27003" lon="-2.32124">
        <ele>-5.1999998092651</ele>
        <time>2019-12-01T10:49:47.000Z</time>
      </trkpt>
      <trkpt lat="47.26996" lon="-2.3213">
        <ele>-5.1999998092651</ele>
        <time>2019-12-01T10:49:49.000Z</time>
      </trkpt>
      <trkpt lat="47.2699" lon="-2.32145">
        <ele>-5.1999998092651</ele>
        <time>2019-12-01T10:49:52.000Z</time>
      </trkpt>
      <trkpt lat="47.26991" lon="-2.32149">
        <ele>-5.5999999046326</ele>
        <time>2019-12-01T10:49:53.000Z</time>
      </trkpt>
      <trkpt lat="47.26992" lon="-2.32154">
        <ele>-6</ele>
        <time>2019-12-01T10:49:54.000Z</time>
      </trkpt>
      <trkpt lat="47.26995" lon="-2.32158">
        <ele>-6.4000000953674</ele>
        <time>2019-12-01T10:49:55.000Z</time>
      </trkpt>
      <trkpt lat="47.26998" lon="-2.32162">
        <ele>-6.8000001907349</ele>
        <time>2019-12-01T10:49:56.000Z</time>
      </trkpt>
      <trkpt lat="47.27001" lon="-2.32166">
        <ele>-7.1999998092651</ele>
        <time>2019-12-01T10:49:57.000Z</time>
      </trkpt>
      <trkpt lat="47.27005" lon="-2.32172">
        <ele>-7.1999998092651</ele>
        <time>2019-12-01T10:49:58.000Z</time>
      </trkpt>
      <trkpt lat="47.27014" lon="-2.32187">
        <ele>-7.1999998092651</ele>
        <time>2019-12-01T10:50:01.000Z</time>
      </trkpt>
      <trkpt lat="47.27016" lon="-2.32192">
        <ele>-7.1999998092651</ele>
        <time>2019-12-01T10:50:02.000Z</time>
      </trkpt>
      <trkpt lat="47.27023" lon="-2.32214">
        <ele>-7.1999998092651</ele>
        <time>2019-12-01T10:50:06.000Z</time>
      </trkpt>
      <trkpt lat="47.27024" lon="-2.32241">
        <ele>-7.1999998092651</ele>
        <time>2019-12-01T10:50:10.000Z</time>
      </trkpt>
      <trkpt lat="47.27027" lon="-2.32282">
        <ele>-7.1999998092651</ele>
        <time>2019-12-01T10:50:16.000Z</time>
      </trkpt>
      <trkpt lat="47.27028" lon="-2.32297">
        <ele>-7.1999998092651</ele>
        <time>2019-12-01T10:50:18.000Z</time>
      </trkpt>
      <trkpt lat="47.2703" lon="-2.32326">
        <ele>-7.1999998092651</ele>
        <time>2019-12-01T10:50:22.000Z</time>
      </trkpt>
      <trkpt lat="47.27031" lon="-2.32333">
        <ele>-7.1999998092651</ele>
        <time>2019-12-01T10:50:23.000Z</time>
      </trkpt>
      <trkpt lat="47.27034" lon="-2.32354">
        <ele>-7.1999998092651</ele>
        <time>2019-12-01T10:50:26.000Z</time>
      </trkpt>
      <trkpt lat="47.27039" lon="-2.32375">
        <ele>-7.1999998092651</ele>
        <time>2019-12-01T10:50:29.000Z</time>
      </trkpt>
      <trkpt lat="47.27039" lon="-2.32384">
        <ele>-7.1999998092651</ele>
        <time>2019-12-01T10:50:30.000Z</time>
      </trkpt>
      <trkpt lat="47.27041" lon="-2.32411">
        <ele>-7.1999998092651</ele>
        <time>2019-12-01T10:50:33.000Z</time>
      </trkpt>
      <trkpt lat="47.27042" lon="-2.32458">
        <ele>-7.1999998092651</ele>
        <time>2019-12-01T10:50:38.000Z</time>
      </trkpt>
      <trkpt lat="47.27041" lon="-2.32468">
        <ele>-7.1999998092651</ele>
        <time>2019-12-01T10:50:39.000Z</time>
      </trkpt>
      <trkpt lat="47.27033" lon="-2.32489">
        <ele>-7.1999998092651</ele>
        <time>2019-12-01T10:50:42.000Z</time>
      </trkpt>
      <trkpt lat="47.27027" lon="-2.32495">
        <ele>-7.1999998092651</ele>
        <time>2019-12-01T10:50:44.000Z</time>
      </trkpt>
      <trkpt lat="47.27017" lon="-2.32498">
        <ele>-7.1999998092651</ele>
        <time>2019-12-01T10:50:46.000Z</time>
      </trkpt>
      <trkpt lat="47.27004" lon="-2.32486">
        <ele>-7.1999998092651</ele>
        <time>2019-12-01T10:50:49.000Z</time>
      </trkpt>
      <trkpt lat="47.26998" lon="-2.32476">
        <ele>-7.1999998092651</ele>
        <time>2019-12-01T10:50:51.000Z</time>
      </trkpt>
      <trkpt lat="47.26988" lon="-2.32459">
        <ele>-7.1999998092651</ele>
        <time>2019-12-01T10:50:54.000Z</time>
      </trkpt>
      <trkpt lat="47.26981" lon="-2.32449">
        <ele>-6.8000001907349</ele>
        <time>2019-12-01T10:50:56.000Z</time>
      </trkpt>
      <trkpt lat="47.26977" lon="-2.32445">
        <ele>-6.1999998092651</ele>
        <time>2019-12-01T10:50:57.000Z</time>
      </trkpt>
      <trkpt lat="47.26973" lon="-2.32441">
        <ele>-5.8000001907349</ele>
        <time>2019-12-01T10:50:58.000Z</time>
      </trkpt>
      <trkpt lat="47.26969" lon="-2.32436">
        <ele>-5.4000000953674</ele>
        <time>2019-12-01T10:50:59.000Z</time>
      </trkpt>
      <trkpt lat="47.26966" lon="-2.32432">
        <ele>-5</ele>
        <time>2019-12-01T10:51:00.000Z</time>
      </trkpt>
      <trkpt lat="47.26955" lon="-2.32416">
        <ele>-5</ele>
        <time>2019-12-01T10:51:03.000Z</time>
      </trkpt>
      <trkpt lat="47.26948" lon="-2.32398">
        <ele>-5</ele>
        <time>2019-12-01T10:51:06.000Z</time>
      </trkpt>
      <trkpt lat="47.26941" lon="-2.32369">
        <ele>-5</ele>
        <time>2019-12-01T10:51:11.000Z</time>
      </trkpt>
      <trkpt lat="47.26935" lon="-2.32351">
        <ele>-5</ele>
        <time>2019-12-01T10:51:14.000Z</time>
      </trkpt>
      <trkpt lat="47.26932" lon="-2.32346">
        <ele>-5</ele>
        <time>2019-12-01T10:51:15.000Z</time>
      </trkpt>
      <trkpt lat="47.26919" lon="-2.32335">
        <ele>-5</ele>
        <time>2019-12-01T10:51:19.000Z</time>
      </trkpt>
      <trkpt lat="47.26903" lon="-2.32338">
        <ele>-5</ele>
        <time>2019-12-01T10:51:23.000Z</time>
      </trkpt>
      <trkpt lat="47.26896" lon="-2.3234">
        <ele>-4.5999999046326</ele>
        <time>2019-12-01T10:51:25.000Z</time>
      </trkpt>
      <trkpt lat="47.26892" lon="-2.3234">
        <ele>-4.1999998092651</ele>
        <time>2019-12-01T10:51:26.000Z</time>
      </trkpt>
      <trkpt lat="47.26888" lon="-2.32341">
        <ele>-3.7999999523163</ele>
        <time>2019-12-01T10:51:27.000Z</time>
      </trkpt>
      <trkpt lat="47.26884" lon="-2.32342">
        <ele>-3.2000000476837</ele>
        <time>2019-12-01T10:51:28.000Z</time>
      </trkpt>
      <trkpt lat="47.2688" lon="-2.32343">
        <ele>-2.7999999523163</ele>
        <time>2019-12-01T10:51:29.000Z</time>
      </trkpt>
      <trkpt lat="47.26864" lon="-2.32347">
        <ele>-2.4000000953674</ele>
        <time>2019-12-01T10:51:33.000Z</time>
      </trkpt>
      <trkpt lat="47.2686" lon="-2.32347">
        <ele>-2</ele>
        <time>2019-12-01T10:51:34.000Z</time>
      </trkpt>
      <trkpt lat="47.26856" lon="-2.32348">
        <ele>-1.6000000238419</ele>
        <time>2019-12-01T10:51:35.000Z</time>
      </trkpt>
      <trkpt lat="47.26852" lon="-2.32349">
        <ele>-1.2000000476837</ele>
        <time>2019-12-01T10:51:36.000Z</time>
      </trkpt>
      <trkpt lat="47.26848" lon="-2.3235">
        <ele>-0.80000001192093</ele>
        <time>2019-12-01T10:51:37.000Z</time>
      </trkpt>
      <trkpt lat="47.26841" lon="-2.32351">
        <ele>-0.80000001192093</ele>
        <time>2019-12-01T10:51:39.000Z</time>
      </trkpt>
      <trkpt lat="47.26838" lon="-2.32352">
        <ele>-0.40000000596046</ele>
        <time>2019-12-01T10:51:40.000Z</time>
      </trkpt>
      <trkpt lat="47.26835" lon="-2.32353">
        <ele>0.20000000298023</ele>
        <time>2019-12-01T10:51:41.000Z</time>
      </trkpt>
      <trkpt lat="47.26831" lon="-2.32354">
        <ele>0.60000002384186</ele>
        <time>2019-12-01T10:51:42.000Z</time>
      </trkpt>
      <trkpt lat="47.26828" lon="-2.32354">
        <ele>1</ele>
        <time>2019-12-01T10:51:43.000Z</time>
      </trkpt>
      <trkpt lat="47.26826" lon="-2.32355">
        <ele>1.3999999761581</ele>
        <time>2019-12-01T10:51:44.000Z</time>
      </trkpt>
      <trkpt lat="47.26823" lon="-2.32356">
        <ele>1.3999999761581</ele>
        <time>2019-12-01T10:51:45.000Z</time>
      </trkpt>
      <trkpt lat="47.26814" lon="-2.32358">
        <ele>1.7999999523163</ele>
        <time>2019-12-01T10:51:48.000Z</time>
      </trkpt>
      <trkpt lat="47.26811" lon="-2.32358">
        <ele>2.2000000476837</ele>
        <time>2019-12-01T10:51:49.000Z</time>
      </trkpt>
      <trkpt lat="47.26808" lon="-2.32359">
        <ele>2.7999999523163</ele>
        <time>2019-12-01T10:51:50.000Z</time>
      </trkpt>
      <trkpt lat="47.26804" lon="-2.3236">
        <ele>3.2000000476837</ele>
        <time>2019-12-01T10:51:51.000Z</time>
      </trkpt>
      <trkpt lat="47.26801" lon="-2.32361">
        <ele>3.5999999046326</ele>
        <time>2019-12-01T10:51:52.000Z</time>
      </trkpt>
      <trkpt lat="47.26784" lon="-2.32368">
        <ele>4</ele>
        <time>2019-12-01T10:51:57.000Z</time>
      </trkpt>
      <trkpt lat="47.26782" lon="-2.3237">
        <ele>4.4000000953674</ele>
        <time>2019-12-01T10:51:58.000Z</time>
      </trkpt>
      <trkpt lat="47.2678" lon="-2.32374">
        <ele>4.8000001907349</ele>
        <time>2019-12-01T10:51:59.000Z</time>
      </trkpt>
      <trkpt lat="47.26779" lon="-2.32377">
        <ele>5.1999998092651</ele>
        <time>2019-12-01T10:52:00.000Z</time>
      </trkpt>
      <trkpt lat="47.26779" lon="-2.32381">
        <ele>5.8000001907349</ele>
        <time>2019-12-01T10:52:01.000Z</time>
      </trkpt>
      <trkpt lat="47.2678" lon="-2.32386">
        <ele>5.8000001907349</ele>
        <time>2019-12-01T10:52:02.000Z</time>
      </trkpt>
      <trkpt lat="47.26781" lon="-2.32391">
        <ele>5.8000001907349</ele>
        <time>2019-12-01T10:52:03.000Z</time>
      </trkpt>
      <trkpt lat="47.26785" lon="-2.32418">
        <ele>5.8000001907349</ele>
        <time>2019-12-01T10:52:08.000Z</time>
      </trkpt>
      <trkpt lat="47.26792" lon="-2.32464">
        <ele>5.8000001907349</ele>
        <time>2019-12-01T10:52:15.000Z</time>
      </trkpt>
      <trkpt lat="47.26794" lon="-2.32493">
        <ele>5.8000001907349</ele>
        <time>2019-12-01T10:52:19.000Z</time>
      </trkpt>
      <trkpt lat="47.26797" lon="-2.32516">
        <ele>5.8000001907349</ele>
        <time>2019-12-01T10:52:22.000Z</time>
      </trkpt>
      <trkpt lat="47.26799" lon="-2.32561">
        <ele>5.8000001907349</ele>
        <time>2019-12-01T10:52:28.000Z</time>
      </trkpt>
      <trkpt lat="47.26803" lon="-2.32595">
        <ele>5.8000001907349</ele>
        <time>2019-12-01T10:52:33.000Z</time>
      </trkpt>
      <trkpt lat="47.26805" lon="-2.32609">
        <ele>5.8000001907349</ele>
        <time>2019-12-01T10:52:35.000Z</time>
      </trkpt>
      <trkpt lat="47.26811" lon="-2.32659">
        <ele>5.8000001907349</ele>
        <time>2019-12-01T10:52:42.000Z</time>
      </trkpt>
      <trkpt lat="47.26803" lon="-2.32677">
        <ele>5.8000001907349</ele>
        <time>2019-12-01T10:52:45.000Z</time>
      </trkpt>
      <trkpt lat="47.26803" lon="-2.32684">
        <ele>5.8000001907349</ele>
        <time>2019-12-01T10:52:46.000Z</time>
      </trkpt>
      <trkpt lat="47.26805" lon="-2.32698">
        <ele>5.8000001907349</ele>
        <time>2019-12-01T10:52:48.000Z</time>
      </trkpt>
      <trkpt lat="47.26812" lon="-2.32716">
        <ele>5.8000001907349</ele>
        <time>2019-12-01T10:52:51.000Z</time>
      </trkpt>
      <trkpt lat="47.26816" lon="-2.32726">
        <ele>5.8000001907349</ele>
        <time>2019-12-01T10:52:53.000Z</time>
      </trkpt>
      <trkpt lat="47.26831" lon="-2.32767">
        <ele>5.8000001907349</ele>
        <time>2019-12-01T10:53:00.000Z</time>
      </trkpt>
      <trkpt lat="47.26835" lon="-2.32784">
        <ele>5.1999998092651</ele>
        <time>2019-12-01T10:53:02.000Z</time>
      </trkpt>
      <trkpt lat="47.26837" lon="-2.32794">
        <ele>4.8000001907349</ele>
        <time>2019-12-01T10:53:03.000Z</time>
      </trkpt>
      <trkpt lat="47.2684" lon="-2.32803">
        <ele>4.1999998092651</ele>
        <time>2019-12-01T10:53:04.000Z</time>
      </trkpt>
      <trkpt lat="47.26843" lon="-2.32812">
        <ele>3.5999999046326</ele>
        <time>2019-12-01T10:53:05.000Z</time>
      </trkpt>
      <trkpt lat="47.26845" lon="-2.3282">
        <ele>2.7999999523163</ele>
        <time>2019-12-01T10:53:06.000Z</time>
      </trkpt>
      <trkpt lat="47.26848" lon="-2.32829">
        <ele>2.2000000476837</ele>
        <time>2019-12-01T10:53:07.000Z</time>
      </trkpt>
      <trkpt lat="47.26851" lon="-2.32837">
        <ele>1.3999999761581</ele>
        <time>2019-12-01T10:53:08.000Z</time>
      </trkpt>
      <trkpt lat="47.26855" lon="-2.32845">
        <ele>0.60000002384186</ele>
        <time>2019-12-01T10:53:09.000Z</time>
      </trkpt>
      <trkpt lat="47.26859" lon="-2.32853">
        <ele>-0.20000000298023</ele>
        <time>2019-12-01T10:53:10.000Z</time>
      </trkpt>
      <trkpt lat="47.26862" lon="-2.3286">
        <ele>-1</ele>
        <time>2019-12-01T10:53:11.000Z</time>
      </trkpt>
      <trkpt lat="47.26864" lon="-2.32867">
        <ele>-1.7999999523163</ele>
        <time>2019-12-01T10:53:12.000Z</time>
      </trkpt>
      <trkpt lat="47.26865" lon="-2.32874">
        <ele>-2.5999999046326</ele>
        <time>2019-12-01T10:53:13.000Z</time>
      </trkpt>
      <trkpt lat="47.26864" lon="-2.32879">
        <ele>-3.4000000953674</ele>
        <time>2019-12-01T10:53:14.000Z</time>
      </trkpt>
      <trkpt lat="47.26863" lon="-2.32885">
        <ele>-4.1999998092651</ele>
        <time>2019-12-01T10:53:15.000Z</time>
      </trkpt>
      <trkpt lat="47.2686" lon="-2.32887">
        <ele>-5.1999998092651</ele>
        <time>2019-12-01T10:53:16.000Z</time>
      </trkpt>
      <trkpt lat="47.26858" lon="-2.3289">
        <ele>-6</ele>
        <time>2019-12-01T10:53:17.000Z</time>
      </trkpt>
      <trkpt lat="47.26852" lon="-2.32892">
        <ele>-6.8000001907349</ele>
        <time>2019-12-01T10:53:18.000Z</time>
      </trkpt>
      <trkpt lat="47.26846" lon="-2.32895">
        <ele>-6.8000001907349</ele>
        <time>2019-12-01T10:53:19.000Z</time>
      </trkpt>
      <trkpt lat="47.26825" lon="-2.32911">
        <ele>-6.8000001907349</ele>
        <time>2019-12-01T10:53:23.000Z</time>
      </trkpt>
      <trkpt lat="47.26792" lon="-2.32935">
        <ele>-6.8000001907349</ele>
        <time>2019-12-01T10:53:29.000Z</time>
      </trkpt>
      <trkpt lat="47.26787" lon="-2.3294">
        <ele>-6.8000001907349</ele>
        <time>2019-12-01T10:53:30.000Z</time>
      </trkpt>
      <trkpt lat="47.26764" lon="-2.32962">
        <ele>-6.8000001907349</ele>
        <time>2019-12-01T10:53:34.000Z</time>
      </trkpt>
      <trkpt lat="47.26743" lon="-2.32987">
        <ele>-6.8000001907349</ele>
        <time>2019-12-01T10:53:38.000Z</time>
      </trkpt>
      <trkpt lat="47.2674" lon="-2.32995">
        <ele>-6.8000001907349</ele>
        <time>2019-12-01T10:53:39.000Z</time>
      </trkpt>
      <trkpt lat="47.26736" lon="-2.33019">
        <ele>-6.8000001907349</ele>
        <time>2019-12-01T10:53:42.000Z</time>
      </trkpt>
      <trkpt lat="47.26737" lon="-2.33026">
        <ele>-7.5999999046326</ele>
        <time>2019-12-01T10:53:43.000Z</time>
      </trkpt>
      <trkpt lat="47.26737" lon="-2.33032">
        <ele>-8</ele>
        <time>2019-12-01T10:53:44.000Z</time>
      </trkpt>
      <trkpt lat="47.26736" lon="-2.33038">
        <ele>-8.3999996185303</ele>
        <time>2019-12-01T10:53:45.000Z</time>
      </trkpt>
      <trkpt lat="47.26733" lon="-2.33044">
        <ele>-8.8000001907349</ele>
        <time>2019-12-01T10:53:46.000Z</time>
      </trkpt>
      <trkpt lat="47.2673" lon="-2.33057">
        <ele>-8.8000001907349</ele>
        <time>2019-12-01T10:53:48.000Z</time>
      </trkpt>
      <trkpt lat="47.26727" lon="-2.33063">
        <ele>-8.8000001907349</ele>
        <time>2019-12-01T10:53:49.000Z</time>
      </trkpt>
      <trkpt lat="47.26724" lon="-2.33068">
        <ele>-8.8000001907349</ele>
        <time>2019-12-01T10:53:50.000Z</time>
      </trkpt>
      <trkpt lat="47.26704" lon="-2.33091">
        <ele>-8.8000001907349</ele>
        <time>2019-12-01T10:53:56.000Z</time>
      </trkpt>
      <trkpt lat="47.26687" lon="-2.33108">
        <ele>-8.8000001907349</ele>
        <time>2019-12-01T10:54:02.000Z</time>
      </trkpt>
      <trkpt lat="47.26669" lon="-2.33124">
        <ele>-8.8000001907349</ele>
        <time>2019-12-01T10:54:08.000Z</time>
      </trkpt>
      <trkpt lat="47.26647" lon="-2.33141">
        <ele>-8.8000001907349</ele>
        <time>2019-12-01T10:54:14.000Z</time>
      </trkpt>
      <trkpt lat="47.2663" lon="-2.3315">
        <ele>-8.8000001907349</ele>
        <time>2019-12-01T10:54:19.000Z</time>
      </trkpt>
      <trkpt lat="47.26611" lon="-2.33147">
        <ele>-8.8000001907349</ele>
        <time>2019-12-01T10:54:24.000Z</time>
      </trkpt>
      <trkpt lat="47.26591" lon="-2.33154">
        <ele>-8.8000001907349</ele>
        <time>2019-12-01T10:54:30.000Z</time>
      </trkpt>
      <trkpt lat="47.26589" lon="-2.3316">
        <ele>-8.8000001907349</ele>
        <time>2019-12-01T10:54:31.000Z</time>
      </trkpt>
      <trkpt lat="47.26584" lon="-2.33175">
        <ele>-8.8000001907349</ele>
        <time>2019-12-01T10:54:34.000Z</time>
      </trkpt>
      <trkpt lat="47.26572" lon="-2.33194">
        <ele>-8.8000001907349</ele>
        <time>2019-12-01T10:54:39.000Z</time>
      </trkpt>
      <trkpt lat="47.2656" lon="-2.33202">
        <ele>-8.8000001907349</ele>
        <time>2019-12-01T10:54:42.000Z</time>
      </trkpt>
      <trkpt lat="47.26547" lon="-2.33211">
        <ele>-8.8000001907349</ele>
        <time>2019-12-01T10:54:45.000Z</time>
      </trkpt>
      <trkpt lat="47.26538" lon="-2.33216">
        <ele>-8.8000001907349</ele>
        <time>2019-12-01T10:54:47.000Z</time>
      </trkpt>
      <trkpt lat="47.26522" lon="-2.33224">
        <ele>-8.8000001907349</ele>
        <time>2019-12-01T10:54:50.000Z</time>
      </trkpt>
      <trkpt lat="47.26517" lon="-2.33227">
        <ele>-8.8000001907349</ele>
        <time>2019-12-01T10:54:51.000Z</time>
      </trkpt>
      <trkpt lat="47.265" lon="-2.33247">
        <ele>-8.8000001907349</ele>
        <time>2019-12-01T10:54:55.000Z</time>
      </trkpt>
      <trkpt lat="47.2649" lon="-2.33276">
        <ele>-8.8000001907349</ele>
        <time>2019-12-01T10:54:59.000Z</time>
      </trkpt>
      <trkpt lat="47.26478" lon="-2.33287">
        <ele>-8.8000001907349</ele>
        <time>2019-12-01T10:55:02.000Z</time>
      </trkpt>
      <trkpt lat="47.26468" lon="-2.33304">
        <ele>-8.8000001907349</ele>
        <time>2019-12-01T10:55:05.000Z</time>
      </trkpt>
      <trkpt lat="47.26463" lon="-2.33308">
        <ele>-8.8000001907349</ele>
        <time>2019-12-01T10:55:06.000Z</time>
      </trkpt>
      <trkpt lat="47.26436" lon="-2.3333">
        <ele>-8.8000001907349</ele>
        <time>2019-12-01T10:55:11.000Z</time>
      </trkpt>
      <trkpt lat="47.26401" lon="-2.33355">
        <ele>-8.8000001907349</ele>
        <time>2019-12-01T10:55:17.000Z</time>
      </trkpt>
      <trkpt lat="47.26349" lon="-2.33387">
        <ele>-8.8000001907349</ele>
        <time>2019-12-01T10:55:25.000Z</time>
      </trkpt>
      <trkpt lat="47.26313" lon="-2.3341">
        <ele>-8.8000001907349</ele>
        <time>2019-12-01T10:55:31.000Z</time>
      </trkpt>
      <trkpt lat="47.26308" lon="-2.33414">
        <ele>-8.8000001907349</ele>
        <time>2019-12-01T10:55:32.000Z</time>
      </trkpt>
      <trkpt lat="47.26304" lon="-2.33417">
        <ele>-8.8000001907349</ele>
        <time>2019-12-01T10:55:33.000Z</time>
      </trkpt>
      <trkpt lat="47.26286" lon="-2.33423">
        <ele>-8.8000001907349</ele>
        <time>2019-12-01T10:55:36.000Z</time>
      </trkpt>
      <trkpt lat="47.26254" lon="-2.33429">
        <ele>-8.8000001907349</ele>
        <time>2019-12-01T10:55:41.000Z</time>
      </trkpt>
      <trkpt lat="47.26208" lon="-2.33439">
        <ele>-8.8000001907349</ele>
        <time>2019-12-01T10:55:48.000Z</time>
      </trkpt>
      <trkpt lat="47.26182" lon="-2.33443">
        <ele>-8.8000001907349</ele>
        <time>2019-12-01T10:55:53.000Z</time>
      </trkpt>
      <trkpt lat="47.26169" lon="-2.33441">
        <ele>-8.8000001907349</ele>
        <time>2019-12-01T10:55:56.000Z</time>
      </trkpt>
      <trkpt lat="47.2616" lon="-2.33438">
        <ele>-8.8000001907349</ele>
        <time>2019-12-01T10:55:58.000Z</time>
      </trkpt>
      <trkpt lat="47.26142" lon="-2.33431">
        <ele>-8.8000001907349</ele>
        <time>2019-12-01T10:56:04.000Z</time>
      </trkpt>
      <trkpt lat="47.26135" lon="-2.33444">
        <ele>-8.8000001907349</ele>
        <time>2019-12-01T10:56:09.000Z</time>
      </trkpt>
      <trkpt lat="47.26125" lon="-2.3345">
        <ele>-8.8000001907349</ele>
        <time>2019-12-01T10:56:13.000Z</time>
      </trkpt>
      <trkpt lat="47.26123" lon="-2.3345">
        <ele>-8.8000001907349</ele>
        <time>2019-12-01T10:56:14.000Z</time>
      </trkpt>
      <trkpt lat="47.26119" lon="-2.33448">
        <ele>-8.8000001907349</ele>
        <time>2019-12-01T10:56:18.000Z</time>
      </trkpt>
      <trkpt lat="47.26109" lon="-2.33456">
        <ele>-8.8000001907349</ele>
        <time>2019-12-01T10:56:23.000Z</time>
      </trkpt>
      <trkpt lat="47.26096" lon="-2.33468">
        <ele>-8.8000001907349</ele>
        <time>2019-12-01T10:56:26.000Z</time>
      </trkpt>
      <trkpt lat="47.26091" lon="-2.3347">
        <ele>-8.8000001907349</ele>
        <time>2019-12-01T10:56:27.000Z</time>
      </trkpt>
      <trkpt lat="47.2607" lon="-2.33463">
        <ele>-8.8000001907349</ele>
        <time>2019-12-01T10:56:31.000Z</time>
      </trkpt>
      <trkpt lat="47.26062" lon="-2.33452">
        <ele>-8.8000001907349</ele>
        <time>2019-12-01T10:56:33.000Z</time>
      </trkpt>
      <trkpt lat="47.26056" lon="-2.33451">
        <ele>-8.8000001907349</ele>
        <time>2019-12-01T10:56:34.000Z</time>
      </trkpt>
      <trkpt lat="47.26041" lon="-2.33465">
        <ele>-8.8000001907349</ele>
        <time>2019-12-01T10:56:37.000Z</time>
      </trkpt>
      <trkpt lat="47.26034" lon="-2.33478">
        <ele>-8.8000001907349</ele>
        <time>2019-12-01T10:56:39.000Z</time>
      </trkpt>
      <trkpt lat="47.26029" lon="-2.33484">
        <ele>-8.8000001907349</ele>
        <time>2019-12-01T10:56:40.000Z</time>
      </trkpt>
      <trkpt lat="47.26023" lon="-2.33487">
        <ele>-8.8000001907349</ele>
        <time>2019-12-01T10:56:41.000Z</time>
      </trkpt>
      <trkpt lat="47.25997" lon="-2.33491">
        <ele>-8.8000001907349</ele>
        <time>2019-12-01T10:56:45.000Z</time>
      </trkpt>
      <trkpt lat="47.25986" lon="-2.33496">
        <ele>-8.8000001907349</ele>
        <time>2019-12-01T10:56:47.000Z</time>
      </trkpt>
      <trkpt lat="47.25975" lon="-2.33504">
        <ele>-8.8000001907349</ele>
        <time>2019-12-01T10:56:49.000Z</time>
      </trkpt>
      <trkpt lat="47.25954" lon="-2.33507">
        <ele>-8.8000001907349</ele>
        <time>2019-12-01T10:56:53.000Z</time>
      </trkpt>
      <trkpt lat="47.25941" lon="-2.33521">
        <ele>-8.8000001907349</ele>
        <time>2019-12-01T10:56:56.000Z</time>
      </trkpt>
      <trkpt lat="47.25926" lon="-2.33537">
        <ele>-8.3999996185303</ele>
        <time>2019-12-01T10:57:00.000Z</time>
      </trkpt>
      <trkpt lat="47.25922" lon="-2.33541">
        <ele>-8</ele>
        <time>2019-12-01T10:57:01.000Z</time>
      </trkpt>
      <trkpt lat="47.25918" lon="-2.33544">
        <ele>-7.5999999046326</ele>
        <time>2019-12-01T10:57:02.000Z</time>
      </trkpt>
      <trkpt lat="47.25914" lon="-2.33548">
        <ele>-7.1999998092651</ele>
        <time>2019-12-01T10:57:03.000Z</time>
      </trkpt>
      <trkpt lat="47.25909" lon="-2.33552">
        <ele>-6.8000001907349</ele>
        <time>2019-12-01T10:57:04.000Z</time>
      </trkpt>
      <trkpt lat="47.25897" lon="-2.33563">
        <ele>-6.8000001907349</ele>
        <time>2019-12-01T10:57:07.000Z</time>
      </trkpt>
      <trkpt lat="47.25876" lon="-2.33574">
        <ele>-6.8000001907349</ele>
        <time>2019-12-01T10:57:12.000Z</time>
      </trkpt>
      <trkpt lat="47.2587" lon="-2.33576">
        <ele>-6.8000001907349</ele>
        <time>2019-12-01T10:57:13.000Z</time>
      </trkpt>
      <trkpt lat="47.25853" lon="-2.33576">
        <ele>-6.4000000953674</ele>
        <time>2019-12-01T10:57:16.000Z</time>
      </trkpt>
      <trkpt lat="47.25848" lon="-2.33577">
        <ele>-6</ele>
        <time>2019-12-01T10:57:17.000Z</time>
      </trkpt>
      <trkpt lat="47.25842" lon="-2.33578">
        <ele>-5.5999999046326</ele>
        <time>2019-12-01T10:57:18.000Z</time>
      </trkpt>
      <trkpt lat="47.25836" lon="-2.33578">
        <ele>-5.1999998092651</ele>
        <time>2019-12-01T10:57:19.000Z</time>
      </trkpt>
      <trkpt lat="47.25831" lon="-2.33579">
        <ele>-4.8000001907349</ele>
        <time>2019-12-01T10:57:20.000Z</time>
      </trkpt>
      <trkpt lat="47.25804" lon="-2.3358">
        <ele>-4.8000001907349</ele>
        <time>2019-12-01T10:57:25.000Z</time>
      </trkpt>
      <trkpt lat="47.25749" lon="-2.33587">
        <ele>-4.8000001907349</ele>
        <time>2019-12-01T10:57:35.000Z</time>
      </trkpt>
      <trkpt lat="47.25738" lon="-2.33587">
        <ele>-4.8000001907349</ele>
        <time>2019-12-01T10:57:37.000Z</time>
      </trkpt>
      <trkpt lat="47.25726" lon="-2.33585">
        <ele>-4.8000001907349</ele>
        <time>2019-12-01T10:57:39.000Z</time>
      </trkpt>
      <trkpt lat="47.2571" lon="-2.33586">
        <ele>-4.8000001907349</ele>
        <time>2019-12-01T10:57:42.000Z</time>
      </trkpt>
      <trkpt lat="47.25699" lon="-2.33587">
        <ele>-4.8000001907349</ele>
        <time>2019-12-01T10:57:44.000Z</time>
      </trkpt>
      <trkpt lat="47.25693" lon="-2.33586">
        <ele>-4.8000001907349</ele>
        <time>2019-12-01T10:57:45.000Z</time>
      </trkpt>
      <trkpt lat="47.25676" lon="-2.33583">
        <ele>-4.8000001907349</ele>
        <time>2019-12-01T10:57:48.000Z</time>
      </trkpt>
      <trkpt lat="47.25671" lon="-2.33582">
        <ele>-4.8000001907349</ele>
        <time>2019-12-01T10:57:49.000Z</time>
      </trkpt>
      <trkpt lat="47.25637" lon="-2.33566">
        <ele>-4.8000001907349</ele>
        <time>2019-12-01T10:57:55.000Z</time>
      </trkpt>
      <trkpt lat="47.25603" lon="-2.33538">
        <ele>-4.8000001907349</ele>
        <time>2019-12-01T10:58:02.000Z</time>
      </trkpt>
      <trkpt lat="47.25585" lon="-2.33518">
        <ele>-4.4000000953674</ele>
        <time>2019-12-01T10:58:06.000Z</time>
      </trkpt>
      <trkpt lat="47.25581" lon="-2.33512">
        <ele>-4</ele>
        <time>2019-12-01T10:58:07.000Z</time>
      </trkpt>
      <trkpt lat="47.25577" lon="-2.33506">
        <ele>-3.5999999046326</ele>
        <time>2019-12-01T10:58:08.000Z</time>
      </trkpt>
      <trkpt lat="47.25573" lon="-2.335">
        <ele>-3.2000000476837</ele>
        <time>2019-12-01T10:58:09.000Z</time>
      </trkpt>
      <trkpt lat="47.25569" lon="-2.33494">
        <ele>-2.7999999523163</ele>
        <time>2019-12-01T10:58:10.000Z</time>
      </trkpt>
      <trkpt lat="47.25553" lon="-2.3346">
        <ele>-2.7999999523163</ele>
        <time>2019-12-01T10:58:15.000Z</time>
      </trkpt>
      <trkpt lat="47.25547" lon="-2.33447">
        <ele>-2.7999999523163</ele>
        <time>2019-12-01T10:58:17.000Z</time>
      </trkpt>
      <trkpt lat="47.25538" lon="-2.33425">
        <ele>-2.7999999523163</ele>
        <time>2019-12-01T10:58:20.000Z</time>
      </trkpt>
      <trkpt lat="47.25536" lon="-2.33418">
        <ele>-2.7999999523163</ele>
        <time>2019-12-01T10:58:21.000Z</time>
      </trkpt>
      <trkpt lat="47.25534" lon="-2.3341">
        <ele>-2.7999999523163</ele>
        <time>2019-12-01T10:58:22.000Z</time>
      </trkpt>
      <trkpt lat="47.2553" lon="-2.33386">
        <ele>-2.4000000953674</ele>
        <time>2019-12-01T10:58:25.000Z</time>
      </trkpt>
      <trkpt lat="47.25529" lon="-2.33379">
        <ele>-2</ele>
        <time>2019-12-01T10:58:26.000Z</time>
      </trkpt>
      <trkpt lat="47.25527" lon="-2.3337">
        <ele>-1.6000000238419</ele>
        <time>2019-12-01T10:58:27.000Z</time>
      </trkpt>
      <trkpt lat="47.25526" lon="-2.33362">
        <ele>-1.2000000476837</ele>
        <time>2019-12-01T10:58:28.000Z</time>
      </trkpt>
      <trkpt lat="47.25525" lon="-2.33354">
        <ele>-0.80000001192093</ele>
        <time>2019-12-01T10:58:29.000Z</time>
      </trkpt>
      <trkpt lat="47.2552" lon="-2.33321">
        <ele>-0.80000001192093</ele>
        <time>2019-12-01T10:58:33.000Z</time>
      </trkpt>
      <trkpt lat="47.2551" lon="-2.33241">
        <ele>-0.80000001192093</ele>
        <time>2019-12-01T10:58:42.000Z</time>
      </trkpt>
      <trkpt lat="47.25501" lon="-2.33178">
        <ele>-0.80000001192093</ele>
        <time>2019-12-01T10:58:49.000Z</time>
      </trkpt>
      <trkpt lat="47.25493" lon="-2.33108">
        <ele>-0.80000001192093</ele>
        <time>2019-12-01T10:58:57.000Z</time>
      </trkpt>
      <trkpt lat="47.25489" lon="-2.33093">
        <ele>-0.80000001192093</ele>
        <time>2019-12-01T10:58:59.000Z</time>
      </trkpt>
      <trkpt lat="47.25484" lon="-2.3309">
        <ele>-0.80000001192093</ele>
        <time>2019-12-01T10:59:00.000Z</time>
      </trkpt>
      <trkpt lat="47.25474" lon="-2.33092">
        <ele>-1.2000000476837</ele>
        <time>2019-12-01T10:59:02.000Z</time>
      </trkpt>
      <trkpt lat="47.25468" lon="-2.33095">
        <ele>-2</ele>
        <time>2019-12-01T10:59:03.000Z</time>
      </trkpt>
      <trkpt lat="47.25463" lon="-2.33098">
        <ele>-2.4000000953674</ele>
        <time>2019-12-01T10:59:04.000Z</time>
      </trkpt>
      <trkpt lat="47.25458" lon="-2.33102">
        <ele>-2.7999999523163</ele>
        <time>2019-12-01T10:59:05.000Z</time>
      </trkpt>
      <trkpt lat="47.25426" lon="-2.33119">
        <ele>-2.7999999523163</ele>
        <time>2019-12-01T10:59:11.000Z</time>
      </trkpt>
      <trkpt lat="47.25401" lon="-2.3313">
        <ele>-2.7999999523163</ele>
        <time>2019-12-01T10:59:16.000Z</time>
      </trkpt>
      <trkpt lat="47.25397" lon="-2.33134">
        <ele>-2.7999999523163</ele>
        <time>2019-12-01T10:59:17.000Z</time>
      </trkpt>
      <trkpt lat="47.25384" lon="-2.3314">
        <ele>-2.7999999523163</ele>
        <time>2019-12-01T10:59:20.000Z</time>
      </trkpt>
      <trkpt lat="47.25378" lon="-2.33132">
        <ele>-2.7999999523163</ele>
        <time>2019-12-01T10:59:22.000Z</time>
      </trkpt>
      <trkpt lat="47.25372" lon="-2.33117">
        <ele>-2.7999999523163</ele>
        <time>2019-12-01T10:59:26.000Z</time>
      </trkpt>
      <trkpt lat="47.25372" lon="-2.33115">
        <ele>-2.7999999523163</ele>
        <time>2019-12-01T10:59:29.000Z</time>
      </trkpt>
      <trkpt lat="47.25362" lon="-2.33084">
        <ele>-2.7999999523163</ele>
        <time>2019-12-01T11:04:58.000Z</time>
      </trkpt>
      <trkpt lat="47.25361" lon="-2.33081">
        <ele>-2.7999999523163</ele>
        <time>2019-12-01T11:05:00.000Z</time>
      </trkpt>
      <trkpt lat="47.25359" lon="-2.33078">
        <ele>-2.7999999523163</ele>
        <time>2019-12-01T11:05:04.000Z</time>
      </trkpt>
      <trkpt lat="47.25357" lon="-2.33065">
        <ele>-0.80000001192093</ele>
        <time>2019-12-01T11:27:35.000Z</time>
      </trkpt>
      <trkpt lat="47.25355" lon="-2.3306">
        <ele>-0.80000001192093</ele>
        <time>2019-12-01T11:27:37.000Z</time>
      </trkpt>
      <trkpt lat="47.25354" lon="-2.33057">
        <ele>-0.80000001192093</ele>
        <time>2019-12-01T11:27:38.000Z</time>
      </trkpt>
      <trkpt lat="47.25343" lon="-2.3303">
        <ele>-0.80000001192093</ele>
        <time>2019-12-01T11:27:44.000Z</time>
      </trkpt>
      <trkpt lat="47.25327" lon="-2.3299">
        <ele>-0.80000001192093</ele>
        <time>2019-12-01T11:27:52.000Z</time>
      </trkpt>
      <trkpt lat="47.25313" lon="-2.32956">
        <ele>-0.80000001192093</ele>
        <time>2019-12-01T11:27:58.000Z</time>
      </trkpt>
      <trkpt lat="47.25306" lon="-2.32931">
        <ele>-0.80000001192093</ele>
        <time>2019-12-01T11:28:03.000Z</time>
      </trkpt>
      <trkpt lat="47.25314" lon="-2.32912">
        <ele>-0.80000001192093</ele>
        <time>2019-12-01T11:28:07.000Z</time>
      </trkpt>
      <trkpt lat="47.25332" lon="-2.32895">
        <ele>-0.80000001192093</ele>
        <time>2019-12-01T11:28:12.000Z</time>
      </trkpt>
      <trkpt lat="47.25356" lon="-2.32872">
        <ele>-0.80000001192093</ele>
        <time>2019-12-01T11:28:19.000Z</time>
      </trkpt>
      <trkpt lat="47.25376" lon="-2.32852">
        <ele>-0.40000000596046</ele>
        <time>2019-12-01T11:28:25.000Z</time>
      </trkpt>
      <trkpt lat="47.2538" lon="-2.32848">
        <ele>9.6</ele>
        <time>2019-12-01T11:28:26.000Z</time>
      </trkpt>
      <trkpt lat="47.25383" lon="-2.32844">
        <ele>0.60000002384186</ele>
        <time>2019-12-01T11:28:27.000Z</time>
      </trkpt>
      <trkpt lat="47.25387" lon="-2.32839">
        <ele>1</ele>
        <time>2019-12-01T11:28:28.000Z</time>
      </trkpt>
      <trkpt lat="47.25391" lon="-2.32834">
        <ele>1.3999999761581</ele>
        <time>2019-12-01T11:28:29.000Z</time>
      </trkpt>
      <trkpt lat="47.25401" lon="-2.32822">
        <ele>1.3999999761581</ele>
        <time>2019-12-01T11:28:32.000Z</time>
      </trkpt>
      <trkpt lat="47.25419" lon="-2.32797">
        <ele>1.3999999761581</ele>
        <time>2019-12-01T11:28:38.000Z</time>
      </trkpt>
      <trkpt lat="47.25428" lon="-2.32772">
        <ele>1.3999999761581</ele>
        <time>2019-12-01T11:28:44.000Z</time>
      </trkpt>
      <trkpt lat="47.25434" lon="-2.32764">
        <ele>1.3999999761581</ele>
        <time>2019-12-01T11:28:46.000Z</time>
      </trkpt>
      <trkpt lat="47.25438" lon="-2.3276">
        <ele>1.3999999761581</ele>
        <time>2019-12-01T11:28:47.000Z</time>
      </trkpt>
      <trkpt lat="47.25458" lon="-2.32731">
        <ele>1.3999999761581</ele>
        <time>2019-12-01T11:28:53.000Z</time>
      </trkpt>
      <trkpt lat="47.25483" lon="-2.32699">
        <ele>1.7999999523163</ele>
        <time>2019-12-01T11:29:00.000Z</time>
      </trkpt>
      <trkpt lat="47.25485" lon="-2.32694">
        <ele>2.4000000953674</ele>
        <time>2019-12-01T11:29:01.000Z</time>
      </trkpt>
      <trkpt lat="47.25487" lon="-2.32688">
        <ele>2.7999999523163</ele>
        <time>2019-12-01T11:29:02.000Z</time>
      </trkpt>
      <trkpt lat="47.25488" lon="-2.32681">
        <ele>3.2000000476837</ele>
        <time>2019-12-01T11:29:03.000Z</time>
      </trkpt>
      <trkpt lat="47.25488" lon="-2.32674">
        <ele>3.7999999523163</ele>
        <time>2019-12-01T11:29:04.000Z</time>
      </trkpt>
      <trkpt lat="47.25487" lon="-2.32653">
        <ele>3.7999999523163</ele>
        <time>2019-12-01T11:29:07.000Z</time>
      </trkpt>
      <trkpt lat="47.25485" lon="-2.32638">
        <ele>3.7999999523163</ele>
        <time>2019-12-01T11:29:09.000Z</time>
      </trkpt>
      <trkpt lat="47.25477" lon="-2.3259">
        <ele>3.7999999523163</ele>
        <time>2019-12-01T11:29:16.000Z</time>
      </trkpt>
      <trkpt lat="47.25476" lon="-2.32583">
        <ele>3.7999999523163</ele>
        <time>2019-12-01T11:29:17.000Z</time>
      </trkpt>
      <trkpt lat="47.25481" lon="-2.32564">
        <ele>3.7999999523163</ele>
        <time>2019-12-01T11:29:20.000Z</time>
      </trkpt>
      <trkpt lat="47.25497" lon="-2.32545">
        <ele>3.7999999523163</ele>
        <time>2019-12-01T11:29:24.000Z</time>
      </trkpt>
      <trkpt lat="47.25501" lon="-2.32541">
        <ele>3.7999999523163</ele>
        <time>2019-12-01T11:29:25.000Z</time>
      </trkpt>
      <trkpt lat="47.25531" lon="-2.32514">
        <ele>3.7999999523163</ele>
        <time>2019-12-01T11:29:31.000Z</time>
      </trkpt>
      <trkpt lat="47.25552" lon="-2.32495">
        <ele>3.4000000953674</ele>
        <time>2019-12-01T11:29:35.000Z</time>
      </trkpt>
      <trkpt lat="47.25558" lon="-2.3249">
        <ele>3</ele>
        <time>2019-12-01T11:29:36.000Z</time>
      </trkpt>
      <trkpt lat="47.25564" lon="-2.32485">
        <ele>2.5999999046326</ele>
        <time>2019-12-01T11:29:37.000Z</time>
      </trkpt>
      <trkpt lat="47.25569" lon="-2.32481">
        <ele>2.2000000476837</ele>
        <time>2019-12-01T11:29:38.000Z</time>
      </trkpt>
      <trkpt lat="47.25574" lon="-2.32475">
        <ele>1.7999999523163</ele>
        <time>2019-12-01T11:29:39.000Z</time>
      </trkpt>
      <trkpt lat="47.2558" lon="-2.3247">
        <ele>1.3999999761581</ele>
        <time>2019-12-01T11:29:40.000Z</time>
      </trkpt>
      <trkpt lat="47.25585" lon="-2.32465">
        <ele>1</ele>
        <time>2019-12-01T11:29:41.000Z</time>
      </trkpt>
      <trkpt lat="47.25591" lon="-2.32459">
        <ele>0.60000002384186</ele>
        <time>2019-12-01T11:29:42.000Z</time>
      </trkpt>
      <trkpt lat="47.25597" lon="-2.32453">
        <ele>0.20000000298023</ele>
        <time>2019-12-01T11:29:43.000Z</time>
      </trkpt>
      <trkpt lat="47.25602" lon="-2.32447">
        <ele>-0.20000000298023</ele>
        <time>2019-12-01T11:29:44.000Z</time>
      </trkpt>
      <trkpt lat="47.25607" lon="-2.32441">
        <ele>-0.20000000298023</ele>
        <time>2019-12-01T11:29:45.000Z</time>
      </trkpt>
      <trkpt lat="47.25612" lon="-2.32435">
        <ele>-0.80000001192093</ele>
        <time>2019-12-01T11:29:46.000Z</time>
      </trkpt>
      <trkpt lat="47.25616" lon="-2.3243">
        <ele>-1.2000000476837</ele>
        <time>2019-12-01T11:29:47.000Z</time>
      </trkpt>
      <trkpt lat="47.25622" lon="-2.32424">
        <ele>-1.6000000238419</ele>
        <time>2019-12-01T11:29:48.000Z</time>
      </trkpt>
      <trkpt lat="47.25626" lon="-2.32419">
        <ele>-2</ele>
        <time>2019-12-01T11:29:49.000Z</time>
      </trkpt>
      <trkpt lat="47.25632" lon="-2.32413">
        <ele>-2.4000000953674</ele>
        <time>2019-12-01T11:29:50.000Z</time>
      </trkpt>
      <trkpt lat="47.25642" lon="-2.32403">
        <ele>-2.4000000953674</ele>
        <time>2019-12-01T11:29:52.000Z</time>
      </trkpt>
      <trkpt lat="47.25647" lon="-2.32401">
        <ele>-2.4000000953674</ele>
        <time>2019-12-01T11:29:53.000Z</time>
      </trkpt>
      <trkpt lat="47.25658" lon="-2.32401">
        <ele>-3</ele>
        <time>2019-12-01T11:29:55.000Z</time>
      </trkpt>
      <trkpt lat="47.25663" lon="-2.32402">
        <ele>-3.7999999523163</ele>
        <time>2019-12-01T11:29:56.000Z</time>
      </trkpt>
      <trkpt lat="47.25668" lon="-2.32405">
        <ele>-4.1999998092651</ele>
        <time>2019-12-01T11:29:57.000Z</time>
      </trkpt>
      <trkpt lat="47.25672" lon="-2.32409">
        <ele>-4.5999999046326</ele>
        <time>2019-12-01T11:29:58.000Z</time>
      </trkpt>
      <trkpt lat="47.25681" lon="-2.32417">
        <ele>-4.5999999046326</ele>
        <time>2019-12-01T11:30:00.000Z</time>
      </trkpt>
      <trkpt lat="47.25687" lon="-2.32418">
        <ele>-4.5999999046326</ele>
        <time>2019-12-01T11:30:01.000Z</time>
      </trkpt>
      <trkpt lat="47.25729" lon="-2.3242">
        <ele>-4.5999999046326</ele>
        <time>2019-12-01T11:30:08.000Z</time>
      </trkpt>
      <trkpt lat="47.25757" lon="-2.32419">
        <ele>-4.5999999046326</ele>
        <time>2019-12-01T11:30:13.000Z</time>
      </trkpt>
      <trkpt lat="47.25762" lon="-2.32417">
        <ele>-4.5999999046326</ele>
        <time>2019-12-01T11:30:14.000Z</time>
      </trkpt>
      <trkpt lat="47.25776" lon="-2.3241">
        <ele>-4.5999999046326</ele>
        <time>2019-12-01T11:30:18.000Z</time>
      </trkpt>
      <trkpt lat="47.25788" lon="-2.32421">
        <ele>-4.5999999046326</ele>
        <time>2019-12-01T11:30:21.000Z</time>
      </trkpt>
      <trkpt lat="47.25799" lon="-2.32439">
        <ele>-4.5999999046326</ele>
        <time>2019-12-01T11:30:24.000Z</time>
      </trkpt>
      <trkpt lat="47.25803" lon="-2.32445">
        <ele>-4.5999999046326</ele>
        <time>2019-12-01T11:30:25.000Z</time>
      </trkpt>
      <trkpt lat="47.25826" lon="-2.32461">
        <ele>-4.5999999046326</ele>
        <time>2019-12-01T11:30:29.000Z</time>
      </trkpt>
      <trkpt lat="47.25859" lon="-2.32471">
        <ele>-4.5999999046326</ele>
        <time>2019-12-01T11:30:35.000Z</time>
      </trkpt>
      <trkpt lat="47.25893" lon="-2.32463">
        <ele>-4.5999999046326</ele>
        <time>2019-12-01T11:30:41.000Z</time>
      </trkpt>
      <trkpt lat="47.25911" lon="-2.32444">
        <ele>-4.5999999046326</ele>
        <time>2019-12-01T11:30:45.000Z</time>
      </trkpt>
      <trkpt lat="47.25915" lon="-2.32438">
        <ele>-4.5999999046326</ele>
        <time>2019-12-01T11:30:46.000Z</time>
      </trkpt>
      <trkpt lat="47.25936" lon="-2.3241">
        <ele>-4.5999999046326</ele>
        <time>2019-12-01T11:30:51.000Z</time>
      </trkpt>
      <trkpt lat="47.25948" lon="-2.32393">
        <ele>-4.5999999046326</ele>
        <time>2019-12-01T11:30:54.000Z</time>
      </trkpt>
      <trkpt lat="47.2596" lon="-2.32376">
        <ele>-4.5999999046326</ele>
        <time>2019-12-01T11:30:57.000Z</time>
      </trkpt>
      <trkpt lat="47.25983" lon="-2.3235">
        <ele>-5</ele>
        <time>2019-12-01T11:31:02.000Z</time>
      </trkpt>
      <trkpt lat="47.25987" lon="-2.32344">
        <ele>-5.4000000953674</ele>
        <time>2019-12-01T11:31:03.000Z</time>
      </trkpt>
      <trkpt lat="47.25991" lon="-2.32339">
        <ele>-5.8000001907349</ele>
        <time>2019-12-01T11:31:04.000Z</time>
      </trkpt>
      <trkpt lat="47.25996" lon="-2.32333">
        <ele>-6.1999998092651</ele>
        <time>2019-12-01T11:31:05.000Z</time>
      </trkpt>
      <trkpt lat="47.26" lon="-2.32327">
        <ele>-6.5999999046326</ele>
        <time>2019-12-01T11:31:06.000Z</time>
      </trkpt>
      <trkpt lat="47.26026" lon="-2.32296">
        <ele>-6.5999999046326</ele>
        <time>2019-12-01T11:31:12.000Z</time>
      </trkpt>
      <trkpt lat="47.26034" lon="-2.32286">
        <ele>-6.5999999046326</ele>
        <time>2019-12-01T11:31:14.000Z</time>
      </trkpt>
      <trkpt lat="47.26061" lon="-2.32257">
        <ele>-6.5999999046326</ele>
        <time>2019-12-01T11:31:20.000Z</time>
      </trkpt>
      <trkpt lat="47.26084" lon="-2.32228">
        <ele>-6.5999999046326</ele>
        <time>2019-12-01T11:31:26.000Z</time>
      </trkpt>
      <trkpt lat="47.26098" lon="-2.32204">
        <ele>-6.5999999046326</ele>
        <time>2019-12-01T11:31:30.000Z</time>
      </trkpt>
      <trkpt lat="47.26103" lon="-2.32191">
        <ele>-6.5999999046326</ele>
        <time>2019-12-01T11:31:32.000Z</time>
      </trkpt>
      <trkpt lat="47.26121" lon="-2.32149">
        <ele>-6.5999999046326</ele>
        <time>2019-12-01T11:31:38.000Z</time>
      </trkpt>
      <trkpt lat="47.26135" lon="-2.32103">
        <ele>-6.5999999046326</ele>
        <time>2019-12-01T11:31:44.000Z</time>
      </trkpt>
      <trkpt lat="47.26138" lon="-2.32095">
        <ele>-6.5999999046326</ele>
        <time>2019-12-01T11:31:45.000Z</time>
      </trkpt>
      <trkpt lat="47.26146" lon="-2.32066">
        <ele>-6.5999999046326</ele>
        <time>2019-12-01T11:31:49.000Z</time>
      </trkpt>
      <trkpt lat="47.26159" lon="-2.32012">
        <ele>-6.5999999046326</ele>
        <time>2019-12-01T11:31:56.000Z</time>
      </trkpt>
      <trkpt lat="47.26159" lon="-2.32003">
        <ele>-6.5999999046326</ele>
        <time>2019-12-01T11:31:57.000Z</time>
      </trkpt>
      <trkpt lat="47.26158" lon="-2.31971">
        <ele>-6.5999999046326</ele>
        <time>2019-12-01T11:32:01.000Z</time>
      </trkpt>
      <trkpt lat="47.26157" lon="-2.31963">
        <ele>-6.5999999046326</ele>
        <time>2019-12-01T11:32:02.000Z</time>
      </trkpt>
      <trkpt lat="47.26152" lon="-2.31931">
        <ele>-6.5999999046326</ele>
        <time>2019-12-01T11:32:06.000Z</time>
      </trkpt>
      <trkpt lat="47.26144" lon="-2.31874">
        <ele>-6.5999999046326</ele>
        <time>2019-12-01T11:32:13.000Z</time>
      </trkpt>
      <trkpt lat="47.26137" lon="-2.31826">
        <ele>-6.5999999046326</ele>
        <time>2019-12-01T11:32:19.000Z</time>
      </trkpt>
      <trkpt lat="47.26132" lon="-2.31777">
        <ele>-6.5999999046326</ele>
        <time>2019-12-01T11:32:25.000Z</time>
      </trkpt>
      <trkpt lat="47.26126" lon="-2.31721">
        <ele>-6.5999999046326</ele>
        <time>2019-12-01T11:32:32.000Z</time>
      </trkpt>
      <trkpt lat="47.26122" lon="-2.31686">
        <ele>-6.5999999046326</ele>
        <time>2019-12-01T11:32:37.000Z</time>
      </trkpt>
      <trkpt lat="47.26113" lon="-2.3164">
        <ele>-6.5999999046326</ele>
        <time>2019-12-01T11:32:43.000Z</time>
      </trkpt>
      <trkpt lat="47.26112" lon="-2.31633">
        <ele>-6.5999999046326</ele>
        <time>2019-12-01T11:32:44.000Z</time>
      </trkpt>
      <trkpt lat="47.26115" lon="-2.31619">
        <ele>-6.5999999046326</ele>
        <time>2019-12-01T11:32:46.000Z</time>
      </trkpt>
      <trkpt lat="47.26127" lon="-2.3161">
        <ele>-6.5999999046326</ele>
        <time>2019-12-01T11:32:49.000Z</time>
      </trkpt>
      <trkpt lat="47.26141" lon="-2.31609">
        <ele>-6.5999999046326</ele>
        <time>2019-12-01T11:32:52.000Z</time>
      </trkpt>
      <trkpt lat="47.26146" lon="-2.31608">
        <ele>-6.5999999046326</ele>
        <time>2019-12-01T11:32:53.000Z</time>
      </trkpt>
      <trkpt lat="47.26174" lon="-2.31599">
        <ele>-6.5999999046326</ele>
        <time>2019-12-01T11:32:58.000Z</time>
      </trkpt>
      <trkpt lat="47.26189" lon="-2.31595">
        <ele>-6.5999999046326</ele>
        <time>2019-12-01T11:33:01.000Z</time>
      </trkpt>
      <trkpt lat="47.262" lon="-2.31592">
        <ele>-6.5999999046326</ele>
        <time>2019-12-01T11:33:03.000Z</time>
      </trkpt>
      <trkpt lat="47.26215" lon="-2.3159">
        <ele>-6.5999999046326</ele>
        <time>2019-12-01T11:33:06.000Z</time>
      </trkpt>
      <trkpt lat="47.26223" lon="-2.31594">
        <ele>-6.5999999046326</ele>
        <time>2019-12-01T11:33:08.000Z</time>
      </trkpt>
      <trkpt lat="47.26243" lon="-2.31612">
        <ele>-6.5999999046326</ele>
        <time>2019-12-01T11:33:13.000Z</time>
      </trkpt>
      <trkpt lat="47.2626" lon="-2.31639">
        <ele>-6.5999999046326</ele>
        <time>2019-12-01T11:33:18.000Z</time>
      </trkpt>
      <trkpt lat="47.26266" lon="-2.3165">
        <ele>-6.5999999046326</ele>
        <time>2019-12-01T11:33:20.000Z</time>
      </trkpt>
      <trkpt lat="47.26275" lon="-2.31669">
        <ele>-6.5999999046326</ele>
        <time>2019-12-01T11:33:23.000Z</time>
      </trkpt>
      <trkpt lat="47.26281" lon="-2.31679">
        <ele>-6.5999999046326</ele>
        <time>2019-12-01T11:33:25.000Z</time>
      </trkpt>
      <trkpt lat="47.2629" lon="-2.31694">
        <ele>-6.5999999046326</ele>
        <time>2019-12-01T11:33:28.000Z</time>
      </trkpt>
      <trkpt lat="47.26296" lon="-2.31704">
        <ele>-6.5999999046326</ele>
        <time>2019-12-01T11:33:30.000Z</time>
      </trkpt>
      <trkpt lat="47.26308" lon="-2.31707">
        <ele>-6.5999999046326</ele>
        <time>2019-12-01T11:33:33.000Z</time>
      </trkpt>
      <trkpt lat="47.26317" lon="-2.31704">
        <ele>-6.5999999046326</ele>
        <time>2019-12-01T11:33:35.000Z</time>
      </trkpt>
      <trkpt lat="47.26328" lon="-2.31699">
        <ele>-6.5999999046326</ele>
        <time>2019-12-01T11:33:38.000Z</time>
      </trkpt>
      <trkpt lat="47.26331" lon="-2.31696">
        <ele>-6.5999999046326</ele>
        <time>2019-12-01T11:33:39.000Z</time>
      </trkpt>
      <trkpt lat="47.26335" lon="-2.31687">
        <ele>-6.1999998092651</ele>
        <time>2019-12-01T11:33:41.000Z</time>
      </trkpt>
      <trkpt lat="47.26338" lon="-2.31685">
        <ele>-5.8000001907349</ele>
        <time>2019-12-01T11:33:42.000Z</time>
      </trkpt>
      <trkpt lat="47.26341" lon="-2.31684">
        <ele>-5.4000000953674</ele>
        <time>2019-12-01T11:33:43.000Z</time>
      </trkpt>
      <trkpt lat="47.26344" lon="-2.31683">
        <ele>-5</ele>
        <time>2019-12-01T11:33:44.000Z</time>
      </trkpt>
      <trkpt lat="47.26347" lon="-2.31682">
        <ele>-4.5999999046326</ele>
        <time>2019-12-01T11:33:45.000Z</time>
      </trkpt>
      <trkpt lat="47.26357" lon="-2.31678">
        <ele>-4.5999999046326</ele>
        <time>2019-12-01T11:33:48.000Z</time>
      </trkpt>
      <trkpt lat="47.2636" lon="-2.31677">
        <ele>-4.5999999046326</ele>
        <time>2019-12-01T11:33:49.000Z</time>
      </trkpt>
      <trkpt lat="47.26374" lon="-2.3167">
        <ele>-4.1999998092651</ele>
        <time>2019-12-01T11:33:53.000Z</time>
      </trkpt>
      <trkpt lat="47.26378" lon="-2.31669">
        <ele>-3.7999999523163</ele>
        <time>2019-12-01T11:33:54.000Z</time>
      </trkpt>
      <trkpt lat="47.26381" lon="-2.31666">
        <ele>-3.4000000953674</ele>
        <time>2019-12-01T11:33:55.000Z</time>
      </trkpt>
      <trkpt lat="47.26385" lon="-2.31664">
        <ele>-3</ele>
        <time>2019-12-01T11:33:56.000Z</time>
      </trkpt>
      <trkpt lat="47.26388" lon="-2.31662">
        <ele>-2.4000000953674</ele>
        <time>2019-12-01T11:33:57.000Z</time>
      </trkpt>
      <trkpt lat="47.26401" lon="-2.31655">
        <ele>-2.4000000953674</ele>
        <time>2019-12-01T11:34:01.000Z</time>
      </trkpt>
      <trkpt lat="47.2641" lon="-2.31644">
        <ele>-2.4000000953674</ele>
        <time>2019-12-01T11:34:05.000Z</time>
      </trkpt>
      <trkpt lat="47.26409" lon="-2.31641">
        <ele>-2.4000000953674</ele>
        <time>2019-12-01T11:34:06.000Z</time>
      </trkpt>
      <trkpt lat="47.2641" lon="-2.31626">
        <ele>-2.4000000953674</ele>
        <time>2019-12-01T11:34:10.000Z</time>
      </trkpt>
      <trkpt lat="47.26411" lon="-2.31592">
        <ele>-2.4000000953674</ele>
        <time>2019-12-01T11:34:16.000Z</time>
      </trkpt>
      <trkpt lat="47.26411" lon="-2.31566">
        <ele>-2.4000000953674</ele>
        <time>2019-12-01T11:34:21.000Z</time>
      </trkpt>
      <trkpt lat="47.26412" lon="-2.31553">
        <ele>-2.4000000953674</ele>
        <time>2019-12-01T11:34:24.000Z</time>
      </trkpt>
      <trkpt lat="47.26415" lon="-2.31551">
        <ele>-2</ele>
        <time>2019-12-01T11:34:25.000Z</time>
      </trkpt>
      <trkpt lat="47.26416" lon="-2.31552">
        <ele>-1.6000000238419</ele>
        <time>2019-12-01T11:34:26.000Z</time>
      </trkpt>
      <trkpt lat="47.26418" lon="-2.31552">
        <ele>-1.2000000476837</ele>
        <time>2019-12-01T11:34:27.000Z</time>
      </trkpt>
      <trkpt lat="47.26418" lon="-2.31552">
        <ele>-0.80000001192093</ele>
        <time>2019-12-01T11:34:28.000Z</time>
      </trkpt>
      <trkpt lat="47.26418" lon="-2.31552">
        <ele>-0.40000000596046</ele>
        <time>2019-12-01T11:34:29.000Z</time>
      </trkpt>
    </trkseg>
  </trk>
</gpx>